# Wetter Temperatur Luftdruck Luftfeuchtigkeit Sichtweite Windgeschwindigkeit Windrichtung Zeit
1 Clear 4 1021 71 10000 0.5 0 01:57 05.04.2020
2 Clear 4 1021 71 10000 0.5 0 01:39 05.04.2020
3 Clear 5 1021 71 10000 0.5 0 00:52 05.04.2020
4 Clear 5 1021 71 10000 0.5 0 00:52 05.04.2020
5 Clear 6 1021 80 10000 1 180 00:23 05.04.2020
6 Clear 5 1021 80 10000 1 180 23:58 04.04.2020
7 Clear 6 1021 75 10000 2.1 90 23:39 04.04.2020
8 Clear 6 1021 80 10000 1 0 23:21 04.04.2020
9 Clear 6 1021 80 10000 1 0 22:56 04.04.2020
10 Clear 7 1021 80 10000 1 100 22:38 04.04.2020
11 Clear 7 1021 65 10000 0.5 0 22:19 04.04.2020
12 Clear 7 1021 65 10000 0.5 0 21:56 04.04.2020
13 Clear 8 1021 70 10000 1 0 21:38 04.04.2020
14 Clear 9 1020 61 10000 0.5 0 21:18 04.04.2020
15 Clear 10 1020 46 10000 1.5 90 20:43 04.04.2020
16 Clear 11 1020 46 10000 1.5 90 20:23 04.04.2020
17 Clear 12 1020 43 10000 2.1 50 19:59 04.04.2020
18 Clear 12 1020 43 10000 2.1 50 19:59 04.04.2020
19 Clear 12 1020 41 10000 2.1 10 19:40 04.04.2020
20 Clear 14 1019 41 10000 3.1 340 19:20 04.04.2020
21 Clear 14 1019 41 10000 3.1 340 18:59 04.04.2020
22 Clear 14 1019 36 10000 2.1 0 18:39 04.04.2020
23 Clear 14 1019 36 10000 2.1 0 18:39 04.04.2020
24 Clear 15 1019 38 10000 3.6 320 18:20 04.04.2020
25 Clear 15 1019 33 10000 3.1 280 17:58 04.04.2020
26 Clear 15 1019 33 10000 3.1 280 17:38 04.04.2020
27 Clear 15 1019 33 10000 3.1 270 17:19 04.04.2020
28 Clear 15 1020 36 10000 1.5 0 16:45 04.04.2020
29 Clear 15 1020 36 10000 1.5 0 16:27 04.04.2020
30 Clear 15 1020 36 10000 2.1 300 15:59 04.04.2020
31 Clear 15 1020 38 10000 3.6 320 15:39 04.04.2020
32 Clouds 14 1020 36 10000 3.6 330 15:19 04.04.2020
33 Clear 14 1020 36 10000 3.6 330 15:19 04.04.2020
34 Clouds 14 1020 38 10000 2.6 290 14:54 04.04.2020
35 Clear 14 1020 38 10000 2.6 290 14:36 04.04.2020
36 Clouds 14 1020 41 10000 1 0 14:18 04.04.2020
37 Clear 13 1021 43 10000 1.5 0 13:41 04.04.2020
38 Clear 12 1021 50 10000 1.5 300 13:21 04.04.2020
39 Clear 12 1021 50 10000 1.5 300 13:21 04.04.2020
40 Clear 12 1021 50 10000 1.5 300 12:58 04.04.2020
41 Clear 11 1021 50 10000 1.5 260 12:39 04.04.2020
42 Clear 10 1021 50 10000 1.5 0 12:20 04.04.2020
43 Clear 9 1021 57 10000 1 250 11:42 04.04.2020
44 Clear 9 1022 57 10000 1 120 11:23 04.04.2020
45 Clear 8 1022 57 10000 1 120 10:59 04.04.2020
46 Clear 8 1022 61 10000 1 150 10:40 04.04.2020
47 Clear 7 1021 48 10000 1 0 10:22 04.04.2020
48 Clear 6 1021 48 10000 1 0 09:57 04.04.2020
49 Clear 6 1021 80 10000 1 120 09:39 04.04.2020
50 Clear 3 1021 69 10000 1 140 09:20 04.04.2020
51 Clear 2 1021 69 10000 1 150 08:44 04.04.2020
52 Clear 2 1021 69 10000 1 150 08:23 04.04.2020
53 Clear 1 1021 92 10000 1 140 07:59 04.04.2020
54 Clear 0 1020 92 9000 1 190 07:39 04.04.2020
55 Clear 0 1020 92 10000 0.5 0 07:21 04.04.2020
56 Clear 1 1020 69 8000 1.11 85 06:38 04.04.2020
57 Clear 1 1020 92 10000 0.5 0 05:52 04.04.2020
58 Clear 1 1020 92 10000 0.5 0 05:52 04.04.2020
59 Clear 1 1020 92 10000 0.5 0 05:32 04.04.2020
60 Clear 1 1019 86 10000 0.5 0 04:34 04.04.2020
61 Clear 1 1019 92 10000 0.5 0 03:57 04.04.2020
62 Clear 2 1019 86 10000 2.1 150 03:36 04.04.2020
63 Clouds 2 1019 69 10000 0.5 0 02:46 04.04.2020
64 Clouds 3 1019 69 10000 0.5 0 02:25 04.04.2020
65 Clouds 3 1019 70 10000 0.5 0 01:31 04.04.2020
66 Clouds 4 1019 80 10000 1 0 00:59 04.04.2020
67 Clouds 4 1019 80 10000 0.5 0 00:35 04.04.2020
68 Clouds 5 1019 64 10000 1 0 23:59 03.04.2020
69 Clouds 5 1019 80 10000 0.5 0 23:38 03.04.2020
70 Clouds 5 1019 74 10000 0.5 0 23:19 03.04.2020
71 Clouds 6 1019 65 10000 1 0 22:41 03.04.2020
72 Clouds 6 1018 60 10000 0.5 0 22:19 03.04.2020
73 Clouds 6 1018 60 10000 0.5 0 21:59 03.04.2020
74 Clouds 7 1018 52 10000 1.5 0 21:40 03.04.2020
75 Clouds 7 1017 52 10000 1 0 21:21 03.04.2020
76 Clouds 8 1017 52 10000 1 0 20:56 03.04.2020
77 Clouds 8 1017 43 10000 2.1 330 20:36 03.04.2020
78 Clouds 8 1017 43 10000 2.1 330 20:36 03.04.2020
79 Clouds 9 1017 40 10000 3.1 360 20:18 03.04.2020
80 Clouds 10 1017 40 10000 3.1 360 19:56 03.04.2020
81 Clouds 10 1016 37 10000 3.6 360 19:37 03.04.2020
82 Clouds 11 1016 35 10000 3.1 350 19:19 03.04.2020
83 Clouds 11 1016 32 10000 2.1 320 18:58 03.04.2020
84 Clouds 12 1016 32 10000 2.1 320 18:40 03.04.2020
85 Clouds 12 1015 35 10000 3.6 330 18:21 03.04.2020
86 Clouds 12 1015 35 10000 3.6 320 17:42 03.04.2020
87 Clouds 12 1015 33 10000 1.5 330 17:20 03.04.2020
88 Clouds 12 1015 33 10000 1.5 330 16:56 03.04.2020
89 Clouds 12 1015 33 10000 2.6 0 16:38 03.04.2020
90 Clouds 12 1015 32 10000 2.6 0 16:20 03.04.2020
91 Clouds 12 1015 32 10000 2.6 0 15:56 03.04.2020
92 Clouds 12 1015 35 10000 2.1 340 15:37 03.04.2020
93 Clouds 12 1015 43 10000 4.1 310 15:19 03.04.2020
94 Clouds 11 1016 43 10000 3.1 340 14:41 03.04.2020
95 Clouds 11 1016 42 10000 3.1 340 14:22 03.04.2020
96 Clouds 11 1016 42 10000 3.1 340 13:57 03.04.2020
97 Clouds 11 1016 42 10000 3.1 340 13:37 03.04.2020
98 Clouds 11 1016 40 10000 3.6 300 13:18 03.04.2020
99 Clouds 10 1016 40 10000 3.6 300 12:43 03.04.2020
100 Clear 9 1016 40 10000 3.6 320 12:20 03.04.2020
101 Clear 9 1016 46 10000 1 0 11:56 03.04.2020
102 Clear 9 1016 46 10000 1 0 11:37 03.04.2020
103 Clear 8 1016 52 10000 1 0 11:18 03.04.2020
104 Clear 8 1016 52 10000 1 0 10:57 03.04.2020
105 Clear 7 1015 56 10000 0.5 0 10:38 03.04.2020
106 Clear 7 1015 60 10000 0.5 0 10:20 03.04.2020
107 Clear 7 1015 60 10000 0.5 0 10:20 03.04.2020
108 Clear 6 1015 60 10000 0.5 0 09:57 03.04.2020
109 Clear 5 1015 65 10000 1 0 09:39 03.04.2020
110 Clear 5 1015 65 10000 1 0 09:39 03.04.2020
111 Clear 3 1015 74 10000 0.5 0 09:21 03.04.2020
112 Clouds 2 1015 73 10000 1 0 08:55 03.04.2020
113 Clouds 2 1015 73 10000 1 0 08:36 03.04.2020
114 Clouds 1 1015 92 10000 0.5 0 08:18 03.04.2020
115 Clouds 1 1014 92 10000 1 140 07:41 03.04.2020
116 Clouds 1 1014 92 10000 1 140 07:23 03.04.2020
117 Clouds 1 1014 92 10000 0.5 0 06:38 03.04.2020
118 Clouds 1 1014 75 10000 0.27 97 06:20 03.04.2020
119 Clouds 1 1014 75 10000 0.5 0 05:34 03.04.2020
120 Clouds 2 1013 75 10000 1 0 03:40 03.04.2020
121 Clouds 2 1013 73 10000 0.5 0 02:53 03.04.2020
122 Clouds 3 1013 72 10000 0.5 0 01:36 03.04.2020
123 Clouds 4 1013 72 10000 0.5 0 01:18 03.04.2020
124 Clouds 3 1013 86 10000 0.5 0 00:34 03.04.2020
125 Clouds 4 1013 80 10000 0.5 0 23:57 02.04.2020
126 Clouds 4 1013 80 10000 0.5 0 23:39 02.04.2020
127 Clouds 4 1012 74 10000 0.5 0 23:19 02.04.2020
128 Clouds 4 1012 74 10000 0.5 0 23:19 02.04.2020
129 Clouds 4 1012 74 10000 0.5 0 23:19 02.04.2020
130 Clouds 4 1012 69 10000 1 0 22:43 02.04.2020
131 Clouds 4 1012 69 10000 1 0 22:25 02.04.2020
132 Clouds 5 1012 64 10000 0.5 0 21:59 02.04.2020
133 Clouds 6 1012 52 10000 1 0 21:37 02.04.2020
134 Rain 7 1011 48 10000 2.6 290 21:19 02.04.2020
135 Rain 8 1011 42 10000 2.6 330 20:55 02.04.2020
136 Rain 8 1011 42 10000 2.6 330 20:37 02.04.2020
137 Rain 10 1010 40 10000 2.6 270 20:18 02.04.2020
138 Rain 10 1010 40 10000 3.6 310 19:42 02.04.2020
139 Rain 12 1010 37 10000 3.6 300 19:20 02.04.2020
140 Rain 12 1010 37 10000 3.6 300 19:20 02.04.2020
141 Rain 12 1010 37 10000 3.6 300 19:20 02.04.2020
142 Rain 12 1010 33 10000 3.1 290 18:57 02.04.2020
143 Rain 12 1010 33 10000 3.1 290 18:39 02.04.2020
144 Clouds 13 1010 28 10000 4.1 270 18:19 02.04.2020
145 Clouds 13 1010 30 10000 3.6 290 17:44 02.04.2020
146 Clouds 13 1010 26 10000 3.6 280 17:26 02.04.2020
147 Clouds 13 1010 26 10000 3.6 280 16:59 02.04.2020
148 Clouds 13 1010 22 10000 5.7 310 16:41 02.04.2020
149 Clouds 13 1011 24 10000 3.1 270 16:22 02.04.2020
150 Clouds 13 1011 24 10000 3.1 270 15:59 02.04.2020
151 Clouds 13 1011 24 10000 3.1 270 15:59 02.04.2020
152 Clouds 13 1011 33 10000 4.1 240 15:40 02.04.2020
153 Clouds 13 1011 37 10000 3.6 270 15:20 02.04.2020
154 Clouds 13 1011 37 10000 3.6 270 14:58 02.04.2020
155 Clouds 12 1011 37 10000 2.1 220 14:39 02.04.2020
156 Clouds 12 1011 37 10000 4.1 290 14:19 02.04.2020
157 Clouds 12 1012 40 10000 3.6 310 13:55 02.04.2020
158 Clouds 12 1012 40 10000 3.6 310 13:37 02.04.2020
159 Clouds 11 1012 40 10000 3.1 320 13:19 02.04.2020
160 Clouds 11 1012 43 10000 1.5 0 12:46 02.04.2020
161 Clouds 9 1012 45 10000 1 0 12:20 02.04.2020
162 Clouds 9 1012 45 10000 1 0 12:20 02.04.2020
163 Clouds 9 1012 45 10000 1 0 11:58 02.04.2020
164 Clouds 9 1013 57 10000 1.02 261 11:39 02.04.2020
165 Clouds 9 1013 57 10000 1.02 261 11:39 02.04.2020
166 Clouds 9 1013 57 10000 1.02 261 11:39 02.04.2020
167 Clouds 8 1013 45 10000 1.02 261 11:21 02.04.2020
168 Clouds 7 1013 45 10000 1.02 261 10:57 02.04.2020
169 Clouds 7 1013 45 10000 1.02 261 10:39 02.04.2020
170 Clouds 5 1013 69 10000 1 0 10:21 02.04.2020
171 Clouds 5 1013 69 10000 1 0 09:59 02.04.2020
172 Clouds 4 1013 80 10000 1 0 09:41 02.04.2020
173 Clouds 2 1013 80 10000 0.5 0 09:22 02.04.2020
174 Clear 0 1014 92 10000 1 176 08:48 02.04.2020
175 Clear 0 1014 92 10000 1 176 08:29 02.04.2020
176 Clear -1 1013 92 10000 1 0 07:59 02.04.2020
177 Clear -1 1013 92 10000 1 0 07:59 02.04.2020
178 Clear -1 1013 92 10000 1 0 07:41 02.04.2020
179 Clear -1 1013 100 10000 1 0 07:19 02.04.2020
180 Clear -1 1013 92 10000 1 140 06:25 02.04.2020
181 Clear -1 1013 92 10000 1 140 05:59 02.04.2020
182 Clear -2 1013 92 8000 0.5 0 05:41 02.04.2020
183 Clear 0 1014 92 10000 0.5 0 02:46 02.04.2020
184 Clear 1 1014 86 10000 0.5 230 01:28 02.04.2020
185 Clear 1 1014 86 10000 1 150 00:42 02.04.2020
186 Clear 1 1015 92 10000 0.5 100 00:22 02.04.2020
187 Clear 2 1015 72 10000 0.5 0 23:41 01.04.2020
188 Clear 2 1014 74 10000 0.5 0 23:20 01.04.2020
189 Clear 2 1014 74 10000 0.5 0 22:58 01.04.2020
190 Clear 2 1014 80 10000 0.5 0 22:39 01.04.2020
191 Clear 4 1014 69 10000 0.5 0 22:20 01.04.2020
192 Clear 4 1014 69 10000 0.5 0 21:42 01.04.2020
193 -273 0 0 0 0 0 21:20 01.04.2020
194 Clear 5 1014 60 10000 0.5 0 21:19 01.04.2020
195 Clear 5 1014 60 10000 0.5 0 20:57 01.04.2020
196 Clear 5 1014 52 10000 0.5 270 20:39 01.04.2020
197 Clear 7 1014 39 10000 1.5 320 20:20 01.04.2020
198 Clear 7 1014 39 10000 1.5 320 20:20 01.04.2020
199 Clear 8 1014 39 10000 1.5 320 19:59 01.04.2020
200 Clear 9 1014 37 10000 2.6 320 19:40 01.04.2020
201 Clear 10 1014 32 10000 2.6 310 19:20 01.04.2020
202 Clear 11 1014 34 10000 3.1 290 18:44 01.04.2020
203 Clear 11 1014 34 10000 2.6 330 18:25 01.04.2020
204 Clear 11 1014 40 10000 2.6 330 17:58 01.04.2020
205 Clear 11 1014 40 10000 2.6 330 17:38 01.04.2020
206 Clear 12 1014 37 10000 2.6 340 17:19 01.04.2020
207 Clear 11 1015 40 10000 2.6 360 16:58 01.04.2020
208 Clear 11 1014 37 10000 2.6 340 16:58 01.04.2020
209 Clear 11 1015 40 10000 2.6 360 16:39 01.04.2020
210 Clear 11 1015 37 10000 2.1 20 16:21 01.04.2020
211 Clear 11 1015 37 10000 2.1 20 15:57 01.04.2020
212 Clear 11 1016 37 10000 2.1 0 15:57 01.04.2020
213 Clear 11 1016 37 10000 2.1 0 15:37 01.04.2020
214 Clear 11 1016 43 10000 1.5 0 15:18 01.04.2020
215 Clear 10 1016 43 10000 1.5 0 14:55 01.04.2020
216 Clear 10 1016 43 10000 2.1 0 14:55 01.04.2020
217 Clear 10 1016 43 10000 2.1 0 14:36 01.04.2020
218 Clear 9 1017 45 10000 1.5 0 14:18 01.04.2020
219 Clear 9 1017 45 10000 1.5 0 13:55 01.04.2020
220 Clear 9 1017 45 10000 2.6 270 13:36 01.04.2020
221 Clear 8 1018 35 10000 1.5 40 13:18 01.04.2020
222 Clear 7 1018 48 10000 2.1 0 12:42 01.04.2020
223 Clear 6 1018 48 10000 1.5 0 12:23 01.04.2020
224 Clear 6 1018 48 10000 1.5 0 11:59 01.04.2020
225 Clear 5 1019 56 10000 1 0 11:39 01.04.2020
226 Clear 4 1019 55 10000 1 0 11:20 01.04.2020
227 Clear 3 1019 59 10000 1.15 9 10:42 01.04.2020
228 Clear 2 1019 64 10000 1.15 9 10:23 01.04.2020
229 Clear 2 1019 64 10000 1.15 9 09:59 01.04.2020
230 Clear 1 1019 46 10000 1.15 9 09:40 01.04.2020
231 Clear -1 1019 74 10000 1 160 09:21 01.04.2020
232 Clear -1 1019 74 10000 1 160 08:57 01.04.2020
233 Clear -2 1020 79 10000 1 130 08:38 01.04.2020
234 Clear -3 1019 85 10000 0.81 80 08:18 01.04.2020
235 Clear -3 1019 92 10000 0.81 80 07:41 01.04.2020
236 Clear -4 1019 85 10000 0.5 0 07:19 01.04.2020
237 Clear -3 1019 85 10000 0.5 0 06:47 01.04.2020
238 Clear -3 1019 85 10000 0.5 0 06:21 01.04.2020
239 Clear -3 1019 85 10000 1.5 110 05:50 01.04.2020
240 Clear -3 1019 85 10000 0.5 0 04:29 01.04.2020
241 Clear -2 1020 79 10000 0.5 0 03:20 01.04.2020
242 Clear -1 1020 74 10000 1.5 270 02:37 01.04.2020
243 Clear -1 1020 74 10000 0.5 20 01:53 01.04.2020
244 Clear -1 1020 74 10000 0.5 20 01:27 01.04.2020
245 Clear 0 1020 63 10000 0.5 0 00:47 01.04.2020
246 Clear 0 1021 55 10000 0.5 0 00:23 01.04.2020
247 Clear 1 1021 55 10000 0.5 0 23:59 31.03.2020
248 Clear 1 1021 74 10000 0.5 0 23:40 31.03.2020
249 Clear 1 1021 55 10000 1 0 23:21 31.03.2020
250 Clear 1 1021 51 10000 1 0 22:41 31.03.2020
251 Clear 2 1021 55 10000 1.5 0 22:21 31.03.2020
252 Clear 2 1021 41 10000 1.5 0 21:58 31.03.2020
253 Clear 2 1021 41 10000 1.5 0 21:58 31.03.2020
254 Clear 2 1021 41 10000 1.5 0 21:40 31.03.2020
255 Clear 2 1021 41 10000 1.5 0 21:40 31.03.2020
256 Clouds 3 1021 41 10000 2.1 60 21:21 31.03.2020
257 Clear 3 1021 41 10000 2.1 60 20:57 31.03.2020
258 Clear 4 1021 33 10000 3.1 50 20:37 31.03.2020
259 Clear 5 1021 33 10000 3.1 50 20:19 31.03.2020
260 Clear 5 1021 35 10000 3.6 40 19:56 31.03.2020
261 Clear 6 1021 35 10000 3.6 40 19:38 31.03.2020
262 Clear 6 1021 36 10000 4.6 50 19:19 31.03.2020
263 Clear 7 1021 31 10000 4.1 50 18:44 31.03.2020
264 Clear 7 1021 31 10000 5.1 50 18:20 31.03.2020
265 Clear 8 1021 31 10000 4.6 50 17:57 31.03.2020
266 Clear 8 1021 31 10000 4.6 50 17:39 31.03.2020
267 Clear 8 1021 31 10000 4.6 50 17:39 31.03.2020
268 Clear 8 1020 31 10000 5.1 10 17:21 31.03.2020
269 Clear 8 1020 31 10000 5.1 10 16:56 31.03.2020
270 Clear 8 1020 31 10000 4.6 40 16:36 31.03.2020
271 Clear 8 1021 31 10000 5.1 60 16:18 31.03.2020
272 Clear 8 1021 31 10000 4.6 40 15:55 31.03.2020
273 Clear 8 1021 31 10000 4.6 40 15:36 31.03.2020
274 Clear 8 1021 33 10000 4.1 40 15:18 31.03.2020
275 Clear 7 1021 36 10000 5.1 30 14:42 31.03.2020
276 Clear 8 1021 36 10000 5.1 30 14:23 31.03.2020
277 Clear 7 1021 36 10000 4.1 50 13:59 31.03.2020
278 Clear 7 1021 36 10000 4.6 50 13:40 31.03.2020
279 Clear 6 1021 36 10000 4.1 50 13:19 31.03.2020
280 Clear 6 1021 36 10000 4.1 50 13:19 31.03.2020
281 Clear 6 1021 38 10000 4.1 40 12:45 31.03.2020
282 Clear 5 1021 38 10000 3.1 10 12:20 31.03.2020
283 Clear 4 1021 38 10000 3.1 10 11:56 31.03.2020
284 Clear 4 1021 41 10000 3.6 30 11:37 31.03.2020
285 Clear 4 1022 48 10000 2.6 0 11:19 31.03.2020
286 Clear 3 1022 48 10000 2.6 0 10:55 31.03.2020
287 Clear 3 1022 48 10000 2.6 0 10:55 31.03.2020
288 Clear 3 1022 51 10000 1.5 360 10:37 31.03.2020
289 Clear 2 1021 55 10000 2.6 350 10:18 31.03.2020
290 Clear 1 1021 59 10000 1.5 0 09:44 31.03.2020
291 Clear 0 1021 51 10000 1 0 09:25 31.03.2020
292 Clear -1 1021 87 10000 1 0 08:58 31.03.2020
293 Clear -2 1021 74 10000 1 0 08:40 31.03.2020
294 Clear -2 1021 79 10000 0.5 0 08:20 31.03.2020
295 Clear -3 1021 79 10000 0.5 0 07:57 31.03.2020
296 Clear -3 1021 68 10000 1 0 07:38 31.03.2020
297 Clear -3 1021 68 10000 1 0 07:20 31.03.2020
298 Clear -3 1021 68 10000 1 0 07:20 31.03.2020
299 Clear -3 1020 73 10000 0.5 0 06:51 31.03.2020
300 Clear -3 1020 73 10000 0.5 0 06:31 31.03.2020
301 Clear -2 1020 63 10000 1 0 05:41 31.03.2020
302 Clear -2 1020 68 10000 2.1 10 04:33 31.03.2020
303 Clear -2 1020 74 10000 2.6 20 02:30 31.03.2020
304 Clear -1 1020 86 10000 1.5 10 01:46 31.03.2020
305 Clear -1 1021 64 10000 2.6 40 00:53 31.03.2020
306 Clear -1 1021 64 10000 3.6 50 00:25 31.03.2020
307 Clear 0 1021 64 10000 3.6 50 23:59 30.03.2020
308 Clear 0 1021 64 10000 3.6 50 23:38 30.03.2020
309 Clouds 0 1021 69 10000 2.1 60 23:19 30.03.2020
310 Clouds 0 1021 64 10000 3.1 60 22:56 30.03.2020
311 Clouds 0 1021 64 10000 3.1 60 22:37 30.03.2020
312 Clouds 0 1021 64 10000 3.1 60 22:37 30.03.2020
313 Clouds 0 1021 69 10000 3.1 50 22:18 30.03.2020
314 Clouds 1 1021 69 10000 3.1 50 21:55 30.03.2020
315 Clouds 1 1021 69 10000 3.1 50 21:37 30.03.2020
316 Clouds 1 1021 69 10000 3.1 50 21:18 30.03.2020
317 Clouds 1 1021 69 10000 2.6 50 20:42 30.03.2020
318 Clouds 2 1021 69 10000 4.1 40 20:24 30.03.2020
319 Clouds 2 1021 69 10000 4.1 40 19:59 30.03.2020
320 Clouds 2 1020 69 10000 4.1 40 19:40 30.03.2020
321 Clouds 2 1020 69 10000 4.1 0 19:22 30.03.2020
322 Clouds 2 1020 69 10000 4.1 0 18:57 30.03.2020
323 Clouds 2 1020 69 10000 3.6 70 18:38 30.03.2020
324 Clouds 3 1020 69 10000 3.1 0 18:20 30.03.2020
325 Clouds 3 1020 64 10000 4.1 0 17:57 30.03.2020
326 Clouds 3 1020 64 10000 4.1 0 17:38 30.03.2020
327 Clouds 3 1020 69 10000 5.1 60 17:19 30.03.2020
328 Clouds 3 1020 69 10000 3.6 60 16:55 30.03.2020
329 Clouds 3 1020 69 10000 3.6 60 16:37 30.03.2020
330 Clouds 3 1020 69 10000 3.6 60 16:37 30.03.2020
331 Clouds 3 1020 69 10000 5.1 90 16:18 30.03.2020
332 Clouds 3 1020 69 10000 3.6 70 15:54 30.03.2020
333 Clouds 3 1020 69 10000 3.6 70 15:36 30.03.2020
334 Clouds 2 1020 69 10000 6.7 50 15:18 30.03.2020
335 Clouds 2 1020 74 10000 6.7 50 14:39 30.03.2020
336 Clouds 2 1020 69 10000 4.1 40 14:19 30.03.2020
337 Clouds 2 1020 69 10000 4.1 40 13:59 30.03.2020
338 Clouds 2 1020 74 10000 5.1 50 13:40 30.03.2020
339 Clouds 2 1020 74 10000 4.1 40 13:20 30.03.2020
340 Clouds 2 1020 74 10000 4.1 0 12:55 30.03.2020
341 Clouds 2 1020 74 10000 4.1 0 12:36 30.03.2020
342 Clouds 1 1020 74 10000 3.6 40 12:18 30.03.2020
343 Clouds 1 1020 74 10000 3.6 40 12:18 30.03.2020
344 Clouds 1 1020 74 10000 4.1 50 11:55 30.03.2020
345 Clouds 1 1020 74 10000 4.1 50 11:37 30.03.2020
346 Clouds 1 1020 80 10000 4.1 40 11:18 30.03.2020
347 Clouds 1 1020 80 10000 5.7 40 10:39 30.03.2020
348 Clouds 1 1019 74 10000 6.2 40 10:21 30.03.2020
349 Clouds 1 1019 74 10000 5.1 30 09:54 30.03.2020
350 Clouds 1 1019 74 10000 5.1 30 09:36 30.03.2020
351 Clouds 0 1018 80 10000 6.2 40 09:18 30.03.2020
352 Clouds 0 1018 80 10000 4.1 50 08:40 30.03.2020
353 Clouds 0 1018 80 10000 4.6 50 08:21 30.03.2020
354 Clouds 0 1018 80 10000 4.1 50 07:48 30.03.2020
355 Clouds 1 1018 74 10000 3.6 50 07:25 30.03.2020
356 Clouds 1 1018 80 10000 3.6 40 06:52 30.03.2020
357 Clouds 1 1018 80 10000 3.6 40 06:30 30.03.2020
358 Rain 1 1018 74 10000 4.1 50 05:47 30.03.2020
359 Rain 1 1018 74 10000 3.6 50 05:18 30.03.2020
360 Rain 1 1019 76 10000 2.6 0 04:21 30.03.2020
361 Drizzle 1 1019 76 10000 3.1 0 03:19 30.03.2020
362 Drizzle 1 1019 76 10000 2.1 10 02:37 30.03.2020
363 Drizzle 1 1019 76 10000 1.5 0 01:26 30.03.2020
364 Snow 1 1019 76 10000 2.1 350 00:33 30.03.2020
365 Drizzle 1 1019 76 10000 1 0 23:59 29.03.2020
366 Drizzle 1 1019 76 9000 2.1 0 23:41 29.03.2020
367 Drizzle 1 1019 76 10000 1.5 0 23:22 29.03.2020
368 Drizzle 1 1019 76 10000 1.5 0 22:57 29.03.2020
369 Drizzle 1 1019 76 10000 1.5 0 22:37 29.03.2020
370 Snow 1 1019 76 10000 1.5 260 22:18 29.03.2020
371 Rain 2 1019 76 10000 1.5 0 21:40 29.03.2020
372 Rain 2 1019 76 10000 0.5 0 21:21 29.03.2020
373 Rain 2 1019 76 10000 1.5 0 20:56 29.03.2020
374 Rain 2 1019 76 10000 1.5 0 20:56 29.03.2020
375 Rain 2 1019 76 10000 1.5 0 20:38 29.03.2020
376 Drizzle 2 1019 86 10000 1 0 20:19 29.03.2020
377 Drizzle 2 1019 86 10000 1 0 19:59 29.03.2020
378 Drizzle 2 1019 86 10000 1 0 19:59 29.03.2020
379 Rain 2 1019 93 10000 1 0 19:41 29.03.2020
380 Rain 2 1018 86 7000 1.5 0 19:23 29.03.2020
381 Rain 2 1018 80 6000 2.6 340 18:57 29.03.2020
382 Rain 3 1018 80 6000 2.6 340 18:39 29.03.2020
383 Rain 3 1017 80 10000 2.6 340 18:20 29.03.2020
384 Rain 4 1017 75 10000 3.1 340 17:56 29.03.2020
385 Rain 4 1017 75 10000 3.1 340 17:38 29.03.2020
386 Clouds 4 1017 70 10000 3.6 350 17:20 29.03.2020
387 Clouds 4 1017 70 10000 3.6 350 16:57 29.03.2020
388 Clouds 5 1016 65 10000 3.1 360 16:38 29.03.2020
389 Clouds 5 1016 65 10000 3.1 10 16:19 29.03.2020
390 Clouds 6 1016 65 10000 3.6 350 15:43 29.03.2020
391 Clouds 6 1016 65 10000 3.6 350 15:43 29.03.2020
392 Clouds 6 1016 61 10000 4.6 20 15:25 29.03.2020
393 Clouds 7 1016 61 10000 4.6 20 14:59 29.03.2020
394 Clouds 7 1016 61 10000 3.6 360 14:40 29.03.2020
395 Clouds 7 1015 61 10000 2.6 360 14:20 29.03.2020
396 Clouds 7 1016 61 10000 2.6 20 13:58 29.03.2020
397 Clouds 8 1016 61 10000 2.6 20 13:40 29.03.2020
398 Clouds 8 1015 57 10000 4.1 350 13:21 29.03.2020
399 Clouds 8 1015 57 10000 4.1 340 12:57 29.03.2020
400 Clouds 8 1015 57 10000 4.1 340 12:38 29.03.2020
401 Clouds 8 1016 57 10000 3.1 360 12:19 29.03.2020
402 Clouds 8 1016 57 10000 3.1 360 12:19 29.03.2020
403 Clouds 8 1016 61 10000 3.6 50 11:55 29.03.2020
404 Clouds 8 1016 61 10000 3.6 50 11:37 29.03.2020
405 Clouds 8 1016 61 10000 3.6 40 11:19 29.03.2020
406 Clouds 8 1016 61 10000 3.6 40 11:19 29.03.2020
407 Clouds 7 1016 61 10000 1.5 0 10:38 29.03.2020
408 Clouds 7 1016 57 10000 2.1 0 10:19 29.03.2020
409 Clouds 7 1016 65 10000 2.6 50 09:41 29.03.2020
410 Clouds 6 1015 75 10000 1 0 09:23 29.03.2020
411 Clouds 6 1015 75 10000 1 0 08:57 29.03.2020
412 Clouds 5 1015 93 10000 1.52 14 08:39 29.03.2020
413 Clouds 5 1015 93 10000 1 120 08:20 29.03.2020
414 Clouds 5 1015 93 10000 1 0 07:44 29.03.2020
415 Clouds 5 1015 93 10000 1.52 14 07:21 29.03.2020
416 Clouds 6 1015 86 10000 1 0 05:58 29.03.2020
417 Clouds 6 1015 86 10000 0.5 0 04:55 29.03.2020
418 Clouds 6 1016 86 10000 0.5 0 03:33 29.03.2020
419 Clouds 7 1016 93 8000 0.5 0 01:52 29.03.2020
420 Clouds 7 1016 86 10000 1 0 01:24 29.03.2020
421 Clouds 7 1016 86 10000 1 0 00:58 29.03.2020
422 Clouds 7 1016 87 10000 1 290 00:33 29.03.2020
423 Clouds 7 1016 75 10000 0.5 0 23:57 28.03.2020
424 Clouds 7 1016 75 10000 0.5 0 23:39 28.03.2020
425 Clouds 8 1016 87 10000 1 0 23:20 28.03.2020
426 Clouds 8 1016 75 10000 0.5 0 22:41 28.03.2020
427 Clouds 8 1016 81 10000 0.5 0 22:22 28.03.2020
428 Clouds 8 1016 81 10000 0.5 0 21:56 28.03.2020
429 Clouds 9 1016 75 10000 0.5 0 21:38 28.03.2020
430 Clouds 9 1016 81 10000 1 0 21:19 28.03.2020
431 Clouds 9 1016 75 10000 0.5 0 20:54 28.03.2020
432 Clouds 9 1016 75 10000 0.5 0 20:36 28.03.2020
433 Clouds 10 1016 61 10000 0.5 0 20:18 28.03.2020
434 Clouds 10 1016 61 10000 0.5 0 19:54 28.03.2020
435 Clouds 10 1015 54 10000 1 0 19:36 28.03.2020
436 Rain 11 1015 50 10000 1 0 19:18 28.03.2020
437 Rain 12 1015 44 10000 1.5 50 18:39 28.03.2020
438 Rain 13 1014 44 10000 3.1 60 18:20 28.03.2020
439 Clouds 13 1014 44 10000 2.6 60 17:40 28.03.2020
440 Rain 13 1014 41 10000 3.1 40 17:22 28.03.2020
441 Clouds 14 1014 44 10000 2.6 350 16:57 28.03.2020
442 Clouds 14 1014 44 10000 2.6 350 16:37 28.03.2020
443 Clouds 14 1014 42 10000 1.5 320 16:18 28.03.2020
444 Clouds 14 1014 38 10000 2.1 60 15:40 28.03.2020
445 Clouds 14 1014 41 10000 2.6 320 15:19 28.03.2020
446 Clouds 14 1014 41 10000 2.6 320 15:19 28.03.2020
447 Clouds 14 1014 41 10000 2.6 320 14:57 28.03.2020
448 Clouds 13 1015 44 10000 1.5 0 14:39 28.03.2020
449 Clouds 13 1015 47 10000 2.1 330 14:20 28.03.2020
450 Clouds 13 1015 47 10000 2.1 330 14:20 28.03.2020
451 Clouds 13 1015 47 10000 2.1 330 14:20 28.03.2020
452 Rain 13 1015 51 10000 4.1 320 13:42 28.03.2020
453 Clouds 13 1016 50 10000 2.6 310 13:23 28.03.2020
454 Clouds 12 1016 50 10000 3.1 300 12:41 28.03.2020
455 Clouds 12 1016 50 10000 1 0 12:22 28.03.2020
456 Clouds 11 1016 54 10000 1.5 0 11:43 28.03.2020
457 Clouds 10 1016 57 10000 0.5 0 11:23 28.03.2020
458 Clouds 9 1017 61 10000 2.1 140 10:58 28.03.2020
459 Clouds 9 1017 61 10000 2.1 140 10:38 28.03.2020
460 Clouds 8 1017 65 10000 2.1 140 10:18 28.03.2020
461 Clouds 7 1017 70 10000 1.5 0 09:43 28.03.2020
462 Clouds 6 1017 80 8000 1.5 160 09:23 28.03.2020
463 Clouds 4 1017 86 8000 1.5 160 08:55 28.03.2020
464 Clouds 4 1017 86 8000 1.5 160 08:37 28.03.2020
465 Clouds 3 1017 70 8000 0.02 345 08:18 28.03.2020
466 Clouds 2 1017 92 8000 1.5 100 07:42 28.03.2020
467 Clouds 1 1017 100 8000 1 100 06:58 28.03.2020
468 Mist 1 1017 92 3900 0.5 0 06:35 28.03.2020
469 Mist 1 1016 100 5000 0.5 0 05:43 28.03.2020
470 Clouds 1 1016 70 5000 1 260 05:21 28.03.2020
471 Mist 1 1016 92 4100 1 0 04:41 28.03.2020
472 Clouds 2 1016 100 6000 0.5 0 03:42 28.03.2020
473 Clouds 3 1016 72 6000 0.5 140 01:57 28.03.2020
474 Clouds 3 1016 72 5000 0.5 0 01:26 28.03.2020
475 Clouds 3 1016 93 9000 1 210 00:57 28.03.2020
476 Clouds 3 1016 72 6000 0.5 0 00:36 28.03.2020
477 Clouds 3 1015 86 5000 1 80 23:56 27.03.2020
478 Clouds 3 1015 86 5000 1 80 23:38 27.03.2020
479 Clouds 3 1015 72 7000 0.5 0 23:19 27.03.2020
480 Clouds 3 1015 72 7000 1 0 22:56 27.03.2020
481 Clouds 4 1015 72 7000 1 0 22:37 27.03.2020
482 Clouds 4 1015 72 10000 0.5 0 22:18 27.03.2020
483 Clouds 5 1015 80 9000 0.5 0 21:43 27.03.2020
484 Clouds 5 1015 70 10000 0.5 0 21:24 27.03.2020
485 Clouds 5 1015 70 10000 0.5 0 20:58 27.03.2020
486 Clouds 6 1015 70 10000 0.5 0 20:40 27.03.2020
487 Clouds 6 1014 70 10000 0.5 0 20:20 27.03.2020
488 Clouds 7 1014 70 10000 0.5 0 19:57 27.03.2020
489 Clouds 7 1014 53 10000 1 0 19:39 27.03.2020
490 Clouds 8 1014 53 10000 2.1 50 19:20 27.03.2020
491 Clouds 9 1013 50 10000 1.5 0 18:44 27.03.2020
492 Clouds 10 1013 65 10000 1.5 20 18:24 27.03.2020
493 Clouds 11 1013 43 10000 1.5 0 17:57 27.03.2020
494 Clouds 11 1013 43 10000 1.5 0 17:39 27.03.2020
495 Clouds 12 1013 44 10000 2.1 310 17:19 27.03.2020
496 Clouds 12 1013 44 10000 2.1 320 16:44 27.03.2020
497 Clouds 12 1012 44 10000 2.1 310 16:25 27.03.2020
498 Clouds 12 1012 44 10000 2.1 310 15:55 27.03.2020
499 Clouds 12 1013 37 10000 2.1 330 15:37 27.03.2020
500 Clouds 12 1013 40 10000 1.5 0 15:19 27.03.2020
501 Clouds 12 1013 44 10000 2.1 0 14:43 27.03.2020
502 Clouds 12 1013 37 10000 2.1 310 14:24 27.03.2020
503 Clouds 12 1013 40 10000 2.1 320 13:54 27.03.2020
504 Clouds 11 1013 40 10000 2.1 320 13:36 27.03.2020
505 Clouds 11 1013 43 10000 1 0 13:18 27.03.2020
506 Clouds 10 1013 45 10000 2.1 0 12:42 27.03.2020
507 Clouds 9 1013 49 10000 2.1 340 12:19 27.03.2020
508 Clouds 10 1014 52 10000 0.5 0 11:55 27.03.2020
509 Clouds 10 1014 52 10000 0.5 0 11:55 27.03.2020
510 Clouds 9 1014 52 10000 1 0 11:36 27.03.2020
511 Clouds 7 1014 52 10000 1 0 11:18 27.03.2020
512 Clouds 6 1014 56 10000 0.5 0 10:41 27.03.2020
513 Clouds 5 1014 60 10000 1 0 10:22 27.03.2020
514 Clouds 4 1014 60 10000 1 0 09:59 27.03.2020
515 Clouds 5 1014 64 10000 1 0 09:40 27.03.2020
516 Clouds 3 1014 69 10000 1 0 09:22 27.03.2020
517 Clouds 2 1014 69 10000 1 0 08:59 27.03.2020
518 Clouds 2 1014 69 10000 1 0 08:59 27.03.2020
519 Clouds 3 1014 46 10000 1.5 170 08:40 27.03.2020
520 Clouds 1 1014 80 10000 1 0 08:21 27.03.2020
521 Clouds -1 1014 80 10000 1 0 07:55 27.03.2020
522 Clouds -1 1014 86 10000 0.39 94 07:37 27.03.2020
523 Clouds -3 1014 92 10000 1.5 160 07:19 27.03.2020
524 Clouds -3 1014 92 10000 1 110 06:38 27.03.2020
525 Clouds -3 1013 92 10000 1 120 05:44 27.03.2020
526 Clouds -2 1013 86 10000 0.5 0 02:52 27.03.2020
527 Clouds -1 1012 86 10000 0.5 0 01:54 27.03.2020
528 Clouds -1 1013 79 10000 1 0 00:56 27.03.2020
529 Clouds -1 1013 79 10000 1 0 00:37 27.03.2020
530 Clouds -1 1013 79 10000 0.92 106 00:18 27.03.2020
531 Clouds -1 1013 79 10000 0.92 106 00:18 27.03.2020
532 Clouds -1 1013 79 10000 0.5 0 23:36 26.03.2020
533 Clouds -1 1013 74 10000 1 0 23:18 26.03.2020
534 Clouds 0 1013 76 10000 0.5 0 22:54 26.03.2020
535 Clouds 0 1013 76 10000 0.5 0 22:36 26.03.2020
536 Clouds 0 1013 74 10000 1 0 22:18 26.03.2020
537 Clouds 1 1013 76 10000 0.5 0 21:39 26.03.2020
538 Clouds 1 1013 55 10000 1 0 21:21 26.03.2020
539 Clouds 2 1013 55 10000 1 0 20:58 26.03.2020
540 Clouds 3 1013 51 10000 1 0 20:39 26.03.2020
541 Clouds 2 1014 51 10000 1.5 0 20:20 26.03.2020
542 Clouds 3 1014 51 10000 1.5 0 19:57 26.03.2020
543 Clouds 3 1014 51 10000 1.5 0 19:57 26.03.2020
544 Clouds 3 1013 44 10000 1.5 0 19:39 26.03.2020
545 -273 0 0 0 0 0 19:20 26.03.2020
546 Clouds 4 1013 41 10000 2.1 0 19:20 26.03.2020
547 Clouds 5 1013 41 10000 2.1 0 18:58 26.03.2020
548 Clouds 5 1013 44 10000 4.6 60 18:58 26.03.2020
549 Clouds 5 1013 44 10000 4.6 60 18:39 26.03.2020
550 Clouds 5 1012 45 10000 2.6 0 18:21 26.03.2020
551 Clouds 6 1012 45 10000 4.1 60 17:44 26.03.2020
552 Clouds 7 1012 45 10000 5.7 60 17:19 26.03.2020
553 Clouds 7 1012 45 10000 3.1 0 16:47 26.03.2020
554 Clouds 7 1012 45 10000 3.1 0 16:28 26.03.2020
555 Clouds 8 1012 42 10000 4.1 30 15:59 26.03.2020
556 Clouds 8 1012 42 10000 4.6 10 15:41 26.03.2020
557 Clouds 8 1012 42 10000 5.1 60 15:22 26.03.2020
558 Clouds 8 1012 42 10000 5.1 60 14:58 26.03.2020
559 Clouds 8 1012 39 10000 3.1 10 14:39 26.03.2020
560 Clear 7 1012 45 10000 3.6 350 14:19 26.03.2020
561 Clear 7 1013 42 10000 3.6 320 13:44 26.03.2020
562 Clear 7 1013 48 10000 4.6 320 13:24 26.03.2020
563 Clear 6 1013 48 10000 4.6 320 12:58 26.03.2020
564 Clear 6 1013 48 10000 3.6 320 12:38 26.03.2020
565 Clear 5 1013 52 10000 4.1 290 12:20 26.03.2020
566 Clear 4 1013 55 10000 3.1 290 11:45 26.03.2020
567 Clear 4 1013 55 10000 1.5 0 11:22 26.03.2020
568 Clear 3 1013 55 10000 2.6 300 10:56 26.03.2020
569 Clear 3 1013 55 10000 2.6 300 10:37 26.03.2020
570 Clear 2 1013 55 10000 2.1 280 10:19 26.03.2020
571 Clear 2 1013 59 10000 2.1 270 09:44 26.03.2020
572 Clear 2 1013 59 10000 2.1 270 09:20 26.03.2020
573 Clear 0 1013 68 10000 1 0 08:55 26.03.2020
574 Clear 0 1013 68 10000 1 0 08:37 26.03.2020
575 Clear -1 1013 74 10000 1.31 50 08:18 26.03.2020
576 Clear -3 1013 79 10000 0.5 0 07:43 26.03.2020
577 Clear -3 1013 85 10000 0.5 0 07:21 26.03.2020
578 Clear -4 1012 85 10000 0.5 0 06:48 26.03.2020
579 Clear -3 1012 73 10000 2.1 280 05:57 26.03.2020
580 Clear -3 1012 73 10000 1.5 300 04:25 26.03.2020
581 Clear -2 1012 68 10000 0.5 0 03:41 26.03.2020
582 Clear -2 1012 74 10000 1 0 02:54 26.03.2020
583 Clouds -2 1012 79 10000 1.5 20 01:50 26.03.2020
584 Clouds 0 1013 88 10000 1.5 0 00:52 26.03.2020
585 Clouds 0 1013 88 10000 1 0 23:59 25.03.2020
586 Clouds 0 1013 88 10000 1 0 23:40 25.03.2020
587 Clear 1 1013 51 10000 1 0 23:20 25.03.2020
588 Clear 1 1014 55 10000 1 0 22:40 25.03.2020
589 Clear 1 1014 55 10000 1 0 22:21 25.03.2020
590 Clear 1 1014 55 10000 1 0 21:56 25.03.2020
591 Clear 3 1014 47 10000 1 0 21:37 25.03.2020
592 Clouds 2 1014 47 10000 1 0 21:19 25.03.2020
593 Clouds 2 1014 47 10000 1 0 21:19 25.03.2020
594 Clouds 3 1014 44 10000 2.1 0 20:54 25.03.2020
595 Clouds 3 1014 44 10000 2.1 0 20:36 25.03.2020
596 Clouds 4 1014 41 10000 1.5 0 20:18 25.03.2020
597 Clouds 4 1014 41 10000 2.6 0 19:42 25.03.2020
598 Clouds 4 1014 41 10000 3.6 60 19:22 25.03.2020
599 Clouds 4 1014 41 10000 4.1 70 18:57 25.03.2020
600 Clouds 4 1014 41 10000 4.1 70 18:38 25.03.2020
601 Clouds 5 1014 41 10000 3.6 50 18:20 25.03.2020
602 Clouds 5 1014 41 10000 4.6 60 17:55 25.03.2020
603 Clouds 6 1014 41 10000 5.7 50 17:36 25.03.2020
604 Clouds 6 1014 41 10000 5.7 50 17:18 25.03.2020
605 Clouds 6 1014 41 10000 5.1 50 16:43 25.03.2020
606 Clouds 6 1014 41 10000 5.1 50 16:43 25.03.2020
607 Clouds 6 1015 38 10000 4.6 50 16:23 25.03.2020
608 Clouds 6 1015 38 10000 4.6 50 15:57 25.03.2020
609 Clear 7 1015 39 10000 5.1 40 15:38 25.03.2020
610 Clear 7 1015 38 10000 4.1 60 15:19 25.03.2020
611 Clear 6 1016 41 10000 5.1 50 14:42 25.03.2020
612 Clear 6 1016 45 10000 4.6 50 14:21 25.03.2020
613 Clear 5 1016 41 10000 3.1 40 13:46 25.03.2020
614 Clear 5 1016 41 10000 3.1 40 13:26 25.03.2020
615 Clear 5 1017 48 10000 4.1 60 12:57 25.03.2020
616 Clear 5 1017 48 10000 4.1 60 12:37 25.03.2020
617 Clear 4 1017 48 10000 4.1 330 12:19 25.03.2020
618 Clear 4 1017 51 10000 2.1 0 11:43 25.03.2020
619 Clear 4 1018 51 10000 3.6 330 11:22 25.03.2020
620 Clear 3 1018 51 10000 4.1 320 10:59 25.03.2020
621 Clear 2 1018 51 10000 4.1 320 10:41 25.03.2020
622 Clear 1 1019 55 10000 3.6 300 10:19 25.03.2020
623 Clear 1 1019 55 10000 3.6 300 09:59 25.03.2020
624 Clear 1 1019 55 10000 2.6 330 09:41 25.03.2020
625 Clear 1 1020 59 10000 1.5 310 09:22 25.03.2020
626 Clear 0 1020 59 10000 1.5 310 08:55 25.03.2020
627 Clear 0 1020 59 10000 2.1 310 08:37 25.03.2020
628 Clear -2 1020 74 10000 1 250 08:18 25.03.2020
629 Clear -2 1020 73 10000 1 0 07:39 25.03.2020
630 Clear -3 1020 79 10000 1.5 300 07:20 25.03.2020
631 Clear -3 1020 79 10000 1 10 06:46 25.03.2020
632 Clear -3 1020 85 10000 0.5 0 06:25 25.03.2020
633 Clear -3 1020 85 10000 1.5 0 05:50 25.03.2020
634 Clear -3 1021 79 10000 1 0 04:59 25.03.2020
635 Clear -3 1021 79 10000 1 0 04:39 25.03.2020
636 Clear -2 1021 63 10000 0.5 0 03:35 25.03.2020
637 Clear -1 1022 63 10000 1 0 01:58 25.03.2020
638 Clear -1 1022 68 10000 1.5 320 01:21 25.03.2020
639 Clear -1 1022 83 10000 2.6 10 00:48 25.03.2020
640 Clear -1 1022 55 10000 1.5 0 00:19 25.03.2020
641 Clear 0 1022 51 10000 3.1 30 23:45 24.03.2020
642 Clear 0 1022 51 10000 1.5 50 23:25 24.03.2020
643 Clear 0 1022 55 10000 1.5 0 22:56 24.03.2020
644 Clear 0 1022 55 10000 1.5 0 22:37 24.03.2020
645 Clear 1 1022 51 10000 1.5 0 22:19 24.03.2020
646 Clear 2 1022 51 10000 1.5 0 21:55 24.03.2020
647 Clear 2 1021 47 10000 2.6 230 21:37 24.03.2020
648 Clear 2 1021 47 10000 2.1 0 21:18 24.03.2020
649 Clear 2 1021 47 10000 3.6 60 20:43 24.03.2020
650 Clear 3 1021 44 10000 1 0 20:24 24.03.2020
651 Clear 4 1021 44 10000 1 0 19:57 24.03.2020
652 Clear 4 1021 41 10000 2.1 0 19:39 24.03.2020
653 Clear 5 1020 38 10000 3.6 40 19:18 24.03.2020
654 Clear 5 1020 38 10000 3.1 40 18:55 24.03.2020
655 Clear 5 1020 38 10000 3.1 40 18:55 24.03.2020
656 Clear 5 1020 38 10000 3.1 40 18:36 24.03.2020
657 Clear 6 1020 36 10000 2.6 40 18:18 24.03.2020
658 Clear 6 1020 36 10000 4.1 60 17:42 24.03.2020
659 Clear 7 1021 33 10000 4.1 50 17:22 24.03.2020
660 Clear 7 1020 33 10000 4.6 60 16:58 24.03.2020
661 Clear 7 1020 33 10000 4.6 60 16:39 24.03.2020
662 Clear 8 1021 36 10000 4.1 0 16:21 24.03.2020
663 Clear 8 1021 36 10000 4.1 0 16:20 24.03.2020
664 -273 0 0 0 0 0 16:20 24.03.2020
665 Clear 8 1021 36 10000 4.1 0 15:55 24.03.2020
666 Clear 7 1021 33 10000 5.1 20 15:37 24.03.2020
667 Clear 8 1022 33 10000 5.1 40 15:19 24.03.2020
668 Clear 7 1022 39 10000 4.1 30 14:42 24.03.2020
669 Clear 6 1022 41 10000 4.1 30 14:18 24.03.2020
670 Clear 6 1022 38 10000 4.6 50 13:42 24.03.2020
671 Clear 6 1023 41 10000 4.1 50 13:23 24.03.2020
672 Clear 5 1023 41 10000 3.1 0 12:54 24.03.2020
673 Clear 6 1023 41 10000 3.1 0 12:36 24.03.2020
674 Clear 5 1023 44 10000 4.1 340 12:18 24.03.2020
675 Clear 3 1023 48 10000 3.1 360 11:39 24.03.2020
676 Clear 2 1024 47 10000 2.6 350 11:19 24.03.2020
677 Clear 2 1024 51 10000 2.6 330 10:43 24.03.2020
678 Clear 2 1024 51 10000 2.6 330 10:43 24.03.2020
679 Clear 1 1024 55 10000 2.6 30 10:20 24.03.2020
680 Clear 1 1024 55 10000 2.6 30 09:58 24.03.2020
681 Clear 0 1025 36 10000 2.1 0 09:39 24.03.2020
682 Clear 0 1025 36 10000 1.5 0 09:21 24.03.2020
683 Clear -1 1025 54 10000 0.5 0 08:38 24.03.2020
684 Clear -3 1025 63 10000 0.5 0 08:20 24.03.2020
685 Clear -3 1025 68 10000 2.1 260 07:47 24.03.2020
686 Clear -3 1025 73 10000 2.6 290 07:24 24.03.2020
687 Clear -3 1025 73 10000 2.6 290 07:24 24.03.2020
688 Clear -3 1024 67 10000 2.6 290 06:53 24.03.2020
689 Clear -4 1024 73 10000 2.6 300 06:27 24.03.2020
690 Clear -3 1025 68 10000 3.1 290 04:57 24.03.2020
691 Clear -3 1025 68 10000 3.1 290 04:27 24.03.2020
692 Clear -2 1025 63 10000 2.1 330 03:18 24.03.2020
693 Clear -2 1025 54 10000 1 0 01:47 24.03.2020
694 Clear -1 1025 57 10000 1 0 00:48 24.03.2020
695 Clear -1 1025 57 10000 1.5 0 00:25 24.03.2020
696 Clear 0 1025 57 10000 2.1 60 23:45 23.03.2020
697 Clear 0 1025 47 10000 2.1 40 23:26 23.03.2020
698 Clear 0 1025 47 10000 1 0 22:56 23.03.2020
699 Clear 1 1025 47 10000 1 0 22:37 23.03.2020
700 Clear 1 1025 59 10000 1.5 0 22:19 23.03.2020
701 Clear 1 1025 47 10000 1 0 21:44 23.03.2020
702 Clear 2 1025 44 10000 1 0 21:20 23.03.2020
703 Clear 2 1025 44 10000 1 0 20:58 23.03.2020
704 Clear 2 1025 44 10000 1.5 0 20:39 23.03.2020
705 Clear 3 1025 48 10000 1.5 0 20:21 23.03.2020
706 Clear 4 1025 44 10000 1 0 19:46 23.03.2020
707 Clear 4 1024 48 10000 1 0 19:27 23.03.2020
708 Clear 5 1024 45 10000 2.1 0 18:59 23.03.2020
709 Clear 5 1024 45 10000 2.1 0 18:41 23.03.2020
710 Clear 6 1024 45 10000 3.6 40 18:21 23.03.2020
711 Clear 6 1024 42 10000 3.6 40 17:44 23.03.2020
712 Clear 6 1024 45 10000 3.6 50 17:22 23.03.2020
713 Clear 7 1024 45 10000 4.1 50 16:59 23.03.2020
714 Clear 7 1024 45 10000 4.1 50 16:41 23.03.2020
715 Clear 7 1024 48 10000 3.6 0 16:23 23.03.2020
716 Clear 7 1024 48 10000 5.1 360 15:42 23.03.2020
717 Clear 7 1024 52 10000 5.1 360 15:20 23.03.2020
718 Clear 7 1022 35 10000 5.1 110 14:55 23.03.2020
719 Clear 7 1024 56 10000 4.1 30 14:36 23.03.2020
720 Clear 6 1025 56 10000 3.1 30 14:18 23.03.2020
721 Clouds 6 1025 56 10000 3.6 10 13:40 23.03.2020
722 Clouds 6 1025 56 10000 3.6 10 13:40 23.03.2020
723 Clouds 5 1025 56 10000 2.6 30 13:21 23.03.2020
724 Clouds 5 1025 56 10000 3.1 340 12:46 23.03.2020
725 Clouds 4 1025 60 10000 2.6 350 12:26 23.03.2020
726 Clouds 4 1025 60 10000 3.6 350 11:59 23.03.2020
727 Clouds 3 1025 60 10000 3.6 350 11:40 23.03.2020
728 Clouds 2 1025 64 10000 5.1 300 11:20 23.03.2020
729 Clouds 2 1025 64 10000 2.6 310 10:58 23.03.2020
730 Clouds 2 1025 64 10000 2.6 310 10:39 23.03.2020
731 Clouds 1 1025 64 10000 1.5 0 10:21 23.03.2020
732 Clouds 1 1025 64 10000 1.5 360 09:46 23.03.2020
733 Clouds 0 1025 51 10000 2.1 360 09:21 23.03.2020
734 Clouds 0 1025 51 10000 2.1 360 08:58 23.03.2020
735 Clouds 0 1025 51 10000 2.1 20 08:37 23.03.2020
736 Clouds -1 1025 72 10000 2.6 20 08:18 23.03.2020
737 Clouds -1 1025 72 10000 1.5 20 07:47 23.03.2020
738 Clouds -1 1025 72 10000 1.5 20 07:29 23.03.2020
739 Clouds -1 1024 72 10000 1.5 10 06:52 23.03.2020
740 Clouds -1 1024 72 10000 1 0 05:55 23.03.2020
741 Clouds -1 1024 72 10000 1.5 340 05:29 23.03.2020
742 Clouds -1 1024 72 10000 3.1 360 03:41 23.03.2020
743 Clouds 0 1024 64 10000 1.5 0 02:29 23.03.2020
744 Clouds 0 1023 64 10000 1.5 0 01:34 23.03.2020
745 Clouds 1 1023 64 10000 1 0 00:40 23.03.2020
746 Clouds 1 1023 64 10000 3.1 50 23:53 22.03.2020
747 Clouds 2 1023 64 10000 1 0 23:26 22.03.2020
748 Clouds 2 1023 64 10000 1 0 23:26 22.03.2020
749 Clouds 2 1023 69 10000 1 0 22:47 22.03.2020
750 Clouds 3 1022 60 10000 1.5 0 22:26 22.03.2020
751 Clouds 3 1022 60 10000 1.5 0 21:57 22.03.2020
752 Clouds 3 1022 60 10000 1.5 0 21:57 22.03.2020
753 Clouds 3 1022 64 10000 2.6 0 21:39 22.03.2020
754 Clouds 4 1022 65 10000 1.5 0 21:20 22.03.2020
755 Clouds 4 1022 65 10000 1.5 0 20:54 22.03.2020
756 Clouds 4 1022 65 10000 1 0 20:36 22.03.2020
757 Clouds 4 1021 60 10000 1.5 0 20:18 22.03.2020
758 Clouds 4 1021 56 10000 1.5 0 19:54 22.03.2020
759 Clouds 5 1021 75 10000 2.1 10 19:36 22.03.2020
760 Clouds 5 1021 75 10000 1 0 19:18 22.03.2020
761 Clouds 5 1021 75 10000 3.1 60 18:41 22.03.2020
762 Clouds 5 1021 75 10000 2.6 60 18:22 22.03.2020
763 Clouds 5 1020 75 10000 2.6 50 17:59 22.03.2020
764 Clouds 5 1020 75 10000 2.6 50 17:39 22.03.2020
765 Clouds 6 1020 56 10000 4.1 60 17:21 22.03.2020
766 Clouds 6 1020 75 10000 3.6 50 16:59 22.03.2020
767 Clouds 7 1020 75 10000 3.6 50 16:41 22.03.2020
768 Clouds 7 1020 80 10000 3.1 60 16:22 22.03.2020
769 Clouds 6 1020 80 10000 3.1 60 15:58 22.03.2020
770 Clouds 6 1020 59 10000 2.1 0 15:39 22.03.2020
771 Clouds 5 1020 75 10000 4.1 40 14:47 22.03.2020
772 Clouds 5 1020 75 10000 4.1 50 14:19 22.03.2020
773 Clouds 5 1020 75 10000 4.1 50 13:58 22.03.2020
774 Clouds 5 1020 75 10000 4.1 50 13:40 22.03.2020
775 Clouds 5 1020 65 10000 4.6 60 13:19 22.03.2020
776 Clouds 4 1020 80 10000 3.6 0 12:44 22.03.2020
777 Clouds 4 1020 80 10000 2.6 0 12:21 22.03.2020
778 Clouds 4 1019 80 10000 3.6 10 11:57 22.03.2020
779 Clouds 4 1019 80 10000 3.6 10 11:39 22.03.2020
780 Clouds 4 1019 75 10000 3.6 10 11:20 22.03.2020
781 Clouds 4 1019 75 10000 3.1 10 10:43 22.03.2020
782 Clouds 4 1019 75 10000 3.6 360 10:24 22.03.2020
783 Clouds 4 1019 80 10000 2.1 20 09:49 22.03.2020
784 Clouds 3 1019 80 10000 2.1 20 09:30 22.03.2020
785 Clouds 3 1018 80 10000 2.1 340 08:55 22.03.2020
786 Clouds 3 1018 80 10000 2.1 340 08:36 22.03.2020
787 Clouds 3 1018 80 10000 2.1 10 08:18 22.03.2020
788 Clouds 3 1018 80 10000 3.6 10 07:49 22.03.2020
789 Clouds 3 1017 80 10000 3.1 10 07:18 22.03.2020
790 Clouds 4 1017 86 10000 2.1 20 05:55 22.03.2020
791 Clouds 4 1017 86 10000 2.1 350 04:58 22.03.2020
792 Clouds 4 1016 80 10000 2.1 0 02:43 22.03.2020
793 Clouds 4 1016 80 10000 2.6 360 01:21 22.03.2020
794 Clouds 4 1016 86 10000 2.6 360 00:36 22.03.2020
795 Clouds 4 1016 81 10000 2.6 360 23:58 21.03.2020
796 Clouds 4 1016 81 10000 2.6 360 23:40 21.03.2020
797 Clouds 4 1016 81 10000 2.1 10 23:18 21.03.2020
798 Clouds 5 1016 81 10000 2.6 360 22:38 21.03.2020
799 Clouds 5 1016 81 10000 2.6 360 22:38 21.03.2020
800 Clouds 5 1016 81 10000 2.6 320 22:20 21.03.2020
801 Clouds 5 1016 81 10000 2.6 320 21:59 21.03.2020
802 Clouds 5 1016 81 10000 3.1 320 21:39 21.03.2020
803 Clouds 5 1016 81 10000 2.6 0 21:21 21.03.2020
804 Clouds 5 1016 81 10000 3.1 330 20:46 21.03.2020
805 Clouds 5 1015 81 10000 2.6 340 20:23 21.03.2020
806 Clouds 6 1015 81 10000 2.6 340 19:57 21.03.2020
807 Clouds 6 1015 81 10000 3.1 350 19:39 21.03.2020
808 Clouds 7 1015 81 10000 3.1 350 19:21 21.03.2020
809 Clouds 7 1014 81 9000 3.6 350 18:54 21.03.2020
810 Clouds 7 1014 81 9000 3.6 350 18:36 21.03.2020
811 Clouds 7 1014 81 9000 2.6 0 18:18 21.03.2020
812 Clouds 8 1014 81 8000 3.1 40 17:42 21.03.2020
813 Clouds 9 1014 76 8000 4.1 20 17:23 21.03.2020
814 Clouds 10 1013 71 10000 3.6 40 16:57 21.03.2020
815 Clouds 10 1013 71 10000 3.6 40 16:38 21.03.2020
816 Clouds 10 1013 66 10000 3.6 20 16:18 21.03.2020
817 Clouds 10 1013 66 10000 3.6 20 16:18 21.03.2020
818 Clouds 10 1013 66 10000 3.6 20 16:18 21.03.2020
819 Clouds 11 1014 58 10000 2.6 350 15:42 21.03.2020
820 Clouds 11 1014 62 10000 3.1 360 15:23 21.03.2020
821 Clouds 11 1014 62 10000 3.1 360 14:58 21.03.2020
822 Clouds 11 1014 62 10000 3.1 30 14:40 21.03.2020
823 Clouds 11 1014 67 10000 4.6 310 14:20 21.03.2020
824 Clouds 11 1014 67 10000 4.1 330 13:59 21.03.2020
825 Clouds 11 1014 67 10000 4.1 330 13:40 21.03.2020
826 Clouds 11 1015 71 10000 4.1 310 13:22 21.03.2020
827 Clouds 11 1015 71 10000 4.1 290 12:59 21.03.2020
828 Clouds 12 1015 71 10000 4.1 290 12:38 21.03.2020
829 Clouds 11 1015 76 10000 3.1 280 12:19 21.03.2020
830 Clouds 11 1015 76 10000 3.1 280 12:19 21.03.2020
831 Clouds 11 1015 71 10000 2.6 270 11:56 21.03.2020
832 Clouds 11 1015 71 10000 2.6 270 11:38 21.03.2020
833 Clouds 10 1016 76 10000 0.5 0 11:19 21.03.2020
834 Clouds 10 1016 76 10000 0.5 0 11:19 21.03.2020
835 Clouds 10 1016 81 10000 1 0 10:57 21.03.2020
836 Clouds 9 1016 81 10000 1 0 10:38 21.03.2020
837 Clouds 9 1017 76 10000 1 0 10:19 21.03.2020
838 Clouds 8 1017 76 10000 1 0 09:56 21.03.2020
839 Clouds 8 1017 93 10000 1 0 09:37 21.03.2020
840 Clouds 7 1017 87 10000 1 0 09:19 21.03.2020
841 Clouds 6 1017 100 10000 1 0 08:43 21.03.2020
842 Clouds 6 1017 100 10000 1 0 08:24 21.03.2020
843 Clear 5 1017 100 10000 1 60 07:45 21.03.2020
844 Clouds 4 1017 93 10000 1 0 07:27 21.03.2020
845 Clouds 4 1017 100 10000 1.5 130 06:48 21.03.2020
846 Clouds 4 1017 93 10000 2.1 140 06:28 21.03.2020
847 Fog 4 1017 93 5000 1 0 05:46 21.03.2020
848 Clouds 4 1017 100 5000 1 0 04:46 21.03.2020
849 Clear 5 1018 93 10000 1 0 02:51 21.03.2020
850 Clear 6 1018 93 10000 1 0 02:33 21.03.2020
851 Clouds 6 1019 100 10000 2.6 100 01:32 21.03.2020
852 Clouds 7 1019 100 10000 3.1 120 00:56 21.03.2020
853 Clouds 7 1019 93 10000 2.1 100 00:37 21.03.2020
854 Clouds 8 1020 93 10000 1.5 90 23:53 20.03.2020
855 Clouds 8 1020 93 10000 1 0 23:28 20.03.2020
856 Rain 8 1020 93 10000 1 0 22:59 20.03.2020
857 Rain 8 1020 93 10000 1 0 22:59 20.03.2020
858 Rain 8 1020 87 10000 2.6 100 22:40 20.03.2020
859 Rain 8 1020 87 10000 3.1 130 22:21 20.03.2020
860 Clouds 9 1020 87 10000 3.1 130 21:56 20.03.2020
861 Clouds 9 1020 87 10000 2.1 110 21:38 20.03.2020
862 Drizzle 9 1020 87 10000 3.1 100 21:18 20.03.2020
863 Drizzle 9 1020 87 10000 3.1 100 20:56 20.03.2020
864 Rain 9 1020 81 10000 2.1 170 20:38 20.03.2020
865 Rain 10 1020 76 10000 2.1 100 20:18 20.03.2020
866 Rain 10 1020 81 10000 2.1 130 19:44 20.03.2020
867 Rain 11 1020 81 10000 1.5 0 19:19 20.03.2020
868 Thunderstorm 11 1019 87 10000 4.6 160 18:55 20.03.2020
869 Thunderstorm 11 1019 87 10000 4.6 160 18:37 20.03.2020
870 Thunderstorm 12 1019 87 10000 4.1 150 18:19 20.03.2020
871 Thunderstorm 12 1019 87 10000 1.5 120 17:39 20.03.2020
872 Thunderstorm 13 1018 76 10000 4.6 170 17:21 20.03.2020
873 Thunderstorm 13 1018 76 10000 4.6 170 17:21 20.03.2020
874 Thunderstorm 14 1018 76 10000 2.6 110 16:57 20.03.2020
875 Thunderstorm 14 1018 76 10000 2.6 110 16:39 20.03.2020
876 Thunderstorm 15 1018 82 10000 4.1 160 16:18 20.03.2020
877 Thunderstorm 16 1018 82 10000 2.1 60 15:42 20.03.2020
878 Thunderstorm 16 1018 51 10000 2.6 330 15:21 20.03.2020
879 Thunderstorm 16 1018 51 10000 2.6 330 14:55 20.03.2020
880 Clouds 16 1018 48 10000 2.6 240 14:37 20.03.2020
881 Clouds 16 1019 55 10000 2.1 320 14:18 20.03.2020
882 Clouds 16 1019 55 10000 2.6 270 13:42 20.03.2020
883 Clouds 16 1020 55 10000 1.5 0 13:19 20.03.2020
884 Rain 16 1020 59 10000 1.5 0 12:40 20.03.2020
885 Rain 15 1020 58 10000 2.6 320 12:22 20.03.2020
886 Clouds 14 1020 58 10000 1 0 11:57 20.03.2020
887 Clouds 14 1020 58 10000 1 0 11:38 20.03.2020
888 Rain 12 1021 67 0 1 0 11:19 20.03.2020
889 Rain 12 1021 66 10000 1.5 0 10:41 20.03.2020
890 Rain 11 1021 71 10000 2.6 140 10:21 20.03.2020
891 Rain 11 1021 71 10000 2.6 140 09:56 20.03.2020
892 Rain 11 1021 71 10000 2.6 140 09:56 20.03.2020
893 Rain 10 1021 81 10000 2.1 160 09:38 20.03.2020
894 Rain 10 1021 81 10000 1 0 09:18 20.03.2020
895 Clouds 8 1021 93 10000 0.5 0 08:42 20.03.2020
896 Clouds 7 1021 93 10000 0.5 0 08:22 20.03.2020
897 Clouds 6 1021 100 10000 0.5 0 07:51 20.03.2020
898 Clouds 6 1021 100 10000 0.5 0 07:33 20.03.2020
899 Clouds 6 1021 100 10000 0.5 0 06:58 20.03.2020
900 Mist 6 1021 100 4500 0.5 0 06:40 20.03.2020
901 Clear 6 1021 100 6000 1 0 04:51 20.03.2020
902 Clear 7 1021 93 6000 0.5 0 03:22 20.03.2020
903 Clear 7 1021 93 7000 0.5 0 01:58 20.03.2020
904 Clear 8 1022 100 10000 0.5 250 00:59 20.03.2020
905 Clear 8 1021 100 10000 0.5 0 00:30 20.03.2020
906 Clear 8 1021 93 9000 1 120 23:47 19.03.2020
907 Clear 9 1021 93 10000 0.5 0 23:28 19.03.2020
908 Clear 9 1022 87 10000 1 160 22:57 19.03.2020
909 Clear 9 1022 87 10000 1 160 22:38 19.03.2020
910 Clear 10 1022 93 10000 0.5 0 22:19 19.03.2020
911 Clear 10 1021 87 10000 1 0 21:42 19.03.2020
912 Clear 11 1021 81 10000 1 0 21:20 19.03.2020
913 Clear 11 1021 81 10000 1 0 20:59 19.03.2020
914 Clear 11 1021 87 10000 1 120 20:41 19.03.2020
915 Clear 12 1021 81 10000 0.5 0 20:22 19.03.2020
916 Clear 12 1021 81 10000 0.5 0 19:55 19.03.2020
917 Clear 12 1021 71 10000 0.5 0 19:37 19.03.2020
918 Clear 14 1021 62 10000 1 0 19:19 19.03.2020
919 Clear 15 1021 51 10000 1 0 18:54 19.03.2020
920 Clear 15 1021 51 10000 1 0 18:36 19.03.2020
921 Clear 16 1021 45 10000 1.5 310 18:18 19.03.2020
922 Clear 17 1021 39 10000 1 0 17:41 19.03.2020
923 Clear 18 1021 39 10000 2.1 260 17:19 19.03.2020
924 Clear 18 1021 39 10000 1.5 0 16:44 19.03.2020
925 Clear 19 1021 39 10000 2.1 330 16:24 19.03.2020
926 Clear 18 1022 45 10000 2.1 320 15:46 19.03.2020
927 Clear 18 1022 45 10000 2.1 320 15:27 19.03.2020
928 Clear 18 1022 52 10000 3.1 270 14:58 19.03.2020
929 Clear 18 1022 45 10000 2.6 320 14:40 19.03.2020
930 Clear 18 1023 48 10000 1 0 14:19 19.03.2020
931 Clear 17 1023 52 10000 2.6 310 13:40 19.03.2020
932 Clear 17 1023 52 10000 2.6 310 13:40 19.03.2020
933 Clear 17 1023 51 10000 2.1 340 13:19 19.03.2020
934 Clear 16 1024 55 10000 1 0 12:56 19.03.2020
935 Clear 16 1024 55 10000 1 0 12:37 19.03.2020
936 Clear 16 1024 59 10000 1.16 308 12:19 19.03.2020
937 Clear 15 1024 62 10000 1.16 308 11:42 19.03.2020
938 Clear 14 1025 62 10000 0.5 0 11:23 19.03.2020
939 Clear 13 1025 66 10000 1 0 10:56 19.03.2020
940 Clear 13 1025 66 10000 1 0 10:36 19.03.2020
941 Clear 12 1025 66 10000 0.5 0 10:18 19.03.2020
942 Clear 10 1025 81 10000 0.5 0 09:44 19.03.2020
943 Clear 10 1025 81 10000 0.5 0 09:26 19.03.2020
944 Clear 9 1025 87 10000 0.5 0 08:57 19.03.2020
945 Clear 7 1025 100 9000 0.73 285 08:37 19.03.2020
946 Clear 6 1025 100 10000 1 0 08:18 19.03.2020
947 Clear 5 1025 93 7000 0.91 165 07:42 19.03.2020
948 Mist 5 1025 100 2700 0.91 165 07:22 19.03.2020
949 Mist 4 1025 93 3100 1 0 06:27 19.03.2020
950 Mist 5 1025 100 2800 0.5 0 05:25 19.03.2020
951 Mist 5 1025 93 2400 1 0 04:51 19.03.2020
952 Fog 6 1025 100 350 0.5 70 04:22 19.03.2020
953 Mist 6 1025 93 2500 0.5 0 02:33 19.03.2020
954 Clear 7 1025 100 5000 0.5 0 00:53 19.03.2020
955 Clear 7 1025 100 6000 1 0 00:20 19.03.2020
956 Clear 8 1025 93 7000 0.86 153 23:44 18.03.2020
957 Clear 8 1025 93 9000 1 150 23:26 18.03.2020
958 Clear 9 1025 93 8000 0.78 112 22:43 18.03.2020
959 Clear 9 1025 93 10000 1.5 100 22:23 18.03.2020
960 Clear 9 1025 93 10000 1.5 100 21:58 18.03.2020
961 Clear 10 1025 87 10000 1.5 110 21:40 18.03.2020
962 Clear 10 1025 93 10000 0.5 0 21:20 18.03.2020
963 Clear 10 1025 93 10000 0.5 0 20:56 18.03.2020
964 Clear 10 1025 87 10000 0.5 0 20:38 18.03.2020
965 Clear 11 1025 81 10000 1.52 86 20:19 18.03.2020
966 Clear 12 1025 76 10000 1.52 86 19:42 18.03.2020
967 Clear 13 1025 62 10000 1.52 86 19:21 18.03.2020
968 Clear 14 1024 58 10000 2.1 310 18:59 18.03.2020
969 Clear 14 1024 58 10000 2.1 310 18:40 18.03.2020
970 Clear 16 1024 48 10000 2.1 320 18:19 18.03.2020
971 Clear 16 1024 52 10000 2.6 310 17:56 18.03.2020
972 Clear 17 1024 52 10000 2.6 310 17:38 18.03.2020
973 Clear 17 1024 45 10000 3.1 320 17:19 18.03.2020
974 Clear 18 1025 48 10000 3.1 290 16:43 18.03.2020
975 Clear 18 1025 52 10000 2.1 280 16:21 18.03.2020
976 Clear 18 1025 52 10000 2.1 280 15:58 18.03.2020
977 Clear 18 1025 48 10000 3.1 290 15:38 18.03.2020
978 Clear 17 1025 55 10000 3.1 280 15:20 18.03.2020
979 Clear 17 1026 52 10000 3.1 290 14:43 18.03.2020
980 Clear 17 1026 52 10000 3.1 290 14:21 18.03.2020
981 Clear 17 1027 55 10000 3.1 290 13:42 18.03.2020
982 Clouds 16 1027 55 10000 2.6 300 13:19 18.03.2020
983 Clouds 16 1027 55 10000 2.6 310 12:55 18.03.2020
984 Clouds 16 1027 55 10000 2.6 310 12:37 18.03.2020
985 Clouds 15 1028 54 10000 1.5 290 12:19 18.03.2020
986 Clouds 14 1028 58 10000 1 0 11:38 18.03.2020
987 Clouds 13 1028 62 10000 1 0 11:19 18.03.2020
988 Clouds 12 1029 58 10000 1 0 10:57 18.03.2020
989 Clouds 12 1029 58 10000 1 0 10:37 18.03.2020
990 Clouds 11 1029 71 10000 1 0 10:19 18.03.2020
991 Clouds 10 1029 76 10000 0.5 0 09:43 18.03.2020
992 Clouds 9 1029 81 10000 0.5 0 09:23 18.03.2020
993 Clouds 8 1029 100 10000 1 140 08:55 18.03.2020
994 Clouds 7 1029 100 10000 1 140 08:37 18.03.2020
995 Clear 5 1029 100 10000 1 120 08:19 18.03.2020
996 Fog 5 1029 93 10000 0.5 0 07:43 18.03.2020
997 Fog 4 1029 100 10000 0.5 0 07:25 18.03.2020
998 Clear 4 1029 100 10000 0.67 118 06:44 18.03.2020
999 Clear 4 1029 100 5000 0.5 0 05:56 18.03.2020
1000 Clear 4 1029 100 5000 0.5 0 05:33 18.03.2020
1001 Clear 5 1029 93 10000 1.5 50 04:24 18.03.2020
1002 Clear 6 1029 93 10000 0.5 0 02:42 18.03.2020
1003 Clear 7 1029 93 10000 0.5 0 01:47 18.03.2020
1004 Clouds 7 1029 87 10000 0.5 0 01:21 18.03.2020
1005 Clouds 8 1030 93 10000 0.5 0 00:23 18.03.2020
1006 Clouds 8 1030 93 10000 0.5 0 23:47 17.03.2020
1007 Clouds 8 1030 87 10000 2.1 160 23:26 17.03.2020
1008 Clouds 9 1030 93 10000 2.1 110 22:47 17.03.2020
1009 Clouds 9 1030 87 10000 0.5 0 22:29 17.03.2020
1010 Clouds 9 1030 87 10000 0.5 0 21:59 17.03.2020
1011 Clouds 9 1030 87 10000 0.5 0 21:37 17.03.2020
1012 Clouds 10 1030 87 10000 0.5 0 21:19 17.03.2020
1013 Clear 10 1029 81 10000 1 0 20:38 17.03.2020
1014 Clouds 11 1029 76 10000 0.5 0 20:20 17.03.2020
1015 Clouds 11 1029 76 10000 0.5 0 19:54 17.03.2020
1016 Clear 11 1029 66 10000 0.5 0 19:36 17.03.2020
1017 Clouds 12 1029 50 10000 0.5 0 19:18 17.03.2020
1018 Clouds 13 1028 47 10000 2.1 350 18:54 17.03.2020
1019 Clouds 14 1028 47 10000 2.1 350 18:36 17.03.2020
1020 Clouds 14 1028 47 10000 2.1 350 18:36 17.03.2020
1021 Clear 15 1028 48 10000 2.6 30 18:18 17.03.2020
1022 Clear 15 1028 48 10000 2.6 30 18:18 17.03.2020
1023 Clear 15 1028 45 10000 2.1 0 17:39 17.03.2020
1024 Clear 16 1028 45 10000 2.1 350 17:20 17.03.2020
1025 Clouds 16 1029 45 10000 2.6 340 16:44 17.03.2020
1026 Clouds 16 1029 45 10000 4.1 330 16:20 17.03.2020
1027 Clouds 16 1029 45 10000 4.1 330 15:56 17.03.2020
1028 Clouds 16 1029 45 10000 4.6 330 15:38 17.03.2020
1029 Clouds 16 1029 48 10000 4.6 340 15:18 17.03.2020
1030 Clouds 16 1029 36 10000 2.1 0 14:41 17.03.2020
1031 Clouds 16 1029 39 10000 1.5 0 14:18 17.03.2020
1032 Clouds 16 1030 42 10000 1.5 0 13:41 17.03.2020
1033 Clouds 15 1030 44 10000 1 0 13:22 17.03.2020
1034 Clouds 15 1030 47 10000 1 0 12:48 17.03.2020
1035 Clouds 15 1030 50 10000 1 0 12:26 17.03.2020
1036 Clouds 14 1031 54 10000 1 0 11:59 17.03.2020
1037 Clouds 13 1031 54 10000 1 0 11:39 17.03.2020
1038 Clouds 13 1031 54 10000 1 0 11:39 17.03.2020
1039 Clouds 12 1030 58 10000 1 0 11:21 17.03.2020
1040 Clouds 12 1031 62 10000 1 0 10:55 17.03.2020
1041 Clouds 12 1031 62 10000 1 0 10:36 17.03.2020
1042 Clouds 11 1031 66 10000 1.5 130 10:18 17.03.2020
1043 Clouds 10 1031 81 10000 3.6 90 09:45 17.03.2020
1044 Clouds 8 1031 87 10000 1.5 0 09:20 17.03.2020
1045 Clouds 7 1031 93 10000 1.5 0 08:58 17.03.2020
1046 Clouds 7 1031 93 10000 1.5 0 08:40 17.03.2020
1047 Clouds 5 1030 93 10000 0.5 0 08:18 17.03.2020
1048 Clouds 5 1030 100 10000 0.5 0 07:49 17.03.2020
1049 Clouds 5 1030 93 10000 0.5 0 07:20 17.03.2020
1050 Clouds 4 1030 93 10000 0.5 0 06:45 17.03.2020
1051 Clouds 5 1029 100 10000 1 0 06:25 17.03.2020
1052 Clouds 4 1029 83 10000 0.5 0 05:20 17.03.2020
1053 Clouds 5 1028 93 10000 1.5 0 03:27 17.03.2020
1054 Clouds 5 1027 93 10000 0.5 80 01:50 17.03.2020
1055 Clouds 5 1027 93 10000 0.5 80 01:30 17.03.2020
1056 Clouds 6 1027 93 10000 0.5 0 00:51 17.03.2020
1057 Clouds 6 1026 93 10000 1 0 23:52 16.03.2020
1058 Clouds 6 1026 93 10000 1 0 23:34 16.03.2020
1059 Clouds 7 1026 86 10000 0.5 0 22:55 16.03.2020
1060 Clouds 7 1026 86 10000 0.5 0 22:36 16.03.2020
1061 Clouds 7 1025 86 10000 0.5 0 22:18 16.03.2020
1062 Clouds 7 1025 86 10000 1 0 21:41 16.03.2020
1063 Clouds 8 1025 86 10000 1 120 21:23 16.03.2020
1064 Clouds 8 1025 86 10000 1 120 20:58 16.03.2020
1065 Clouds 9 1024 81 10000 1 0 20:38 16.03.2020
1066 Clouds 9 1024 75 10000 0.5 0 20:20 16.03.2020
1067 Clouds 10 1023 75 10000 1 0 19:43 16.03.2020
1068 Clouds 11 1023 62 10000 1 0 19:23 16.03.2020
1069 Clouds 11 1023 62 10000 1 0 18:57 16.03.2020
1070 Clouds 13 1022 50 10000 1 0 18:37 16.03.2020
1071 Clouds 14 1022 51 10000 1.5 310 18:18 16.03.2020
1072 Clouds 15 1021 36 10000 1 0 17:43 16.03.2020
1073 Clouds 15 1021 39 10000 1.5 0 17:24 16.03.2020
1074 Clouds 16 1021 31 10000 1 0 16:47 16.03.2020
1075 Clouds 15 1021 31 10000 1 0 16:29 16.03.2020
1076 Clouds 16 1021 36 10000 1 0 15:57 16.03.2020
1077 Clouds 16 1021 36 10000 1 0 15:39 16.03.2020
1078 Clouds 16 1021 39 10000 2.1 250 15:19 16.03.2020
1079 Clouds 15 1021 38 10000 1.5 0 14:43 16.03.2020
1080 Clouds 15 1021 41 10000 1 0 14:19 16.03.2020
1081 Clouds 15 1021 44 10000 0.5 0 13:42 16.03.2020
1082 Clouds 14 1021 44 10000 0.5 0 13:24 16.03.2020
1083 Clouds 14 1021 47 10000 0.5 0 12:46 16.03.2020
1084 Clouds 13 1021 47 10000 1 0 12:27 16.03.2020
1085 Clouds 12 1021 50 10000 1 0 11:59 16.03.2020
1086 Clouds 12 1021 50 10000 1 0 11:41 16.03.2020
1087 Clouds 11 1021 54 10000 1.5 160 11:18 16.03.2020
1088 Clouds 10 1021 61 10000 2.1 170 10:42 16.03.2020
1089 Clouds 9 1021 66 10000 1.5 100 10:24 16.03.2020
1090 Clouds 8 1020 75 10000 2.6 110 09:45 16.03.2020
1091 Clouds 7 1020 86 10000 3.1 100 09:27 16.03.2020
1092 Clouds 6 1020 86 10000 3.1 100 08:56 16.03.2020
1093 Clouds 3 1019 54 10000 1 0 08:26 16.03.2020
1094 Clear 2 1019 74 10000 1 0 07:50 16.03.2020
1095 Clear 2 1019 74 10000 1 0 07:28 16.03.2020
1096 Clear 1 1019 92 10000 0.5 0 06:54 16.03.2020
1097 Clear 1 1019 92 10000 0.5 0 06:54 16.03.2020
1098 Clear 1 1018 92 10000 1 130 06:26 16.03.2020
1099 Clear 2 1018 74 10000 1 0 05:54 16.03.2020
1100 Clear 3 1017 72 10000 0.5 0 02:46 16.03.2020
1101 Clouds 4 1016 76 10000 1 0 01:20 16.03.2020
1102 Clouds 4 1016 93 10000 1.5 130 00:42 16.03.2020
1103 Clouds 4 1016 93 10000 0.5 220 23:49 15.03.2020
1104 Clouds 5 1016 100 10000 0.5 0 23:21 15.03.2020
1105 Clouds 5 1016 100 10000 0.5 0 22:56 15.03.2020
1106 Clouds 5 1016 93 10000 1.39 148 22:37 15.03.2020
1107 Clouds 6 1016 93 10000 0.5 0 22:19 15.03.2020
1108 Clouds 6 1015 93 10000 1 0 21:39 15.03.2020
1109 Clouds 6 1015 93 10000 1 0 21:19 15.03.2020
1110 Clouds 7 1015 86 10000 1 120 20:43 15.03.2020
1111 Clouds 7 1015 81 10000 1 0 20:22 15.03.2020
1112 Clouds 8 1015 81 10000 1 0 19:58 15.03.2020
1113 Clouds 8 1015 81 10000 1 0 19:40 15.03.2020
1114 Clouds 9 1015 66 10000 1 0 19:22 15.03.2020
1115 Clouds 9 1015 66 10000 1 0 18:56 15.03.2020
1116 Clouds 11 1015 62 10000 2.1 240 18:38 15.03.2020
1117 Clouds 12 1015 50 10000 1.5 290 18:20 15.03.2020
1118 Clouds 13 1015 50 10000 2.1 280 17:41 15.03.2020
1119 Clouds 13 1015 44 10000 2.1 270 17:22 15.03.2020
1120 Clear 13 1015 44 10000 1.5 270 16:59 15.03.2020
1121 Clear 14 1015 44 10000 1.5 270 16:40 15.03.2020
1122 Clear 14 1015 44 10000 1 0 16:22 15.03.2020
1123 Clear 14 1015 44 10000 1 0 15:56 15.03.2020
1124 Clear 13 1016 47 10000 1 0 15:38 15.03.2020
1125 Clear 13 1016 44 10000 1 0 15:19 15.03.2020
1126 Clear 13 1016 50 10000 1 0 14:40 15.03.2020
1127 Clear 12 1017 47 10000 1 0 14:22 15.03.2020
1128 Clouds 12 1017 47 10000 1 0 13:56 15.03.2020
1129 Clouds 12 1017 43 10000 1.5 0 13:38 15.03.2020
1130 Clouds 11 1018 46 10000 1 0 13:19 15.03.2020
1131 Clouds 11 1018 51 10000 1 0 12:40 15.03.2020
1132 Clouds 10 1018 53 10000 2.1 320 12:22 15.03.2020
1133 Clouds 9 1019 57 10000 1 0 11:45 15.03.2020
1134 Clouds 9 1019 61 10000 1 0 11:26 15.03.2020
1135 Clouds 7 1019 65 10000 1 0 10:59 15.03.2020
1136 Clouds 7 1019 65 10000 1 0 10:40 15.03.2020
1137 Clouds 6 1019 75 10000 0.5 0 10:22 15.03.2020
1138 Clouds 5 1019 75 10000 0.5 0 09:59 15.03.2020
1139 Clouds 5 1019 80 10000 0.5 0 09:38 15.03.2020
1140 Clouds 4 1019 63 10000 0.5 0 09:20 15.03.2020
1141 Clouds 2 1019 63 10000 0.5 0 08:41 15.03.2020
1142 Clouds 1 1019 92 10000 1 330 08:19 15.03.2020
1143 Clouds 0 1019 100 10000 0.5 0 07:49 15.03.2020
1144 Clouds 0 1019 92 10000 1 0 07:22 15.03.2020
1145 Clouds -1 1019 92 10000 0.39 126 06:44 15.03.2020
1146 Clouds 0 1019 92 10000 1 180 05:49 15.03.2020
1147 Clear 0 1020 92 10000 0.5 0 04:57 15.03.2020
1148 Clear 0 1020 92 10000 0.5 0 04:39 15.03.2020
1149 Clear 0 1020 92 10000 1 0 04:20 15.03.2020
1150 Clear 0 1021 92 10000 0.5 0 03:19 15.03.2020
1151 Clear 1 1021 92 10000 1 120 02:23 15.03.2020
1152 Clear 1 1021 100 10000 1 140 00:59 15.03.2020
1153 Clear 1 1021 100 10000 1 0 00:40 15.03.2020
1154 Clear 2 1021 92 10000 1 150 00:19 15.03.2020
1155 Clear 2 1021 86 10000 1 0 23:39 14.03.2020
1156 Clear 2 1022 92 10000 1 0 23:20 14.03.2020
1157 Clear 3 1022 92 10000 1.5 140 22:56 14.03.2020
1158 Clear 3 1022 92 10000 1.5 140 22:37 14.03.2020
1159 Clear 3 1022 92 10000 1.5 140 22:37 14.03.2020
1160 Clear 3 1021 92 10000 1.5 90 22:19 14.03.2020
1161 Clear 3 1021 92 10000 1.5 90 21:55 14.03.2020
1162 Clear 4 1021 92 10000 1 100 21:36 14.03.2020
1163 Clouds 5 1021 80 10000 0.5 0 21:18 14.03.2020
1164 Clouds 5 1021 80 10000 0.5 0 20:56 14.03.2020
1165 Clouds 5 1021 80 10000 0.5 0 20:56 14.03.2020
1166 Clouds 5 1021 70 10000 0.5 0 20:38 14.03.2020
1167 Clouds 6 1021 65 10000 0.5 0 20:18 14.03.2020
1168 Clouds 7 1021 61 10000 1 0 19:41 14.03.2020
1169 Clouds 7 1021 85 10000 1 60 19:20 14.03.2020
1170 Clouds 8 1021 85 10000 1.5 40 18:40 14.03.2020
1171 Clouds 8 1020 85 10000 1 0 18:20 14.03.2020
1172 Clouds 9 1020 85 10000 2.6 350 17:42 14.03.2020
1173 Clouds 9 1020 85 10000 3.1 340 17:24 14.03.2020
1174 Clouds 9 1020 63 10000 2.1 0 16:59 14.03.2020
1175 Clouds 9 1020 63 10000 2.1 0 16:38 14.03.2020
1176 Clouds 10 1019 63 10000 2.6 290 16:19 14.03.2020
1177 Clouds 10 1020 40 10000 2.6 300 15:46 14.03.2020
1178 Clouds 10 1020 43 10000 3.1 320 15:22 14.03.2020
1179 Clouds 9 1020 46 10000 2.1 280 14:43 14.03.2020
1180 Clouds 9 1020 63 10000 2.1 310 14:21 14.03.2020
1181 Clouds 9 1020 53 10000 2.1 310 13:57 14.03.2020
1182 Clouds 9 1020 53 10000 1.5 0 13:38 14.03.2020
1183 Clouds 9 1020 57 10000 1 0 13:20 14.03.2020
1184 Clouds 8 1021 54 10000 1 0 12:44 14.03.2020
1185 Clouds 8 1021 65 10000 1 0 12:26 14.03.2020
1186 Clouds 7 1021 70 10000 0.5 0 11:46 14.03.2020
1187 Clouds 7 1021 70 10000 1.5 0 11:26 14.03.2020
1188 Clouds 6 1021 70 10000 1 0 10:57 14.03.2020
1189 Clouds 6 1021 70 10000 1 0 10:39 14.03.2020
1190 Clouds 5 1021 75 10000 0.5 0 10:20 14.03.2020
1191 Clouds 4 1020 80 10000 0.5 0 09:41 14.03.2020
1192 Clouds 4 1020 86 10000 0.5 0 09:22 14.03.2020
1193 Clouds 3 1020 93 10000 1 0 08:47 14.03.2020
1194 Clouds 3 1020 93 10000 1 0 08:28 14.03.2020
1195 Clouds 2 1019 86 10000 0.5 0 07:51 14.03.2020
1196 Clouds 1 1019 86 10000 0.5 0 07:23 14.03.2020
1197 Clouds 1 1019 86 10000 0.5 0 06:59 14.03.2020
1198 Clouds 1 1019 86 10000 1 120 06:39 14.03.2020
1199 Clouds 1 1019 80 10000 0.5 0 05:19 14.03.2020
1200 Clouds 2 1019 100 10000 0.5 0 03:43 14.03.2020
1201 Clouds 2 1019 100 10000 1 0 03:23 14.03.2020
1202 Clouds 2 1020 80 10000 0.5 0 02:22 14.03.2020
1203 Clouds 2 1020 82 10000 1.5 120 00:44 14.03.2020
1204 Clouds 2 1021 82 10000 0.5 0 23:45 13.03.2020
1205 Clouds 2 1021 82 10000 1 0 23:27 13.03.2020
1206 Clouds 3 1021 78 10000 1.5 0 22:49 13.03.2020
1207 Clouds 3 1021 78 10000 1.5 0 22:26 13.03.2020
1208 Clouds 4 1021 78 10000 1 0 21:44 13.03.2020
1209 Clouds 4 1021 86 10000 1.5 0 21:21 13.03.2020
1210 Clouds 4 1020 86 10000 2.1 120 20:58 13.03.2020
1211 Clouds 4 1020 86 10000 2.1 120 20:39 13.03.2020
1212 Clouds 4 1020 86 10000 2.1 120 20:39 13.03.2020
1213 Clouds 5 1020 80 10000 1.5 0 20:20 13.03.2020
1214 Clouds 6 1021 75 10000 2.1 100 19:47 13.03.2020
1215 Clouds 6 1021 75 10000 2.1 100 19:28 13.03.2020
1216 Clouds 7 1020 65 10000 2.1 180 18:47 13.03.2020
1217 Clouds 8 1020 43 0 1.5 30 18:29 13.03.2020
1218 Clouds 9 1021 53 10000 3.1 140 17:57 13.03.2020
1219 Clouds 9 1021 53 10000 3.1 140 17:38 13.03.2020
1220 Clouds 9 1021 50 10000 2.1 160 17:19 13.03.2020
1221 Clouds 10 1021 50 10000 2.1 0 16:42 13.03.2020
1222 Clouds 9 1021 53 10000 2.1 140 16:24 13.03.2020
1223 Clouds 9 1021 53 10000 2.1 140 15:56 13.03.2020
1224 Clouds 9 1021 57 10000 3.1 130 15:37 13.03.2020
1225 Clouds 9 1021 57 10000 1.5 0 15:19 13.03.2020
1226 Clouds 9 1022 46 10000 1 0 14:41 13.03.2020
1227 Clouds 9 1022 46 10000 1 0 14:41 13.03.2020
1228 Clouds 9 1022 55 10000 1 0 14:22 13.03.2020
1229 Clouds 9 1022 55 10000 1 0 14:22 13.03.2020
1230 Clouds 9 1022 53 10000 1 0 13:56 13.03.2020
1231 Clouds 9 1022 53 10000 1 0 13:38 13.03.2020
1232 Clouds 9 1023 53 10000 2.1 260 13:19 13.03.2020
1233 Clouds 8 1023 52 10000 2.6 260 12:40 13.03.2020
1234 Clouds 8 1022 52 10000 2.6 260 12:22 13.03.2020
1235 Clouds 8 1023 52 10000 4.1 300 11:59 13.03.2020
1236 Clouds 8 1023 52 10000 4.1 300 11:41 13.03.2020
1237 Clouds 7 1022 52 10000 3.1 290 11:22 13.03.2020
1238 Clouds 7 1022 72 10000 3.6 310 10:48 13.03.2020
1239 Clouds 7 1023 72 10000 5.1 300 10:28 13.03.2020
1240 Clouds 6 1023 72 10000 5.1 300 09:58 13.03.2020
1241 Clouds 6 1022 72 10000 4.6 290 09:39 13.03.2020
1242 Clouds 6 1022 72 10000 3.6 280 09:20 13.03.2020
1243 Clouds 6 1022 72 10000 5.1 270 08:45 13.03.2020
1244 Clouds 6 1021 61 10000 5.1 270 08:23 13.03.2020
1245 Clouds 6 1021 61 10000 4.6 280 07:50 13.03.2020
1246 Clouds 6 1021 61 10000 4.6 280 07:28 13.03.2020
1247 Clouds 6 1020 65 10000 4.6 280 06:50 13.03.2020
1248 Clouds 6 1020 65 10000 4.6 280 06:32 13.03.2020
1249 Clouds 7 1020 70 10000 2.1 280 05:54 13.03.2020
1250 Clouds 7 1020 70 10000 4.1 290 05:22 13.03.2020
1251 Clouds 8 1019 70 10000 4.1 280 04:37 13.03.2020
1252 Clouds 8 1019 71 10000 2.6 270 03:37 13.03.2020
1253 Clouds 9 1019 71 10000 4.1 270 01:46 13.03.2020
1254 Clouds 9 1019 71 10000 3.1 280 01:19 13.03.2020
1255 Clouds 9 1019 71 10000 3.1 280 00:53 13.03.2020
1256 Clouds 9 1018 76 10000 4.1 300 00:24 13.03.2020
1257 Clouds 9 1018 76 10000 3.6 270 23:48 12.03.2020
1258 Rain 10 1018 76 10000 2.1 260 23:26 12.03.2020
1259 Rain 10 1018 76 10000 2.6 210 22:56 12.03.2020
1260 Rain 11 1018 76 10000 2.6 210 22:38 12.03.2020
1261 Rain 11 1017 76 10000 2.1 220 22:19 12.03.2020
1262 Clouds 11 1018 81 10000 1.5 0 21:43 12.03.2020
1263 Rain 11 1017 66 10000 3.6 260 21:25 12.03.2020
1264 Rain 11 1017 66 10000 3.6 260 21:25 12.03.2020
1265 Clouds 11 1017 62 10000 4.1 260 20:56 12.03.2020
1266 Clouds 12 1017 62 10000 4.1 260 20:37 12.03.2020
1267 Clouds 12 1017 58 10000 7.2 280 20:18 12.03.2020
1268 Clouds 13 1017 62 10000 6.7 290 19:39 12.03.2020
1269 Clouds 13 1016 62 10000 5.7 290 19:20 12.03.2020
1270 Clouds 13 1016 62 10000 6.2 290 18:43 12.03.2020
1271 Clouds 13 1016 62 10000 6.2 290 18:43 12.03.2020
1272 Clouds 13 1016 59 10000 5.1 290 18:24 12.03.2020
1273 Clouds 14 1016 59 10000 4.6 280 17:57 12.03.2020
1274 Clouds 14 1016 59 10000 4.6 280 17:37 12.03.2020
1275 Clouds 15 1015 55 10000 4.6 290 17:18 12.03.2020
1276 Clouds 15 1015 55 10000 4.6 310 16:54 12.03.2020
1277 Clouds 15 1015 55 10000 4.6 310 16:36 12.03.2020
1278 Clouds 15 1016 51 10000 4.6 290 16:18 12.03.2020
1279 Clouds 15 1016 48 10000 5.1 290 15:41 12.03.2020
1280 Clouds 15 1016 48 10000 4.6 260 15:22 12.03.2020
1281 Clouds 16 1016 45 10000 5.7 260 14:39 12.03.2020
1282 Clouds 16 1017 48 10000 4.6 270 14:19 12.03.2020
1283 Clouds 15 1017 55 10000 4.1 300 13:41 12.03.2020
1284 Clouds 15 1017 51 10000 3.6 290 13:22 12.03.2020
1285 Clouds 15 1017 51 10000 4.6 290 12:56 12.03.2020
1286 Clouds 14 1017 51 10000 4.6 290 12:38 12.03.2020
1287 Clouds 14 1018 51 10000 4.1 260 12:19 12.03.2020
1288 Clouds 14 1018 71 10000 1.5 0 11:56 12.03.2020
1289 Clouds 13 1018 71 10000 1.5 0 11:37 12.03.2020
1290 Clouds 12 1018 71 10000 1 0 11:19 12.03.2020
1291 Clouds 12 1018 71 10000 1 0 11:19 12.03.2020
1292 Clouds 12 1018 76 10000 1.5 160 10:57 12.03.2020
1293 Clouds 12 1018 76 10000 1.5 160 10:57 12.03.2020
1294 Clouds 11 1018 76 10000 1.5 160 10:39 12.03.2020
1295 Clouds 11 1019 76 10000 1.5 140 10:21 12.03.2020
1296 Clouds 10 1019 87 10000 1 0 09:43 12.03.2020
1297 Clouds 10 1019 87 10000 1 0 09:43 12.03.2020
1298 Clouds 10 1019 93 10000 6.2 250 09:25 12.03.2020
1299 Clouds 9 1018 100 10000 0.5 0 08:41 12.03.2020
1300 Clouds 7 1018 100 10000 1 130 08:20 12.03.2020
1301 Clouds 6 1018 100 10000 1 0 07:53 12.03.2020
1302 Clouds 6 1018 100 10000 0.5 0 07:23 12.03.2020
1303 Clouds 5 1018 100 10000 1.5 150 06:52 12.03.2020
1304 Clouds 6 1018 100 10000 0.5 0 05:41 12.03.2020
1305 Clear 6 1019 93 10000 1 0 04:29 12.03.2020
1306 Clear 6 1020 100 10000 1 0 02:36 12.03.2020
1307 Clouds 7 1020 93 10000 1 0 01:30 12.03.2020
1308 Clear 7 1020 93 10000 3.6 100 00:43 12.03.2020
1309 Clear 7 1020 87 10000 3.6 100 00:24 12.03.2020
1310 Clear 8 1020 93 10000 3.6 110 23:42 11.03.2020
1311 Clear 8 1020 87 10000 2.6 100 23:23 11.03.2020
1312 Clear 8 1020 93 10000 2.6 110 22:45 11.03.2020
1313 Clear 8 1020 93 10000 1 0 22:27 11.03.2020
1314 Clear 8 1020 93 10000 1 0 21:59 11.03.2020
1315 Clear 8 1021 87 10000 0.5 0 21:41 11.03.2020
1316 Clear 8 1021 87 10000 0.5 0 21:41 11.03.2020
1317 Clear 9 1021 93 10000 0.5 0 21:22 11.03.2020
1318 Clear 9 1021 93 10000 0.5 0 20:58 11.03.2020
1319 Clouds 9 1021 93 10000 1 0 20:39 11.03.2020
1320 Clear 10 1021 87 10000 0.5 0 20:19 11.03.2020
1321 Clear 10 1020 81 10000 0.5 0 19:43 11.03.2020
1322 Clear 11 1020 71 10000 0.5 0 19:25 11.03.2020
1323 Clear 12 1020 71 10000 0.5 0 18:58 11.03.2020
1324 Clouds 12 1020 66 10000 1.5 0 18:39 11.03.2020
1325 Clouds 14 1020 58 10000 1.77 215 18:21 11.03.2020
1326 Clouds 14 1020 59 10000 3.6 270 17:57 11.03.2020
1327 Clouds 14 1020 59 10000 3.6 270 17:39 11.03.2020
1328 Clouds 15 1021 55 10000 3.6 270 17:20 11.03.2020
1329 Clouds 15 1021 59 10000 3.6 260 16:46 11.03.2020
1330 Clouds 15 1021 55 10000 3.6 270 16:22 11.03.2020
1331 Clouds 15 1021 55 10000 5.1 270 15:45 11.03.2020
1332 Clouds 15 1021 63 10000 4.6 270 15:24 11.03.2020
1333 Clouds 14 1021 63 10000 4.6 270 14:58 11.03.2020
1334 Clouds 14 1021 63 10000 4.6 280 14:40 11.03.2020
1335 Clouds 14 1022 63 10000 4.1 300 14:21 11.03.2020
1336 Clouds 14 1022 62 10000 5.1 280 13:44 11.03.2020
1337 Clouds 14 1022 62 10000 5.1 280 13:26 11.03.2020
1338 Clouds 14 1022 67 10000 6.2 290 12:58 11.03.2020
1339 Clouds 13 1022 67 10000 4.1 280 12:39 11.03.2020
1340 Clouds 13 1022 76 10000 1 0 12:19 11.03.2020
1341 Clouds 12 1022 81 10000 2.1 110 11:42 11.03.2020
1342 Clouds 12 1023 81 10000 0.5 0 11:24 11.03.2020
1343 Clouds 11 1023 81 10000 0.5 0 10:57 11.03.2020
1344 Clouds 11 1023 87 10000 1 0 10:39 11.03.2020
1345 Clouds 10 1023 87 10000 1 0 10:18 11.03.2020
1346 Clouds 9 1023 93 10000 0.5 0 09:42 11.03.2020
1347 Clouds 9 1023 93 10000 0.5 0 09:24 11.03.2020
1348 Clouds 8 1023 93 10000 1 0 08:45 11.03.2020
1349 Clouds 8 1023 93 10000 1 0 08:27 11.03.2020
1350 Clouds 8 1022 100 10000 1 150 07:56 11.03.2020
1351 Clouds 8 1022 100 10000 1 0 07:37 11.03.2020
1352 Clouds 8 1022 93 10000 0.5 0 07:18 11.03.2020
1353 Clouds 7 1022 100 10000 1 0 06:37 11.03.2020
1354 Clouds 7 1022 100 10000 0.5 0 05:33 11.03.2020
1355 Clouds 7 1021 100 10000 2.1 100 03:39 11.03.2020
1356 Clouds 7 1022 93 10000 0.5 0 01:57 11.03.2020
1357 Clouds 7 1021 100 10000 2.6 100 01:25 11.03.2020
1358 Rain 6 1021 100 10000 2.6 100 00:45 11.03.2020
1359 Rain 6 1022 93 9000 1 0 23:51 10.03.2020
1360 Rain 6 1022 93 9000 1 0 23:51 10.03.2020
1361 Rain 6 1022 93 10000 0.5 0 23:29 10.03.2020
1362 Rain 6 1022 93 10000 1.5 0 22:59 10.03.2020
1363 Rain 6 1022 93 10000 1.5 0 22:38 10.03.2020
1364 Rain 6 1021 93 10000 2.1 100 22:19 10.03.2020
1365 Rain 6 1021 93 10000 2.1 100 21:56 10.03.2020
1366 Clouds 6 1021 93 10000 1 0 21:38 10.03.2020
1367 Rain 6 1021 93 10000 2.6 90 21:19 10.03.2020
1368 Rain 6 1021 93 10000 2.6 90 20:56 10.03.2020
1369 Rain 6 1021 93 10000 1.5 110 20:38 10.03.2020
1370 Drizzle 6 1021 93 8000 2.1 110 20:18 10.03.2020
1371 Drizzle 6 1021 93 8000 2.1 110 19:55 10.03.2020
1372 Rain 6 1021 93 10000 2.1 90 19:36 10.03.2020
1373 Rain 6 1020 93 10000 4.1 120 19:18 10.03.2020
1374 Clouds 6 1020 93 10000 2.1 130 18:42 10.03.2020
1375 Clouds 6 1020 93 10000 1 110 18:23 10.03.2020
1376 Rain 6 1019 93 10000 2.14 211 17:56 10.03.2020
1377 Rain 5 1019 93 10000 2.14 211 17:38 10.03.2020
1378 Clouds 5 1019 93 10000 2.1 130 17:20 10.03.2020
1379 Drizzle 5 1019 93 8000 2.62 241 16:38 10.03.2020
1380 Drizzle 5 1019 93 8000 2.62 241 16:38 10.03.2020
1381 Rain 5 1019 93 8000 2.62 241 16:18 10.03.2020
1382 Rain 5 1019 93 8000 2.62 241 15:55 10.03.2020
1383 Rain 5 1019 93 8000 2.62 241 15:36 10.03.2020
1384 Rain 5 1019 93 7000 2.62 241 15:18 10.03.2020
1385 Rain 5 1019 93 7000 2.62 241 14:40 10.03.2020
1386 Rain 4 1019 93 10000 1 0 14:19 10.03.2020
1387 Rain 4 1019 93 10000 1 0 13:54 10.03.2020
1388 Rain 4 1019 86 8000 1.92 240 13:36 10.03.2020
1389 Rain 4 1020 86 10000 2.1 0 13:18 10.03.2020
1390 Rain 4 1020 86 10000 2.1 150 12:39 10.03.2020
1391 Rain 4 1020 86 10000 2.6 160 12:19 10.03.2020
1392 Rain 4 1020 86 10000 2.6 150 11:43 10.03.2020
1393 Drizzle 4 1020 80 10000 2.1 120 11:25 10.03.2020
1394 Drizzle 4 1020 80 10000 1.5 110 10:59 10.03.2020
1395 Drizzle 3 1020 80 10000 1.5 110 10:41 10.03.2020
1396 Clouds 3 1020 80 10000 0.5 0 10:22 10.03.2020
1397 Clouds 3 1020 80 10000 0.5 0 09:56 10.03.2020
1398 Clouds 3 1020 86 10000 1 0 09:37 10.03.2020
1399 Clouds 3 1020 86 10000 1 0 09:18 10.03.2020
1400 Clouds 3 1020 86 10000 1 0 09:18 10.03.2020
1401 Clouds 3 1020 93 10000 3.1 150 08:45 10.03.2020
1402 Rain 2 1020 86 10000 2.6 160 08:26 10.03.2020
1403 Rain 3 1020 90 7000 2.1 180 07:46 10.03.2020
1404 Rain 2 1020 90 7000 2.1 180 07:28 10.03.2020
1405 Clouds 3 1020 90 10000 3.1 130 06:42 10.03.2020
1406 Clouds 3 1020 74 10000 2.6 120 06:23 10.03.2020
1407 Clouds 3 1020 90 10000 3.1 130 05:39 10.03.2020
1408 Clouds 2 1019 86 10000 3.1 100 04:35 10.03.2020
1409 Clouds 2 1020 86 10000 3.1 130 03:35 10.03.2020
1410 Clouds 2 1021 90 10000 3.1 120 02:18 10.03.2020
1411 Clouds 3 1021 86 10000 1 0 00:54 10.03.2020
1412 Clouds 3 1021 86 10000 1 0 00:30 10.03.2020
1413 Clouds 3 1022 86 10000 1 0 23:57 09.03.2020
1414 Clouds 3 1022 86 10000 1 0 23:57 09.03.2020
1415 Clouds 3 1022 86 10000 1 0 23:38 09.03.2020
1416 Clouds 3 1021 86 10000 1 0 23:20 09.03.2020
1417 Clouds 3 1021 93 10000 1.5 0 22:40 09.03.2020
1418 Clouds 3 1022 93 10000 2.1 140 22:22 09.03.2020
1419 Clouds 3 1022 93 10000 2.1 140 21:57 09.03.2020
1420 Clouds 3 1021 93 10000 0.5 0 21:38 09.03.2020
1421 Clouds 3 1021 91 10000 1 0 21:20 09.03.2020
1422 Clouds 3 1021 91 10000 0.5 0 20:55 09.03.2020
1423 Clouds 3 1021 91 10000 0.5 0 20:36 09.03.2020
1424 Rain 3 1021 92 10000 0.5 0 20:18 09.03.2020
1425 Clouds 3 1021 93 10000 0.5 0 19:42 09.03.2020
1426 Rain 4 1020 93 10000 1 0 19:20 09.03.2020
1427 Rain 4 1020 93 10000 1 0 18:57 09.03.2020
1428 Rain 5 1019 70 10000 3.1 280 18:38 09.03.2020
1429 Clouds 5 1019 93 10000 3.1 290 18:19 09.03.2020
1430 Clouds 6 1019 70 10000 1 320 17:57 09.03.2020
1431 Clouds 6 1019 70 10000 1 320 17:37 09.03.2020
1432 Clouds 6 1018 75 10000 2.6 250 17:19 09.03.2020
1433 Clouds 6 1018 70 10000 3.6 240 16:57 09.03.2020
1434 Clouds 6 1018 70 10000 3.6 240 16:39 09.03.2020
1435 Rain 6 1017 81 10000 3.6 230 16:20 09.03.2020
1436 Rain 6 1017 81 10000 3.6 230 15:57 09.03.2020
1437 Drizzle 6 1017 80 10000 5.1 250 15:38 09.03.2020
1438 Drizzle 5 1017 80 10000 5.1 250 15:19 09.03.2020
1439 Rain 5 1017 80 10000 5.1 250 14:41 09.03.2020
1440 Rain 5 1017 80 10000 5.1 250 14:41 09.03.2020
1441 Rain 5 1016 70 10000 2.6 250 14:23 09.03.2020
1442 Clouds 6 1016 61 10000 3.1 270 13:59 09.03.2020
1443 Clouds 6 1016 61 10000 3.1 270 13:40 09.03.2020
1444 Clouds 7 1017 61 10000 2.6 240 13:21 09.03.2020
1445 Clouds 7 1017 61 10000 2.6 240 12:59 09.03.2020
1446 Clouds 7 1017 61 10000 2.6 240 12:40 09.03.2020
1447 Clouds 6 1017 81 10000 3.6 230 12:20 09.03.2020
1448 Rain 6 1017 80 10000 3.6 220 11:40 09.03.2020
1449 Rain 6 1017 80 10000 3.6 220 11:40 09.03.2020
1450 Rain 5 1017 80 6000 6.7 280 11:20 09.03.2020
1451 Clouds 5 1016 65 10000 4.1 270 10:58 09.03.2020
1452 Clouds 5 1016 65 10000 4.1 270 10:40 09.03.2020
1453 Clouds 5 1016 65 10000 4.1 270 10:40 09.03.2020
1454 Clouds 5 1017 70 10000 2.6 230 10:19 09.03.2020
1455 Clouds 5 1017 70 10000 2.6 230 10:19 09.03.2020
1456 Clouds 5 1016 75 10000 2.6 240 09:43 09.03.2020
1457 Clouds 5 1016 80 10000 3.6 240 09:24 09.03.2020
1458 Rain 4 1016 80 10000 4.1 250 08:54 09.03.2020
1459 Rain 4 1016 80 10000 4.6 270 08:36 09.03.2020
1460 Rain 4 1016 80 10000 4.6 270 08:18 09.03.2020
1461 Rain 4 1016 80 10000 4.6 270 08:18 09.03.2020
1462 Clouds 4 1015 80 10000 2.6 250 07:39 09.03.2020
1463 Drizzle 4 1015 80 10000 4.1 250 07:20 09.03.2020
1464 Drizzle 4 1015 80 10000 2.6 240 06:41 09.03.2020
1465 Rain 4 1015 80 10000 4.6 240 06:23 09.03.2020
1466 Rain 5 1015 80 10000 4.6 240 05:45 09.03.2020
1467 Rain 5 1014 81 10000 5.7 250 04:59 09.03.2020
1468 Rain 5 1014 81 10000 5.7 250 04:40 09.03.2020
1469 Drizzle 5 1014 81 10000 4.1 290 04:21 09.03.2020
1470 Rain 5 1014 75 10000 3.1 260 02:55 09.03.2020
1471 Drizzle 5 1015 80 10000 1 0 00:44 09.03.2020
1472 Clouds 5 1015 86 10000 1.5 60 00:25 09.03.2020
1473 Clouds 5 1015 80 10000 1.5 300 23:59 08.03.2020
1474 Clouds 5 1015 80 10000 1.5 300 23:38 08.03.2020
1475 Clouds 5 1015 80 10000 1 0 23:18 08.03.2020
1476 Clouds 5 1015 80 10000 0.5 0 22:41 08.03.2020
1477 Clouds 5 1015 86 10000 0.5 0 22:22 08.03.2020
1478 Clouds 5 1015 86 10000 2.1 130 21:59 08.03.2020
1479 Clouds 5 1015 86 10000 2.1 130 21:41 08.03.2020
1480 Clouds 5 1015 86 10000 1.5 120 21:20 08.03.2020
1481 Clouds 5 1015 80 10000 0.5 0 20:58 08.03.2020
1482 Clouds 5 1016 86 10000 1 0 20:38 08.03.2020
1483 Clouds 5 1016 86 10000 1 0 20:19 08.03.2020
1484 Clouds 5 1016 86 10000 1 0 20:19 08.03.2020
1485 Clouds 6 1016 75 10000 1 0 19:40 08.03.2020
1486 Clouds 6 1016 76 10000 0.5 0 19:19 08.03.2020
1487 Clouds 7 1016 61 10000 1.5 200 18:55 08.03.2020
1488 Clouds 7 1016 61 10000 1.5 200 18:37 08.03.2020
1489 Clouds 8 1016 76 10000 1 0 18:19 08.03.2020
1490 Clouds 9 1017 43 10000 2.1 0 17:40 08.03.2020
1491 Clouds 10 1017 43 10000 2.1 0 17:22 08.03.2020
1492 Clouds 10 1017 43 10000 2.1 0 16:58 08.03.2020
1493 Clouds 10 1017 43 10000 2.1 0 16:40 08.03.2020
1494 Clouds 10 1017 43 10000 2.1 0 16:22 08.03.2020
1495 Clouds 10 1017 37 10000 2.1 0 15:41 08.03.2020
1496 Clouds 10 1017 37 10000 2.1 0 15:22 08.03.2020
1497 Clouds 10 1018 46 10000 1.5 0 14:59 08.03.2020
1498 Clouds 9 1018 45 10000 1 0 14:37 08.03.2020
1499 Clouds 9 1018 45 10000 1 0 14:19 08.03.2020
1500 Clouds 8 1020 42 10000 1 0 13:42 08.03.2020
1501 Clouds 8 1020 52 10000 2.1 330 13:21 08.03.2020
1502 Clouds 7 1021 48 10000 3.1 360 12:56 08.03.2020
1503 Clouds 7 1021 48 10000 3.1 360 12:36 08.03.2020
1504 Clouds 7 1021 48 10000 3.1 360 12:18 08.03.2020
1505 Clouds 6 1022 65 10000 1 0 11:41 08.03.2020
1506 Clouds 5 1022 64 10000 1.5 0 11:21 08.03.2020
1507 Clouds 4 1022 64 10000 1.5 0 10:57 08.03.2020
1508 Clouds 4 1022 64 10000 1.5 0 10:39 08.03.2020
1509 Clouds 4 1022 64 10000 1.5 0 10:20 08.03.2020
1510 Clouds 2 1023 74 10000 0.5 0 09:38 08.03.2020
1511 Clouds 2 1023 74 10000 0.5 0 09:20 08.03.2020
1512 Clouds 0 1023 92 10000 0.5 0 08:43 08.03.2020
1513 Clouds -1 1023 100 10000 1 219 08:21 08.03.2020
1514 Clouds -1 1022 92 10000 0.5 0 07:46 08.03.2020
1515 Clouds -2 1022 92 10000 0.5 0 07:27 08.03.2020
1516 Clouds -2 1022 92 10000 0.5 0 06:43 08.03.2020
1517 Clouds -2 1022 92 10000 0.5 0 06:25 08.03.2020
1518 Clouds -2 1022 92 10000 0.5 0 05:43 08.03.2020
1519 Clouds -1 1022 92 10000 0.5 0 03:52 08.03.2020
1520 Clouds -1 1023 92 10000 0.5 0 02:58 08.03.2020
1521 Clear -1 1024 92 10000 1 110 01:38 08.03.2020
1522 Clear -1 1024 92 10000 0.5 0 01:18 08.03.2020
1523 Clear -1 1024 92 10000 0.5 0 00:30 08.03.2020
1524 Clear 0 1024 92 10000 1 110 23:57 07.03.2020
1525 Clear 0 1024 92 10000 0.5 330 23:36 07.03.2020
1526 Clear 0 1024 92 10000 0.5 330 23:36 07.03.2020
1527 Clear 0 1024 92 10000 0.5 330 23:18 07.03.2020
1528 Clear 1 1024 92 10000 0.5 0 22:38 07.03.2020
1529 Clear 1 1024 92 10000 0.5 0 22:19 07.03.2020
1530 Clear 1 1024 89 10000 0.5 0 21:44 07.03.2020
1531 Clear 1 1024 86 10000 1.5 120 21:22 07.03.2020
1532 Clear 1 1024 89 10000 0.5 0 20:41 07.03.2020
1533 Clouds 2 1023 80 10000 1 0 20:21 07.03.2020
1534 Clouds 3 1023 74 10000 1 0 19:42 07.03.2020
1535 Clouds 3 1023 69 10000 0.58 342 19:23 07.03.2020
1536 Clouds 4 1022 55 10000 1.5 260 18:59 07.03.2020
1537 Clouds 4 1022 55 10000 1.5 260 18:39 07.03.2020
1538 Clouds 5 1022 52 10000 3.1 270 18:21 07.03.2020
1539 Clouds 5 1021 48 10000 3.6 290 17:42 07.03.2020
1540 Clouds 6 1021 48 10000 5.1 280 17:20 07.03.2020
1541 Clouds 6 1021 52 10000 5.1 300 16:56 07.03.2020
1542 Clouds 6 1021 52 10000 5.1 300 16:38 07.03.2020
1543 Clouds 6 1020 45 10000 4.6 300 16:20 07.03.2020
1544 Clouds 6 1020 48 10000 4.1 290 15:55 07.03.2020
1545 Clouds 7 1020 48 10000 3.6 300 15:36 07.03.2020
1546 Clouds 7 1020 48 10000 3.6 300 15:18 07.03.2020
1547 Rain 6 1020 48 10000 4.6 300 14:42 07.03.2020
1548 Rain 6 1019 49 10000 4.6 290 14:23 07.03.2020
1549 Clouds 6 1020 52 10000 3.1 300 13:44 07.03.2020
1550 Clouds 6 1020 49 10000 2.6 310 13:22 07.03.2020
1551 Clouds 6 1020 48 10000 1 0 12:59 07.03.2020
1552 Clouds 6 1019 52 10000 3.6 280 12:39 07.03.2020
1553 Clouds 6 1019 52 10000 3.6 280 12:19 07.03.2020
1554 Clouds 6 1019 52 10000 2.1 290 11:55 07.03.2020
1555 Clouds 5 1019 56 10000 3.6 300 11:36 07.03.2020
1556 Clouds 5 1019 56 10000 3.6 300 11:36 07.03.2020
1557 Clouds 5 1019 56 10000 3.6 300 11:18 07.03.2020
1558 Clouds 5 1019 77 10000 1 0 10:39 07.03.2020
1559 Clouds 4 1018 80 10000 2.1 110 10:19 07.03.2020
1560 Rain 4 1018 93 10000 1.5 140 09:41 07.03.2020
1561 Rain 3 1018 86 10000 1 190 09:20 07.03.2020
1562 Rain 3 1018 86 10000 1 190 09:20 07.03.2020
1563 Rain 3 1018 93 10000 1 100 08:59 07.03.2020
1564 Rain 3 1018 93 10000 1 100 08:41 07.03.2020
1565 Clouds 2 1017 93 10000 1 0 08:20 07.03.2020
1566 Clouds 2 1017 93 10000 1 0 08:20 07.03.2020
1567 Clouds 2 1017 100 10000 1 0 07:48 07.03.2020
1568 Clouds 2 1016 100 10000 2.1 120 07:22 07.03.2020
1569 Snow 2 1017 77 0 0.89 174 06:54 07.03.2020
1570 Snow 2 1017 77 0 1.34 190 06:29 07.03.2020
1571 Snow 2 1017 77 0 1.34 190 06:29 07.03.2020
1572 Clouds 2 1014 86 10000 2.1 150 05:46 07.03.2020
1573 Rain 3 1014 86 10000 1 30 04:34 07.03.2020
1574 Clouds 3 1013 97 10000 1.5 330 02:46 07.03.2020
1575 Rain 3 1012 69 10000 1 0 02:23 07.03.2020
1576 Clouds 4 1012 65 10000 2.6 240 01:23 07.03.2020
1577 Clouds 4 1011 65 10000 1.5 0 00:38 07.03.2020
1578 Clouds 4 1011 65 10000 1.5 0 00:19 07.03.2020
1579 Clouds 4 1011 65 10000 2.6 250 23:43 06.03.2020
1580 Clouds 4 1010 65 10000 1 0 23:24 06.03.2020
1581 Clouds 4 1010 60 10000 2.1 270 22:47 06.03.2020
1582 Clouds 4 1010 95 10000 0.5 0 22:21 06.03.2020
1583 Clouds 4 1009 95 10000 1 0 21:50 06.03.2020
1584 Clouds 4 1009 69 10000 0.5 0 21:21 06.03.2020
1585 Clouds 4 1008 69 10000 0.5 0 20:56 06.03.2020
1586 Clouds 4 1008 64 10000 1.5 280 20:36 06.03.2020
1587 Clouds 4 1008 64 10000 1.5 280 20:18 06.03.2020
1588 Clouds 5 1008 52 10000 2.6 290 19:43 06.03.2020
1589 Clouds 5 1007 48 10000 4.1 280 19:24 06.03.2020
1590 Clouds 5 1006 45 10000 4.1 290 18:43 06.03.2020
1591 Clouds 5 1005 45 10000 4.6 280 18:21 06.03.2020
1592 Clouds 5 1005 48 10000 5.7 290 17:57 06.03.2020
1593 Clouds 6 1005 48 10000 5.7 290 17:39 06.03.2020
1594 Clouds 6 1004 48 10000 5.7 270 17:21 06.03.2020
1595 Clouds 6 1004 49 10000 5.7 290 16:57 06.03.2020
1596 Clouds 6 1004 49 10000 5.7 290 16:39 06.03.2020
1597 Clouds 6 1004 49 10000 5.7 290 16:19 06.03.2020
1598 Clouds 6 1004 45 10000 5.1 270 15:42 06.03.2020
1599 Clouds 6 1003 49 10000 5.7 290 15:23 06.03.2020
1600 Clouds 6 1003 56 10000 5.1 300 14:42 06.03.2020
1601 Clouds 6 1003 52 10000 6.7 290 14:24 06.03.2020
1602 Clouds 6 1003 52 10000 5.7 290 13:58 06.03.2020
1603 Clouds 6 1003 52 10000 5.7 290 13:58 06.03.2020
1604 Clouds 6 1003 52 10000 5.7 290 13:40 06.03.2020
1605 Clouds 6 1003 52 10000 8.2 280 13:20 06.03.2020
1606 Clouds 6 1002 52 10000 7.2 270 12:54 06.03.2020
1607 Clouds 6 1002 56 10000 6.2 240 12:36 06.03.2020
1608 Clouds 6 1002 56 10000 6.2 240 12:18 06.03.2020
1609 Clouds 5 1002 60 10000 3.6 240 11:42 06.03.2020
1610 Clouds 5 1002 60 10000 3.6 240 11:20 06.03.2020
1611 Clouds 5 1002 60 10000 5.7 260 10:56 06.03.2020
1612 Clouds 4 1001 65 10000 3.1 260 10:36 06.03.2020
1613 Clouds 5 1001 65 10000 3.1 260 10:18 06.03.2020
1614 Drizzle 5 1001 65 10000 7.2 270 09:42 06.03.2020
1615 Clouds 5 1000 65 10000 7.2 270 09:23 06.03.2020
1616 Clouds 5 1000 65 10000 7.2 270 09:23 06.03.2020
1617 Clouds 4 1000 65 10000 6.2 270 08:56 06.03.2020
1618 Rain 4 1000 75 10000 5.1 230 08:37 06.03.2020
1619 Rain 4 1000 84 10000 5.1 230 08:18 06.03.2020
1620 Drizzle 4 1000 65 10000 5.7 280 07:42 06.03.2020
1621 Rain 4 999 84 10000 4.6 220 07:22 06.03.2020
1622 Rain 4 999 75 10000 6.7 240 06:43 06.03.2020
1623 Rain 4 999 75 10000 5.1 240 06:22 06.03.2020
1624 Rain 4 998 80 10000 6.2 260 05:38 06.03.2020
1625 Rain 5 998 70 10000 5.1 250 05:19 06.03.2020
1626 Clouds 5 998 70 10000 7.2 240 04:35 06.03.2020
1627 Clouds 6 996 65 10000 8.7 260 01:44 06.03.2020
1628 Clouds 6 996 65 10000 5.7 0 01:25 06.03.2020
1629 Rain 6 996 75 10000 4.1 230 00:50 06.03.2020
1630 Rain 6 995 70 10000 4.6 260 00:30 06.03.2020
1631 Rain 6 995 75 10000 3.1 280 23:44 05.03.2020
1632 Rain 6 995 93 10000 1 0 23:25 05.03.2020
1633 Clouds 6 994 93 10000 1 0 22:55 05.03.2020
1634 Clouds 6 995 81 10000 1.5 0 22:37 05.03.2020
1635 Clouds 6 995 81 10000 1.5 0 22:18 05.03.2020
1636 Clouds 6 994 87 10000 0.5 0 21:55 05.03.2020
1637 Clouds 6 995 87 10000 1.5 200 21:37 05.03.2020
1638 Clouds 6 995 87 10000 1.5 200 21:19 05.03.2020
1639 Clouds 6 995 87 10000 1.5 200 21:19 05.03.2020
1640 Rain 6 995 81 10000 0.5 0 20:42 05.03.2020
1641 Rain 6 995 81 5000 3.1 120 20:21 05.03.2020
1642 Rain 6 996 81 5000 3.1 200 19:59 05.03.2020
1643 Rain 6 996 81 5000 3.1 200 19:40 05.03.2020
1644 Rain 6 996 87 5000 5.1 270 19:21 05.03.2020
1645 Rain 6 996 81 5000 6.2 260 18:58 05.03.2020
1646 Rain 6 996 81 5000 6.2 260 18:37 05.03.2020
1647 Rain 6 995 87 6000 6.7 270 18:19 05.03.2020
1648 Rain 6 994 87 10000 1.5 300 17:57 05.03.2020
1649 Rain 6 994 87 10000 1.5 300 17:39 05.03.2020
1650 Rain 6 993 87 9000 0.93 163 17:21 05.03.2020
1651 Rain 7 994 93 10000 0.93 163 16:42 05.03.2020
1652 Rain 7 994 93 7000 1.5 120 16:24 05.03.2020
1653 Rain 6 995 93 7000 2.1 140 15:58 05.03.2020
1654 Rain 6 995 93 7000 2.1 140 15:58 05.03.2020
1655 Rain 6 995 93 7000 2.1 140 15:38 05.03.2020
1656 Rain 6 996 93 7000 1.5 140 15:20 05.03.2020
1657 Rain 6 996 87 6000 0.5 0 14:42 05.03.2020
1658 Rain 6 997 87 6000 0.5 0 14:23 05.03.2020
1659 Rain 6 998 93 6000 0.5 0 13:58 05.03.2020
1660 Rain 6 998 93 6000 0.5 0 13:40 05.03.2020
1661 Rain 6 998 93 6000 0.5 0 13:20 05.03.2020
1662 Rain 6 998 93 6000 0.5 0 13:20 05.03.2020
1663 Rain 6 999 93 6000 1.5 0 12:55 05.03.2020
1664 Rain 5 999 86 6000 1 0 12:37 05.03.2020
1665 Rain 5 999 86 6000 1 0 12:18 05.03.2020
1666 Rain 5 1000 86 6000 1 0 11:56 05.03.2020
1667 Rain 5 1000 93 10000 1 0 11:36 05.03.2020
1668 Rain 5 1000 93 10000 1 0 11:18 05.03.2020
1669 Rain 5 1001 93 8000 1 70 10:55 05.03.2020
1670 Rain 5 1001 86 10000 2.1 100 10:37 05.03.2020
1671 Rain 5 1001 86 10000 2.1 100 10:19 05.03.2020
1672 Rain 5 1002 93 9000 2.6 130 09:41 05.03.2020
1673 Rain 5 1003 93 9000 1.5 100 09:22 05.03.2020
1674 Rain 4 1003 93 10000 1 0 08:43 05.03.2020
1675 Rain 4 1004 100 7000 0.5 0 08:25 05.03.2020
1676 Drizzle 4 1004 93 10000 0.5 0 07:45 05.03.2020
1677 Drizzle 4 1004 93 10000 0.7 176 07:22 05.03.2020
1678 Clouds 4 1005 93 10000 0.5 0 06:46 05.03.2020
1679 Clouds 4 1005 93 10000 0.5 0 06:21 05.03.2020
1680 Drizzle 4 1006 93 10000 0.5 0 05:39 05.03.2020
1681 Clouds 5 1007 66 10000 2.1 90 04:33 05.03.2020
1682 Clouds 5 1007 80 10000 2.6 110 03:59 05.03.2020
1683 Clouds 5 1008 80 10000 1 0 03:19 05.03.2020
1684 Clouds 4 1009 80 10000 1 0 01:46 05.03.2020
1685 Clouds 4 1009 80 10000 1.5 160 01:20 05.03.2020
1686 Clouds 4 1010 86 10000 0.5 0 00:25 05.03.2020
1687 Clouds 4 1010 86 10000 0.5 0 23:42 04.03.2020
1688 Clouds 4 1010 80 10000 2.1 110 23:22 04.03.2020
1689 Clouds 4 1011 86 10000 2.1 120 22:58 04.03.2020
1690 Clouds 4 1011 86 10000 2.1 120 22:39 04.03.2020
1691 Clouds 4 1011 86 10000 2.1 100 22:19 04.03.2020
1692 Clouds 4 1011 86 10000 2.1 100 22:19 04.03.2020
1693 Clouds 4 1011 80 10000 1.5 130 21:57 04.03.2020
1694 Clouds 4 1011 80 10000 1.28 189 21:38 04.03.2020
1695 Clouds 4 1011 80 10000 1.28 189 21:20 04.03.2020
1696 Clouds 4 1011 80 10000 1.28 189 20:54 04.03.2020
1697 Clouds 4 1011 70 10000 1.28 189 20:36 04.03.2020
1698 Clouds 5 1011 70 10000 1.14 149 20:18 04.03.2020
1699 Clouds 5 1011 70 10000 1.06 169 19:42 04.03.2020
1700 Clouds 5 1011 56 10000 2.1 240 19:22 04.03.2020
1701 Clouds 5 1011 78 10000 1 240 18:54 04.03.2020
1702 Clouds 6 1011 52 10000 1.5 290 18:36 04.03.2020
1703 Clouds 6 1011 52 10000 1.5 290 18:18 04.03.2020
1704 Clouds 6 1011 78 10000 1.5 310 17:40 04.03.2020
1705 Clouds 6 1011 78 10000 1.5 310 17:40 04.03.2020
1706 Clouds 8 1012 52 10000 2.1 310 17:21 04.03.2020
1707 Clouds 8 1012 52 10000 3.1 300 16:59 04.03.2020
1708 Clouds 8 1012 52 10000 3.1 300 16:40 04.03.2020
1709 Clouds 8 1012 43 10000 2.6 290 16:22 04.03.2020
1710 Clouds 8 1012 45 10000 2.6 300 15:55 04.03.2020
1711 Clouds 8 1013 45 10000 3.1 300 15:36 04.03.2020
1712 Clouds 8 1013 45 10000 3.1 300 15:18 04.03.2020
1713 Clouds 8 1013 49 10000 3.6 270 14:41 04.03.2020
1714 Clouds 8 1013 45 10000 1.5 0 14:22 04.03.2020
1715 Clouds 7 1013 45 10000 1.5 0 13:59 04.03.2020
1716 Clouds 8 1013 42 10000 1.5 0 13:40 04.03.2020
1717 Clouds 7 1013 42 10000 1.5 0 13:21 04.03.2020
1718 Clouds 7 1013 42 10000 1.5 0 13:21 04.03.2020
1719 Clouds 7 1014 56 10000 1 0 12:59 04.03.2020
1720 Clouds 7 1014 56 10000 1 0 12:41 04.03.2020
1721 -273 0 0 0 0 0 12:23 04.03.2020
1722 Clouds 7 1014 52 10000 1.5 130 11:55 04.03.2020
1723 Clouds 7 1014 65 10000 3.1 150 11:37 04.03.2020
1724 Clouds 5 1014 65 10000 3.1 150 11:19 04.03.2020
1725 Clouds 5 1015 63 10000 2.6 150 10:42 04.03.2020
1726 Clouds 5 1015 63 10000 4.1 140 10:23 04.03.2020
1727 Clouds 4 1015 80 10000 2.6 140 09:55 04.03.2020
1728 Clouds 4 1015 63 10000 1.5 150 09:37 04.03.2020
1729 Clouds 3 1015 63 10000 1.5 150 09:18 04.03.2020
1730 Clouds 2 1015 63 10000 1.5 160 08:41 04.03.2020
1731 Clouds 1 1015 63 10000 1 0 08:23 04.03.2020
1732 Clouds 1 1015 80 10000 1 0 07:47 04.03.2020
1733 Clouds 1 1015 80 10000 1 0 07:28 04.03.2020
1734 Clouds 1 1015 100 10000 1 0 06:49 04.03.2020
1735 Clouds 1 1014 100 10000 1 150 06:26 04.03.2020
1736 Clouds 1 1014 80 10000 0.5 0 05:57 04.03.2020
1737 Clouds 1 1013 82 10000 0.5 0 05:00 04.03.2020
1738 Clouds 1 1013 82 10000 0.5 0 04:59 04.03.2020
1739 Clouds 1 1013 82 10000 0.5 0 03:50 04.03.2020
1740 Clouds 1 1013 82 10000 0.5 110 03:31 04.03.2020
1741 Clouds 1 1012 82 10000 0.5 0 02:58 04.03.2020
1742 Clouds 2 1012 86 10000 0.5 0 02:25 04.03.2020
1743 Clouds 2 1012 81 10000 0.5 0 01:56 04.03.2020
1744 Clouds 2 1011 86 10000 1 140 01:31 04.03.2020
1745 Clouds 2 1011 86 10000 0.5 0 00:41 04.03.2020
1746 Clouds 2 1011 86 10000 1 0 00:19 04.03.2020
1747 Clouds 2 1011 86 10000 0.5 0 23:41 03.03.2020
1748 Clouds 2 1010 81 10000 1 140 23:22 03.03.2020
1749 Clouds 2 1010 80 10000 1.5 100 22:42 03.03.2020
1750 Clouds 2 1009 80 10000 0.5 0 22:20 03.03.2020
1751 Clouds 2 1009 86 10000 1.5 130 21:59 03.03.2020
1752 Clouds 2 1009 86 10000 1.5 130 21:59 03.03.2020
1753 Clouds 2 1009 86 10000 1.5 130 21:40 03.03.2020
1754 Clouds 2 1008 86 10000 0.5 0 21:21 03.03.2020
1755 Clouds 2 1008 80 10000 1 0 20:57 03.03.2020
1756 Clouds 2 1008 80 10000 1 0 20:38 03.03.2020
1757 Clouds 3 1007 80 10000 1.5 140 20:18 03.03.2020
1758 Clouds 3 1007 80 10000 1.5 140 20:18 03.03.2020
1759 Clouds 3 1007 69 10000 1 0 19:56 03.03.2020
1760 Clouds 3 1007 69 10000 1 0 19:56 03.03.2020
1761 Clouds 3 1006 69 10000 1 0 19:37 03.03.2020
1762 Clouds 3 1006 69 10000 1 0 19:37 03.03.2020
1763 Clouds 3 1006 69 10000 1 0 19:18 03.03.2020
1764 Clouds 4 1005 52 10000 1.5 310 18:55 03.03.2020
1765 Clouds 4 1005 48 10000 2.6 290 18:37 03.03.2020
1766 Clouds 4 1005 48 10000 2.6 290 18:37 03.03.2020
1767 Clouds 4 1005 48 10000 2.6 290 18:18 03.03.2020
1768 Clouds 5 1004 52 10000 3.1 290 17:41 03.03.2020
1769 Clouds 6 1004 45 10000 3.1 280 17:22 03.03.2020
1770 Clouds 6 1004 52 10000 2.6 290 16:59 03.03.2020
1771 Clouds 6 1004 52 10000 2.6 290 16:38 03.03.2020
1772 Clouds 6 1004 48 10000 3.1 320 16:20 03.03.2020
1773 Clouds 6 1004 48 10000 3.1 320 16:20 03.03.2020
1774 Clouds 6 1004 52 10000 5.7 300 15:58 03.03.2020
1775 Clouds 6 1004 52 10000 5.7 300 15:40 03.03.2020
1776 Clouds 6 1004 52 10000 4.6 310 15:20 03.03.2020
1777 Clouds 6 1003 52 10000 3.6 270 14:43 03.03.2020
1778 Clouds 7 1003 49 10000 3.1 290 14:20 03.03.2020
1779 Clouds 6 1004 45 10000 3.6 290 13:58 03.03.2020
1780 Clouds 6 1004 45 10000 3.6 290 13:40 03.03.2020
1781 Clouds 6 1004 56 10000 3.6 280 13:21 03.03.2020
1782 Clouds 6 1005 60 10000 2.1 240 12:47 03.03.2020
1783 Clouds 6 1005 60 10000 4.1 260 12:27 03.03.2020
1784 Clouds 5 1006 65 10000 3.1 240 11:58 03.03.2020
1785 Clouds 5 1006 65 10000 3.1 240 11:38 03.03.2020
1786 Clouds 4 1006 64 10000 4.6 270 11:19 03.03.2020
1787 Clouds 4 1006 60 10000 4.1 260 10:56 03.03.2020
1788 Clouds 4 1006 60 10000 4.1 260 10:38 03.03.2020
1789 Clouds 4 1006 60 10000 4.1 240 10:19 03.03.2020
1790 Clouds 4 1006 69 10000 2.1 240 09:45 03.03.2020
1791 Clouds 3 1006 69 10000 2.6 240 09:23 03.03.2020
1792 Rain 3 1006 69 10000 3.6 250 08:58 03.03.2020
1793 Rain 3 1006 69 10000 3.6 250 08:39 03.03.2020
1794 Rain 2 1006 69 10000 6.2 250 08:21 03.03.2020
1795 Clouds 2 1006 69 10000 2.39 229 07:44 03.03.2020
1796 Clouds 2 1006 74 10000 1.5 200 07:22 03.03.2020
1797 Clouds 2 1006 74 10000 2.1 210 06:51 03.03.2020
1798 Clouds 2 1006 74 10000 3.1 250 06:23 03.03.2020
1799 Clouds 2 1006 74 10000 3.6 260 05:47 03.03.2020
1800 Clouds 2 1005 93 10000 4.6 250 05:28 03.03.2020
1801 Rain 3 1004 96 10000 6.7 280 04:30 03.03.2020
1802 Rain 4 1000 75 9000 5.7 240 01:40 03.03.2020
1803 Rain 4 999 80 10000 6.2 250 00:49 03.03.2020
1804 Rain 4 998 80 10000 5.1 240 00:27 03.03.2020
1805 Rain 4 998 80 10000 4.1 250 23:59 02.03.2020
1806 Rain 4 998 80 10000 4.1 250 23:40 02.03.2020
1807 Drizzle 4 997 80 10000 4.6 250 23:22 02.03.2020
1808 Rain 4 997 80 9000 5.1 250 22:55 02.03.2020
1809 Rain 4 997 80 9000 5.1 250 22:55 02.03.2020
1810 Rain 4 996 80 7000 5.1 240 22:37 02.03.2020
1811 Rain 4 996 80 7000 5.1 240 22:18 02.03.2020
1812 Rain 4 996 80 7000 6.2 240 21:42 02.03.2020
1813 Rain 4 995 80 10000 5.1 240 21:23 02.03.2020
1814 Rain 4 994 80 10000 4.1 240 20:58 02.03.2020
1815 Rain 4 994 80 10000 4.1 240 20:58 02.03.2020
1816 Rain 4 994 80 10000 4.1 240 20:40 02.03.2020
1817 Rain 4 993 93 10000 2.1 210 20:20 02.03.2020
1818 Rain 4 993 93 10000 2.1 110 19:57 02.03.2020
1819 Rain 4 992 93 8000 3.1 110 19:38 02.03.2020
1820 Rain 4 992 93 8000 3.1 110 19:20 02.03.2020
1821 Rain 4 992 93 8000 2.6 120 18:54 02.03.2020
1822 Rain 4 991 93 10000 2.1 130 18:36 02.03.2020
1823 Rain 4 991 93 10000 2.1 130 18:18 02.03.2020
1824 Rain 4 991 93 10000 2.1 120 17:54 02.03.2020
1825 Rain 4 990 93 10000 2.1 110 17:36 02.03.2020
1826 Rain 4 990 93 10000 2.1 110 17:18 02.03.2020
1827 Rain 4 989 93 9000 0.5 20 16:39 02.03.2020
1828 Rain 4 989 86 6000 1.5 320 16:20 02.03.2020
1829 Rain 5 988 86 9000 2.6 300 15:44 02.03.2020
1830 Rain 5 988 80 7000 5.1 290 15:21 02.03.2020
1831 Rain 5 987 81 10000 4.1 290 14:57 02.03.2020
1832 Rain 5 987 80 10000 3.1 300 14:37 02.03.2020
1833 Rain 5 987 80 10000 3.1 300 14:19 02.03.2020
1834 Rain 6 987 80 10000 5.7 320 13:44 02.03.2020
1835 Clouds 6 986 75 10000 3.1 300 13:19 02.03.2020
1836 Clouds 6 987 70 10000 3.1 290 12:57 02.03.2020
1837 Clouds 6 987 70 10000 3.1 290 12:57 02.03.2020
1838 Clouds 6 987 70 10000 3.1 290 12:39 02.03.2020
1839 Clouds 5 988 75 10000 0.5 0 12:18 02.03.2020
1840 Clouds 5 989 75 10000 0.5 0 11:38 02.03.2020
1841 Clouds 5 989 80 10000 1 0 11:19 02.03.2020
1842 Clouds 5 991 80 10000 1.5 170 10:55 02.03.2020
1843 Clouds 4 991 80 10000 1 0 10:37 02.03.2020
1844 Clouds 4 991 80 10000 1 0 10:18 02.03.2020
1845 Clouds 4 992 86 10000 2.1 100 09:47 02.03.2020
1846 Clouds 3 992 86 10000 2.1 130 09:28 02.03.2020
1847 Clouds 3 993 93 10000 1.5 110 08:48 02.03.2020
1848 Clouds 2 994 73 10000 2.6 130 08:22 02.03.2020
1849 Clouds 2 994 81 10000 1 260 07:50 02.03.2020
1850 Clouds 2 995 93 10000 2.1 340 07:31 02.03.2020
1851 Clouds 2 996 81 10000 1 0 06:50 02.03.2020
1852 Clouds 1 996 81 10000 2.1 110 06:20 02.03.2020
1853 Clouds 1 997 81 10000 2.6 100 05:23 02.03.2020
1854 Clouds 2 1000 87 10000 2.6 100 03:27 02.03.2020
1855 Clouds 3 1000 87 10000 2.6 80 02:55 02.03.2020
1856 Clouds 3 1001 87 10000 3.1 110 02:29 02.03.2020
1857 Clouds 4 1002 89 10000 2.1 170 01:36 02.03.2020
1858 Clouds 4 1002 94 10000 2.1 170 01:18 02.03.2020
1859 Clouds 5 1002 94 10000 2.1 0 00:22 02.03.2020
1860 Clouds 5 1003 70 10000 3.1 180 23:42 01.03.2020
1861 Clouds 5 1003 70 10000 3.1 180 23:22 01.03.2020
1862 Clouds 5 1003 75 10000 3.1 210 22:44 01.03.2020
1863 Clouds 5 1004 70 10000 4.6 210 22:21 01.03.2020
1864 Rain 5 1003 65 10000 4.6 220 21:58 01.03.2020
1865 Rain 5 1003 65 10000 4.6 220 21:39 01.03.2020
1866 Clouds 5 1002 80 10000 5.7 220 21:20 01.03.2020
1867 Clouds 5 1002 70 10000 5.1 200 20:55 01.03.2020
1868 Rain 5 1003 86 10000 6.7 230 20:37 01.03.2020
1869 Rain 5 1003 86 10000 6.7 230 20:19 01.03.2020
1870 Thunderstorm 6 1000 70 10000 6.7 180 19:41 01.03.2020
1871 Rain 6 1000 75 10000 5.7 0 19:21 01.03.2020
1872 Rain 6 1000 75 10000 5.7 0 19:21 01.03.2020
1873 Clouds 7 997 53 10000 2.6 180 18:57 01.03.2020
1874 Clouds 7 997 53 10000 2.6 180 18:39 01.03.2020
1875 Clouds 8 997 57 10000 6.7 210 18:19 01.03.2020
1876 Clouds 9 998 46 10000 4.1 290 17:55 01.03.2020
1877 Clouds 9 997 50 10000 2.6 260 17:37 01.03.2020
1878 Clouds 11 997 50 10000 2.6 260 17:18 01.03.2020
1879 Clouds 11 998 50 10000 2.6 240 16:40 01.03.2020
1880 Clouds 11 998 50 10000 4.1 260 16:20 01.03.2020
1881 Clouds 12 999 50 10000 5.7 250 15:59 01.03.2020
1882 Clouds 12 999 54 10000 6.2 280 15:41 01.03.2020
1883 Clouds 12 999 54 10000 6.2 280 15:23 01.03.2020
1884 Clouds 12 999 50 10000 6.2 290 14:58 01.03.2020
1885 Clouds 12 999 50 10000 6.2 290 14:40 01.03.2020
1886 Clouds 11 1000 58 10000 4.6 280 14:22 01.03.2020
1887 Clouds 11 1000 54 10000 6.7 290 13:59 01.03.2020
1888 Clouds 11 1000 54 10000 6.7 290 13:41 01.03.2020
1889 Clouds 11 1001 54 10000 6.2 290 13:20 01.03.2020
1890 Clouds 11 1001 62 10000 1 340 12:57 01.03.2020
1891 Clouds 11 1001 62 10000 1 340 12:38 01.03.2020
1892 Clouds 11 1002 62 10000 1.5 150 12:20 01.03.2020
1893 Clouds 10 1002 71 10000 1 130 11:40 01.03.2020
1894 Clouds 10 1002 71 10000 1 130 11:40 01.03.2020
1895 Clear 9 1003 71 10000 3.68 247 11:20 01.03.2020
1896 Clouds 8 1003 75 10000 1 0 10:56 01.03.2020
1897 Clouds 8 1004 87 10000 2.1 170 10:37 01.03.2020
1898 Clouds 8 1004 87 10000 2.1 170 10:37 01.03.2020
1899 Clouds 8 1004 87 10000 2.1 170 10:19 01.03.2020
1900 Clouds 7 1004 93 10000 0.5 0 09:46 01.03.2020
1901 Clouds 6 1004 100 10000 2.1 90 09:26 01.03.2020
1902 Rain 6 1004 93 10000 1.5 100 08:52 01.03.2020
1903 Rain 5 1004 93 10000 2.6 110 08:29 01.03.2020
1904 Rain 5 1005 100 10000 1 0 07:59 01.03.2020
1905 Clouds 5 1005 100 10000 1 0 07:40 01.03.2020
1906 Clouds 5 1005 93 10000 2.6 120 07:22 01.03.2020
1907 Rain 5 1005 100 10000 1.5 0 06:44 01.03.2020
1908 Rain 5 1005 93 10000 1 80 06:23 01.03.2020
1909 Clouds 5 1006 81 10000 1.5 0 03:40 01.03.2020
1910 Rain 5 1006 86 9000 6.2 270 02:23 01.03.2020
1911 Rain 5 1006 81 7000 7.7 260 01:46 01.03.2020
1912 Rain 5 1006 93 7000 1.5 330 01:20 01.03.2020
1913 Rain 5 1006 93 7000 1.5 330 01:20 01.03.2020
1914 Rain 6 1005 93 10000 1 0 00:40 01.03.2020
1915 Rain 5 1005 93 10000 2.1 210 00:19 01.03.2020
1916 Rain 5 1005 93 10000 2.1 210 00:19 01.03.2020
1917 Rain 6 1005 87 10000 5.1 270 23:42 29.02.2020
1918 Rain 6 1005 81 10000 8.2 300 23:23 29.02.2020
1919 Rain 7 1005 75 10000 3.6 200 22:40 29.02.2020
1920 Clouds 7 1004 75 10000 3.6 200 22:22 29.02.2020
1921 Rain 7 1005 81 10000 3.1 180 21:42 29.02.2020
1922 Rain 7 1004 75 10000 6.7 180 21:42 29.02.2020
1923 Rain 7 1005 81 10000 3.1 180 21:22 29.02.2020
1924 Rain 7 1004 81 10000 5.1 200 20:43 29.02.2020
1925 Rain 8 1004 81 10000 3.6 260 20:21 29.02.2020
1926 Rain 8 1004 81 8000 6.7 270 19:56 29.02.2020
1927 Rain 8 1003 81 6000 6.7 270 19:37 29.02.2020
1928 Rain 8 1003 81 6000 6.7 270 19:19 29.02.2020
1929 Rain 9 1002 62 5000 7.7 290 18:42 29.02.2020
1930 Rain 9 1000 50 10000 6.2 290 18:23 29.02.2020
1931 Clouds 10 1000 47 10000 2.1 220 17:57 29.02.2020
1932 Clouds 10 1000 47 10000 2.1 220 17:39 29.02.2020
1933 Clouds 11 1000 47 10000 4.6 220 17:20 29.02.2020
1934 Clouds 12 1000 43 10000 3.1 240 16:45 29.02.2020
1935 Clouds 12 1000 54 10000 3.6 220 16:21 29.02.2020
1936 Clouds 12 1000 50 10000 2.1 100 15:58 29.02.2020
1937 Clouds 12 1000 50 10000 2.1 100 15:39 29.02.2020
1938 Clouds 12 1000 50 10000 2.1 140 15:21 29.02.2020
1939 Clouds 12 1001 58 10000 4.1 140 14:41 29.02.2020
1940 Clouds 12 1001 62 10000 3.1 140 14:22 29.02.2020
1941 Clouds 12 1002 62 10000 3.6 160 13:46 29.02.2020
1942 Clouds 12 1002 54 10000 1 0 13:28 29.02.2020
1943 Clouds 11 1003 54 10000 1.5 90 12:58 29.02.2020
1944 Clouds 12 1003 54 10000 1.5 90 12:39 29.02.2020
1945 Clouds 11 1003 57 10000 1.5 0 12:20 29.02.2020
1946 Clouds 10 1004 61 10000 1 0 11:46 29.02.2020
1947 Clouds 10 1004 61 10000 1.5 170 11:27 29.02.2020
1948 Clouds 8 1004 65 10000 1 0 10:55 29.02.2020
1949 Clouds 8 1004 75 10000 1.5 0 10:37 29.02.2020
1950 Clouds 7 1004 75 10000 1.5 0 10:19 29.02.2020
1951 Clouds 6 1004 80 10000 0.5 0 09:47 29.02.2020
1952 Clouds 5 1005 86 10000 1 0 09:23 29.02.2020
1953 Clouds 4 1005 93 10000 1.81 261 08:41 29.02.2020
1954 Clouds 4 1006 81 10000 1 0 08:21 29.02.2020
1955 Clouds 4 1006 93 10000 1 0 07:53 29.02.2020
1956 Clouds 4 1007 93 10000 1 0 07:33 29.02.2020
1957 Clouds 4 1008 93 10000 1 0 06:57 29.02.2020
1958 Clouds 4 1008 93 10000 1.5 250 06:30 29.02.2020
1959 Clouds 4 1008 93 10000 1 0 05:54 29.02.2020
1960 Clouds 4 1009 93 10000 1.5 0 05:33 29.02.2020
1961 Rain 4 1010 86 10000 3.6 140 04:44 29.02.2020
1962 Clouds 4 1012 84 10000 0.5 0 03:37 29.02.2020
1963 Clouds 4 1012 84 10000 0.5 0 03:18 29.02.2020
1964 Clouds 4 1012 84 10000 0.5 0 02:32 29.02.2020
1965 Clouds 4 1013 71 10000 2.1 90 00:54 29.02.2020
1966 Clouds 4 1014 71 10000 1.5 90 00:36 29.02.2020
1967 Clouds 5 1014 71 10000 2.1 110 23:42 28.02.2020
1968 Clouds 5 1015 78 10000 1.5 140 23:24 28.02.2020
1969 Clouds 5 1015 78 10000 3.1 120 22:44 28.02.2020
1970 Clouds 5 1015 78 10000 1.5 100 22:24 28.02.2020
1971 Clouds 5 1015 78 10000 2.6 120 21:56 28.02.2020
1972 Clouds 5 1016 65 10000 2.1 140 21:38 28.02.2020
1973 Clouds 5 1016 65 10000 2.1 140 21:20 28.02.2020
1974 Clouds 5 1016 78 10000 1.5 0 20:39 28.02.2020
1975 Clouds 5 1017 60 10000 0.5 0 20:21 28.02.2020
1976 Clouds 5 1017 60 10000 1 140 19:57 28.02.2020
1977 Clouds 5 1017 60 10000 1 140 19:39 28.02.2020
1978 Clouds 5 1017 60 10000 2.1 160 19:20 28.02.2020
1979 Clouds 5 1017 75 10000 1 0 18:48 28.02.2020
1980 Clouds 5 1017 52 10000 1.5 140 18:29 28.02.2020
1981 Clouds 6 1017 42 10000 0.5 0 17:59 28.02.2020
1982 Clouds 6 1017 42 10000 0.5 0 17:40 28.02.2020
1983 Clouds 7 1017 45 10000 1 0 17:21 28.02.2020
1984 Clouds 7 1017 42 10000 1 0 16:44 28.02.2020
1985 Clouds 7 1018 39 10000 1.5 0 16:20 28.02.2020
1986 Clouds 7 1018 45 10000 1 0 15:58 28.02.2020
1987 Clouds 7 1018 45 10000 1 0 15:40 28.02.2020
1988 Clouds 7 1018 42 10000 1 0 15:19 28.02.2020
1989 Clear 7 1019 42 10000 1.5 0 14:57 28.02.2020
1990 Clear 7 1019 42 10000 1.5 0 14:57 28.02.2020
1991 Clear 7 1019 48 10000 1.5 0 14:38 28.02.2020
1992 Clear 6 1019 48 10000 1.5 0 14:18 28.02.2020
1993 Clear 6 1020 45 10000 1.5 190 13:41 28.02.2020
1994 Clouds 6 1020 45 10000 1 0 13:20 28.02.2020
1995 Clear 6 1020 45 10000 1 0 13:20 28.02.2020
1996 Clouds 6 1021 56 10000 1 0 12:58 28.02.2020
1997 Clouds 6 1021 56 10000 1 0 12:40 28.02.2020
1998 Clouds 5 1021 52 10000 1 0 12:22 28.02.2020
1999 Clouds 5 1021 60 10000 1.5 140 11:41 28.02.2020
2000 Clouds 4 1021 64 10000 2.6 140 11:23 28.02.2020
2001 Clear 3 1022 69 10000 2.1 120 10:57 28.02.2020
2002 Clear 3 1022 74 10000 2.1 150 10:37 28.02.2020
2003 Snow 3 1022 74 10000 2.1 150 10:37 28.02.2020
2004 Rain 2 1022 74 10000 2.1 150 10:18 28.02.2020
2005 Clear 2 1022 80 10000 1.5 150 09:43 28.02.2020
2006 Rain 1 1022 69 10000 2.1 100 09:20 28.02.2020
2007 Clear 1 1022 86 10000 2.1 110 08:54 28.02.2020
2008 Clear 0 1021 79 10000 2.6 110 08:36 28.02.2020
2009 Clouds -1 1021 79 10000 2.6 110 08:18 28.02.2020
2010 Clouds -1 1021 86 10000 1.5 0 07:38 28.02.2020
2011 Clouds -1 1021 86 10000 1.5 0 07:19 28.02.2020
2012 Clouds 0 1021 86 10000 2.1 130 06:41 28.02.2020
2013 Clouds 0 1020 88 10000 2.1 240 05:37 28.02.2020
2014 Snow 1 1019 64 10000 4.1 260 04:32 28.02.2020
2015 Clouds 1 1018 69 10000 5.1 260 03:34 28.02.2020
2016 Snow 1 1017 74 10000 5.7 230 02:42 28.02.2020
2017 Snow 1 1017 74 10000 5.7 230 02:18 28.02.2020
2018 Snow 2 1015 86 1100 7.2 290 00:35 28.02.2020
2019 Clouds 2 1013 64 10000 5.1 290 23:57 27.02.2020
2020 Clouds 2 1013 64 10000 5.1 290 23:38 27.02.2020
2021 Clouds 3 1013 64 10000 4.1 250 23:18 27.02.2020
2022 Rain 3 1012 69 10000 4.6 250 22:40 27.02.2020
2023 Rain 3 1011 69 10000 4.6 260 22:22 27.02.2020
2024 Rain 3 1010 86 10000 6.2 260 21:54 27.02.2020
2025 Rain 3 1009 86 10000 5.1 260 21:36 27.02.2020
2026 Rain 3 1009 86 10000 5.1 260 21:18 27.02.2020
2027 Clouds 4 1008 80 5000 6.7 290 20:41 27.02.2020
2028 Drizzle 4 1006 86 5000 10.8 290 20:23 27.02.2020
2029 Drizzle 4 1006 86 5000 10.8 290 20:23 27.02.2020
2030 Rain 5 1004 81 5000 10.3 270 19:57 27.02.2020
2031 Rain 5 1004 81 5000 10.3 270 19:39 27.02.2020
2032 Rain 5 1002 75 5000 9.3 250 19:21 27.02.2020
2033 Rain 5 1000 75 10000 7.2 250 18:57 27.02.2020
2034 Rain 5 1000 75 10000 7.2 250 18:39 27.02.2020
2035 Rain 5 999 70 10000 6.2 230 18:19 27.02.2020
2036 Rain 4 998 70 10000 5.1 250 17:55 27.02.2020
2037 Drizzle 4 998 75 10000 4.6 240 17:36 27.02.2020
2038 Drizzle 4 998 75 10000 4.6 240 17:18 27.02.2020
2039 Drizzle 3 998 92 10000 1 0 16:41 27.02.2020
2040 Snow 3 998 92 10000 1 0 16:20 27.02.2020
2041 Snow 2 999 92 10000 1 0 15:59 27.02.2020
2042 Rain 2 999 92 10000 1 0 15:38 27.02.2020
2043 Rain 2 999 92 4200 1.5 110 15:20 27.02.2020
2044 Snow 1 999 92 2800 1.5 140 14:59 27.02.2020
2045 Snow 1 1000 92 1500 1.5 0 14:38 27.02.2020
2046 Snow 1 1000 85 1500 1.5 0 14:20 27.02.2020
2047 Snow 1 1001 85 2100 2.1 110 13:43 27.02.2020
2048 Snow 1 1002 83 1000 0.5 0 13:22 27.02.2020
2049 Snow 1 1003 80 10000 3.1 270 12:56 27.02.2020
2050 Snow 1 1003 80 10000 3.1 270 12:38 27.02.2020
2051 Snow 1 1004 74 10000 1.5 310 12:18 27.02.2020
2052 Snow 2 1005 80 10000 1.5 310 11:42 27.02.2020
2053 Snow 2 1006 80 10000 1.5 310 11:22 27.02.2020
2054 Snow 2 1006 74 10000 1 0 10:44 27.02.2020
2055 Snow 1 1007 64 10000 1 0 10:24 27.02.2020
2056 Snow 1 1008 64 10000 1 0 09:50 27.02.2020
2057 Snow 1 1009 86 10000 1 0 09:30 27.02.2020
2058 Clouds 0 1009 86 10000 1 0 08:59 27.02.2020
2059 Clouds 0 1009 86 10000 1 0 08:41 27.02.2020
2060 Clouds 0 1010 92 10000 1.5 150 08:22 27.02.2020
2061 Clouds 0 1010 86 10000 1.5 30 07:45 27.02.2020
2062 Clouds 0 1010 92 10000 2.1 140 07:25 27.02.2020
2063 Clouds 0 1011 92 10000 1.5 0 06:48 27.02.2020
2064 Clouds 0 1012 92 10000 0.5 0 05:58 27.02.2020
2065 Clouds 0 1013 89 10000 2.6 100 04:21 27.02.2020
2066 Clouds 0 1013 80 10000 3.1 240 02:33 27.02.2020
2067 Clouds 0 1013 86 10000 3.6 250 00:46 27.02.2020
2068 Snow 0 1013 86 8000 5.7 250 00:26 27.02.2020
2069 Snow 0 1013 86 4100 4.6 260 23:40 26.02.2020
2070 Snow 0 1013 86 10000 5.7 250 23:19 26.02.2020
2071 Snow 0 1012 88 900 6.2 260 22:58 26.02.2020
2072 Snow 0 1012 88 900 6.2 260 22:39 26.02.2020
2073 Clouds 0 1012 74 10000 5.1 250 22:20 26.02.2020
2074 Snow 0 1011 86 10000 4.6 250 21:56 26.02.2020
2075 Snow 0 1011 88 550 3.6 300 21:37 26.02.2020
2076 Snow 0 1011 88 550 3.6 300 21:18 26.02.2020
2077 Snow 0 1011 88 1600 1.5 300 20:55 26.02.2020
2078 Snow 0 1011 80 4500 2.1 250 20:37 26.02.2020
2079 Snow 0 1011 80 4500 2.1 250 20:37 26.02.2020
2080 Snow 0 1011 80 4500 2.1 250 20:18 26.02.2020
2081 Snow 0 1011 80 4500 2.1 250 20:18 26.02.2020
2082 Snow 0 1011 64 10000 2.1 250 19:45 26.02.2020
2083 Snow 0 1010 74 10000 2.6 210 19:21 26.02.2020
2084 Snow 0 1010 74 10000 2.6 210 19:21 26.02.2020
2085 Clouds 1 1010 69 10000 3.6 250 18:58 26.02.2020
2086 Snow 1 1010 69 10000 3.6 250 18:40 26.02.2020
2087 Snow 1 1010 74 10000 1.5 110 18:22 26.02.2020
2088 Snow 1 1009 86 10000 2.6 280 17:42 26.02.2020
2089 Snow 1 1009 86 10000 2.6 280 17:42 26.02.2020
2090 Snow 1 1009 69 5000 4.1 270 17:24 26.02.2020
2091 Snow 2 1009 74 10000 5.7 250 16:59 26.02.2020
2092 Snow 1 1009 74 10000 5.7 250 16:41 26.02.2020
2093 Snow 1 1008 80 10000 8.7 280 16:22 26.02.2020
2094 Snow 1 1007 80 5000 3.1 270 15:54 26.02.2020
2095 Snow 1 1007 73 8000 3.1 270 15:36 26.02.2020
2096 Snow 1 1007 73 8000 3.1 270 15:18 26.02.2020
2097 Snow 1 1006 86 9000 3.6 270 14:42 26.02.2020
2098 Snow 2 1006 80 10000 7.7 260 14:22 26.02.2020
2099 Rain 3 1006 60 5000 4.6 250 13:43 26.02.2020
2100 Rain 3 1006 64 10000 3.6 240 13:22 26.02.2020
2101 Rain 3 1006 69 10000 3.6 270 12:42 26.02.2020
2102 Clouds 3 1006 69 10000 5.1 230 12:22 26.02.2020
2103 Rain 2 1006 74 10000 3.1 260 11:59 26.02.2020
2104 Rain 2 1006 74 10000 3.1 260 11:40 26.02.2020
2105 Rain 2 1005 80 10000 6.2 250 11:22 26.02.2020
2106 Snow 1 1005 74 10000 6.7 250 10:43 26.02.2020
2107 Snow 1 1004 86 3500 7.2 260 10:24 26.02.2020
2108 Snow 1 1003 89 800 4.6 240 09:59 26.02.2020
2109 Snow 1 1003 86 5000 3.1 210 09:41 26.02.2020
2110 Snow 1 1003 86 5000 3.1 210 09:21 26.02.2020
2111 Snow 1 1003 86 5000 3.1 210 09:21 26.02.2020
2112 Snow 1 1003 74 5000 2.1 260 08:54 26.02.2020
2113 Snow 1 1003 80 3000 1.5 230 08:36 26.02.2020
2114 Snow 2 1003 80 3000 1.5 230 08:18 26.02.2020
2115 Clouds 2 1003 60 10000 1 0 07:41 26.02.2020
2116 Clouds 2 1003 60 10000 1 0 07:21 26.02.2020
2117 Clouds 2 1004 60 10000 1 0 06:46 26.02.2020
2118 Clouds 2 1004 80 10000 1 160 06:23 26.02.2020
2119 Clouds 2 1005 80 10000 2.1 270 05:48 26.02.2020
2120 Snow 2 1005 80 6000 8.2 260 05:18 26.02.2020
2121 Clouds 3 1004 96 10000 6.7 210 03:33 26.02.2020
2122 Rain 5 1004 83 10000 9.3 260 01:59 26.02.2020
2123 Rain 4 1004 83 10000 7.7 240 01:26 26.02.2020
2124 Clouds 5 1004 65 10000 3.1 0 00:46 26.02.2020
2125 Rain 5 1004 81 10000 5.1 240 00:21 26.02.2020
2126 Rain 5 1004 81 10000 5.1 260 23:42 25.02.2020
2127 Rain 6 1005 81 10000 8.2 230 23:24 25.02.2020
2128 Rain 6 1004 81 10000 6.2 270 22:57 25.02.2020
2129 Rain 6 1004 75 10000 3.6 260 22:37 25.02.2020
2130 Rain 6 1004 75 10000 3.6 260 22:18 25.02.2020
2131 Rain 6 1005 75 10000 5.7 250 21:38 25.02.2020
2132 Rain 6 1005 87 3600 4.6 280 21:20 25.02.2020
2133 Rain 6 1005 87 10000 4.6 290 20:57 25.02.2020
2134 Rain 6 1005 87 10000 4.6 290 20:39 25.02.2020
2135 Rain 7 1004 81 10000 3.1 320 20:20 25.02.2020
2136 Rain 7 1005 87 7000 3.1 310 19:56 25.02.2020
2137 Drizzle 7 1006 66 10000 3.1 250 19:38 25.02.2020
2138 Drizzle 7 1006 66 10000 3.1 250 19:19 25.02.2020
2139 Rain 7 1006 66 10000 3.1 250 18:41 25.02.2020
2140 Rain 7 1006 66 10000 2.6 220 18:21 25.02.2020
2141 Rain 7 1006 66 10000 2.1 270 17:56 25.02.2020
2142 Rain 7 1007 70 10000 4.6 260 17:37 25.02.2020
2143 Rain 7 1007 70 10000 4.6 260 17:19 25.02.2020
2144 Rain 7 1007 70 10000 4.6 260 17:19 25.02.2020
2145 Rain 7 1007 70 10000 4.1 250 16:57 25.02.2020
2146 Rain 7 1007 70 10000 4.1 250 16:38 25.02.2020
2147 Rain 7 1007 66 7000 4.6 260 16:20 25.02.2020
2148 Rain 7 1007 61 10000 5.7 250 15:55 25.02.2020
2149 Rain 7 1007 61 10000 3.6 280 15:36 25.02.2020
2150 Rain 7 1007 61 10000 3.6 280 15:18 25.02.2020
2151 Rain 7 1008 66 10000 4.6 280 14:54 25.02.2020
2152 Rain 8 1008 66 10000 5.1 300 14:36 25.02.2020
2153 Rain 8 1008 66 10000 5.1 300 14:18 25.02.2020
2154 Rain 8 1008 66 10000 5.1 300 14:18 25.02.2020
2155 Rain 8 1009 66 10000 8.2 280 13:42 25.02.2020
2156 Rain 8 1009 57 10000 7.7 220 13:21 25.02.2020
2157 Rain 8 1009 57 10000 7.7 270 12:59 25.02.2020
2158 Rain 9 1010 57 10000 8.7 230 12:39 25.02.2020
2159 Rain 9 1010 57 10000 8.7 230 12:20 25.02.2020
2160 Rain 9 1009 40 10000 5.7 280 11:56 25.02.2020
2161 Rain 9 1009 46 10000 5.1 300 11:38 25.02.2020
2162 Clouds 10 1009 46 10000 5.1 300 11:18 25.02.2020
2163 Clouds 10 1009 46 10000 5.1 300 11:18 25.02.2020
2164 Clouds 10 1009 57 10000 4.1 320 10:42 25.02.2020
2165 Clouds 9 1009 50 10000 3.1 270 10:23 25.02.2020
2166 Clouds 9 1010 80 10000 4.1 270 09:57 25.02.2020
2167 Clouds 8 1010 86 10000 1 0 09:39 25.02.2020
2168 Clouds 8 1010 86 10000 1 0 09:18 25.02.2020
2169 Clouds 7 1010 59 10000 0.5 0 08:42 25.02.2020
2170 Clouds 6 1010 82 10000 1.5 0 08:24 25.02.2020
2171 Clouds 6 1010 86 10000 1.5 110 07:49 25.02.2020
2172 Clouds 6 1010 79 10000 1.5 0 07:24 25.02.2020
2173 Clouds 6 1010 79 10000 2.1 110 06:56 25.02.2020
2174 Clouds 6 1010 79 10000 3.1 0 05:54 25.02.2020
2175 Clouds 7 1010 53 10000 2.6 260 05:19 25.02.2020
2176 Clouds 7 1013 80 10000 0.5 0 02:34 25.02.2020
2177 Clear 8 1014 86 10000 1 0 00:58 25.02.2020
2178 Clear 8 1014 80 10000 1 0 00:32 25.02.2020
2179 Clear 8 1015 80 10000 1.5 130 23:48 24.02.2020
2180 Clear 9 1015 70 10000 2.1 100 23:29 24.02.2020
2181 Clear 10 1016 75 10000 1.5 0 22:59 24.02.2020
2182 Clear 10 1016 62 10000 1 190 22:37 24.02.2020
2183 Clear 10 1016 62 10000 1 190 22:18 24.02.2020
2184 Clear 10 1016 44 10000 2.6 260 21:54 24.02.2020
2185 Clear 10 1016 66 10000 0.5 0 21:36 24.02.2020
2186 Clear 11 1016 44 10000 2.6 270 21:18 24.02.2020
2187 Clear 12 1016 44 10000 2.6 0 20:42 24.02.2020
2188 Clear 12 1017 44 10000 2.1 250 20:21 24.02.2020
2189 Clouds 12 1017 47 10000 1.5 0 19:59 24.02.2020
2190 Clouds 13 1017 47 10000 1.5 0 19:41 24.02.2020
2191 Clouds 13 1017 50 10000 3.1 210 19:22 24.02.2020
2192 Clouds 13 1017 41 10000 2.1 0 18:59 24.02.2020
2193 Clouds 14 1017 44 10000 1.5 0 18:41 24.02.2020
2194 Clouds 14 1017 44 10000 1.5 0 18:22 24.02.2020
2195 Clouds 15 1017 36 10000 4.6 270 17:54 24.02.2020
2196 Clouds 15 1018 36 10000 5.7 270 17:36 24.02.2020
2197 Clouds 16 1018 36 10000 5.7 270 17:18 24.02.2020
2198 Clouds 17 1018 39 10000 5.7 260 16:54 24.02.2020
2199 Clouds 17 1018 39 10000 8.2 260 16:36 24.02.2020
2200 Clouds 17 1018 39 10000 8.2 260 16:18 24.02.2020
2201 Clouds 17 1018 39 10000 8.2 270 15:54 24.02.2020
2202 Clouds 17 1019 39 10000 8.2 270 15:36 24.02.2020
2203 Clouds 17 1019 39 10000 8.2 270 15:18 24.02.2020
2204 Clouds 17 1020 45 10000 5.7 260 14:40 24.02.2020
2205 -273 0 0 0 0 0 14:21 24.02.2020
2206 Clouds 17 1020 45 10000 5.7 260 14:21 24.02.2020
2207 Clouds 16 1021 48 10000 4.1 270 13:58 24.02.2020
2208 Clouds 16 1021 51 10000 5.7 260 13:39 24.02.2020
2209 Clouds 16 1021 51 10000 5.7 260 13:20 24.02.2020
2210 Clouds 16 1022 48 10000 4.6 280 12:57 24.02.2020
2211 Clouds 16 1022 51 10000 4.1 280 12:38 24.02.2020
2212 Clouds 15 1023 55 10000 1 0 12:19 24.02.2020
2213 Clouds 15 1023 55 10000 1 0 11:45 24.02.2020
2214 Clouds 13 1023 58 10000 1.5 130 11:26 24.02.2020
2215 Clouds 13 1024 58 10000 0.5 0 10:45 24.02.2020
2216 Clouds 12 1024 66 10000 1 0 10:27 24.02.2020
2217 Clouds 12 1024 71 10000 0.5 0 09:54 24.02.2020
2218 Clouds 11 1025 81 10000 1 0 09:36 24.02.2020
2219 Clouds 11 1025 81 10000 1 0 09:18 24.02.2020
2220 Clouds 10 1024 87 10000 2.1 130 08:45 24.02.2020
2221 Clouds 9 1025 87 10000 1.5 100 08:27 24.02.2020
2222 Clouds 9 1025 81 10000 0.5 0 07:45 24.02.2020
2223 Clouds 9 1025 81 10000 1 0 07:27 24.02.2020
2224 Clouds 9 1025 81 10000 0.5 0 06:36 24.02.2020
2225 Clouds 9 1025 81 10000 0.5 0 06:18 24.02.2020
2226 Clouds 10 1026 70 10000 1 0 05:29 24.02.2020
2227 Clouds 11 1026 57 10000 4.6 320 03:54 24.02.2020
2228 Clouds 11 1027 43 10000 3.1 290 02:54 24.02.2020
2229 Clouds 12 1027 41 10000 2.1 250 01:43 24.02.2020
2230 Clouds 13 1028 41 10000 3.1 270 00:57 24.02.2020
2231 Clouds 13 1027 41 10000 2.6 0 00:27 24.02.2020
2232 Clouds 12 1027 41 10000 1.5 0 23:59 23.02.2020
2233 Clouds 13 1027 41 10000 1.5 0 23:40 23.02.2020
2234 Clouds 13 1027 41 10000 3.6 220 23:18 23.02.2020
2235 Clouds 13 1027 41 10000 3.6 230 22:56 23.02.2020
2236 Clouds 13 1027 41 10000 3.6 220 22:37 23.02.2020
2237 Clouds 13 1027 41 10000 3.6 220 22:18 23.02.2020
2238 Clouds 14 1027 41 10000 2.1 200 21:43 23.02.2020
2239 Clouds 14 1027 41 10000 2.1 200 21:43 23.02.2020
2240 Clouds 14 1027 41 10000 2.1 200 21:43 23.02.2020
2241 Clouds 14 1027 38 10000 4.1 0 21:19 23.02.2020
2242 Clouds 14 1027 41 10000 1.5 0 20:56 23.02.2020
2243 Clouds 13 1027 38 10000 3.1 250 20:38 23.02.2020
2244 Clouds 14 1027 38 10000 3.1 250 20:20 23.02.2020
2245 Clouds 14 1027 38 10000 3.1 230 19:56 23.02.2020
2246 Clouds 14 1027 36 10000 4.6 230 19:37 23.02.2020
2247 Clouds 14 1027 36 10000 4.6 230 19:18 23.02.2020
2248 Clouds 14 1027 36 10000 4.6 230 19:18 23.02.2020
2249 Clouds 14 1027 39 10000 3.1 240 18:54 23.02.2020
2250 Clouds 14 1026 41 10000 4.6 230 18:36 23.02.2020
2251 Clouds 14 1026 41 10000 4.6 230 18:18 23.02.2020
2252 Clouds 14 1026 41 10000 4.6 230 18:18 23.02.2020
2253 Clouds 14 1026 39 10000 5.7 200 17:54 23.02.2020
2254 Clouds 14 1026 36 10000 3.1 190 17:36 23.02.2020
2255 Clouds 15 1026 36 10000 3.1 190 17:18 23.02.2020
2256 Clouds 15 1026 33 10000 4.6 210 16:42 23.02.2020
2257 Clouds 15 1026 36 10000 5.1 200 16:23 23.02.2020
2258 Clouds 15 1026 33 10000 5.1 260 15:56 23.02.2020
2259 Clouds 16 1026 33 10000 5.1 260 15:37 23.02.2020
2260 Clouds 16 1026 31 10000 5.1 240 15:19 23.02.2020
2261 Clouds 15 1027 33 10000 4.6 240 14:55 23.02.2020
2262 Clouds 15 1027 29 10000 5.1 280 14:37 23.02.2020
2263 Clouds 14 1027 29 10000 5.1 280 14:19 23.02.2020
2264 Clouds 14 1027 36 10000 4.6 270 13:55 23.02.2020
2265 Clouds 14 1027 36 10000 4.6 290 13:37 23.02.2020
2266 Clouds 14 1027 36 10000 4.6 290 13:19 23.02.2020
2267 Clouds 13 1028 62 10000 5.1 300 12:40 23.02.2020
2268 Clouds 13 1028 62 10000 1 0 12:21 23.02.2020
2269 Clouds 12 1029 66 10000 1 0 11:39 23.02.2020
2270 Clouds 11 1029 66 10000 1.5 0 11:20 23.02.2020
2271 Clouds 11 1029 70 10000 1 0 10:58 23.02.2020
2272 Clouds 11 1029 70 10000 1 0 10:40 23.02.2020
2273 Clouds 10 1029 75 10000 1.5 0 10:22 23.02.2020
2274 Clouds 10 1029 75 10000 1 0 09:56 23.02.2020
2275 Clouds 9 1029 75 10000 1 0 09:38 23.02.2020
2276 Clouds 9 1029 81 10000 1 0 09:18 23.02.2020
2277 Clouds 9 1029 81 10000 1 180 08:46 23.02.2020
2278 Clouds 9 1029 81 10000 1 0 08:25 23.02.2020
2279 Clouds 8 1029 75 10000 1.5 150 07:47 23.02.2020
2280 Clouds 8 1029 81 10000 3.1 90 07:28 23.02.2020
2281 Clouds 8 1030 86 10000 1.5 110 06:25 23.02.2020
2282 Clouds 8 1029 86 10000 1 0 05:22 23.02.2020
2283 Clouds 7 1029 86 10000 1 0 04:23 23.02.2020
2284 Clouds 7 1029 86 10000 1 0 02:50 23.02.2020
2285 Clouds 7 1030 86 10000 1 0 01:43 23.02.2020
2286 Clouds 6 1031 93 10000 1.5 0 01:21 23.02.2020
2287 Clouds 6 1031 86 10000 1 0 00:44 23.02.2020
2288 Clouds 7 1030 86 10000 1 0 00:23 23.02.2020
2289 Clouds 7 1031 93 10000 1 0 23:43 22.02.2020
2290 Clouds 7 1031 86 10000 0.5 0 23:24 22.02.2020
2291 Clouds 8 1031 80 10000 0.5 0 22:46 22.02.2020
2292 Clouds 8 1031 75 10000 2.1 90 22:22 22.02.2020
2293 Clouds 8 1031 81 10000 3.1 100 21:55 22.02.2020
2294 Clouds 8 1031 86 10000 1.5 0 21:37 22.02.2020
2295 Clouds 8 1031 86 10000 1.5 0 21:18 22.02.2020
2296 Clouds 8 1031 87 10000 1 0 20:41 22.02.2020
2297 Clouds 8 1031 81 10000 1.5 70 20:22 22.02.2020
2298 Clouds 8 1030 70 10000 0.5 0 19:43 22.02.2020
2299 Clouds 9 1030 70 10000 0.5 0 19:24 22.02.2020
2300 Clouds 9 1029 70 10000 1 0 18:58 22.02.2020
2301 Clouds 9 1028 62 10000 1 0 18:38 22.02.2020
2302 Clouds 10 1028 62 10000 1 0 18:20 22.02.2020
2303 Clouds 11 1028 54 10000 1.5 0 17:54 22.02.2020
2304 Clouds 12 1028 50 10000 1 0 17:36 22.02.2020
2305 Clear 12 1028 50 10000 1 0 17:18 22.02.2020
2306 Clear 13 1028 47 10000 1.5 180 16:40 22.02.2020
2307 Clear 13 1028 44 10000 1.5 0 16:20 22.02.2020
2308 Clear 13 1028 44 10000 1.5 0 15:57 22.02.2020
2309 Clear 13 1028 44 10000 1.5 0 15:39 22.02.2020
2310 Clear 13 1028 44 10000 1.5 160 15:21 22.02.2020
2311 Clear 13 1029 44 10000 2.1 160 14:42 22.02.2020
2312 Clouds 12 1030 46 10000 1 0 14:22 22.02.2020
2313 Clouds 11 1030 50 10000 2.6 310 13:44 22.02.2020
2314 Clouds 11 1030 53 10000 2.1 270 13:20 22.02.2020
2315 Clouds 10 1031 57 10000 2.6 310 12:59 22.02.2020
2316 Clouds 10 1031 57 10000 2.6 310 12:40 22.02.2020
2317 Clouds 9 1031 61 10000 1 0 12:21 22.02.2020
2318 Clouds 9 1031 61 10000 1.5 180 11:44 22.02.2020
2319 Clouds 7 1031 70 10000 1.5 150 11:26 22.02.2020
2320 Clouds 6 1031 80 10000 0.5 0 10:56 22.02.2020
2321 Clouds 5 1031 86 10000 1 0 10:38 22.02.2020
2322 Clouds 5 1031 86 10000 1 0 10:19 22.02.2020
2323 Clouds 3 1032 63 10000 0.5 0 09:56 22.02.2020
2324 Clouds 2 1031 100 10000 0.5 0 09:37 22.02.2020
2325 Clouds 2 1031 100 10000 0.5 0 09:37 22.02.2020
2326 Clouds 2 1031 100 10000 0.5 0 09:18 22.02.2020
2327 Clouds 1 1031 92 10000 1.5 0 08:44 22.02.2020
2328 Clouds 0 1031 100 10000 1 0 08:26 22.02.2020
2329 Clear -1 1030 100 10000 1 0 07:43 22.02.2020
2330 Clear -1 1031 100 10000 1.5 120 07:18 22.02.2020
2331 Clear -1 1030 100 10000 1.5 140 06:46 22.02.2020
2332 Clear 0 1030 92 10000 0.5 0 05:44 22.02.2020
2333 Clear 0 1030 92 10000 1 100 04:29 22.02.2020
2334 Clear 0 1030 92 10000 0.5 90 02:43 22.02.2020
2335 Clouds 1 1031 92 10000 0.5 0 01:53 22.02.2020
2336 Clouds 1 1031 90 10000 0.5 50 01:30 22.02.2020
2337 Clouds 1 1031 92 10000 1 0 00:58 22.02.2020
2338 Clouds 1 1030 100 10000 0.5 0 00:36 22.02.2020
2339 Clouds 1 1030 100 10000 0.5 0 00:18 22.02.2020
2340 Clouds 1 1031 92 10000 1 120 23:38 21.02.2020
2341 Clouds 1 1031 88 10000 0.7 108 23:20 21.02.2020
2342 Clouds 2 1030 88 10000 0.5 0 22:42 21.02.2020
2343 Clouds 2 1030 88 10000 0.5 0 22:24 21.02.2020
2344 Clouds 2 1030 88 10000 1 0 21:56 21.02.2020
2345 Clouds 2 1030 86 10000 0.5 0 21:37 21.02.2020
2346 Clouds 3 1030 86 10000 0.5 0 21:19 21.02.2020
2347 Clouds 3 1030 88 10000 0.5 0 20:43 21.02.2020
2348 Clouds 4 1029 85 10000 0.5 0 20:25 21.02.2020
2349 Clouds 4 1029 85 10000 0.5 0 19:40 21.02.2020
2350 Clouds 5 1029 85 10000 0.5 0 19:22 21.02.2020
2351 Clouds 5 1029 52 10000 0.5 0 18:44 21.02.2020
2352 Clouds 6 1029 52 10000 1.5 230 18:24 21.02.2020
2353 Clouds 7 1029 85 10000 1.5 0 17:58 21.02.2020
2354 Clouds 7 1029 85 10000 1.5 0 17:38 21.02.2020
2355 Clouds 8 1029 46 10000 1 0 17:38 21.02.2020
2356 Clouds 9 1029 46 10000 1 0 17:20 21.02.2020
2357 Clouds 9 1029 46 10000 1.5 290 16:55 21.02.2020
2358 Clouds 9 1029 46 10000 2.1 310 16:37 21.02.2020
2359 Clouds 9 1029 46 10000 2.1 310 16:37 21.02.2020
2360 Clouds 9 1029 46 10000 2.1 310 16:19 21.02.2020
2361 Clouds 9 1029 46 10000 1.5 0 15:44 21.02.2020
2362 Clouds 9 1029 46 10000 1.5 280 15:19 21.02.2020
2363 Clouds 9 1029 69 10000 1.5 0 14:54 21.02.2020
2364 Clouds 9 1030 46 10000 3.1 270 14:36 21.02.2020
2365 Clouds 9 1030 46 10000 3.1 270 14:18 21.02.2020
2366 Clouds 9 1030 49 10000 1 0 13:41 21.02.2020
2367 Clouds 8 1030 67 10000 1.5 0 13:21 21.02.2020
2368 Clouds 8 1030 57 10000 1.5 0 12:46 21.02.2020
2369 Clouds 8 1031 65 10000 1.5 0 12:27 21.02.2020
2370 Clouds 8 1031 67 10000 1 0 11:58 21.02.2020
2371 Clouds 7 1031 67 10000 1.5 0 11:38 21.02.2020
2372 Clouds 6 1031 80 10000 1.5 0 11:20 21.02.2020
2373 Clouds 6 1031 80 10000 1.5 0 11:20 21.02.2020
2374 Clouds 6 1031 80 10000 2.1 340 10:42 21.02.2020
2375 Clouds 5 1031 75 10000 1.5 0 10:23 21.02.2020
2376 Clouds 5 1030 75 10000 1.5 0 09:58 21.02.2020
2377 Clouds 5 1030 75 10000 1.5 0 09:40 21.02.2020
2378 Clouds 5 1030 80 10000 0.5 0 09:22 21.02.2020
2379 Clouds 4 1029 80 10000 1 110 08:56 21.02.2020
2380 Clouds 4 1029 93 10000 0.5 0 08:37 21.02.2020
2381 Clouds 4 1029 93 10000 0.5 0 08:18 21.02.2020
2382 Clouds 4 1028 86 10000 1.5 0 07:43 21.02.2020
2383 Clouds 4 1028 93 10000 1.5 360 07:22 21.02.2020
2384 Drizzle 4 1027 93 10000 0.76 25 06:56 21.02.2020
2385 Clouds 4 1027 80 10000 1.5 0 06:33 21.02.2020
2386 Rain 5 1027 86 10000 3.6 270 05:58 21.02.2020
2387 Rain 5 1026 86 6000 3.6 280 05:31 21.02.2020
2388 Rain 6 1026 70 10000 2.6 250 04:26 21.02.2020
2389 Rain 6 1026 70 10000 2.1 190 03:52 21.02.2020
2390 Clouds 7 1025 75 10000 4.1 280 02:59 21.02.2020
2391 Clouds 8 1025 53 10000 3.1 0 01:43 21.02.2020
2392 Clouds 7 1025 57 10000 4.1 260 01:22 21.02.2020
2393 Clouds 7 1024 83 10000 2.6 280 00:39 21.02.2020
2394 Clouds 7 1024 83 10000 2.6 280 00:20 21.02.2020
2395 Clouds 7 1024 70 10000 1 0 23:41 20.02.2020
2396 Clear 5 1024 79 10000 1.5 0 23:22 20.02.2020
2397 Clear 6 1022 70 10000 7.2 220 22:42 20.02.2020
2398 Clear 6 1022 79 10000 1 0 22:24 20.02.2020
2399 Clear 5 1022 79 10000 0.5 0 21:58 20.02.2020
2400 Clear 6 1022 80 10000 3.1 220 21:40 20.02.2020
2401 Clear 5 1021 80 10000 2.1 220 21:20 20.02.2020
2402 Clear 5 1021 80 10000 2.1 220 21:20 20.02.2020
2403 Clear 6 1021 86 10000 1 0 20:57 20.02.2020
2404 Clear 6 1021 86 10000 1 0 20:39 20.02.2020
2405 Clouds 6 1020 80 10000 1 220 20:20 20.02.2020
2406 Clear 6 1021 80 10000 1.5 0 19:59 20.02.2020
2407 Clear 6 1021 80 10000 1.5 0 19:41 20.02.2020
2408 Clear 6 1020 75 10000 1.5 0 19:23 20.02.2020
2409 Clear 7 1020 65 10000 1.5 0 18:55 20.02.2020
2410 Clear 7 1020 61 10000 2.6 150 18:37 20.02.2020
2411 Clear 8 1020 61 10000 2.6 150 18:18 20.02.2020
2412 Clear 8 1020 46 10000 1.5 0 17:39 20.02.2020
2413 Clear 10 1020 46 10000 1.5 0 17:20 20.02.2020
2414 Clear 10 1020 53 10000 3.6 280 16:58 20.02.2020
2415 Clear 11 1021 50 10000 4.1 280 16:39 20.02.2020
2416 Clear 11 1021 50 10000 4.1 280 16:39 20.02.2020
2417 Clear 11 1021 50 10000 4.1 280 16:19 20.02.2020
2418 Clear 11 1021 50 10000 3.6 280 15:56 20.02.2020
2419 Clear 11 1021 46 10000 3.6 300 15:37 20.02.2020
2420 Clear 11 1021 46 10000 3.6 300 15:19 20.02.2020
2421 Clear 10 1021 50 10000 1 130 14:43 20.02.2020
2422 Clear 10 1021 60 10000 1 0 14:25 20.02.2020
2423 Clouds 9 1022 58 10000 1.5 0 13:58 20.02.2020
2424 Clouds 9 1022 58 10000 1.5 0 13:40 20.02.2020
2425 Clouds 9 1022 57 10000 1 0 13:19 20.02.2020
2426 Clouds 9 1022 57 10000 1 0 13:19 20.02.2020
2427 Clouds 8 1023 59 10000 1 0 12:42 20.02.2020
2428 Clouds 8 1023 59 10000 1 0 12:21 20.02.2020
2429 Clouds 7 1024 59 10000 0.5 0 11:59 20.02.2020
2430 Clouds 7 1024 59 10000 0.5 0 11:41 20.02.2020
2431 Clouds 7 1024 59 10000 0.5 0 11:41 20.02.2020
2432 Clouds 6 1024 70 10000 1 0 11:22 20.02.2020
2433 Clouds 6 1024 75 10000 1.5 150 10:56 20.02.2020
2434 Clouds 5 1024 80 10000 1.5 0 10:38 20.02.2020
2435 Clouds 4 1024 80 10000 1.5 0 10:19 20.02.2020
2436 Clouds 4 1024 93 10000 1 0 09:39 20.02.2020
2437 Clouds 3 1024 93 10000 1 0 09:21 20.02.2020
2438 Clouds 2 1024 67 10000 1.5 100 08:44 20.02.2020
2439 Clouds 2 1024 67 10000 2.1 100 08:24 20.02.2020
2440 Clouds 2 1024 78 10000 0.5 0 07:55 20.02.2020
2441 Clouds 2 1024 78 10000 1.16 171 07:37 20.02.2020
2442 Clouds 2 1024 78 10000 1.16 171 07:19 20.02.2020
2443 Clouds 2 1024 78 10000 1.5 0 06:43 20.02.2020
2444 Clouds 2 1024 78 10000 1.5 140 05:58 20.02.2020
2445 Clouds 2 1025 78 10000 2.1 110 05:34 20.02.2020
2446 Clouds 1 1025 81 10000 2.1 140 04:48 20.02.2020
2447 Clouds 1 1025 81 10000 1.5 0 03:46 20.02.2020
2448 Clouds 1 1026 81 10000 1.5 130 02:47 20.02.2020
2449 Clouds 2 1026 93 10000 0.5 0 01:25 20.02.2020
2450 Clouds 3 1026 86 10000 1.5 0 00:46 20.02.2020
2451 Clouds 3 1026 86 10000 3.1 110 00:24 20.02.2020
2452 Clouds 3 1027 86 10000 1.5 110 23:46 19.02.2020
2453 Clouds 3 1027 86 10000 1.5 110 23:46 19.02.2020
2454 Clouds 3 1027 80 10000 1.5 190 23:18 19.02.2020
2455 Rain 3 1027 90 10000 1.5 0 22:43 19.02.2020
2456 Rain 3 1027 90 10000 1.5 0 22:43 19.02.2020
2457 Rain 4 1027 90 10000 3.1 240 22:24 19.02.2020
2458 Rain 4 1027 90 10000 3.6 250 21:58 19.02.2020
2459 Rain 4 1027 90 10000 3.6 250 21:40 19.02.2020
2460 Rain 4 1027 90 10000 3.1 250 21:19 19.02.2020
2461 Rain 4 1027 80 10000 2.1 240 20:57 19.02.2020
2462 Rain 4 1027 80 10000 2.1 240 20:38 19.02.2020
2463 Rain 4 1027 80 10000 1.5 240 20:19 19.02.2020
2464 Rain 4 1027 86 10000 3.6 230 19:57 19.02.2020
2465 Rain 4 1027 86 10000 3.6 230 19:38 19.02.2020
2466 Rain 4 1027 80 10000 1.5 240 19:19 19.02.2020
2467 Rain 4 1027 80 10000 2.6 280 18:57 19.02.2020
2468 Rain 4 1027 80 10000 2.6 280 18:39 19.02.2020
2469 Rain 4 1027 75 10000 2.1 270 18:21 19.02.2020
2470 Clouds 4 1026 75 10000 3.6 250 17:44 19.02.2020
2471 Clouds 5 1026 75 10000 3.1 250 17:20 19.02.2020
2472 Clouds 5 1026 80 10000 5.7 260 16:57 19.02.2020
2473 Clouds 5 1026 80 10000 5.7 260 16:38 19.02.2020
2474 Rain 5 1025 80 10000 4.1 300 16:18 19.02.2020
2475 Rain 6 1025 80 10000 3.6 290 15:43 19.02.2020
2476 Rain 5 1025 86 10000 7.2 260 15:25 19.02.2020
2477 Rain 5 1025 86 10000 7.2 260 15:25 19.02.2020
2478 Rain 5 1025 86 3500 8.2 300 14:58 19.02.2020
2479 Rain 5 1025 86 3500 8.2 300 14:40 19.02.2020
2480 Rain 6 1025 75 10000 6.2 320 14:21 19.02.2020
2481 Rain 6 1025 70 10000 7.2 280 13:42 19.02.2020
2482 Rain 6 1025 70 10000 7.7 270 13:22 19.02.2020
2483 Clouds 6 1025 65 10000 6.2 270 12:55 19.02.2020
2484 Drizzle 6 1024 65 10000 6.7 270 12:37 19.02.2020
2485 Drizzle 5 1024 65 10000 6.7 270 12:18 19.02.2020
2486 Clouds 5 1024 65 10000 5.7 260 11:38 19.02.2020
2487 Rain 5 1024 65 10000 5.7 260 11:20 19.02.2020
2488 Drizzle 5 1024 80 10000 2.6 340 10:58 19.02.2020
2489 Rain 4 1024 75 10000 3.1 280 10:38 19.02.2020
2490 Rain 4 1024 75 10000 3.1 280 10:20 19.02.2020
2491 Rain 4 1023 75 10000 2.1 270 09:58 19.02.2020
2492 Rain 4 1024 75 10000 3.6 220 09:38 19.02.2020
2493 Rain 4 1024 75 10000 3.6 220 09:19 19.02.2020
2494 Rain 4 1023 96 10000 3.6 210 08:46 19.02.2020
2495 Rain 4 1023 60 10000 2.1 250 08:24 19.02.2020
2496 Clouds 4 1023 83 10000 2.6 170 07:46 19.02.2020
2497 Clouds 4 1024 83 10000 2.1 150 07:26 19.02.2020
2498 Rain 4 1024 80 10000 4.1 200 06:57 19.02.2020
2499 Rain 4 1024 60 10000 2.6 220 06:34 19.02.2020
2500 Clouds 4 1025 81 10000 2.6 130 04:28 19.02.2020
2501 Clouds 4 1025 80 10000 2.1 300 03:20 19.02.2020
2502 Clouds 4 1026 86 10000 0.5 0 02:33 19.02.2020
2503 Clouds 3 1027 86 10000 1 0 01:33 19.02.2020
2504 Clouds 3 1027 80 10000 1 0 00:53 19.02.2020
2505 Clouds 3 1027 80 10000 2.6 0 00:34 19.02.2020
2506 Clouds 3 1027 80 10000 2.6 100 23:57 18.02.2020
2507 Clouds 3 1027 80 10000 2.6 100 23:39 18.02.2020
2508 Clouds 3 1028 85 10000 2.6 240 23:19 18.02.2020
2509 Clouds 3 1028 80 10000 0.5 0 22:45 18.02.2020
2510 Clouds 3 1028 69 10000 1.5 0 22:20 18.02.2020
2511 Clouds 3 1029 80 10000 1.5 240 21:59 18.02.2020
2512 Clouds 3 1029 80 10000 2.6 160 21:38 18.02.2020
2513 Clouds 3 1029 80 10000 2.6 160 21:19 18.02.2020
2514 Clouds 4 1029 69 10000 1.5 0 20:59 18.02.2020
2515 Clouds 4 1029 69 10000 1.5 0 20:39 18.02.2020
2516 Clouds 4 1029 69 10000 1 0 20:20 18.02.2020
2517 Clouds 4 1029 69 10000 1 0 19:56 18.02.2020
2518 Clouds 4 1029 69 10000 1 0 19:38 18.02.2020
2519 Clouds 4 1028 69 10000 1 0 19:18 18.02.2020
2520 Clouds 5 1028 65 10000 1 0 18:42 18.02.2020
2521 Clouds 5 1028 56 10000 2.6 310 18:21 18.02.2020
2522 Clouds 6 1028 60 10000 2.6 300 17:57 18.02.2020
2523 Clouds 6 1028 52 10000 3.6 270 17:38 18.02.2020
2524 Clouds 7 1028 52 10000 3.6 270 17:19 18.02.2020
2525 Clouds 8 1028 52 10000 3.1 260 16:40 18.02.2020
2526 Clouds 8 1028 52 10000 4.1 270 16:21 18.02.2020
2527 Clouds 8 1028 60 10000 4.1 290 15:42 18.02.2020
2528 Clouds 8 1028 60 10000 3.6 270 15:21 18.02.2020
2529 Clouds 8 1029 60 10000 4.1 270 14:58 18.02.2020
2530 Clouds 8 1029 60 10000 4.1 270 14:58 18.02.2020
2531 Clouds 8 1029 60 10000 5.7 290 14:40 18.02.2020
2532 Clouds 8 1029 62 10000 5.7 290 14:21 18.02.2020
2533 Clouds 8 1029 52 10000 3.6 270 13:57 18.02.2020
2534 Clouds 7 1029 62 10000 2.1 260 13:38 18.02.2020
2535 Clouds 8 1029 62 10000 2.1 260 13:20 18.02.2020
2536 Clouds 8 1030 52 10000 5.1 300 12:43 18.02.2020
2537 Clouds 7 1030 56 10000 4.6 280 12:24 18.02.2020
2538 Clouds 7 1030 62 10000 3.6 290 11:56 18.02.2020
2539 Clouds 7 1030 62 10000 3.6 290 11:38 18.02.2020
2540 Clouds 6 1030 56 10000 4.1 260 11:19 18.02.2020
2541 Clouds 6 1030 60 10000 3.6 270 10:44 18.02.2020
2542 Clouds 5 1030 78 10000 3.1 270 10:22 18.02.2020
2543 Rain 5 1030 78 10000 1.5 0 09:56 18.02.2020
2544 Rain 5 1030 78 10000 1.5 0 09:38 18.02.2020
2545 Rain 4 1030 93 10000 2.1 0 09:19 18.02.2020
2546 Clouds 4 1029 78 10000 3.6 270 08:55 18.02.2020
2547 Clouds 3 1029 78 10000 5.1 280 08:37 18.02.2020
2548 Clouds 2 1029 90 10000 5.1 280 08:18 18.02.2020
2549 Clouds 2 1029 80 10000 5.1 270 07:45 18.02.2020
2550 Clouds 3 1029 80 10000 4.6 270 07:25 18.02.2020
2551 Clouds 3 1029 80 10000 2.6 270 06:50 18.02.2020
2552 Clouds 3 1029 80 10000 3.1 280 06:28 18.02.2020
2553 Rain 3 1029 75 10000 4.6 280 05:47 18.02.2020
2554 Rain 4 1029 75 6000 2.6 260 05:18 18.02.2020
2555 Clouds 4 1028 89 10000 3.1 260 03:41 18.02.2020
2556 Clouds 4 1028 75 10000 3.1 250 02:58 18.02.2020
2557 Rain 5 1028 86 10000 2.1 230 01:25 18.02.2020
2558 Rain 5 1028 93 5000 7.2 260 00:23 18.02.2020
2559 Rain 5 1027 70 10000 4.6 240 23:59 17.02.2020
2560 Rain 5 1027 70 10000 4.6 240 23:39 17.02.2020
2561 Rain 5 1026 70 10000 3.6 250 23:19 17.02.2020
2562 Rain 5 1026 75 10000 2.1 210 22:57 17.02.2020
2563 Rain 5 1026 75 10000 2.1 210 22:38 17.02.2020
2564 Rain 6 1026 93 10000 1.5 160 22:18 17.02.2020
2565 Rain 6 1026 100 10000 1 0 21:39 17.02.2020
2566 Rain 6 1025 100 8000 2.6 330 21:18 17.02.2020
2567 Rain 6 1025 93 7000 2.1 310 20:55 17.02.2020
2568 Rain 6 1025 81 9000 3.6 260 20:36 17.02.2020
2569 Rain 6 1025 81 9000 3.6 260 20:36 17.02.2020
2570 Rain 6 1025 81 9000 3.6 260 20:18 17.02.2020
2571 Rain 6 1025 81 9000 5.1 270 19:42 17.02.2020
2572 Rain 6 1024 75 9000 4.6 270 19:21 17.02.2020
2573 Rain 7 1024 87 6000 5.7 270 18:39 17.02.2020
2574 Rain 7 1024 87 6000 5.7 270 18:39 17.02.2020
2575 Rain 7 1023 87 5000 5.1 270 18:20 17.02.2020
2576 Rain 7 1023 81 8000 4.6 260 18:00 17.02.2020
2577 Rain 7 1022 81 6000 3.1 270 17:38 17.02.2020
2578 Rain 7 1022 81 6000 3.1 270 17:19 17.02.2020
2579 Rain 8 1022 81 6000 5.1 260 16:58 17.02.2020
2580 Rain 8 1022 81 6000 5.1 260 16:40 17.02.2020
2581 Rain 8 1022 87 6000 6.7 270 16:21 17.02.2020
2582 Rain 8 1021 87 6000 5.7 280 15:46 17.02.2020
2583 Rain 8 1021 81 6000 6.7 280 15:27 17.02.2020
2584 Rain 8 1021 81 7000 7.7 290 14:57 17.02.2020
2585 Rain 9 1021 81 7000 7.7 290 14:39 17.02.2020
2586 Rain 10 1020 76 10000 6.2 280 14:20 17.02.2020
2587 Clouds 10 1020 66 10000 4.1 260 13:55 17.02.2020
2588 Rain 10 1020 58 10000 6.7 270 13:36 17.02.2020
2589 Rain 10 1020 58 10000 6.7 270 13:36 17.02.2020
2590 Rain 10 1020 58 10000 6.7 270 13:36 17.02.2020
2591 Rain 10 1020 58 10000 6.7 270 13:18 17.02.2020
2592 Rain 10 1020 58 10000 6.7 270 13:18 17.02.2020
2593 Clouds 11 1019 58 10000 8.7 270 12:42 17.02.2020
2594 Clouds 11 1019 58 10000 8.7 270 12:23 17.02.2020
2595 Clouds 11 1019 81 10000 2.1 160 11:50 17.02.2020
2596 Clouds 11 1019 81 10000 1 0 11:29 17.02.2020
2597 Clouds 11 1019 81 10000 1 0 11:29 17.02.2020
2598 Clouds 10 1019 71 10000 5.7 240 10:59 17.02.2020
2599 Clouds 10 1019 71 10000 5.7 240 10:41 17.02.2020
2600 Clouds 10 1019 71 10000 4.1 240 10:22 17.02.2020
2601 Clouds 9 1019 93 10000 1 310 09:58 17.02.2020
2602 Clouds 9 1019 93 10000 1 310 09:40 17.02.2020
2603 Clouds 9 1019 76 10000 1.5 180 09:21 17.02.2020
2604 Clouds 8 1019 87 10000 0.5 0 08:56 17.02.2020
2605 Clouds 8 1019 69 10000 1 0 08:38 17.02.2020
2606 Clouds 7 1019 74 10000 1.43 182 08:19 17.02.2020
2607 Clouds 6 1019 74 10000 1 0 07:42 17.02.2020
2608 Clouds 7 1019 76 10000 5.1 240 07:22 17.02.2020
2609 Clouds 7 1019 74 10000 1.43 182 06:51 17.02.2020
2610 Clouds 7 1019 100 10000 0.5 0 06:30 17.02.2020
2611 Clouds 7 1019 100 10000 0.5 0 06:30 17.02.2020
2612 Clouds 7 1019 57 10000 4.6 240 05:40 17.02.2020
2613 Clouds 8 1019 75 10000 0.5 0 04:58 17.02.2020
2614 Clouds 7 1019 75 10000 1.5 0 03:20 17.02.2020
2615 Clouds 9 1019 100 10000 1 0 01:47 17.02.2020
2616 Clouds 9 1019 100 10000 1 0 01:47 17.02.2020
2617 Clouds 9 1019 66 10000 7.2 230 00:41 17.02.2020
2618 Clouds 9 1019 93 10000 0.5 0 00:19 17.02.2020
2619 Clouds 9 1019 66 10000 6.2 230 23:53 16.02.2020
2620 Clouds 9 1018 76 10000 5.7 230 23:30 16.02.2020
2621 Clouds 9 1018 66 10000 6.2 210 22:57 16.02.2020
2622 Clouds 9 1018 66 10000 6.2 210 22:39 16.02.2020
2623 Clouds 9 1018 71 10000 5.7 220 22:20 16.02.2020
2624 Clouds 9 1018 71 10000 5.7 220 21:57 16.02.2020
2625 Clouds 9 1018 71 10000 5.7 220 21:39 16.02.2020
2626 Clouds 9 1018 76 10000 5.7 220 21:20 16.02.2020
2627 Clouds 9 1018 71 10000 5.7 210 20:57 16.02.2020
2628 Clouds 9 1018 71 10000 5.7 210 20:57 16.02.2020
2629 Clouds 9 1018 71 10000 5.7 210 20:38 16.02.2020
2630 Clouds 9 1018 80 10000 1.5 0 20:20 16.02.2020
2631 Clouds 10 1018 71 10000 5.7 220 19:57 16.02.2020
2632 Clouds 10 1018 81 10000 1.5 140 19:37 16.02.2020
2633 Clouds 10 1018 81 10000 1.5 140 19:18 16.02.2020
2634 Clouds 10 1018 81 10000 1.5 140 19:18 16.02.2020
2635 Clouds 10 1018 70 10000 1.5 110 18:42 16.02.2020
2636 Clouds 11 1018 70 10000 1 0 18:23 16.02.2020
2637 Clouds 11 1018 57 10000 2.1 120 17:55 16.02.2020
2638 Clouds 12 1017 58 10000 1.5 130 17:36 16.02.2020
2639 Clouds 13 1017 58 10000 1.5 130 17:18 16.02.2020
2640 Clouds 13 1018 44 10000 1 0 16:39 16.02.2020
2641 Clouds 13 1018 44 10000 1 0 16:21 16.02.2020
2642 Clouds 13 1018 44 10000 1 0 16:21 16.02.2020
2643 Clouds 13 1018 47 10000 1 0 15:59 16.02.2020
2644 Clouds 13 1018 47 10000 1 0 15:40 16.02.2020
2645 Clouds 13 1018 50 10000 1.5 0 15:21 16.02.2020
2646 Clouds 12 1018 50 10000 1.5 0 14:42 16.02.2020
2647 Clouds 12 1019 57 10000 1.5 0 14:23 16.02.2020
2648 Clouds 12 1019 61 10000 1 0 13:55 16.02.2020
2649 Clouds 11 1020 61 10000 2.1 110 13:36 16.02.2020
2650 Clouds 11 1020 61 10000 2.1 110 13:18 16.02.2020
2651 Clouds 10 1020 66 10000 2.6 120 12:39 16.02.2020
2652 Clouds 10 1021 70 10000 2.1 100 12:19 16.02.2020
2653 Clouds 9 1021 70 10000 1.5 160 11:40 16.02.2020
2654 Clouds 8 1021 75 10000 2.1 160 11:19 16.02.2020
2655 Clouds 8 1021 70 10000 1 0 10:58 16.02.2020
2656 Clouds 8 1021 70 10000 1 0 10:40 16.02.2020
2657 Clouds 8 1021 70 10000 1 0 10:40 16.02.2020
2658 Clouds 7 1021 75 10000 1 150 10:21 16.02.2020
2659 Clouds 7 1021 75 10000 1 150 10:21 16.02.2020
2660 Clouds 7 1021 86 10000 2.1 110 09:59 16.02.2020
2661 Clouds 7 1021 86 10000 2.1 110 09:59 16.02.2020
2662 Clouds 6 1021 86 10000 2.1 110 09:38 16.02.2020
2663 Clouds 5 1021 59 10000 0.5 0 09:20 16.02.2020
2664 Clouds 5 1021 59 10000 1 0 08:50 16.02.2020
2665 Clouds 4 1021 86 10000 0.5 0 08:22 16.02.2020
2666 Clouds 4 1021 86 10000 2.1 320 07:59 16.02.2020
2667 Clouds 4 1021 86 10000 2.1 320 07:39 16.02.2020
2668 Clouds 4 1021 65 10000 4.1 110 06:39 16.02.2020
2669 Clouds 3 1022 65 10000 1 110 05:43 16.02.2020
2670 Clouds 3 1022 86 10000 1 0 04:35 16.02.2020
2671 Clouds 4 1022 67 10000 2.6 130 03:18 16.02.2020
2672 Clouds 5 1023 86 10000 2.6 100 01:57 16.02.2020
2673 Clouds 4 1023 86 10000 3.6 120 01:37 16.02.2020
2674 Clouds 4 1023 86 10000 3.6 120 01:19 16.02.2020
2675 Clouds 4 1023 93 10000 1.5 150 00:41 16.02.2020
2676 Clouds 5 1023 93 10000 0.5 0 00:21 16.02.2020
2677 Clouds 5 1023 86 10000 0.5 0 23:43 15.02.2020
2678 Clouds 5 1023 93 10000 1.5 220 23:24 15.02.2020
2679 Clouds 5 1023 86 10000 1 0 22:57 15.02.2020
2680 Clouds 5 1023 86 10000 1 0 22:39 15.02.2020
2681 Clouds 5 1023 86 10000 0.5 0 22:19 15.02.2020
2682 Clouds 5 1023 86 10000 1 0 21:43 15.02.2020
2683 Clouds 5 1023 80 10000 2.6 100 21:24 15.02.2020
2684 Clouds 5 1023 80 10000 2.6 100 20:56 15.02.2020
2685 Clouds 5 1023 80 10000 3.6 110 20:37 15.02.2020
2686 Clouds 5 1023 80 10000 3.6 110 20:19 15.02.2020
2687 Clouds 6 1022 80 10000 2.6 100 19:41 15.02.2020
2688 Clouds 6 1022 80 10000 2.6 100 19:22 15.02.2020
2689 Clouds 6 1022 80 10000 2.1 120 18:41 15.02.2020
2690 Clouds 7 1023 75 10000 1.4 163 18:21 15.02.2020
2691 Clouds 8 1022 66 10000 1.5 230 17:56 15.02.2020
2692 Clouds 9 1022 57 10000 1.5 220 17:37 15.02.2020
2693 Clouds 10 1022 57 10000 1.5 220 17:19 15.02.2020
2694 Clouds 11 1022 57 10000 1 210 16:41 15.02.2020
2695 Clouds 11 1022 54 10000 1 0 16:23 15.02.2020
2696 Clouds 11 1022 54 10000 0.5 0 15:54 15.02.2020
2697 Clouds 11 1023 53 10000 0.5 0 15:36 15.02.2020
2698 Clouds 11 1023 53 10000 0.5 0 15:36 15.02.2020
2699 Clouds 11 1023 53 10000 0.5 0 15:18 15.02.2020
2700 Clouds 10 1024 53 10000 1 0 14:39 15.02.2020
2701 Clouds 10 1024 53 10000 1 0 14:18 15.02.2020
2702 Clouds 9 1024 57 10000 1 0 13:42 15.02.2020
2703 Clouds 9 1025 61 10000 1 0 13:23 15.02.2020
2704 Clouds 8 1025 65 10000 2.1 0 12:57 15.02.2020
2705 Clouds 7 1026 70 10000 1 0 12:38 15.02.2020
2706 Clouds 7 1026 70 10000 1 0 12:19 15.02.2020
2707 Clouds 6 1026 75 10000 2.1 150 11:46 15.02.2020
2708 Clouds 5 1026 80 10000 2.1 130 11:27 15.02.2020
2709 Clouds 4 1026 93 10000 3.1 120 10:49 15.02.2020
2710 Clouds 3 1026 100 10000 1.5 100 10:30 15.02.2020
2711 Clouds 2 1026 67 10000 2.1 140 09:57 15.02.2020
2712 Fog 2 1026 100 10000 2.1 90 09:38 15.02.2020
2713 Fog 1 1026 100 10000 2.1 90 09:20 15.02.2020
2714 Fog 0 1026 92 10000 1 0 08:43 15.02.2020
2715 Fog 0 1026 81 500 0.5 210 08:24 15.02.2020
2716 Fog 0 1026 100 200 1.5 230 07:51 15.02.2020
2717 Mist 0 1026 92 3900 1 300 07:31 15.02.2020
2718 Mist 0 1025 100 3500 1 0 06:51 15.02.2020
2719 Fog 0 1025 92 3000 0.5 0 06:31 15.02.2020
2720 Fog 0 1026 100 150 1 240 05:41 15.02.2020
2721 Fog 0 1025 92 750 0.5 280 04:45 15.02.2020
2722 Clouds 1 1025 92 5000 0.5 0 03:39 15.02.2020
2723 Mist 1 1025 100 3800 1 10 02:50 15.02.2020
2724 Fog 1 1025 100 10000 0.5 0 02:22 15.02.2020
2725 Clouds 1 1025 92 7000 0.5 0 01:40 15.02.2020
2726 Clouds 1 1026 85 10000 1 320 00:42 15.02.2020
2727 Clouds 1 1026 85 10000 1 0 00:21 15.02.2020
2728 Clouds 2 1026 100 10000 0.5 0 23:40 14.02.2020
2729 Clear 2 1026 100 10000 0.5 0 23:20 14.02.2020
2730 Clear 2 1027 89 10000 1 0 22:44 14.02.2020
2731 Clear 2 1027 93 10000 0.5 0 22:23 14.02.2020
2732 Clouds 3 1027 100 10000 1 0 21:54 14.02.2020
2733 Clouds 3 1027 93 10000 1.08 132 21:36 14.02.2020
2734 Clouds 3 1027 93 10000 1.08 132 21:18 14.02.2020
2735 Clouds 4 1027 86 10000 1.08 132 20:42 14.02.2020
2736 Clouds 4 1026 86 10000 1.23 133 20:19 14.02.2020
2737 Clouds 5 1026 86 10000 1.5 0 19:55 14.02.2020
2738 Clouds 5 1026 75 10000 1 0 19:37 14.02.2020
2739 Clouds 5 1026 75 10000 1 0 19:18 14.02.2020
2740 Clouds 6 1026 70 10000 1.5 0 18:55 14.02.2020
2741 Clouds 6 1025 65 10000 3.1 290 18:36 14.02.2020
2742 Clouds 6 1025 65 10000 3.1 290 18:18 14.02.2020
2743 Clouds 7 1025 66 10000 3.1 310 17:40 14.02.2020
2744 Clouds 8 1025 66 10000 2.6 290 17:19 14.02.2020
2745 Clouds 9 1025 66 10000 4.1 290 16:43 14.02.2020
2746 Clouds 9 1024 61 10000 5.7 300 16:25 14.02.2020
2747 Clouds 9 1024 57 10000 3.1 300 15:58 14.02.2020
2748 Clouds 9 1024 57 10000 3.1 300 15:58 14.02.2020
2749 Clouds 9 1024 57 10000 3.1 300 15:40 14.02.2020
2750 Clouds 9 1024 61 10000 3.6 250 15:21 14.02.2020
2751 Clouds 9 1024 61 10000 2.6 290 14:59 14.02.2020
2752 Clouds 9 1024 61 10000 2.6 290 14:59 14.02.2020
2753 Clouds 9 1024 61 10000 2.6 290 14:41 14.02.2020
2754 Clouds 9 1024 61 10000 4.1 230 14:22 14.02.2020
2755 Clouds 9 1024 66 10000 3.1 260 13:57 14.02.2020
2756 Clouds 9 1024 66 10000 3.1 260 13:39 14.02.2020
2757 Clouds 9 1025 70 10000 3.6 240 13:20 14.02.2020
2758 Clouds 9 1024 66 10000 4.1 240 12:57 14.02.2020
2759 Clouds 9 1024 66 10000 4.1 240 12:57 14.02.2020
2760 Clouds 9 1025 70 10000 4.6 280 12:38 14.02.2020
2761 Clouds 9 1025 70 10000 4.6 280 12:20 14.02.2020
2762 Clouds 8 1024 70 10000 4.6 260 11:56 14.02.2020
2763 Clouds 8 1024 70 10000 5.1 260 11:37 14.02.2020
2764 Clouds 7 1024 70 10000 5.1 260 11:19 14.02.2020
2765 Clouds 6 1024 86 10000 3.1 110 10:41 14.02.2020
2766 Clouds 6 1024 86 10000 3.1 110 10:22 14.02.2020
2767 Clouds 6 1024 93 10000 3.6 110 09:55 14.02.2020
2768 Clouds 5 1023 86 10000 1.5 0 09:36 14.02.2020
2769 Clouds 5 1023 86 10000 1.5 0 09:18 14.02.2020
2770 Clouds 5 1022 86 10000 2.1 170 08:40 14.02.2020
2771 Clouds 4 1021 86 10000 1.5 150 08:22 14.02.2020
2772 Clouds 4 1021 86 10000 1.5 150 08:22 14.02.2020
2773 Clouds 4 1021 86 10000 1.5 150 08:22 14.02.2020
2774 Clouds 4 1021 86 10000 1.5 150 08:22 14.02.2020
2775 Clouds 4 1021 80 10000 2.6 160 07:50 14.02.2020
2776 Rain 4 1021 80 10000 2.6 200 07:30 14.02.2020
2777 Clouds 4 1020 75 10000 3.6 250 06:48 14.02.2020
2778 Drizzle 4 1020 86 10000 3.6 250 06:21 14.02.2020
2779 Drizzle 4 1020 86 10000 3.6 250 06:21 14.02.2020
2780 Rain 4 1019 93 10000 2.6 0 05:41 14.02.2020
2781 Rain 4 1019 93 10000 2.6 0 05:41 14.02.2020
2782 Rain 4 1018 86 10000 2.6 210 03:50 14.02.2020
2783 Clouds 4 1018 93 10000 3.1 0 02:58 14.02.2020
2784 Rain 4 1017 93 6000 3.6 230 02:18 14.02.2020
2785 Rain 4 1015 86 10000 5.1 240 00:59 14.02.2020
2786 Rain 4 1015 93 3500 4.6 260 00:32 14.02.2020
2787 Rain 4 1015 93 5000 7.7 290 23:59 13.02.2020
2788 Rain 4 1015 93 5000 7.7 290 23:41 13.02.2020
2789 Rain 5 1012 61 10000 5.1 220 23:19 13.02.2020
2790 Clouds 6 1012 65 10000 6.2 210 22:40 13.02.2020
2791 Clouds 6 1012 65 10000 6.2 210 22:19 13.02.2020
2792 Clouds 6 1011 70 10000 6.7 260 21:58 13.02.2020
2793 Clouds 6 1011 70 10000 6.7 260 21:40 13.02.2020
2794 Clouds 6 1011 75 10000 3.6 0 21:20 13.02.2020
2795 Clouds 6 1010 75 10000 2.6 0 20:43 13.02.2020
2796 Rain 6 1010 87 10000 4.6 250 20:23 13.02.2020
2797 Thunderstorm 5 1010 87 3300 6.2 270 19:58 13.02.2020
2798 Thunderstorm 5 1010 87 3300 6.2 270 19:39 13.02.2020
2799 Thunderstorm 5 1010 93 2300 12.3 290 19:20 13.02.2020
2800 Thunderstorm 5 1009 86 1800 11.3 270 18:58 13.02.2020
2801 Thunderstorm 5 1009 86 1800 11.3 270 18:58 13.02.2020
2802 Thunderstorm 5 1009 86 1800 11.3 270 18:39 13.02.2020
2803 Clouds 6 1006 93 10000 2.6 0 18:21 13.02.2020
2804 Clouds 6 1007 87 10000 3.1 330 17:57 13.02.2020
2805 Drizzle 6 1008 87 10000 3.6 320 17:37 13.02.2020
2806 Drizzle 6 1008 87 10000 3.6 320 17:37 13.02.2020
2807 Drizzle 6 1008 87 10000 3.6 320 17:19 13.02.2020
2808 Rain 6 1008 87 10000 3.6 300 16:42 13.02.2020
2809 Rain 6 1009 75 10000 4.1 300 16:21 13.02.2020
2810 Rain 6 1009 74 10000 1.5 260 15:58 13.02.2020
2811 Rain 7 1009 74 10000 1.5 260 15:39 13.02.2020
2812 Rain 7 1010 61 10000 3.1 140 15:20 13.02.2020
2813 Drizzle 7 1010 61 10000 5.1 290 14:59 13.02.2020
2814 Drizzle 7 1010 61 10000 5.1 290 14:40 13.02.2020
2815 Rain 6 1011 56 10000 5.1 300 14:22 13.02.2020
2816 Rain 6 1012 60 10000 2.1 320 13:59 13.02.2020
2817 Rain 6 1012 60 10000 2.1 320 13:41 13.02.2020
2818 Clouds 6 1012 48 10000 1.5 180 13:18 13.02.2020
2819 Clouds 6 1013 56 10000 1.5 0 12:48 13.02.2020
2820 Clouds 6 1014 52 10000 1 0 12:30 13.02.2020
2821 Clouds 5 1014 69 10000 2.1 140 11:58 13.02.2020
2822 Clouds 4 1015 69 10000 1 0 11:40 13.02.2020
2823 Clouds 3 1015 69 10000 1 0 11:19 13.02.2020
2824 Clouds 2 1015 74 10000 1 0 10:43 13.02.2020
2825 Clouds 2 1016 56 10000 2.6 130 10:24 13.02.2020
2826 Clouds 2 1016 56 10000 1.5 80 09:47 13.02.2020
2827 Clouds 1 1017 86 10000 0.5 0 09:24 13.02.2020
2828 Clouds 0 1017 92 10000 0.5 0 08:48 13.02.2020
2829 Clouds -1 1017 92 10000 1.5 270 08:20 13.02.2020
2830 Clouds -1 1016 92 10000 1 0 07:45 13.02.2020
2831 Clouds -1 1017 92 10000 1 0 07:24 13.02.2020
2832 Clouds -1 1017 92 10000 1 250 06:59 13.02.2020
2833 Clouds -1 1017 92 10000 1 250 06:41 13.02.2020
2834 Clouds -1 1018 86 10000 1 0 05:57 13.02.2020
2835 Clouds -1 1018 86 10000 1.5 310 05:20 13.02.2020
2836 Clouds -1 1018 80 10000 2.6 90 04:24 13.02.2020
2837 Clouds 0 1019 80 10000 2.6 90 03:45 13.02.2020
2838 Clouds 0 1021 86 10000 1.5 120 02:59 13.02.2020
2839 Clouds 0 1021 92 10000 1.5 120 02:37 13.02.2020
2840 Clouds 1 1021 92 10000 1.5 120 02:18 13.02.2020
2841 Clouds 1 1022 86 10000 2.6 90 01:27 13.02.2020
2842 Clouds 1 1022 80 10000 0.5 0 00:32 13.02.2020
2843 Clouds 1 1022 86 10000 1.1 158 23:58 12.02.2020
2844 Clouds 1 1022 74 10000 1.5 0 23:37 12.02.2020
2845 Clouds 2 1022 74 10000 1.5 0 23:18 12.02.2020
2846 Clouds 2 1022 78 10000 1 0 22:43 12.02.2020
2847 Clouds 2 1022 78 10000 1 0 22:43 12.02.2020
2848 Clouds 2 1022 74 10000 2.1 300 22:24 12.02.2020
2849 Clouds 2 1022 78 10000 0.5 0 21:56 12.02.2020
2850 Clouds 3 1022 78 10000 2.1 90 21:37 12.02.2020
2851 Clouds 3 1022 78 10000 2.1 90 21:19 12.02.2020
2852 Clouds 3 1023 78 10000 0.5 0 20:55 12.02.2020
2853 Clouds 3 1023 64 10000 2.1 190 20:36 12.02.2020
2854 Clouds 3 1023 64 10000 2.1 190 20:18 12.02.2020
2855 Clouds 4 1023 64 10000 1.5 170 19:43 12.02.2020
2856 Clouds 4 1023 55 10000 0.5 0 19:23 12.02.2020
2857 Clouds 4 1022 56 10000 1.5 220 18:54 12.02.2020
2858 Clouds 4 1022 48 10000 2.6 280 18:36 12.02.2020
2859 Clouds 5 1022 48 10000 2.6 280 18:18 12.02.2020
2860 Clouds 5 1022 45 10000 4.6 270 17:41 12.02.2020
2861 Clouds 6 1022 45 10000 5.7 260 17:19 12.02.2020
2862 Clouds 6 1022 42 10000 6.7 270 16:57 12.02.2020
2863 Clouds 6 1022 42 10000 4.1 270 16:37 12.02.2020
2864 Clouds 6 1022 42 10000 4.1 270 16:18 12.02.2020
2865 Clouds 6 1022 45 10000 4.6 260 15:40 12.02.2020
2866 Clouds 6 1022 45 10000 4.6 260 15:20 12.02.2020
2867 Clouds 6 1022 45 10000 6.2 270 14:54 12.02.2020
2868 Clouds 6 1022 48 10000 7.7 260 14:36 12.02.2020
2869 Clouds 6 1022 48 10000 7.7 260 14:18 12.02.2020
2870 Clouds 6 1023 56 10000 5.7 260 13:55 12.02.2020
2871 Clouds 6 1023 65 10000 6.7 260 13:36 12.02.2020
2872 Clouds 6 1023 65 10000 6.7 260 13:18 12.02.2020
2873 Clouds 6 1023 56 10000 6.7 230 12:55 12.02.2020
2874 Clouds 6 1023 56 10000 7.7 250 12:36 12.02.2020
2875 Clouds 6 1023 56 10000 7.7 250 12:18 12.02.2020
2876 Clouds 5 1023 65 10000 6.2 260 11:42 12.02.2020
2877 Clouds 4 1023 65 10000 6.2 260 11:21 12.02.2020
2878 Clouds 4 1022 65 10000 5.7 270 10:59 12.02.2020
2879 Clouds 4 1022 65 10000 5.7 270 10:40 12.02.2020
2880 Clouds 4 1022 65 10000 1 0 10:21 12.02.2020
2881 Clouds 4 1022 65 10000 1 0 10:21 12.02.2020
2882 Clouds 3 1022 69 10000 2.1 300 09:57 12.02.2020
2883 Clouds 4 1022 69 10000 2.1 300 09:39 12.02.2020
2884 Rain 3 1022 69 6000 3.1 270 09:19 12.02.2020
2885 Rain 3 1022 69 6000 3.1 270 09:19 12.02.2020
2886 Clouds 3 1022 64 10000 2.6 270 08:55 12.02.2020
2887 Clouds 3 1022 64 10000 3.1 0 08:36 12.02.2020
2888 Clouds 3 1022 64 10000 3.1 0 08:18 12.02.2020
2889 Clouds 3 1022 60 10000 4.1 240 07:42 12.02.2020
2890 Clouds 3 1022 64 10000 4.1 280 07:22 12.02.2020
2891 Clouds 3 1022 69 10000 4.6 270 06:52 12.02.2020
2892 Clouds 3 1022 60 10000 4.6 270 06:20 12.02.2020
2893 Clouds 3 1021 60 10000 2.1 0 05:35 12.02.2020
2894 Clouds 3 1021 64 10000 3.1 240 04:56 12.02.2020
2895 Clouds 3 1020 69 10000 4.1 230 04:38 12.02.2020
2896 Rain 3 1020 69 10000 3.6 260 03:31 12.02.2020
2897 Rain 3 1020 69 10000 3.6 260 03:31 12.02.2020
2898 Rain 3 1020 60 10000 3.1 0 02:58 12.02.2020
2899 Clouds 3 1020 52 10000 1 0 02:28 12.02.2020
2900 Clouds 3 1021 56 10000 2.6 240 01:42 12.02.2020
2901 Clouds 3 1021 60 10000 5.1 240 00:44 12.02.2020
2902 Clouds 3 1021 52 10000 5.7 250 00:25 12.02.2020
2903 Clouds 4 1020 52 10000 7.2 260 23:55 11.02.2020
2904 Clouds 4 1020 56 10000 4.1 250 23:37 11.02.2020
2905 Clouds 4 1020 56 10000 4.1 250 23:18 11.02.2020
2906 Clouds 4 1020 52 10000 5.7 260 22:42 11.02.2020
2907 Clouds 5 1020 52 10000 5.7 260 22:21 11.02.2020
2908 Clouds 5 1020 56 10000 5.1 250 21:58 11.02.2020
2909 Clouds 4 1019 60 10000 7.2 270 21:39 11.02.2020
2910 Clouds 4 1019 60 10000 7.2 270 21:19 11.02.2020
2911 Clouds 4 1019 60 10000 5.7 260 20:59 11.02.2020
2912 Clouds 4 1019 75 10000 4.1 280 20:39 11.02.2020
2913 Clouds 4 1019 75 10000 4.1 280 20:39 11.02.2020
2914 Clouds 4 1019 75 10000 4.1 280 20:20 11.02.2020
2915 Rain 4 1018 75 9000 7.2 270 19:58 11.02.2020
2916 Rain 4 1018 75 9000 7.2 270 19:40 11.02.2020
2917 Rain 4 1018 83 10000 5.7 280 19:22 11.02.2020
2918 Rain 4 1017 70 10000 4.1 230 18:46 11.02.2020
2919 Rain 4 1017 70 10000 4.1 260 18:28 11.02.2020
2920 Clouds 4 1017 75 10000 6.2 260 17:59 11.02.2020
2921 Snow 5 1016 83 800 5.7 250 17:40 11.02.2020
2922 Rain 5 1016 75 10000 3.6 0 17:21 11.02.2020
2923 Clouds 5 1017 70 10000 6.2 260 16:59 11.02.2020
2924 Clouds 5 1017 70 10000 6.2 260 16:40 11.02.2020
2925 Clouds 5 1016 75 10000 7.7 260 16:21 11.02.2020
2926 Clouds 5 1016 75 10000 7.7 260 15:58 11.02.2020
2927 Rain 6 1016 75 10000 7.7 260 15:39 11.02.2020
2928 Rain 6 1016 70 10000 7.7 270 15:21 11.02.2020
2929 Rain 6 1016 70 5000 10.3 280 14:42 11.02.2020
2930 Rain 6 1015 87 10000 5.7 230 14:19 11.02.2020
2931 Rain 6 1015 87 10000 5.7 230 14:19 11.02.2020
2932 Clouds 6 1015 87 10000 6.2 240 13:57 11.02.2020
2933 Clouds 6 1015 87 10000 6.2 240 13:38 11.02.2020
2934 Clouds 6 1015 78 10000 4.1 0 13:20 11.02.2020
2935 Drizzle 6 1016 78 10000 4.6 260 12:55 11.02.2020
2936 Rain 6 1016 78 10000 4.1 270 12:36 11.02.2020
2937 Rain 6 1016 78 10000 4.1 270 12:18 11.02.2020
2938 Clouds 6 1016 56 10000 3.6 0 11:41 11.02.2020
2939 Clouds 6 1016 56 10000 3.6 0 11:19 11.02.2020
2940 Clouds 7 1017 49 10000 7.7 260 10:54 11.02.2020
2941 Clouds 7 1017 49 10000 7.7 260 10:54 11.02.2020
2942 Clouds 6 1017 56 10000 5.7 290 10:36 11.02.2020
2943 Clouds 6 1017 56 10000 5.7 290 10:36 11.02.2020
2944 Clouds 6 1017 56 10000 5.7 290 10:18 11.02.2020
2945 Clouds 6 1017 52 10000 3.6 280 09:43 11.02.2020
2946 Clouds 6 1017 52 10000 4.1 270 09:22 11.02.2020
2947 Clouds 6 1017 48 10000 4.1 260 08:56 11.02.2020
2948 Clouds 6 1017 48 10000 4.1 260 08:38 11.02.2020
2949 Clouds 6 1017 48 10000 7.2 270 08:19 11.02.2020
2950 Clouds 6 1017 52 10000 7.7 270 07:45 11.02.2020
2951 Clouds 6 1016 70 10000 6.7 280 07:24 11.02.2020
2952 Clouds 6 1015 75 10000 5.7 270 06:42 11.02.2020
2953 Rain 6 1015 75 10000 6.7 260 06:20 11.02.2020
2954 Rain 6 1015 81 3900 8.7 290 05:47 11.02.2020
2955 Rain 6 1014 81 10000 6.7 260 05:21 11.02.2020
2956 Rain 7 1013 61 8000 14.4 290 04:35 11.02.2020
2957 Rain 8 1012 61 10000 6.2 240 02:41 11.02.2020
2958 Clouds 8 1012 61 10000 5.7 240 02:22 11.02.2020
2959 Clouds 9 1012 53 10000 8.7 260 01:34 11.02.2020
2960 Rain 9 1012 57 10000 7.7 270 00:32 11.02.2020
2961 Rain 9 1012 57 10000 8.2 260 23:52 10.02.2020
2962 Clouds 9 1012 53 10000 7.7 270 23:31 10.02.2020
2963 Rain 10 1012 50 10000 7.2 260 22:58 10.02.2020
2964 Rain 10 1012 50 10000 7.2 260 22:38 10.02.2020
2965 Clouds 10 1012 50 10000 9.3 260 22:20 10.02.2020
2966 Clouds 10 1011 50 10000 8.2 250 21:43 10.02.2020
2967 Clouds 11 1012 54 10000 7.2 270 21:25 10.02.2020
2968 Clouds 11 1012 54 10000 7.2 270 21:25 10.02.2020
2969 Clouds 11 1012 54 10000 8.2 270 20:57 10.02.2020
2970 Clouds 11 1012 54 10000 8.2 270 20:57 10.02.2020
2971 Clouds 11 1012 54 10000 8.2 270 20:38 10.02.2020
2972 Clouds 11 1012 54 10000 5.7 270 20:20 10.02.2020
2973 Clouds 11 1012 50 10000 4.6 270 19:58 10.02.2020
2974 Clouds 10 1012 75 10000 9.8 240 19:38 10.02.2020
2975 Clouds 10 1012 53 10000 3.1 0 19:18 10.02.2020
2976 Clouds 10 1012 57 10000 2.6 0 18:58 10.02.2020
2977 Clouds 10 1012 57 10000 2.6 0 18:39 10.02.2020
2978 Clouds 9 1013 57 10000 1.5 0 18:20 10.02.2020
2979 Clouds 9 1014 66 10000 2.6 290 17:56 10.02.2020
2980 Rain 9 1014 71 10000 7.7 280 17:37 10.02.2020
2981 Rain 9 1014 71 10000 7.7 280 17:37 10.02.2020
2982 Rain 9 1014 71 10000 7.7 280 17:19 10.02.2020
2983 Rain 9 1014 71 10000 7.7 280 17:19 10.02.2020
2984 Rain 9 1015 66 10000 4.6 280 16:58 10.02.2020
2985 Rain 9 1015 66 10000 4.6 280 16:38 10.02.2020
2986 Rain 10 1015 70 10000 9.8 260 16:19 10.02.2020
2987 Rain 10 1014 54 10000 6.2 270 15:55 10.02.2020
2988 Clouds 10 1015 54 10000 7.2 250 15:37 10.02.2020
2989 Clouds 10 1015 54 10000 7.2 250 15:18 10.02.2020
2990 Clouds 10 1016 54 10000 9.3 260 14:41 10.02.2020
2991 Clouds 10 1016 54 10000 9.3 260 14:41 10.02.2020
2992 Clouds 10 1016 62 10000 9.3 270 14:20 10.02.2020
2993 Clouds 10 1016 62 10000 9.3 270 14:20 10.02.2020
2994 Clouds 10 1017 66 10000 9.3 270 13:57 10.02.2020
2995 Rain 10 1016 81 10000 12.3 280 13:39 10.02.2020
2996 Rain 10 1016 81 10000 12.3 280 13:21 10.02.2020
2997 Rain 10 1016 58 10000 10.3 260 12:47 10.02.2020
2998 Rain 10 1015 54 10000 10.8 270 12:26 10.02.2020
2999 Clouds 10 1015 54 10000 11.3 260 11:56 10.02.2020
3000 Clouds 10 1014 58 10000 9.8 260 11:37 10.02.2020
3001 Clouds 11 1014 58 10000 9.8 260 11:19 10.02.2020
3002 Clouds 11 1014 62 10000 7.7 250 10:46 10.02.2020
3003 Rain 11 1014 76 6000 7.2 260 10:26 10.02.2020
3004 Rain 11 1013 62 10000 8.7 270 09:45 10.02.2020
3005 Rain 11 1012 58 10000 7.2 240 09:26 10.02.2020
3006 Rain 11 1011 54 10000 7.7 210 08:55 10.02.2020
3007 Clouds 11 1011 54 10000 7.2 230 08:36 10.02.2020
3008 Clouds 11 1011 54 10000 7.2 230 08:18 10.02.2020
3009 Clouds 11 1011 58 10000 7.2 220 07:46 10.02.2020
3010 Clouds 11 1010 58 10000 9.8 220 07:25 10.02.2020
3011 Rain 11 1012 66 10000 6.7 230 05:52 10.02.2020
3012 Clouds 10 1010 54 10000 6.7 220 04:26 10.02.2020
3013 Clouds 10 1011 66 10000 7.2 280 03:31 10.02.2020
3014 Clouds 9 1010 58 10000 5.7 290 02:54 10.02.2020
3015 Rain 9 1013 61 10000 5.1 280 01:36 10.02.2020
3016 Rain 9 1013 61 10000 5.1 280 01:36 10.02.2020
3017 Clouds 9 1014 57 10000 5.7 290 00:48 10.02.2020
3018 Clouds 9 1014 61 10000 6.7 300 00:28 10.02.2020
3019 Rain 9 1014 63 10000 4.1 290 23:45 09.02.2020
3020 Clouds 9 1015 63 10000 5.7 300 23:26 09.02.2020
3021 Clouds 9 1015 57 10000 5.7 300 22:59 09.02.2020
3022 Clouds 8 1016 70 10000 5.1 300 22:38 09.02.2020
3023 Clouds 8 1016 70 10000 5.1 300 22:19 09.02.2020
3024 Clouds 8 1016 75 10000 1.5 0 21:41 09.02.2020
3025 Clouds 8 1016 70 10000 1.5 0 21:22 09.02.2020
3026 Clouds 8 1016 70 10000 1.5 0 21:22 09.02.2020
3027 Clouds 8 1017 70 10000 1 0 20:48 09.02.2020
3028 Clouds 8 1017 74 10000 1 0 20:23 09.02.2020
3029 Clouds 8 1017 75 10000 1.5 110 19:58 09.02.2020
3030 Clouds 8 1018 70 10000 2.1 320 19:39 09.02.2020
3031 Clouds 8 1018 70 10000 2.1 320 19:20 09.02.2020
3032 Clouds 8 1018 56 10000 1 0 18:54 09.02.2020
3033 Clouds 8 1018 74 10000 2.1 120 18:36 09.02.2020
3034 Clouds 8 1018 74 10000 2.1 120 18:18 09.02.2020
3035 Clouds 8 1019 74 10000 1 0 17:39 09.02.2020
3036 Clouds 9 1019 61 10000 2.6 150 17:21 09.02.2020
3037 Clouds 9 1019 61 10000 3.1 180 16:43 09.02.2020
3038 Clouds 9 1019 61 10000 4.6 180 16:24 09.02.2020
3039 Clouds 10 1020 43 10000 2.6 170 15:59 09.02.2020
3040 Clouds 10 1020 43 10000 4.6 250 15:41 09.02.2020
3041 Clouds 10 1020 43 10000 4.6 250 15:41 09.02.2020
3042 Clouds 10 1020 43 10000 4.6 250 15:21 09.02.2020
3043 Clouds 10 1021 61 10000 4.1 260 14:57 09.02.2020
3044 Clouds 10 1021 61 10000 4.1 260 14:38 09.02.2020
3045 Clouds 10 1022 43 10000 2.6 300 14:20 09.02.2020
3046 Clouds 9 1022 50 10000 2.1 0 13:44 09.02.2020
3047 Clouds 9 1023 43 10000 1.5 160 13:26 09.02.2020
3048 Clouds 8 1023 52 10000 2.1 150 12:56 09.02.2020
3049 Clouds 7 1024 52 10000 1.5 160 12:38 09.02.2020
3050 Clouds 7 1024 52 10000 1.5 160 12:18 09.02.2020
3051 Clouds 6 1025 52 10000 1.5 140 11:41 09.02.2020
3052 Clouds 5 1025 64 10000 2.1 110 11:20 09.02.2020
3053 Clouds 4 1025 80 10000 1.5 100 10:57 09.02.2020
3054 Clouds 4 1025 80 10000 1.5 100 10:39 09.02.2020
3055 Clouds 3 1026 64 10000 3.6 100 10:20 09.02.2020
3056 Clouds 1 1026 86 10000 2.6 120 09:41 09.02.2020
3057 Clouds 1 1026 92 10000 1.5 160 09:22 09.02.2020
3058 Clouds 0 1026 92 10000 1.31 195 08:45 09.02.2020
3059 Clouds -1 1026 86 10000 1 0 08:27 09.02.2020
3060 Clouds -1 1025 92 10000 1 0 07:58 09.02.2020
3061 Clouds -1 1025 92 10000 2.1 150 07:34 09.02.2020
3062 Clouds -1 1026 92 10000 1 60 06:46 09.02.2020
3063 Clouds -1 1026 92 10000 0.5 0 05:59 09.02.2020
3064 Clouds 0 1026 92 10000 2.1 120 05:37 09.02.2020
3065 Clouds -1 1026 92 10000 2.1 120 05:18 09.02.2020
3066 Clouds 0 1026 86 10000 1 0 03:52 09.02.2020
3067 Clouds 0 1026 92 10000 0.5 0 02:44 09.02.2020
3068 Clouds 0 1026 86 10000 2.1 0 02:24 09.02.2020
3069 Clouds 0 1026 92 10000 0.5 0 01:34 09.02.2020
3070 Clouds 0 1026 92 10000 1 0 00:41 09.02.2020
3071 Clouds 0 1026 92 10000 1.5 170 00:21 09.02.2020
3072 Clouds 1 1026 92 10000 2.6 90 23:42 08.02.2020
3073 Clouds 1 1026 83 10000 2.6 100 23:20 08.02.2020
3074 Clouds 1 1026 83 10000 2.6 100 23:20 08.02.2020
3075 Clouds 1 1026 92 10000 0.5 0 22:42 08.02.2020
3076 Clouds 1 1026 92 10000 0.5 0 22:21 08.02.2020
3077 Clouds 1 1026 86 10000 0.5 0 21:58 08.02.2020
3078 Clouds 1 1026 86 10000 0.5 0 21:40 08.02.2020
3079 Clouds 1 1026 86 10000 1 0 21:19 08.02.2020
3080 Clouds 2 1026 83 10000 1.5 100 20:55 08.02.2020
3081 Clouds 2 1026 83 10000 0.5 0 20:37 08.02.2020
3082 Clouds 2 1026 79 10000 0.5 0 20:19 08.02.2020
3083 Clouds 2 1025 79 10000 1 0 19:54 08.02.2020
3084 Clouds 3 1025 80 10000 0.5 0 19:36 08.02.2020
3085 Clouds 3 1025 80 10000 0.5 0 19:18 08.02.2020
3086 Clouds 3 1024 74 10000 0.5 0 18:42 08.02.2020
3087 Clouds 3 1024 69 10000 0.5 0 18:22 08.02.2020
3088 Clouds 5 1023 60 10000 1 0 17:43 08.02.2020
3089 Clouds 6 1023 65 10000 1 0 17:21 08.02.2020
3090 Clouds 6 1023 65 10000 1 0 17:21 08.02.2020
3091 Clouds 7 1023 52 10000 1.5 0 16:58 08.02.2020
3092 Clouds 7 1023 52 10000 1.5 0 16:38 08.02.2020
3093 Clouds 8 1023 49 10000 2.1 300 16:20 08.02.2020
3094 Clouds 8 1023 49 10000 3.1 290 15:42 08.02.2020
3095 Clouds 8 1024 49 10000 3.1 310 15:19 08.02.2020
3096 Clouds 8 1024 52 10000 3.1 320 14:58 08.02.2020
3097 Clouds 7 1024 52 10000 3.1 320 14:39 08.02.2020
3098 Clouds 7 1024 49 10000 0.17 275 14:18 08.02.2020
3099 Clouds 7 1024 52 10000 0.5 0 13:43 08.02.2020
3100 Clouds 6 1024 56 10000 0.5 0 13:23 08.02.2020
3101 Clouds 6 1025 65 10000 0.5 0 12:55 08.02.2020
3102 Clouds 5 1025 65 10000 1 0 12:36 08.02.2020
3103 Clouds 5 1025 65 10000 1 0 12:18 08.02.2020
3104 Clouds 5 1025 69 10000 0.5 0 11:41 08.02.2020
3105 Clouds 3 1025 54 10000 0.2 226 11:21 08.02.2020
3106 Clouds 1 1025 86 10000 0.5 0 10:43 08.02.2020
3107 Clouds 1 1025 86 10000 1 0 10:25 08.02.2020
3108 Clouds 0 1025 92 10000 0.5 0 09:55 08.02.2020
3109 Clouds -1 1025 92 10000 0.5 0 09:30 08.02.2020
3110 Clouds -1 1025 92 10000 0.5 150 08:59 08.02.2020
3111 Clouds -2 1025 92 10000 1 80 08:39 08.02.2020
3112 Clouds -3 1025 92 10000 1 80 08:21 08.02.2020
3113 Clouds -3 1025 92 10000 0.5 0 07:50 08.02.2020
3114 Clouds -3 1025 92 10000 0.5 0 07:31 08.02.2020
3115 Clouds -3 1025 92 10000 1 130 06:34 08.02.2020
3116 Clouds -3 1025 92 10000 0.5 0 05:57 08.02.2020
3117 Clouds -3 1025 100 10000 0.5 0 05:32 08.02.2020
3118 Clouds -3 1025 92 10000 0.5 0 04:51 08.02.2020
3119 Clouds -2 1025 92 10000 1.5 160 03:57 08.02.2020
3120 Clouds -2 1025 92 10000 0.5 0 02:58 08.02.2020
3121 Clouds -2 1025 92 10000 1 160 02:28 08.02.2020
3122 Clear -2 1025 92 10000 1 80 01:28 08.02.2020
3123 Clear -2 1025 92 10000 0.5 0 00:46 08.02.2020
3124 Clear -2 1025 100 10000 0.5 0 00:24 08.02.2020
3125 Clear -2 1025 100 10000 1 150 23:56 07.02.2020
3126 Clear -1 1024 92 10000 0.5 0 23:37 07.02.2020
3127 Clear -1 1024 92 10000 0.5 0 23:19 07.02.2020
3128 Clear -1 1025 100 10000 0.5 0 22:41 07.02.2020
3129 Clear -1 1025 92 10000 0.5 0 22:19 07.02.2020
3130 Clear 0 1024 92 10000 0.5 0 21:45 07.02.2020
3131 Clear -1 1024 92 10000 0.5 0 21:23 07.02.2020
3132 Clear 0 1024 92 10000 1 190 20:59 07.02.2020
3133 Clear 0 1024 92 10000 1 90 20:39 07.02.2020
3134 Clear 0 1024 92 10000 1 90 20:18 07.02.2020
3135 Clear 1 1024 92 10000 0.75 142 19:43 07.02.2020
3136 Clear 1 1024 73 10000 1 0 19:22 07.02.2020
3137 Clear 2 1024 74 10000 0.5 0 18:59 07.02.2020
3138 Clear 2 1024 74 10000 0.5 0 18:41 07.02.2020
3139 Clear 2 1024 64 10000 2.1 240 18:23 07.02.2020
3140 Clear 3 1024 60 10000 1.5 0 17:44 07.02.2020
3141 Clear 6 1024 56 10000 2.1 230 17:22 07.02.2020
3142 Clear 6 1024 52 10000 2.1 230 16:58 07.02.2020
3143 Clear 7 1024 49 10000 1.5 220 16:39 07.02.2020
3144 Clear 7 1024 49 10000 1.5 220 16:21 07.02.2020
3145 Clear 7 1024 42 10000 1.5 230 15:52 07.02.2020
3146 Clear 7 1024 45 10000 1 0 15:28 07.02.2020
3147 Clear 7 1024 45 10000 2.1 190 14:54 07.02.2020
3148 Clear 6 1024 52 10000 1.5 0 14:36 07.02.2020
3149 Clear 6 1024 52 10000 1.5 0 14:18 07.02.2020
3150 Clear 5 1025 56 10000 1 0 13:40 07.02.2020
3151 Clear 5 1026 60 10000 0.5 0 13:22 07.02.2020
3152 Clear 4 1026 60 10000 1 0 12:58 07.02.2020
3153 Clear 5 1026 60 10000 1 0 12:40 07.02.2020
3154 Clear 4 1026 69 10000 1 0 12:21 07.02.2020
3155 Clear 3 1027 69 10000 1 220 11:42 07.02.2020
3156 Clear 2 1027 80 10000 1 0 11:22 07.02.2020
3157 Clear 1 1027 86 10000 0.5 0 10:43 07.02.2020
3158 Clear 0 1027 86 10000 0.5 0 10:24 07.02.2020
3159 Clear -1 1027 92 10000 0.5 0 09:59 07.02.2020
3160 Clear -1 1027 92 10000 0.5 0 09:39 07.02.2020
3161 Clear -2 1027 92 10000 0.5 353 09:21 07.02.2020
3162 Clear -3 1027 92 10000 1 0 08:44 07.02.2020
3163 Clear -4 1027 100 10000 1 0 08:21 07.02.2020
3164 Clear -4 1027 100 10000 1 0 08:21 07.02.2020
3165 Clear -4 1027 92 10000 1 0 07:52 07.02.2020
3166 Clear -4 1027 92 10000 1 140 07:30 07.02.2020
3167 Clear -4 1028 92 10000 2.1 140 06:47 07.02.2020
3168 Clear -4 1028 92 10000 2.1 140 06:47 07.02.2020
3169 Clear -4 1028 92 10000 0.5 0 06:27 07.02.2020
3170 Clear -3 1028 100 10000 0.5 110 05:58 07.02.2020
3171 Clear -3 1028 92 10000 0.5 250 05:36 07.02.2020
3172 Clear -3 1028 92 10000 0.5 0 03:33 07.02.2020
3173 Clear -2 1028 85 10000 0.5 0 01:51 07.02.2020
3174 -273 0 0 0 0 0 00:51 07.02.2020
3175 Clear -2 1028 92 10000 0.5 360 00:25 07.02.2020
3176 Clear -2 1029 92 10000 0.5 0 23:38 06.02.2020
3177 Clear -2 1029 86 10000 1.5 160 23:19 06.02.2020
3178 Clear -1 1029 86 10000 1.5 160 22:45 06.02.2020
3179 Clear -1 1029 86 10000 1 0 22:25 06.02.2020
3180 Clear -1 1029 86 10000 1.5 110 21:55 06.02.2020
3181 Clear -1 1029 92 10000 1.5 150 21:36 06.02.2020
3182 Clear -1 1029 92 10000 1.5 150 21:18 06.02.2020
3183 Clear -1 1029 86 10000 1.5 120 20:54 06.02.2020
3184 Clear 0 1029 77 10000 0.5 0 20:36 06.02.2020
3185 Clear 0 1029 74 10000 0.5 0 20:18 06.02.2020
3186 Clear 0 1029 80 10000 1 210 19:42 06.02.2020
3187 Clear 1 1029 73 10000 2.6 110 19:23 06.02.2020
3188 Clear 1 1029 73 10000 0.5 0 18:59 06.02.2020
3189 Clear 1 1029 73 10000 0.5 0 18:40 06.02.2020
3190 Clear 1 1029 69 10000 0.5 0 18:22 06.02.2020
3191 Clear 2 1029 64 10000 1 0 17:46 06.02.2020
3192 Clear 4 1028 55 10000 2.6 220 17:22 06.02.2020
3193 Clear 4 1028 55 10000 2.6 220 17:22 06.02.2020
3194 Clear 5 1028 56 10000 1.5 220 16:59 06.02.2020
3195 Clear 5 1028 56 10000 1.5 220 16:41 06.02.2020
3196 Clear 5 1028 45 10000 1.5 220 16:22 06.02.2020
3197 Clear 5 1028 48 10000 1.5 210 15:43 06.02.2020
3198 Clear 5 1028 48 10000 1.5 210 15:22 06.02.2020
3199 Clear 5 1029 48 10000 1.5 280 14:51 06.02.2020
3200 Clear 5 1029 52 10000 2.1 250 14:28 06.02.2020
3201 Clouds 4 1029 60 10000 2.1 290 13:59 06.02.2020
3202 Clouds 4 1029 60 10000 2.1 290 13:40 06.02.2020
3203 Clouds 3 1029 64 10000 2.1 300 13:19 06.02.2020
3204 Clouds 3 1030 69 10000 1 270 12:44 06.02.2020
3205 Clouds 2 1030 74 10000 1 0 12:19 06.02.2020
3206 Clouds 2 1030 74 10000 1.5 0 11:57 06.02.2020
3207 Clouds 2 1030 74 10000 1.5 0 11:39 06.02.2020
3208 Clouds 1 1030 80 10000 2.1 290 11:19 06.02.2020
3209 Clouds 0 1030 80 10000 1 0 10:56 06.02.2020
3210 Clouds 0 1030 86 10000 1 270 10:38 06.02.2020
3211 Clouds 0 1030 86 10000 1 270 10:19 06.02.2020
3212 Clouds -1 1030 92 10000 1 280 09:55 06.02.2020
3213 Clouds -1 1030 100 10000 1 0 09:36 06.02.2020
3214 Clouds -1 1030 100 10000 1 0 09:36 06.02.2020
3215 Clouds -1 1030 100 10000 1 0 09:18 06.02.2020
3216 Clouds -2 1030 92 10000 1 90 08:40 06.02.2020
3217 Clouds -2 1030 92 10000 1 90 08:20 06.02.2020
3218 Clouds -2 1030 92 10000 1.97 56 07:46 06.02.2020
3219 Clouds -2 1031 86 10000 1 230 07:24 06.02.2020
3220 Clouds -2 1031 92 10000 1 0 06:21 06.02.2020
3221 Clouds -2 1031 92 10000 1 0 06:21 06.02.2020
3222 Clouds -2 1031 92 10000 1 0 06:21 06.02.2020
3223 Clouds -2 1031 92 10000 1 0 06:21 06.02.2020
3224 Clouds -2 1031 92 10000 1.5 130 05:48 06.02.2020
3225 Clouds -2 1031 85 10000 0.5 0 04:22 06.02.2020
3226 Clouds -2 1031 92 10000 1 0 03:19 06.02.2020
3227 Clouds -2 1032 92 10000 1.5 100 02:28 06.02.2020
3228 Clear -2 1032 86 10000 1 0 01:26 06.02.2020
3229 Clear -1 1032 92 10000 1 0 00:57 06.02.2020
3230 Clear -1 1032 92 10000 1 0 00:25 06.02.2020
3231 Clear -1 1032 92 10000 1.5 0 23:44 05.02.2020
3232 Clear -1 1032 92 10000 1.5 80 23:25 05.02.2020
3233 Clear -1 1032 86 10000 2.1 120 22:57 05.02.2020
3234 Clear -1 1033 86 10000 2.1 120 22:39 05.02.2020
3235 Clear -1 1033 86 10000 2.1 120 22:21 05.02.2020
3236 Clear 0 1033 80 10000 3.1 140 21:42 05.02.2020
3237 Clear 0 1033 86 10000 1.5 0 21:24 05.02.2020
3238 Clear 0 1033 86 10000 2.1 140 20:57 05.02.2020
3239 Clear 0 1033 86 10000 3.1 150 20:38 05.02.2020
3240 Clear 0 1033 86 10000 3.1 150 20:38 05.02.2020
3241 Clear 0 1033 89 10000 3.1 150 20:19 05.02.2020
3242 Clear 1 1033 89 10000 1 0 19:55 05.02.2020
3243 Clear 1 1033 74 10000 1.5 150 19:37 05.02.2020
3244 Clear 1 1033 74 10000 1.5 150 19:18 05.02.2020
3245 Clear 1 1033 59 10000 3.1 30 18:44 05.02.2020
3246 Clear 2 1033 69 10000 3.1 40 18:21 05.02.2020
3247 Clear 3 1033 64 10000 3.1 90 17:58 05.02.2020
3248 Clear 3 1033 65 10000 2.6 90 17:37 05.02.2020
3249 Clear 4 1033 65 10000 2.6 90 17:18 05.02.2020
3250 Clouds 5 1034 60 10000 3.1 90 16:44 05.02.2020
3251 Clouds 5 1034 45 10000 2.1 50 16:25 05.02.2020
3252 Clouds 5 1034 52 10000 2.1 60 15:59 05.02.2020
3253 Clouds 5 1034 60 10000 1.5 0 15:40 05.02.2020
3254 Clouds 5 1034 60 10000 1.5 0 15:19 05.02.2020
3255 Clouds 5 1034 56 10000 2.1 0 14:43 05.02.2020
3256 Clouds 5 1034 65 10000 2.6 150 14:25 05.02.2020
3257 Rain 5 1034 60 10000 1.5 80 13:59 05.02.2020
3258 Rain 5 1034 60 10000 1.5 80 13:39 05.02.2020
3259 Clouds 5 1034 60 10000 1.5 100 13:19 05.02.2020
3260 Clouds 5 1033 67 10000 1.5 0 12:43 05.02.2020
3261 Clouds 5 1033 67 10000 1.5 0 12:43 05.02.2020
3262 Clouds 5 1033 75 10000 2.1 230 12:24 05.02.2020
3263 Clouds 4 1033 67 10000 1 90 11:57 05.02.2020
3264 Rain 4 1033 80 10000 1 0 11:38 05.02.2020
3265 Rain 3 1033 80 10000 1 0 11:19 05.02.2020
3266 Rain 3 1032 86 10000 1 0 10:42 05.02.2020
3267 Rain 3 1032 93 10000 0.5 0 10:24 05.02.2020
3268 Rain 3 1031 93 10000 0.5 0 09:57 05.02.2020
3269 Rain 2 1031 87 10000 1 0 09:37 05.02.2020
3270 Rain 2 1031 87 10000 1 0 09:19 05.02.2020
3271 Clouds 2 1030 87 10000 1 0 08:41 05.02.2020
3272 Clouds 2 1030 97 10000 1 100 08:23 05.02.2020
3273 Clouds 2 1030 97 10000 1 350 07:48 05.02.2020
3274 Clouds 2 1029 93 10000 1 0 07:29 05.02.2020
3275 Clouds 2 1029 93 10000 1.5 0 06:46 05.02.2020
3276 Clouds 2 1029 93 10000 1.5 0 06:23 05.02.2020
3277 Clouds 2 1029 97 10000 1.5 50 05:51 05.02.2020
3278 Rain 2 1028 93 10000 1 0 05:18 05.02.2020
3279 Rain 2 1028 93 10000 2.1 150 04:45 05.02.2020
3280 Rain 2 1027 93 10000 0.5 0 03:36 05.02.2020
3281 Snow 2 1026 100 10000 1.5 0 02:24 05.02.2020
3282 Rain 2 1026 97 9000 1 120 01:35 05.02.2020
3283 Snow 2 1025 97 10000 2.6 270 00:39 05.02.2020
3284 Snow 2 1025 74 10000 3.6 260 23:43 04.02.2020
3285 Snow 2 1025 74 10000 4.1 250 23:23 04.02.2020
3286 Clouds 2 1025 74 10000 3.1 260 22:58 04.02.2020
3287 Snow 2 1024 74 10000 4.1 250 22:40 04.02.2020
3288 Snow 2 1024 74 10000 4.1 250 22:21 04.02.2020
3289 Clouds 2 1024 93 10000 2.6 280 21:59 04.02.2020
3290 Snow 2 1024 93 10000 2.6 280 21:40 04.02.2020
3291 Snow 2 1024 93 10000 2.6 300 21:19 04.02.2020
3292 Snow 1 1024 80 10000 3.1 290 21:19 04.02.2020
3293 Snow 2 1024 80 10000 3.1 290 20:57 04.02.2020
3294 Snow 2 1023 80 7000 2.6 280 20:38 04.02.2020
3295 Snow 2 1023 80 7000 2.6 280 20:19 04.02.2020
3296 Clouds 2 1023 69 10000 3.6 260 19:55 04.02.2020
3297 Clouds 2 1023 74 10000 3.6 240 19:37 04.02.2020
3298 Clouds 2 1023 74 10000 3.6 240 19:18 04.02.2020
3299 Clouds 2 1022 80 10000 5.1 270 18:41 04.02.2020
3300 Clouds 2 1022 80 10000 5.1 270 18:22 04.02.2020
3301 Clouds 2 1022 80 10000 5.1 280 17:58 04.02.2020
3302 Clouds 2 1022 80 10000 5.1 280 17:58 04.02.2020
3303 Clouds 2 1022 80 10000 5.1 280 17:58 04.02.2020
3304 Clouds 2 1022 80 10000 5.1 280 17:40 04.02.2020
3305 Clouds 2 1022 80 10000 5.1 280 17:20 04.02.2020
3306 Clouds 2 1022 80 10000 5.1 280 17:20 04.02.2020
3307 Drizzle 2 1020 86 10000 7.7 290 16:39 04.02.2020
3308 Drizzle 2 1020 86 10000 7.7 290 16:21 04.02.2020
3309 Rain 2 1019 93 4000 3.1 320 15:58 04.02.2020
3310 Rain 2 1019 93 4000 3.1 320 15:58 04.02.2020
3311 Rain 2 1019 93 4000 3.1 320 15:39 04.02.2020
3312 Rain 2 1019 86 10000 2.6 340 15:20 04.02.2020
3313 Rain 2 1019 93 10000 4.1 330 14:56 04.02.2020
3314 Rain 3 1019 81 10000 4.6 290 14:37 04.02.2020
3315 Rain 3 1019 76 10000 4.6 290 14:19 04.02.2020
3316 Rain 3 1019 65 10000 6.7 280 13:41 04.02.2020
3317 Rain 4 1019 65 10000 6.7 280 13:23 04.02.2020
3318 Rain 4 1019 65 10000 5.7 260 12:58 04.02.2020
3319 Clouds 4 1019 65 10000 5.7 260 12:39 04.02.2020
3320 Clouds 4 1019 60 10000 5.7 240 12:20 04.02.2020
3321 Clouds 4 1019 60 10000 6.2 260 11:56 04.02.2020
3322 Clouds 4 1019 60 10000 6.2 280 11:37 04.02.2020
3323 Clouds 4 1019 60 10000 6.2 280 11:18 04.02.2020
3324 Clouds 3 1019 65 10000 3.6 250 10:45 04.02.2020
3325 Clouds 3 1019 64 10000 5.1 250 10:26 04.02.2020
3326 Clouds 3 1019 69 10000 4.6 270 09:57 04.02.2020
3327 Clouds 3 1018 86 10000 7.2 270 09:38 04.02.2020
3328 Clouds 3 1018 86 10000 7.2 270 09:19 04.02.2020
3329 Rain 4 1018 80 7000 7.2 270 08:45 04.02.2020
3330 Rain 4 1018 80 7000 7.2 270 08:45 04.02.2020
3331 Rain 4 1018 75 10000 3.6 290 08:27 04.02.2020
3332 Clouds 4 1017 88 10000 7.7 270 07:50 04.02.2020
3333 Rain 5 1017 75 10000 7.2 280 07:24 04.02.2020
3334 Rain 5 1017 75 10000 5.1 270 06:48 04.02.2020
3335 Rain 5 1017 81 10000 5.1 230 06:30 04.02.2020
3336 Rain 5 1014 87 8000 7.7 280 05:33 04.02.2020
3337 Rain 8 1009 58 9000 11.8 260 04:27 04.02.2020
3338 Rain 11 1009 44 10000 10.3 260 03:43 04.02.2020
3339 Clouds 13 1008 33 10000 6.7 240 03:25 04.02.2020
3340 Clouds 13 1010 33 10000 7.2 220 02:34 04.02.2020
3341 Clouds 13 1011 33 10000 7.7 200 01:57 04.02.2020
3342 Clouds 13 1012 36 10000 6.2 200 01:36 04.02.2020
3343 Clouds 13 1014 36 10000 5.7 200 00:52 04.02.2020
3344 Clouds 13 1015 36 10000 6.2 210 00:22 04.02.2020
3345 Clouds 13 1016 36 10000 5.1 230 23:42 03.02.2020
3346 Clouds 13 1016 36 10000 5.1 230 23:42 03.02.2020
3347 Clouds 13 1016 36 10000 5.1 230 23:42 03.02.2020
3348 Clouds 13 1016 67 10000 3.1 240 23:23 03.02.2020
3349 Clouds 12 1016 78 10000 4.1 240 22:40 03.02.2020
3350 Clouds 12 1017 58 10000 1 0 22:22 03.02.2020
3351 Clouds 11 1018 81 10000 1 0 21:59 03.02.2020
3352 Clouds 11 1018 81 10000 1 0 21:40 03.02.2020
3353 Clouds 11 1018 76 10000 0.5 0 21:19 03.02.2020
3354 Clouds 12 1019 76 10000 1 0 20:42 03.02.2020
3355 Clouds 12 1019 62 10000 1 0 20:20 03.02.2020
3356 Clouds 12 1020 62 10000 2.73 225 19:59 03.02.2020
3357 Clouds 12 1020 62 10000 2.73 225 19:40 03.02.2020
3358 Clouds 12 1020 58 10000 2.6 250 19:21 03.02.2020
3359 Clouds 12 1020 54 10000 3.1 270 18:57 03.02.2020
3360 Clouds 12 1020 54 10000 2.1 180 18:38 03.02.2020
3361 Clouds 13 1020 54 10000 2.1 180 18:20 03.02.2020
3362 Clouds 13 1021 54 10000 3.1 210 17:54 03.02.2020
3363 Clouds 13 1021 58 10000 1.5 220 17:36 03.02.2020
3364 Clouds 13 1021 58 10000 1.5 220 17:18 03.02.2020
3365 Rain 13 1022 58 10000 5.1 230 16:40 03.02.2020
3366 Clouds 13 1022 62 10000 5.7 230 16:21 03.02.2020
3367 Clouds 13 1022 62 10000 5.7 230 16:21 03.02.2020
3368 Clouds 13 1022 62 10000 6.2 230 15:56 03.02.2020
3369 Clouds 13 1021 62 10000 6.2 250 15:37 03.02.2020
3370 Clouds 13 1021 62 10000 6.2 250 15:19 03.02.2020
3371 Clouds 12 1022 67 10000 6.2 240 14:43 03.02.2020
3372 Clouds 12 1022 67 10000 7.2 240 14:25 03.02.2020
3373 Clouds 12 1022 67 10000 7.2 240 13:58 03.02.2020
3374 Clouds 12 1022 67 10000 7.2 240 13:39 03.02.2020
3375 Clouds 12 1022 67 10000 7.2 240 13:19 03.02.2020
3376 Clouds 12 1022 67 10000 5.1 250 12:56 03.02.2020
3377 Clouds 12 1022 67 10000 6.2 250 12:37 03.02.2020
3378 Clouds 12 1022 67 10000 6.2 250 12:19 03.02.2020
3379 Clouds 12 1022 67 10000 5.1 250 11:39 03.02.2020
3380 Clouds 12 1022 62 10000 5.7 260 11:19 03.02.2020
3381 Clouds 12 1022 62 10000 5.7 260 11:19 03.02.2020
3382 Clouds 12 1021 62 10000 5.1 240 10:58 03.02.2020
3383 Clouds 12 1021 62 10000 5.1 240 10:38 03.02.2020
3384 Rain 12 1021 62 10000 5.1 240 10:20 03.02.2020
3385 Rain 12 1021 62 10000 5.7 260 09:39 03.02.2020
3386 Rain 12 1021 62 10000 7.7 270 09:20 03.02.2020
3387 Clouds 12 1020 54 10000 7.2 280 08:41 03.02.2020
3388 Clouds 12 1020 54 10000 7.2 280 08:41 03.02.2020
3389 Clouds 12 1020 54 10000 7.2 240 08:23 03.02.2020
3390 Clouds 12 1020 54 10000 5.7 0 07:57 03.02.2020
3391 Clouds 12 1020 54 10000 3.6 260 07:39 03.02.2020
3392 Clouds 12 1020 54 10000 3.6 260 07:20 03.02.2020
3393 Clouds 12 1020 54 10000 4.1 230 06:42 03.02.2020
3394 Clouds 12 1020 54 10000 4.6 250 06:24 03.02.2020
3395 Rain 12 1021 62 10000 3.1 250 05:35 03.02.2020
3396 Clouds 12 1021 54 10000 3.1 260 04:50 03.02.2020
3397 Clouds 12 1022 54 10000 4.1 270 02:58 03.02.2020
3398 Clouds 12 1022 54 10000 5.1 250 02:32 03.02.2020
3399 Rain 12 1020 72 10000 6.2 250 00:55 03.02.2020
3400 Rain 12 1020 72 10000 6.7 240 00:36 03.02.2020
3401 Rain 12 1020 72 10000 6.7 240 00:18 03.02.2020
3402 Rain 12 1019 76 10000 2.6 220 23:37 02.02.2020
3403 Rain 12 1019 76 10000 2.6 220 23:18 02.02.2020
3404 Rain 12 1019 76 10000 3.1 190 22:40 02.02.2020
3405 Rain 12 1020 76 10000 4.1 230 22:22 02.02.2020
3406 Rain 11 1020 76 10000 3.1 230 21:58 02.02.2020
3407 Rain 11 1020 76 10000 5.7 250 21:39 02.02.2020
3408 Rain 11 1020 76 10000 5.7 250 21:21 02.02.2020
3409 Rain 11 1020 76 10000 5.7 240 20:58 02.02.2020
3410 Rain 11 1020 76 10000 5.7 240 20:39 02.02.2020
3411 Rain 11 1019 76 10000 4.1 240 20:20 02.02.2020
3412 Rain 11 1019 76 10000 4.1 240 19:58 02.02.2020
3413 Rain 11 1019 76 10000 4.1 240 19:40 02.02.2020
3414 Rain 11 1019 76 10000 2.6 240 19:21 02.02.2020
3415 Rain 11 1019 76 6000 3.6 270 18:56 02.02.2020
3416 Rain 11 1019 67 8000 3.6 230 18:37 02.02.2020
3417 Rain 11 1019 67 8000 3.6 230 18:19 02.02.2020
3418 Rain 11 1019 67 10000 4.6 220 17:57 02.02.2020
3419 Clouds 11 1018 67 10000 4.1 220 17:37 02.02.2020
3420 Clouds 11 1018 67 10000 4.1 220 17:18 02.02.2020
3421 Clouds 11 1018 67 10000 6.2 250 16:57 02.02.2020
3422 Rain 11 1018 67 10000 4.6 250 16:38 02.02.2020
3423 Rain 11 1018 67 10000 4.6 250 16:18 02.02.2020
3424 Drizzle 11 1018 67 10000 7.2 250 15:56 02.02.2020
3425 Rain 11 1017 67 10000 7.2 240 15:37 02.02.2020
3426 Clouds 11 1017 67 10000 7.2 240 15:19 02.02.2020
3427 Rain 11 1017 67 10000 4.1 250 14:44 02.02.2020
3428 Clouds 10 1017 81 10000 2.1 350 14:19 02.02.2020
3429 Clouds 10 1017 93 10000 1.5 360 13:59 02.02.2020
3430 Clouds 10 1017 93 10000 1.5 360 13:41 02.02.2020
3431 Rain 10 1018 93 10000 3.1 330 13:21 02.02.2020
3432 Rain 10 1018 93 10000 4.1 330 12:56 02.02.2020
3433 Rain 10 1018 87 10000 2.6 320 12:38 02.02.2020
3434 Rain 10 1018 87 10000 2.6 320 12:19 02.02.2020
3435 Rain 10 1018 81 10000 2.1 80 11:42 02.02.2020
3436 Rain 9 1018 87 10000 1 0 11:19 02.02.2020
3437 Rain 9 1018 87 10000 1 0 10:58 02.02.2020
3438 Rain 9 1018 76 10000 2.1 0 10:39 02.02.2020
3439 Rain 9 1018 76 10000 2.1 0 10:21 02.02.2020
3440 Rain 9 1018 87 10000 1.5 310 09:57 02.02.2020
3441 Clouds 9 1018 87 10000 1.5 310 09:39 02.02.2020
3442 Clouds 9 1018 87 10000 1 320 09:20 02.02.2020
3443 Drizzle 9 1018 93 10000 1 210 08:45 02.02.2020
3444 Drizzle 9 1019 81 10000 1.5 90 08:26 02.02.2020
3445 Clouds 9 1019 81 10000 1 170 07:48 02.02.2020
3446 Clouds 9 1019 76 10000 3.1 280 07:30 02.02.2020
3447 Clouds 9 1018 66 10000 3.1 280 06:46 02.02.2020
3448 Clouds 9 1019 66 10000 4.1 280 06:28 02.02.2020
3449 Clouds 9 1019 66 10000 4.1 270 05:53 02.02.2020
3450 Clouds 9 1020 66 10000 3.1 0 04:58 02.02.2020
3451 Clouds 9 1020 66 10000 3.1 0 04:58 02.02.2020
3452 Clouds 9 1020 66 10000 3.6 250 03:41 02.02.2020
3453 Clouds 9 1020 71 10000 2.6 240 02:42 02.02.2020
3454 Clouds 9 1020 76 10000 2.1 290 01:57 02.02.2020
3455 Clouds 9 1020 71 10000 3.6 310 01:35 02.02.2020
3456 Clouds 9 1020 71 10000 4.1 280 00:45 02.02.2020
3457 Clouds 10 1020 71 10000 3.1 270 00:23 02.02.2020
3458 Clouds 10 1020 66 10000 4.6 280 23:54 01.02.2020
3459 Clouds 10 1020 66 10000 4.1 270 23:36 01.02.2020
3460 Clouds 10 1020 66 10000 4.1 270 23:18 01.02.2020
3461 Clouds 10 1020 66 10000 2.1 270 22:42 01.02.2020
3462 Clouds 10 1020 66 10000 2.1 270 22:42 01.02.2020
3463 Clouds 10 1019 66 10000 2.6 0 22:18 01.02.2020
3464 Clouds 10 1019 66 10000 3.6 0 21:39 01.02.2020
3465 Clouds 10 1018 66 10000 3.6 260 21:19 01.02.2020
3466 Clouds 10 1018 71 10000 4.1 240 20:42 01.02.2020
3467 Clouds 10 1017 81 10000 4.6 250 20:21 01.02.2020
3468 Clouds 10 1017 81 10000 4.6 250 20:21 01.02.2020
3469 Clouds 10 1017 71 10000 4.1 240 19:58 01.02.2020
3470 Clouds 10 1017 71 10000 4.1 240 19:39 01.02.2020
3471 Clouds 10 1016 71 10000 3.6 230 19:20 01.02.2020
3472 Drizzle 10 1016 76 10000 5.1 240 18:59 01.02.2020
3473 Rain 10 1015 66 10000 5.7 240 18:41 01.02.2020
3474 Rain 10 1015 66 10000 5.7 240 18:23 01.02.2020
3475 Rain 10 1015 62 10000 4.6 240 17:58 01.02.2020
3476 Clouds 10 1015 62 10000 4.6 240 17:40 01.02.2020
3477 Clouds 11 1015 62 10000 4.6 240 17:20 01.02.2020
3478 Clouds 11 1015 66 10000 3.6 260 16:57 01.02.2020
3479 Rain 10 1015 71 10000 5.7 260 16:38 01.02.2020
3480 Rain 11 1015 71 10000 5.7 260 16:20 01.02.2020
3481 Rain 10 1014 62 10000 4.6 280 15:42 01.02.2020
3482 Rain 11 1014 66 10000 3.6 260 15:24 01.02.2020
3483 Rain 11 1014 66 10000 3.1 220 14:57 01.02.2020
3484 Rain 11 1014 66 10000 3.1 220 14:38 01.02.2020
3485 Rain 11 1014 62 10000 6.2 250 14:20 01.02.2020
3486 Clouds 11 1014 62 10000 4.6 240 13:43 01.02.2020
3487 Clouds 11 1014 62 10000 3.1 230 13:20 01.02.2020
3488 Clouds 11 1014 62 10000 8.2 280 12:44 01.02.2020
3489 Clouds 11 1014 71 10000 5.1 270 12:25 01.02.2020
3490 Clouds 10 1014 76 10000 1 160 11:56 01.02.2020
3491 Clouds 10 1014 81 10000 1 0 11:37 01.02.2020
3492 Clouds 9 1014 81 10000 1 0 11:18 01.02.2020
3493 Clear 9 1014 87 10000 1 0 10:54 01.02.2020
3494 Clear 8 1014 93 10000 1 0 10:36 01.02.2020
3495 Clear 8 1014 93 10000 1 0 10:18 01.02.2020
3496 Clear 6 1014 100 10000 1 0 09:41 01.02.2020
3497 Mist 6 1014 100 5000 1 0 09:22 01.02.2020
3498 Fog 6 1014 100 550 1 260 08:58 01.02.2020
3499 Clear 5 1014 93 10000 1 0 08:27 01.02.2020
3500 Clear 5 1014 93 10000 2.6 100 07:46 01.02.2020
3501 Clear 5 1014 100 10000 2.6 110 07:24 01.02.2020
3502 Clear 5 1015 100 10000 1.5 120 06:44 01.02.2020
3503 Clear 5 1015 100 10000 2.6 120 05:54 01.02.2020
3504 Clouds 6 1015 93 10000 1 0 04:58 01.02.2020
3505 Clouds 6 1016 87 10000 2.6 110 03:26 01.02.2020
3506 Clouds 7 1016 81 10000 4.1 130 02:59 01.02.2020
3507 Clouds 7 1016 81 10000 4.1 130 02:40 01.02.2020
3508 Clouds 7 1017 81 10000 3.6 120 02:20 01.02.2020
3509 Clouds 7 1017 87 10000 4.1 110 01:46 01.02.2020
3510 Clouds 8 1017 87 10000 4.1 130 01:27 01.02.2020
3511 Clouds 8 1017 87 10000 3.6 110 00:24 01.02.2020
3512 Clouds 8 1018 93 10000 1 0 23:41 31.01.2020
3513 Clouds 8 1018 93 10000 1 0 23:19 31.01.2020
3514 Clouds 8 1018 100 10000 0.5 0 22:57 31.01.2020
3515 Clouds 8 1018 93 10000 0.5 0 22:38 31.01.2020
3516 Clouds 8 1018 93 10000 0.5 0 22:20 31.01.2020
3517 Clouds 8 1018 100 10000 1 110 21:55 31.01.2020
3518 Clouds 8 1018 93 10000 1 0 21:37 31.01.2020
3519 Clouds 8 1018 93 10000 1 0 21:18 31.01.2020
3520 Clouds 8 1018 93 10000 2.1 110 20:54 31.01.2020
3521 Clouds 8 1018 93 10000 2.1 110 20:54 31.01.2020
3522 Clouds 8 1018 93 10000 2.1 110 20:36 31.01.2020
3523 Clouds 8 1018 93 10000 2.1 110 20:36 31.01.2020
3524 Clouds 8 1018 93 10000 2.1 110 20:18 31.01.2020
3525 Clouds 8 1017 93 10000 1 0 19:42 31.01.2020
3526 Clouds 8 1017 87 10000 1 0 19:23 31.01.2020
3527 Clouds 9 1017 93 10000 0.5 0 18:58 31.01.2020
3528 Clouds 9 1017 81 10000 1 0 18:38 31.01.2020
3529 Clouds 9 1017 81 10000 1 0 18:19 31.01.2020
3530 Clouds 10 1017 76 10000 2.1 330 17:44 31.01.2020
3531 Clouds 11 1017 71 10000 3.6 310 17:26 31.01.2020
3532 Clouds 12 1017 71 10000 3.6 300 16:57 31.01.2020
3533 Clouds 12 1017 67 10000 3.1 310 16:38 31.01.2020
3534 Clouds 12 1017 67 10000 3.1 310 16:19 31.01.2020
3535 Clouds 12 1017 67 10000 1.5 0 15:57 31.01.2020
3536 Clouds 12 1017 67 10000 4.1 270 15:39 31.01.2020
3537 Clouds 12 1017 67 10000 4.1 270 15:20 31.01.2020
3538 Clouds 12 1017 71 10000 1 0 14:43 31.01.2020
3539 Clouds 12 1018 71 10000 1 0 14:24 31.01.2020
3540 Clouds 11 1018 76 10000 1.5 150 13:55 31.01.2020
3541 Clouds 11 1018 81 10000 0.5 0 13:36 31.01.2020
3542 Clouds 11 1019 81 10000 1 0 12:59 31.01.2020
3543 Clouds 11 1019 81 10000 1 0 12:41 31.01.2020
3544 Clouds 10 1019 87 10000 2.1 100 12:22 31.01.2020
3545 Clouds 10 1019 87 10000 2.1 120 11:46 31.01.2020
3546 Clouds 9 1019 93 10000 1.5 120 11:26 31.01.2020
3547 Clouds 8 1019 93 10000 1.47 219 10:59 31.01.2020
3548 Clouds 8 1019 93 10000 1.47 219 10:41 31.01.2020
3549 Clouds 8 1019 100 10000 0.5 0 10:21 31.01.2020
3550 Clouds 7 1019 100 10000 1 0 09:57 31.01.2020
3551 Clouds 8 1019 100 10000 1 0 09:39 31.01.2020
3552 Clouds 8 1019 100 10000 1 0 09:39 31.01.2020
3553 Clouds 7 1019 100 8000 1 0 09:19 31.01.2020
3554 Clouds 7 1019 100 8000 1 0 09:19 31.01.2020
3555 Clouds 7 1018 100 6000 1.47 219 08:52 31.01.2020
3556 Clouds 7 1018 100 10000 1 0 08:27 31.01.2020
3557 Clouds 7 1018 100 10000 1 0 08:27 31.01.2020
3558 Clouds 7 1018 100 5000 0.5 0 07:53 31.01.2020
3559 Clouds 7 1018 100 10000 1 0 07:25 31.01.2020
3560 Clouds 7 1017 100 10000 0.5 0 06:49 31.01.2020
3561 Mist 7 1017 100 4800 1 0 06:19 31.01.2020
3562 Mist 7 1017 100 2200 1.5 90 05:48 31.01.2020
3563 Rain 7 1017 100 3500 1 0 04:56 31.01.2020
3564 Rain 6 1017 93 4500 1 0 02:58 31.01.2020
3565 Rain 7 1017 100 10000 1.5 150 01:39 31.01.2020
3566 Rain 6 1017 100 7000 0.5 0 00:46 31.01.2020
3567 Clouds 6 1017 100 6000 2.1 320 00:27 31.01.2020
3568 Rain 6 1017 100 7000 1 0 23:57 30.01.2020
3569 Rain 6 1016 100 9000 1 0 23:25 30.01.2020
3570 Rain 6 1017 93 4400 1 0 22:57 30.01.2020
3571 Rain 6 1017 93 4400 1 0 22:57 30.01.2020
3572 Rain 6 1017 93 5000 0.5 0 22:37 30.01.2020
3573 Rain 6 1017 93 5000 0.5 0 22:18 30.01.2020
3574 Rain 6 1017 93 5000 0.5 0 22:18 30.01.2020
3575 Rain 6 1016 93 8000 0.5 150 21:57 30.01.2020
3576 Drizzle 6 1016 93 6000 0.5 0 21:38 30.01.2020
3577 Drizzle 6 1016 93 6000 0.5 0 21:18 30.01.2020
3578 Rain 6 1015 100 10000 2.6 220 20:41 30.01.2020
3579 Rain 6 1016 93 7000 1 0 20:22 30.01.2020
3580 Drizzle 6 1016 93 10000 0.5 0 19:57 30.01.2020
3581 Drizzle 6 1016 93 10000 1 0 19:39 30.01.2020
3582 Drizzle 6 1016 93 10000 1 0 19:19 30.01.2020
3583 Rain 6 1015 93 10000 1.5 110 18:42 30.01.2020
3584 Rain 6 1015 87 7000 0.5 0 18:22 30.01.2020
3585 Rain 6 1015 87 10000 0.5 0 17:58 30.01.2020
3586 Rain 6 1015 87 10000 0.5 0 17:39 30.01.2020
3587 Rain 6 1015 75 10000 0.5 0 17:19 30.01.2020
3588 Rain 6 1015 65 10000 1 0 16:56 30.01.2020
3589 Rain 7 1015 65 10000 1.5 140 16:38 30.01.2020
3590 Clouds 7 1015 65 10000 1.5 140 16:20 30.01.2020
3591 Clouds 7 1015 65 10000 2.1 140 15:43 30.01.2020
3592 Clouds 7 1015 66 10000 1.5 0 15:20 30.01.2020
3593 Clouds 7 1016 75 10000 1 0 14:50 30.01.2020
3594 Clouds 7 1016 75 10000 1 0 14:50 30.01.2020
3595 Clouds 7 1016 70 10000 1.5 180 14:27 30.01.2020
3596 Clouds 7 1017 65 10000 1 160 13:57 30.01.2020
3597 Clouds 7 1017 65 10000 1 160 13:38 30.01.2020
3598 Clouds 6 1017 70 10000 0.5 0 13:19 30.01.2020
3599 Clouds 6 1018 75 10000 1 140 12:43 30.01.2020
3600 Clouds 6 1018 75 10000 1.5 150 12:24 30.01.2020
3601 Clouds 5 1018 65 10000 1.5 130 11:58 30.01.2020
3602 Clouds 4 1018 86 10000 1.5 0 11:40 30.01.2020
3603 Clouds 4 1018 86 10000 1.5 0 11:21 30.01.2020
3604 Clouds 3 1019 93 10000 1 0 10:42 30.01.2020
3605 Clouds 2 1019 75 10000 1 180 10:24 30.01.2020
3606 Clouds 2 1019 75 10000 0.5 0 09:49 30.01.2020
3607 Clouds 2 1019 75 10000 0.5 0 09:49 30.01.2020
3608 Clouds 1 1019 100 10000 0.5 0 09:30 30.01.2020
3609 Clouds 1 1019 100 10000 1.5 0 08:59 30.01.2020
3610 Clouds 1 1019 100 10000 1.5 0 08:41 30.01.2020
3611 Clouds 0 1018 80 10000 1.5 0 08:20 30.01.2020
3612 Clouds 0 1019 80 10000 2.6 100 07:52 30.01.2020
3613 -273 0 0 0 0 0 07:52 30.01.2020
3614 Clouds 0 1019 92 10000 2.6 100 07:32 30.01.2020
3615 Clouds 1 1019 80 10000 2.6 100 06:47 30.01.2020
3616 Clouds 1 1019 80 10000 2.1 90 06:29 30.01.2020
3617 Clouds 1 1019 80 10000 2.6 100 05:47 30.01.2020
3618 Clouds 1 1019 80 10000 3.1 110 05:24 30.01.2020
3619 Clouds 2 1020 86 10000 3.6 120 03:55 30.01.2020
3620 Clouds 1 1020 86 10000 3.1 110 03:37 30.01.2020
3621 Clouds 2 1020 86 10000 3.6 110 02:47 30.01.2020
3622 Clouds 3 1020 92 10000 1 0 00:43 30.01.2020
3623 Clouds 3 1020 92 10000 2.1 10 00:21 30.01.2020
3624 Clouds 3 1020 86 10000 1 0 23:47 29.01.2020
3625 Clouds 3 1020 86 10000 1 0 23:47 29.01.2020
3626 Clouds 3 1019 92 10000 2.1 320 23:22 29.01.2020
3627 Clouds 3 1019 94 10000 0.5 0 22:58 29.01.2020
3628 Clouds 3 1019 94 10000 0.5 0 22:39 29.01.2020
3629 Clouds 3 1019 94 10000 2.1 0 22:19 29.01.2020
3630 Clouds 3 1019 94 10000 2.1 70 21:58 29.01.2020
3631 Clouds 4 1019 94 10000 2.1 70 21:38 29.01.2020
3632 Clouds 4 1019 94 10000 2.1 70 21:38 29.01.2020
3633 Clouds 4 1019 75 10000 1.5 260 21:19 29.01.2020
3634 Clouds 4 1019 75 10000 2.1 240 20:58 29.01.2020
3635 Clouds 4 1019 80 10000 3.1 250 20:38 29.01.2020
3636 Clouds 4 1019 80 10000 3.1 250 20:19 29.01.2020
3637 Clouds 4 1019 80 10000 3.6 240 19:56 29.01.2020
3638 Clouds 4 1018 75 10000 2.1 260 19:37 29.01.2020
3639 Clouds 4 1018 75 10000 2.1 260 19:37 29.01.2020
3640 Clouds 4 1018 75 10000 2.1 260 19:37 29.01.2020
3641 Rain 4 1018 75 10000 2.1 260 19:18 29.01.2020
3642 Rain 4 1018 75 10000 3.1 250 18:46 29.01.2020
3643 Clouds 5 1017 80 10000 2.6 220 18:19 29.01.2020
3644 Clouds 5 1017 80 10000 3.6 250 17:58 29.01.2020
3645 Clouds 5 1017 80 10000 3.6 250 17:39 29.01.2020
3646 Clouds 5 1017 75 10000 2.6 220 17:21 29.01.2020
3647 Clouds 5 1017 75 10000 2.6 220 17:21 29.01.2020
3648 Rain 5 1016 81 10000 3.1 230 16:41 29.01.2020
3649 Rain 5 1016 75 10000 2.6 250 16:23 29.01.2020
3650 Rain 5 1015 81 10000 2.6 200 15:56 29.01.2020
3651 Rain 5 1015 80 8000 2.1 300 15:37 29.01.2020
3652 Rain 5 1015 80 8000 2.1 300 15:18 29.01.2020
3653 Rain 5 1015 80 5000 5.1 230 14:42 29.01.2020
3654 Rain 5 1015 75 10000 3.1 0 14:20 29.01.2020
3655 Clouds 5 1015 75 10000 4.6 230 13:54 29.01.2020
3656 Clouds 5 1015 75 10000 3.1 0 13:36 29.01.2020
3657 Clouds 5 1015 75 10000 3.1 0 13:18 29.01.2020
3658 Rain 4 1015 80 8000 2.6 240 12:54 29.01.2020
3659 Rain 4 1015 80 10000 4.1 260 12:36 29.01.2020
3660 Rain 4 1015 80 10000 4.1 260 12:18 29.01.2020
3661 Drizzle 4 1015 80 10000 2.6 230 11:42 29.01.2020
3662 Drizzle 3 1014 86 10000 2.6 220 11:20 29.01.2020
3663 Rain 3 1014 86 10000 1 0 10:46 29.01.2020
3664 Rain 3 1014 86 8000 1.5 320 10:23 29.01.2020
3665 Drizzle 3 1014 100 10000 2.1 100 09:58 29.01.2020
3666 Drizzle 3 1014 100 10000 2.1 100 09:39 29.01.2020
3667 Drizzle 3 1014 100 10000 2.1 100 09:19 29.01.2020
3668 Rain 3 1013 90 4000 1 140 08:44 29.01.2020
3669 Rain 2 1013 100 5000 3.1 340 08:24 29.01.2020
3670 Rain 2 1013 100 5000 3.1 340 08:24 29.01.2020
3671 Rain 2 1012 96 6000 4.1 300 07:45 29.01.2020
3672 Rain 2 1012 86 8000 5.1 270 07:26 29.01.2020
3673 Rain 2 1012 86 10000 6.2 260 06:56 29.01.2020
3674 Rain 2 1012 86 10000 7.2 260 06:38 29.01.2020
3675 Rain 3 1012 86 10000 7.2 260 06:19 29.01.2020
3676 Drizzle 3 1011 80 10000 6.2 260 05:50 29.01.2020
3677 Rain 3 1011 86 7000 4.6 310 05:32 29.01.2020
3678 Rain 3 1010 75 10000 5.7 250 04:39 29.01.2020
3679 Rain 3 1010 75 10000 5.7 250 04:39 29.01.2020
3680 Rain 3 1010 80 10000 7.2 260 03:59 29.01.2020
3681 Rain 3 1009 75 10000 6.2 250 02:34 29.01.2020
3682 Rain 3 1009 80 10000 6.2 230 01:18 29.01.2020
3683 Rain 3 1009 80 10000 6.2 230 01:18 29.01.2020
3684 Rain 3 1009 95 10000 2.6 340 00:39 29.01.2020
3685 Rain 3 1009 95 10000 2.6 340 00:20 29.01.2020
3686 Rain 3 1008 95 10000 1.5 0 23:40 28.01.2020
3687 Rain 3 1009 88 10000 2.6 0 23:20 28.01.2020
3688 Rain 3 1009 88 10000 3.6 210 22:51 28.01.2020
3689 Snow 3 1009 60 10000 4.1 220 22:27 28.01.2020
3690 Clouds 4 1010 60 10000 4.1 210 21:58 28.01.2020
3691 Clouds 4 1010 60 10000 4.1 210 21:39 28.01.2020
3692 Clouds 4 1010 65 10000 4.1 210 21:19 28.01.2020
3693 Clouds 4 1010 65 10000 3.6 240 20:46 28.01.2020
3694 Clouds 4 1010 65 10000 4.6 240 20:26 28.01.2020
3695 Clouds 4 1010 65 10000 5.7 230 19:56 28.01.2020
3696 Clouds 4 1010 60 10000 4.6 230 19:37 28.01.2020
3697 Clouds 4 1010 60 10000 4.6 230 19:19 28.01.2020
3698 Clouds 3 1010 60 10000 5.7 230 18:42 28.01.2020
3699 Clouds 3 1009 60 10000 5.1 230 18:23 28.01.2020
3700 Clouds 4 1009 60 10000 5.7 240 17:59 28.01.2020
3701 Clouds 4 1009 60 10000 5.7 240 17:40 28.01.2020
3702 Clouds 4 1009 56 10000 5.7 250 17:22 28.01.2020
3703 Clouds 4 1009 60 10000 8.2 240 16:59 28.01.2020
3704 Clouds 4 1009 60 10000 8.2 240 16:41 28.01.2020
3705 Clouds 4 1008 65 10000 4.6 220 16:22 28.01.2020
3706 Clouds 4 1008 87 10000 4.6 0 15:55 28.01.2020
3707 Clouds 4 1008 87 10000 3.6 0 15:37 28.01.2020
3708 Clouds 4 1008 87 10000 3.6 0 15:18 28.01.2020
3709 Clouds 4 1008 87 10000 4.1 250 14:43 28.01.2020
3710 Rain 4 1008 82 10000 2.1 230 14:19 28.01.2020
3711 Rain 4 1008 86 10000 3.6 270 13:42 28.01.2020
3712 Rain 4 1008 75 10000 3.1 290 13:24 28.01.2020
3713 Rain 4 1008 71 10000 4.1 190 12:45 28.01.2020
3714 Rain 4 1008 71 10000 6.7 210 12:25 28.01.2020
3715 Rain 4 1008 71 10000 4.6 200 11:59 28.01.2020
3716 Rain 4 1008 71 10000 4.6 200 11:41 28.01.2020
3717 Rain 4 1008 82 10000 5.7 250 11:21 28.01.2020
3718 Rain 3 1007 93 10000 6.7 260 10:55 28.01.2020
3719 Thunderstorm 3 1005 75 10000 11.8 310 10:36 28.01.2020
3720 Thunderstorm 4 1005 75 10000 11.8 310 10:18 28.01.2020
3721 Rain 5 1004 65 10000 6.7 210 09:41 28.01.2020
3722 Rain 6 1004 57 10000 6.7 220 09:20 28.01.2020
3723 Rain 6 1004 57 10000 6.7 220 09:20 28.01.2020
3724 Clouds 6 1005 82 10000 5.1 210 08:45 28.01.2020
3725 Clouds 6 1004 57 10000 4.6 220 08:25 28.01.2020
3726 Clouds 6 1004 81 10000 2.6 240 07:53 28.01.2020
3727 Rain 5 1004 87 8000 6.2 300 07:31 28.01.2020
3728 Rain 5 1004 87 6000 4.1 300 06:47 28.01.2020
3729 Rain 5 1004 93 8000 1.5 0 06:24 28.01.2020
3730 Rain 5 1004 81 10000 4.1 250 05:38 28.01.2020
3731 Rain 5 1005 86 10000 4.1 280 05:20 28.01.2020
3732 Rain 5 1006 93 4400 0.5 0 03:47 28.01.2020
3733 Rain 5 1007 93 3800 0.5 0 02:46 28.01.2020
3734 Rain 5 1007 93 3800 0.5 0 02:46 28.01.2020
3735 Rain 5 1007 93 6000 0.5 0 02:25 28.01.2020
3736 Rain 5 1007 93 10000 0.5 0 01:53 28.01.2020
3737 Rain 5 1007 93 10000 1.5 120 01:20 28.01.2020
3738 Rain 5 1008 93 8000 1 0 00:43 28.01.2020
3739 Clouds 5 1008 86 10000 1 0 00:19 28.01.2020
3740 Clouds 5 1008 93 10000 2.1 120 23:43 27.01.2020
3741 Clouds 5 1009 93 10000 2.1 90 23:19 27.01.2020
3742 Clouds 5 1009 93 10000 2.1 120 22:45 27.01.2020
3743 Drizzle 5 1010 86 10000 1.5 120 22:20 27.01.2020
3744 Drizzle 5 1010 86 10000 1.5 120 22:20 27.01.2020
3745 Drizzle 5 1010 86 10000 2.6 280 21:57 27.01.2020
3746 Drizzle 5 1010 86 10000 2.6 280 21:57 27.01.2020
3747 Drizzle 5 1010 86 10000 2.6 280 21:39 27.01.2020
3748 Drizzle 5 1010 86 10000 2.1 190 21:19 27.01.2020
3749 Clouds 5 1010 86 10000 2.6 140 20:56 27.01.2020
3750 Clouds 5 1010 86 10000 1.5 140 20:37 27.01.2020
3751 Clouds 5 1010 86 10000 1.5 140 20:19 27.01.2020
3752 Clouds 5 1010 93 10000 2.1 100 19:55 27.01.2020
3753 Clouds 5 1010 86 10000 1 0 19:37 27.01.2020
3754 Clouds 5 1010 86 10000 1 0 19:19 27.01.2020
3755 Clouds 5 1011 86 10000 1.5 100 18:39 27.01.2020
3756 Clouds 5 1011 93 10000 2.6 110 18:21 27.01.2020
3757 Clouds 5 1011 86 10000 1 110 17:57 27.01.2020
3758 Clouds 5 1011 86 10000 1 110 17:57 27.01.2020
3759 Clouds 6 1012 81 10000 1 170 17:37 27.01.2020
3760 Clouds 6 1012 81 10000 1 170 17:18 27.01.2020
3761 Clouds 6 1012 81 10000 1 170 16:55 27.01.2020
3762 Clouds 6 1012 81 10000 1.5 220 16:36 27.01.2020
3763 Clouds 6 1012 81 10000 1.5 220 16:36 27.01.2020
3764 Clouds 6 1012 81 10000 1.5 220 16:18 27.01.2020
3765 Clouds 6 1012 75 10000 1.5 230 15:41 27.01.2020
3766 Clouds 7 1013 81 10000 1.5 290 15:19 27.01.2020
3767 Clouds 7 1013 81 10000 2.1 280 14:56 27.01.2020
3768 Clouds 7 1013 75 10000 2.1 290 14:37 27.01.2020
3769 Clouds 7 1013 75 10000 2.1 290 14:37 27.01.2020
3770 Clouds 6 1013 75 10000 2.1 290 14:19 27.01.2020
3771 Clouds 6 1014 75 10000 2.1 290 13:42 27.01.2020
3772 Clouds 6 1015 81 10000 0.5 0 13:22 27.01.2020
3773 Clouds 6 1015 75 10000 1 0 12:57 27.01.2020
3774 Clouds 6 1015 75 10000 1 0 12:57 27.01.2020
3775 Clouds 6 1016 80 10000 1 0 12:38 27.01.2020
3776 Clouds 6 1016 80 10000 1 0 12:20 27.01.2020
3777 Clouds 5 1017 86 8000 1 0 11:42 27.01.2020
3778 Clouds 5 1017 86 8000 1 0 11:42 27.01.2020
3779 Clouds 4 1017 100 7000 1 0 11:21 27.01.2020
3780 Fog 4 1017 80 6000 0.35 230 10:55 27.01.2020
3781 Fog 3 1017 80 3500 0.35 230 10:36 27.01.2020
3782 Fog 3 1017 80 3500 0.35 230 10:18 27.01.2020
3783 Fog 2 1018 100 3000 0.5 0 09:39 27.01.2020
3784 Fog 2 1018 100 3000 0.5 0 09:19 27.01.2020
3785 Rain 2 1018 100 2500 1 0 08:48 27.01.2020
3786 Rain 2 1018 100 3700 1 150 08:23 27.01.2020
3787 Rain 2 1018 92 5000 1 0 07:56 27.01.2020
3788 Fog 2 1018 92 3600 0.5 0 07:37 27.01.2020
3789 Fog 2 1018 92 3600 0.5 0 07:19 27.01.2020
3790 Mist 2 1019 92 2800 0.5 0 06:37 27.01.2020
3791 Clouds 2 1019 100 5000 1 0 05:38 27.01.2020
3792 Mist 2 1019 100 2500 0.5 0 05:38 27.01.2020
3793 Mist 2 1019 100 1600 1 0 04:37 27.01.2020
3794 Mist 2 1019 94 3200 0.5 0 03:35 27.01.2020
3795 Mist 2 1019 100 4500 0.5 0 01:47 27.01.2020
3796 Mist 2 1019 100 4600 1 0 01:22 27.01.2020
3797 Mist 3 1019 100 3900 0.5 0 00:40 27.01.2020
3798 Mist 3 1019 100 4000 1 130 00:21 27.01.2020
3799 Mist 3 1019 93 4100 1.5 150 23:43 26.01.2020
3800 Mist 3 1019 93 2600 0.5 130 23:21 26.01.2020
3801 Mist 3 1020 93 3900 1.5 150 22:58 26.01.2020
3802 Mist 3 1020 93 3900 1.5 150 22:38 26.01.2020
3803 Mist 3 1020 100 3800 1 150 22:20 26.01.2020
3804 Mist 3 1020 100 3800 1 0 21:57 26.01.2020
3805 Mist 3 1020 100 3800 1 0 21:38 26.01.2020
3806 Rain 3 1020 100 4000 1 0 21:20 26.01.2020
3807 Rain 3 1020 100 3200 0.5 0 20:57 26.01.2020
3808 Rain 3 1020 100 3200 0.5 0 20:57 26.01.2020
3809 Rain 3 1020 100 3200 0.5 0 20:38 26.01.2020
3810 Drizzle 3 1019 100 5000 0.5 0 20:18 26.01.2020
3811 Drizzle 3 1019 100 7000 0.5 0 19:57 26.01.2020
3812 Drizzle 3 1018 86 10000 1.5 240 19:38 26.01.2020
3813 Drizzle 3 1019 93 5000 0.5 0 19:18 26.01.2020
3814 Rain 3 1019 93 7000 0.5 150 18:54 26.01.2020
3815 Clouds 3 1019 93 7000 1 350 18:36 26.01.2020
3816 Clouds 3 1019 93 7000 1 350 18:18 26.01.2020
3817 Rain 3 1019 86 10000 1.5 0 17:40 26.01.2020
3818 Rain 4 1019 86 10000 0.5 0 17:20 26.01.2020
3819 Rain 4 1019 86 8000 1 0 16:59 26.01.2020
3820 Rain 4 1019 86 8000 1 0 16:40 26.01.2020
3821 Drizzle 4 1019 75 10000 2.1 360 16:22 26.01.2020
3822 Drizzle 4 1019 75 10000 2.1 360 16:22 26.01.2020
3823 Clouds 4 925 57 0 1.34 315 15:58 26.01.2020
3824 Clouds 4 925 57 0 1.34 315 15:58 26.01.2020
3825 Clouds 4 925 57 0 1.34 315 15:58 26.01.2020
3826 Clouds 5 1020 76 0 0.45 295 15:40 26.01.2020
3827 Clouds 5 1020 86 0 1.79 243 15:19 26.01.2020
3828 Clouds 4 1020 79 0 2.24 260 14:41 26.01.2020
3829 Clouds 4 1020 80 0 1.34 270 14:23 26.01.2020
3830 Clouds 4 1020 80 0 1.34 270 14:23 26.01.2020
3831 Clouds 4 1020 80 0 1.34 255 13:59 26.01.2020
3832 Clouds 4 1020 81 0 0.45 246 13:38 26.01.2020
3833 Clouds 4 1020 81 0 0.89 246 13:18 26.01.2020
3834 Clouds 5 925 55 0 0.45 0 12:43 26.01.2020
3835 Clouds 4 925 55 0 0.45 45 12:24 26.01.2020
3836 Clouds 4 925 51 0 1.11 262 11:58 26.01.2020
3837 Clouds 3 926 51 0 0.89 180 11:40 26.01.2020
3838 Clouds 2 1020 92 9000 0.5 0 11:19 26.01.2020
3839 Clouds 1 1020 92 9000 0.5 0 10:59 26.01.2020
3840 Clouds 0 1020 92 9000 0.5 0 10:39 26.01.2020
3841 Rain 0 1020 92 9000 0.5 0 10:21 26.01.2020
3842 Clouds 0 1020 92 6000 1 0 09:58 26.01.2020
3843 Clouds 0 1020 92 6000 1 0 09:40 26.01.2020
3844 Fog -1 1020 100 5000 1.5 170 09:21 26.01.2020
3845 Mist -1 1020 92 2900 1.5 170 08:45 26.01.2020
3846 Fog -1 1020 92 500 1.5 150 08:23 26.01.2020
3847 Fog -1 1020 92 150 1.18 159 07:58 26.01.2020
3848 Fog -1 1020 92 150 1.18 159 07:40 26.01.2020
3849 Fog -1 1020 100 150 1.18 159 07:21 26.01.2020
3850 Fog -1 1020 100 150 1 210 06:31 26.01.2020
3851 Fog -1 1020 92 200 1.18 159 05:32 26.01.2020
3852 Fog -1 1020 100 150 0.5 0 04:45 26.01.2020
3853 Fog -1 1020 100 100 0.5 0 02:59 26.01.2020
3854 Fog -1 1020 100 150 0.5 0 01:57 26.01.2020
3855 Fog -1 1020 100 100 1 170 01:37 26.01.2020
3856 Fog -1 1020 100 100 1 170 01:18 26.01.2020
3857 Fog -1 1021 100 100 0.5 0 00:38 26.01.2020
3858 Fog -1 1021 100 100 1 0 00:20 26.01.2020
3859 Clouds 0 1021 91 0 1.11 171 23:37 25.01.2020
3860 Clouds 0 1021 91 0 1.05 174 23:18 25.01.2020
3861 Clouds 0 1022 90 0 1.05 174 22:43 25.01.2020
3862 Clouds 0 1022 80 0 1.05 174 22:20 25.01.2020
3863 Clouds 0 1022 91 0 1.05 174 21:57 25.01.2020
3864 Clouds 0 1022 90 0 1.05 174 21:39 25.01.2020
3865 Clouds 1 1022 87 0 1.05 174 21:20 25.01.2020
3866 Clouds 1 1022 91 0 1.05 174 20:45 25.01.2020
3867 Clouds 1 1022 85 0 1.03 155 20:26 25.01.2020
3868 Clouds 1 1022 85 0 1.03 155 19:56 25.01.2020
3869 Clouds 1 1022 85 0 1.03 155 19:56 25.01.2020
3870 Clouds 1 1025 95 0 1.03 155 19:37 25.01.2020
3871 Clouds 1 1022 91 0 0.89 206 19:19 25.01.2020
3872 Clouds 1 1022 91 0 1.03 152 18:55 25.01.2020
3873 Clouds 2 1025 95 0 1.03 155 18:37 25.01.2020
3874 Clouds 2 1025 95 0 1.03 155 18:18 25.01.2020
3875 Clouds 2 1025 95 0 1.03 155 18:18 25.01.2020
3876 Clouds 2 1021 87 0 1.34 206 17:39 25.01.2020
3877 Clouds 4 1021 84 0 0.51 266 17:19 25.01.2020
3878 Clouds 4 1021 84 0 0.51 266 16:56 25.01.2020
3879 Clouds 4 1021 82 0 1.34 161 16:37 25.01.2020
3880 Clouds 6 926 58 0 0.51 266 16:18 25.01.2020
3881 Clouds 6 1021 79 0 0.51 266 15:42 25.01.2020
3882 Clouds 6 1077 93 0 0.51 266 15:23 25.01.2020
3883 Clouds 5 1021 79 0 1.79 240 14:46 25.01.2020
3884 Clear 5 1021 80 0 1.79 244 14:19 25.01.2020
3885 Clear 5 927 56 0 0.45 45 13:57 25.01.2020
3886 Clear 5 1022 79 0 1.34 259 13:39 25.01.2020
3887 Clear 5 927 58 0 0.8 299 13:18 25.01.2020
3888 Clear 5 927 57 0 0.66 301 13:18 25.01.2020
3889 Mist 4 1023 100 1400 1 0 12:42 25.01.2020
3890 Mist 3 1023 100 1400 1 0 12:21 25.01.2020
3891 Mist 2 1023 100 1400 1 0 11:43 25.01.2020
3892 Fog 1 1023 100 450 0.5 0 11:21 25.01.2020
3893 Fog 0 1023 100 200 0.5 0 10:56 25.01.2020
3894 Fog 0 1023 100 200 0.5 0 10:38 25.01.2020
3895 Fog 0 1023 100 200 0.5 0 10:19 25.01.2020
3896 Fog 0 1023 100 150 1 0 09:40 25.01.2020
3897 Fog -1 1022 100 150 0.5 0 09:21 25.01.2020
3898 Fog -1 1022 100 100 0.5 0 08:43 25.01.2020
3899 Fog -1 1022 100 100 1 210 08:21 25.01.2020
3900 Fog -1 1022 100 150 1.5 180 07:41 25.01.2020
3901 Fog -1 1022 92 300 1 160 06:44 25.01.2020
3902 Fog -1 1021 92 500 1.5 120 06:24 25.01.2020
3903 Mist -1 1022 100 1500 1.5 130 05:44 25.01.2020
3904 Fog -1 1022 100 2300 1 170 04:25 25.01.2020
3905 Fog -1 1022 100 450 2.1 140 03:50 25.01.2020
3906 Mist -1 1022 92 4200 1.5 140 02:48 25.01.2020
3907 Mist -1 1022 100 2700 0.5 120 01:58 25.01.2020
3908 Mist -1 1023 100 3200 0.5 0 01:35 25.01.2020
3909 Mist -1 1023 100 4100 0.5 200 00:41 25.01.2020
3910 Mist -1 1023 100 3300 1.07 175 00:23 25.01.2020
3911 Mist -1 1023 100 2600 1 330 23:42 24.01.2020
3912 Mist -1 1023 100 3300 1 150 23:24 24.01.2020
3913 Mist -1 1023 100 4400 0.5 130 22:56 24.01.2020
3914 Mist -1 1023 100 4900 0.5 0 22:37 24.01.2020
3915 Mist -1 1023 100 4900 0.5 0 22:19 24.01.2020
3916 Mist 0 1023 100 4200 0.5 0 21:41 24.01.2020
3917 Clouds 0 1023 82 5000 1 300 21:19 24.01.2020
3918 Clouds 0 1023 82 6000 0.5 0 20:44 24.01.2020
3919 Clouds 0 1023 82 8000 0.5 0 20:23 24.01.2020
3920 Clouds 0 1023 82 8000 1 120 19:59 24.01.2020
3921 Clouds 0 1023 82 8000 1 120 19:41 24.01.2020
3922 Clouds 0 1023 82 8000 0.5 180 19:22 24.01.2020
3923 Clouds 0 1022 82 8000 1.23 172 18:58 24.01.2020
3924 Clouds 0 1022 82 8000 1.23 172 18:40 24.01.2020
3925 Clouds 1 1022 82 8000 1.5 100 18:21 24.01.2020
3926 Clouds 1 1022 82 7000 1.5 130 17:44 24.01.2020
3927 Clouds 2 1022 82 8000 2.1 140 17:22 24.01.2020
3928 Clouds 2 1022 86 7000 1.5 140 16:57 24.01.2020
3929 Clouds 2 1022 86 7000 1.5 140 16:38 24.01.2020
3930 Clouds 3 1023 80 7000 1.5 0 16:18 24.01.2020
3931 Clouds 3 1023 69 7000 1 0 15:41 24.01.2020
3932 Clouds 3 1023 80 7000 1 0 15:21 24.01.2020
3933 Clouds 3 1023 80 7000 1 0 14:42 24.01.2020
3934 Clouds 3 1023 86 5000 1.5 0 14:24 24.01.2020
3935 Clouds 3 1024 49 6000 0.5 0 13:58 24.01.2020
3936 Clouds 3 1024 49 6000 0.5 0 13:40 24.01.2020
3937 Mist 3 1025 92 5000 1 0 13:21 24.01.2020
3938 Mist 2 1025 92 2500 1.5 230 12:42 24.01.2020
3939 Mist 2 1025 92 2500 0.5 0 12:20 24.01.2020
3940 Mist 2 1025 92 2500 1.5 0 11:44 24.01.2020
3941 Mist 0 1025 92 1500 1.5 140 11:19 24.01.2020
3942 Fog -1 1025 100 900 2.6 150 10:44 24.01.2020
3943 Fog -1 1026 100 900 2.1 140 10:23 24.01.2020
3944 Mist -1 1026 92 1500 2.1 150 10:00 24.01.2020
3945 Mist -1 1026 92 1500 2.1 150 09:40 24.01.2020
3946 Mist -1 1026 92 2000 2.1 150 09:22 24.01.2020
3947 Mist -2 1026 92 2000 2.1 150 08:41 24.01.2020
3948 Mist -2 1026 92 2000 2.1 150 08:20 24.01.2020
3949 Mist -2 1025 100 2000 1 200 07:53 24.01.2020
3950 Mist -2 1026 100 3000 1.5 280 07:35 24.01.2020
3951 Mist -2 1026 100 3700 2.1 310 06:48 24.01.2020
3952 Mist -2 1026 100 4000 2.1 300 06:29 24.01.2020
3953 Mist -2 1025 100 2700 1.5 0 05:59 24.01.2020
3954 Mist -2 1026 100 2200 1.5 120 04:58 24.01.2020
3955 Mist -2 1027 100 3100 2.6 150 02:53 24.01.2020
3956 Mist -2 1027 100 4500 2.6 130 02:26 24.01.2020
3957 Mist -2 1027 100 4500 2.6 130 02:26 24.01.2020
3958 Clouds -2 1027 100 5000 2.6 160 01:49 24.01.2020
3959 Mist -2 1027 100 4800 2.6 160 01:31 24.01.2020
3960 Mist -2 1027 92 4700 1.5 0 00:26 24.01.2020
3961 Clouds -2 1027 92 5000 1.5 0 23:51 23.01.2020
3962 Clouds -2 1027 92 5000 1.5 0 23:31 23.01.2020
3963 Clouds -2 1027 92 5000 1 0 22:59 23.01.2020
3964 Clouds -2 1027 92 5000 1 0 22:38 23.01.2020
3965 Clouds -2 1027 92 5000 1.5 0 22:19 23.01.2020
3966 Clouds -2 1027 92 4900 1 0 21:58 23.01.2020
3967 Clouds -2 1027 92 4900 1 0 21:39 23.01.2020
3968 Clouds -2 1026 92 7000 1 0 21:20 23.01.2020
3969 Clouds -2 1026 92 5000 0.5 0 20:59 23.01.2020
3970 Clouds -2 1026 92 5000 0.5 0 20:39 23.01.2020
3971 Clouds -2 1026 86 5000 1 0 20:20 23.01.2020
3972 Clouds -2 1026 86 4000 1 0 19:56 23.01.2020
3973 Clouds -2 1026 86 4000 1 0 19:38 23.01.2020
3974 Clouds -2 1026 86 4000 1 0 19:19 23.01.2020
3975 Clouds -2 1026 86 3500 1 170 18:55 23.01.2020
3976 Clouds -2 1025 86 3500 1 0 18:36 23.01.2020
3977 Clouds -2 1025 86 3500 1 0 18:18 23.01.2020
3978 Clouds -2 1025 86 3500 0.5 0 17:42 23.01.2020
3979 Clouds -1 1025 86 3500 1 0 17:20 23.01.2020
3980 Clouds -1 1025 86 3500 1.5 0 16:57 23.01.2020
3981 Clouds -1 1025 86 7000 2.1 330 16:37 23.01.2020
3982 Clouds 0 1025 86 7000 2.1 330 16:18 23.01.2020
3983 Clouds 0 1026 86 4000 2.6 340 15:56 23.01.2020
3984 Clouds 0 1026 86 4000 2.6 310 15:37 23.01.2020
3985 Clouds 0 1026 86 4000 2.6 310 15:18 23.01.2020
3986 Clouds 0 1026 86 4000 2.6 310 15:18 23.01.2020
3987 Clouds 0 1026 86 4000 0.74 333 14:55 23.01.2020
3988 Clouds 0 1026 86 4000 1 0 14:37 23.01.2020
3989 Clouds -1 1026 86 4000 1 0 14:19 23.01.2020
3990 Clouds -1 1027 86 4000 1.5 190 13:43 23.01.2020
3991 Clouds -1 1027 86 4000 1 0 13:20 23.01.2020
3992 Clouds 1 1028 92 4000 1 0 12:47 23.01.2020
3993 Clouds 1 1028 92 4000 1 0 12:26 23.01.2020
3994 Mist 1 1029 100 5000 1 0 11:59 23.01.2020
3995 Mist 1 1029 100 5000 1 0 11:59 23.01.2020
3996 Mist 0 1029 100 5000 1 0 11:39 23.01.2020
3997 Clouds -2 1029 92 4000 1 0 11:20 23.01.2020
3998 Clouds -2 1029 92 4000 1 0 10:55 23.01.2020
3999 Clouds -2 1029 92 4000 1.5 20 10:36 23.01.2020
4000 Clouds -2 1029 92 4000 1.5 20 10:18 23.01.2020
4001 Clouds -2 1029 92 4000 2.1 350 09:39 23.01.2020
4002 Clouds -2 1029 92 4000 1.5 340 09:20 23.01.2020
4003 Clouds -3 1029 92 4000 2.1 310 08:43 23.01.2020
4004 Clouds -3 1028 92 4000 1.5 350 08:24 23.01.2020
4005 Clouds -3 1029 92 5000 2.6 320 07:49 23.01.2020
4006 Clouds -3 1028 92 3000 2.6 330 07:27 23.01.2020
4007 Mist -3 1028 92 3000 3.1 320 06:54 23.01.2020
4008 Mist -3 1029 100 3900 3.1 310 06:25 23.01.2020
4009 Mist -3 1029 100 3500 2.6 300 05:59 23.01.2020
4010 Fog -3 1030 100 600 1 0 04:24 23.01.2020
4011 Fog -3 1031 100 150 1 180 02:48 23.01.2020
4012 Fog -2 1031 100 250 1 0 01:50 23.01.2020
4013 Snow -2 1032 92 1500 2.6 310 00:29 23.01.2020
4014 Mist -2 1032 92 1300 3.1 320 23:57 22.01.2020
4015 Mist -2 1032 92 1300 3.1 320 23:39 22.01.2020
4016 Mist -2 1032 100 2100 2.1 320 23:20 22.01.2020
4017 Mist -2 1031 92 3300 2.1 310 22:42 22.01.2020
4018 Mist -2 1031 92 3300 2.1 310 22:23 22.01.2020
4019 Mist -1 1031 92 3900 1.5 330 21:56 22.01.2020
4020 Mist -1 1031 92 3700 1 350 21:36 22.01.2020
4021 Mist -1 1031 92 3700 1 350 21:18 22.01.2020
4022 Mist -1 1031 92 5000 1 340 20:41 22.01.2020
4023 Clear -1 1031 92 5000 1 0 20:23 22.01.2020
4024 Clear -1 1031 92 5000 1 0 19:58 22.01.2020
4025 Clear -1 1031 92 7000 0.5 0 19:39 22.01.2020
4026 Clear -1 1031 92 7000 0.5 0 19:20 22.01.2020
4027 Clear 0 1031 92 7000 1 0 18:57 22.01.2020
4028 Clear 0 1031 92 7000 1 0 18:38 22.01.2020
4029 Clear 0 1031 76 10000 0.5 0 18:20 22.01.2020
4030 Clear 0 1031 74 10000 2.6 320 17:55 22.01.2020
4031 Clear 1 1031 74 10000 3.6 330 17:37 22.01.2020
4032 Clear 2 1031 74 10000 3.6 330 17:19 22.01.2020
4033 Clear 3 1030 60 10000 3.6 310 16:43 22.01.2020
4034 Clear 3 1030 60 10000 3.6 310 16:23 22.01.2020
4035 Clear 4 1030 60 10000 2.6 280 15:59 22.01.2020
4036 Clear 4 1030 60 10000 2.6 270 15:40 22.01.2020
4037 Clear 5 1030 60 10000 2.6 270 15:22 22.01.2020
4038 Clear 5 1030 60 10000 1 0 14:57 22.01.2020
4039 Clear 5 1031 60 10000 1 0 14:37 22.01.2020
4040 Clear 4 1031 60 10000 1 0 14:18 22.01.2020
4041 Clear 4 1031 65 10000 1 0 13:54 22.01.2020
4042 Clear 4 1032 69 10000 0.8 344 13:36 22.01.2020
4043 Clear 3 1032 69 10000 0.77 357 13:18 22.01.2020
4044 Clear 3 1032 80 10000 0.5 0 12:55 22.01.2020
4045 Clear 4 1033 80 10000 1 0 12:37 22.01.2020
4046 Clear 3 1033 80 10000 1 0 12:18 22.01.2020
4047 Clear 3 1033 80 9000 1 0 11:56 22.01.2020
4048 Clear 2 1033 48 8000 0.77 357 11:37 22.01.2020
4049 Clear 1 1033 58 8000 0.42 22 11:18 22.01.2020
4050 Clear 0 1033 100 8000 1 0 10:43 22.01.2020
4051 Clear -1 1033 92 7000 1 220 10:20 22.01.2020
4052 Clear -2 1033 92 7000 1 0 09:43 22.01.2020
4053 Clear -3 1033 100 6000 1 0 09:25 22.01.2020
4054 Clear -3 1033 100 5000 1 0 08:57 22.01.2020
4055 Clear -3 1033 100 5000 1 0 08:39 22.01.2020
4056 Mist -3 1033 92 5000 1 90 08:21 22.01.2020
4057 Mist -3 1033 92 5000 1 0 07:48 22.01.2020
4058 Clouds -3 1033 100 5000 1 90 07:30 22.01.2020
4059 Clouds -3 1033 100 5000 1 0 06:50 22.01.2020
4060 Clouds -3 1033 100 5000 0.5 0 06:26 22.01.2020
4061 Mist -3 1033 92 4800 1 300 05:33 22.01.2020
4062 Clouds -3 1033 92 5000 1.5 150 04:18 22.01.2020
4063 Clouds -3 1034 100 7000 1 0 03:21 22.01.2020
4064 Clouds -3 1035 92 5000 0.5 0 01:43 22.01.2020
4065 Clouds -3 1035 100 4900 0.5 0 00:44 22.01.2020
4066 Mist -3 1035 92 4700 0.5 0 00:26 22.01.2020
4067 Mist -3 1035 92 4300 0.5 0 23:38 21.01.2020
4068 Mist -2 1035 100 3500 0.5 0 23:20 21.01.2020
4069 Mist -2 1035 92 4500 0.5 0 22:56 21.01.2020
4070 Mist -2 1035 92 4500 0.5 0 22:56 21.01.2020
4071 Clouds -2 1035 92 6000 0.5 0 22:37 21.01.2020
4072 Clouds -2 1035 92 6000 0.5 0 22:37 21.01.2020
4073 Clouds -2 1035 92 6000 0.5 0 22:19 21.01.2020
4074 Clouds -2 1035 92 6000 0.5 0 21:55 21.01.2020
4075 Clouds -2 1035 92 10000 0.5 0 21:37 21.01.2020
4076 Clouds -2 1035 92 10000 0.5 0 21:18 21.01.2020
4077 Clouds -2 1035 92 10000 0.5 0 20:55 21.01.2020
4078 Clouds -2 1035 86 10000 0.72 16 20:36 21.01.2020
4079 Clear -2 1035 86 10000 0.84 77 20:18 21.01.2020
4080 Clear -1 1035 92 10000 0.5 0 19:55 21.01.2020
4081 Clear -1 1035 86 7000 1 0 19:36 21.01.2020
4082 Clear -1 1035 86 7000 1 0 19:18 21.01.2020
4083 Clear -1 1035 86 10000 0.84 77 18:54 21.01.2020
4084 Clear -1 1035 74 10000 2.1 260 18:36 21.01.2020
4085 Clear -1 1035 74 10000 2.1 260 18:18 21.01.2020
4086 Clear 0 1035 75 10000 1.5 300 17:42 21.01.2020
4087 Clear 1 1035 69 10000 2.1 260 17:19 21.01.2020
4088 Clear 1 1035 69 10000 2.1 260 17:19 21.01.2020
4089 Clear 2 1035 64 10000 1.5 270 16:56 21.01.2020
4090 Clear 2 1036 55 10000 2.1 260 16:36 21.01.2020
4091 Clear 3 1036 55 10000 2.1 260 16:18 21.01.2020
4092 Clear 3 1036 55 10000 2.6 270 15:39 21.01.2020
4093 Clear 3 1036 55 10000 1.5 250 15:20 21.01.2020
4094 Clear 3 1036 59 10000 2.1 260 14:54 21.01.2020
4095 Clear 3 1037 59 10000 2.1 250 14:36 21.01.2020
4096 Clouds 3 1037 59 10000 2.1 250 14:18 21.01.2020
4097 Clouds 2 1037 64 10000 1.5 0 13:38 21.01.2020
4098 Clouds 2 1038 64 10000 1 0 13:18 21.01.2020
4099 Clouds 2 1038 69 10000 1.5 0 12:43 21.01.2020
4100 Clouds 1 1038 40 10000 1 0 12:24 21.01.2020
4101 Clouds 1 1039 80 10000 1 0 11:56 21.01.2020
4102 Clouds 0 1039 86 10000 1 0 11:38 21.01.2020
4103 Clouds 0 1039 86 10000 1 0 11:38 21.01.2020
4104 Clouds 0 1039 86 10000 1 0 11:38 21.01.2020
4105 Clouds -1 1039 86 10000 1 0 11:19 21.01.2020
4106 Clouds -2 1039 92 10000 0.5 0 10:43 21.01.2020
4107 Clouds -3 1039 92 10000 0.5 0 10:23 21.01.2020
4108 Clouds -3 1039 100 9000 0.5 0 09:57 21.01.2020
4109 Clouds -3 1039 100 9000 0.5 0 09:39 21.01.2020
4110 Mist -3 1040 100 4500 0.86 360 09:21 21.01.2020
4111 Clouds -4 1040 100 5000 0.86 360 08:45 21.01.2020
4112 Clouds -4 1039 92 8000 1 280 08:27 21.01.2020
4113 Clouds -4 1039 92 10000 1.5 150 07:45 21.01.2020
4114 Clouds -4 1039 92 10000 1.5 220 07:26 21.01.2020
4115 Clouds -4 1040 100 10000 0.95 34 06:58 21.01.2020
4116 Clouds -4 1040 100 10000 0.95 34 06:39 21.01.2020
4117 Clouds -4 1040 92 10000 0.5 70 06:20 21.01.2020
4118 Clouds -4 1040 92 9000 2.1 60 05:40 21.01.2020
4119 Clear -4 1039 92 10000 0.5 200 04:38 21.01.2020
4120 Clear -3 1039 92 10000 1 0 02:34 21.01.2020
4121 Clear -3 1039 92 10000 0.5 140 01:37 21.01.2020
4122 Clear -3 1039 85 10000 0.5 0 00:52 21.01.2020
4123 Clear -3 1039 92 10000 1 0 00:29 21.01.2020
4124 Clear -3 1039 92 10000 1.5 120 23:56 20.01.2020
4125 Clear -2 1039 92 10000 1.5 110 23:36 20.01.2020
4126 Clear -2 1039 92 10000 1.5 110 23:18 20.01.2020
4127 Clear -2 1038 85 10000 0.5 0 22:54 20.01.2020
4128 Clouds -2 1039 85 10000 1 110 22:36 20.01.2020
4129 Clouds -2 1039 85 10000 1 110 22:18 20.01.2020
4130 Clear -2 1038 85 10000 0.5 0 21:54 20.01.2020
4131 Clear -1 1038 85 10000 0.5 0 21:36 20.01.2020
4132 Clear -1 1038 85 10000 0.5 0 21:18 20.01.2020
4133 Clear -1 1038 86 10000 0.5 0 20:42 20.01.2020
4134 Clouds -1 1038 86 10000 0.5 0 20:20 20.01.2020
4135 Clear -1 1038 86 10000 0.5 50 19:59 20.01.2020
4136 Clear -1 1038 86 10000 0.5 50 19:40 20.01.2020
4137 Clear -1 1038 74 10000 1.5 160 19:19 20.01.2020
4138 Clear 0 1038 85 10000 1.5 60 18:55 20.01.2020
4139 Clear 0 1038 85 10000 2.1 60 18:37 20.01.2020
4140 Clear 0 1038 85 10000 2.1 60 18:19 20.01.2020
4141 Clouds 1 1036 73 10000 5.1 60 17:38 20.01.2020
4142 Clear 1 1038 59 10000 3.6 50 17:19 20.01.2020
4143 Clouds 2 1038 59 10000 3.1 50 16:46 20.01.2020
4144 Clouds 2 1038 51 10000 3.1 50 16:26 20.01.2020
4145 Clouds 2 1038 55 10000 3.1 50 15:59 20.01.2020
4146 Clouds 3 1038 55 10000 3.1 50 15:40 20.01.2020
4147 Clouds 3 1038 51 10000 3.1 40 15:22 20.01.2020
4148 Clear 3 1038 51 10000 3.1 40 14:58 20.01.2020
4149 Clouds 3 1038 51 10000 3.6 50 14:39 20.01.2020
4150 Clouds 3 1038 51 10000 3.6 50 14:20 20.01.2020
4151 Clouds 2 1039 55 10000 2.6 130 13:44 20.01.2020
4152 Clouds 2 1039 55 10000 2.6 130 13:24 20.01.2020
4153 Clouds 2 1039 59 10000 1.5 110 12:58 20.01.2020
4154 Clouds 2 1039 59 10000 2.1 130 12:40 20.01.2020
4155 Clouds 2 1039 59 10000 2.1 130 12:21 20.01.2020
4156 Clouds 1 1040 59 10000 2.6 60 11:55 20.01.2020
4157 Clouds 1 1040 58 10000 2.6 60 11:36 20.01.2020
4158 Clouds 1 1040 76 10000 2.6 60 11:18 20.01.2020
4159 Clouds 0 1040 76 10000 2.1 70 10:41 20.01.2020
4160 Clouds 0 1040 79 10000 1 0 10:20 20.01.2020
4161 Clouds -1 1040 86 10000 1.5 0 09:42 20.01.2020
4162 Clouds -1 1039 85 10000 2.1 140 09:24 20.01.2020
4163 Clouds -1 1039 85 10000 2.1 90 08:55 20.01.2020
4164 Clouds -1 1039 74 10000 2.6 60 08:34 20.01.2020
4165 Clouds -2 1039 92 10000 2.1 20 07:56 20.01.2020
4166 Clear -2 1038 92 10000 1.5 30 07:38 20.01.2020
4167 Clear -2 1038 92 10000 1.5 30 07:19 20.01.2020
4168 Clear -1 1038 86 9000 0.5 0 06:42 20.01.2020
4169 Clear -2 1038 92 10000 1 0 06:21 20.01.2020
4170 Clear -1 1038 92 10000 1.5 330 05:38 20.01.2020
4171 Clear -1 1038 92 10000 1.5 330 05:19 20.01.2020
4172 Clear -1 1038 80 10000 2.1 80 03:55 20.01.2020
4173 Clouds -1 1038 82 10000 3.6 40 01:58 20.01.2020
4174 Clouds -1 1038 82 10000 3.6 40 01:39 20.01.2020
4175 Clouds 0 1038 69 10000 4.1 40 00:56 20.01.2020
4176 Clouds 0 1038 69 10000 2.6 30 00:38 20.01.2020
4177 Clouds 0 1038 69 10000 2.6 30 00:20 20.01.2020
4178 Clouds 0 1037 69 10000 2.6 60 23:38 19.01.2020
4179 Clouds 0 1037 69 10000 2.6 60 23:18 19.01.2020
4180 Clouds 0 1037 74 10000 2.6 80 22:55 19.01.2020
4181 Clouds 0 1037 83 10000 2.6 0 22:37 19.01.2020
4182 Clouds 0 1037 83 10000 2.6 0 22:19 19.01.2020
4183 Clouds 0 1037 74 10000 1 0 21:56 19.01.2020
4184 Clouds 0 1036 74 10000 2.1 0 21:37 19.01.2020
4185 Clouds 0 1036 74 10000 2.1 0 21:19 19.01.2020
4186 Clouds 0 1036 74 10000 1.5 0 20:56 19.01.2020
4187 Clouds 0 1036 74 10000 2.6 0 20:38 19.01.2020
4188 Snow 0 1036 74 10000 2.6 0 20:19 19.01.2020
4189 Clouds 0 1035 74 10000 2.1 0 19:55 19.01.2020
4190 Clouds 0 1035 74 10000 2.6 0 19:37 19.01.2020
4191 Clouds 0 1035 74 10000 2.6 0 19:19 19.01.2020
4192 Clouds 1 1035 74 10000 2.1 0 18:55 19.01.2020
4193 Snow 0 1035 96 10000 3.6 50 18:37 19.01.2020
4194 Snow 1 1035 96 10000 3.6 50 18:18 19.01.2020
4195 Snow 1 1035 96 10000 3.6 50 18:18 19.01.2020
4196 Clouds 1 1034 69 10000 2.6 50 17:57 19.01.2020
4197 Clouds 1 1034 69 10000 2.6 50 17:38 19.01.2020
4198 Clouds 2 1034 69 10000 3.1 60 17:19 19.01.2020
4199 Clouds 2 1034 64 10000 3.1 70 16:57 19.01.2020
4200 Clouds 2 1033 59 10000 2.6 80 16:37 19.01.2020
4201 Clouds 2 1033 59 10000 2.6 80 16:37 19.01.2020
4202 Clouds 2 1033 59 10000 2.6 80 16:19 19.01.2020
4203 Clouds 2 1033 59 10000 2.6 60 15:55 19.01.2020
4204 Clouds 2 1033 59 10000 3.1 40 15:36 19.01.2020
4205 Clouds 3 1033 59 10000 3.1 40 15:18 19.01.2020
4206 Clouds 3 1032 55 10000 3.6 20 14:41 19.01.2020
4207 Clouds 3 1032 55 10000 3.6 20 14:41 19.01.2020
4208 Clouds 3 1032 51 10000 4.1 60 14:21 19.01.2020
4209 Clouds 3 1032 55 10000 4.1 50 13:59 19.01.2020
4210 Clouds 3 1032 55 10000 4.1 50 13:40 19.01.2020
4211 Clouds 3 1032 59 10000 3.1 50 13:22 19.01.2020
4212 Clouds 3 1032 59 10000 3.1 50 13:22 19.01.2020
4213 Clouds 3 1032 60 10000 2.6 60 12:59 19.01.2020
4214 Clouds 3 1032 60 10000 2.6 60 12:41 19.01.2020
4215 Clouds 3 1032 69 10000 2.6 30 12:21 19.01.2020
4216 Clouds 2 1032 74 10000 1.5 0 11:57 19.01.2020
4217 Clouds 2 1032 80 10000 1 260 11:38 19.01.2020
4218 Clouds 1 1032 80 10000 1 260 11:18 19.01.2020
4219 Clouds 0 1032 100 10000 1 140 10:41 19.01.2020
4220 Clouds 0 1031 100 10000 1.5 140 10:21 19.01.2020
4221 Clouds -1 1031 100 10000 4.03 51 09:58 19.01.2020
4222 Clouds -1 1031 100 10000 4.03 51 09:39 19.01.2020
4223 Clouds -2 1031 92 10000 1 0 09:21 19.01.2020
4224 Clouds -2 1031 92 10000 0.5 0 08:56 19.01.2020
4225 Clouds -2 1030 92 10000 4.03 51 08:38 19.01.2020
4226 Clouds -2 1030 92 10000 3.04 50 08:19 19.01.2020
4227 Fog -2 1030 100 10000 1 0 07:29 19.01.2020
4228 Clouds -2 1029 92 10000 3.04 50 06:55 19.01.2020
4229 Clouds -2 1029 100 10000 3.04 50 06:23 19.01.2020
4230 Fog -1 1029 92 8000 0.5 120 04:19 19.01.2020
4231 Clouds -1 1028 92 10000 0.5 0 02:35 19.01.2020
4232 Clouds -1 1027 92 10000 1 100 01:58 19.01.2020
4233 Clouds -1 1027 100 7000 0.5 0 01:22 19.01.2020
4234 Clouds -1 1027 100 10000 0.5 0 00:45 19.01.2020
4235 Clouds -1 1027 92 10000 1.5 320 00:26 19.01.2020
4236 Clouds -1 1027 92 10000 1.5 320 23:55 18.01.2020
4237 Clouds 0 1027 92 10000 0.5 0 23:36 18.01.2020
4238 Clear 0 1027 92 10000 0.5 0 23:18 18.01.2020
4239 Clouds 0 1027 92 10000 0.5 0 22:54 18.01.2020
4240 Clouds 0 1027 92 10000 0.5 0 22:54 18.01.2020
4241 Clouds 0 1027 86 10000 0.5 0 22:36 18.01.2020
4242 Clouds 0 1027 86 10000 0.5 0 22:36 18.01.2020
4243 Clouds 0 1027 86 10000 0.5 0 22:18 18.01.2020
4244 Clouds 1 1027 94 10000 0.5 0 21:55 18.01.2020
4245 Clouds 0 1027 86 10000 0.5 0 21:36 18.01.2020
4246 Clouds 1 1027 86 10000 0.5 0 21:18 18.01.2020
4247 Clouds 1 1027 86 10000 0.5 0 20:41 18.01.2020
4248 Clouds 2 1027 86 10000 0.5 0 20:19 18.01.2020
4249 Clouds 2 1027 86 10000 1 300 19:44 18.01.2020
4250 Clouds 2 1027 86 10000 0.5 0 19:25 18.01.2020
4251 Clouds 2 1027 86 10000 0.5 0 18:56 18.01.2020
4252 Clouds 1 1027 86 10000 1 0 18:37 18.01.2020
4253 Clouds 2 1027 86 10000 1 0 18:19 18.01.2020
4254 Clouds 2 1026 74 10000 1 0 17:41 18.01.2020
4255 Clouds 4 1026 69 10000 2.1 250 17:21 18.01.2020
4256 Clouds 4 1026 60 10000 2.6 280 16:57 18.01.2020
4257 Clouds 4 1025 73 10000 2.1 280 16:38 18.01.2020
4258 Clouds 5 1026 56 10000 2.6 300 16:19 18.01.2020
4259 Clouds 5 1026 56 10000 2.1 320 15:47 18.01.2020
4260 Clouds 5 1026 56 10000 3.1 300 15:26 18.01.2020
4261 Clouds 5 1026 56 10000 3.1 300 15:26 18.01.2020
4262 Clouds 5 1026 60 10000 2.1 310 15:00 18.01.2020
4263 Clouds 5 1026 60 10000 2.1 310 14:41 18.01.2020
4264 Clouds 6 1027 60 10000 2.6 300 14:19 18.01.2020
4265 Clouds 6 1027 60 10000 2.6 300 14:19 18.01.2020
4266 Clouds 5 1027 65 10000 2.6 240 13:57 18.01.2020
4267 Clouds 6 1027 71 10000 1.5 0 13:36 18.01.2020
4268 Clouds 6 1027 71 10000 1.5 0 13:36 18.01.2020
4269 Clouds 5 1027 71 10000 1.5 0 13:18 18.01.2020
4270 Clouds 5 1028 70 10000 1 0 12:41 18.01.2020
4271 Clear 5 1028 70 10000 1 0 12:22 18.01.2020
4272 Clouds 5 1028 80 10000 1 0 11:57 18.01.2020
4273 Clear 4 1028 93 10000 1.5 130 11:38 18.01.2020
4274 Clear 4 1028 93 10000 1.5 130 11:38 18.01.2020
4275 Clouds 4 1028 93 10000 1.5 130 11:19 18.01.2020
4276 Clouds 3 1028 93 10000 1 0 10:43 18.01.2020
4277 Clouds 2 1028 100 10000 1 170 10:21 18.01.2020
4278 Clouds 2 1027 86 10000 0.5 0 09:56 18.01.2020
4279 Clouds 2 1026 92 10000 0.5 0 09:38 18.01.2020
4280 Clouds 1 1028 100 10000 2.1 100 09:18 18.01.2020
4281 Clouds 1 1028 100 10000 0.5 0 08:42 18.01.2020
4282 Clouds 2 1028 94 10000 0.5 0 08:20 18.01.2020
4283 Clouds 2 1028 94 10000 0.5 0 08:20 18.01.2020
4284 Clouds 2 1028 92 10000 0.5 0 07:58 18.01.2020
4285 Clouds 2 1027 92 10000 1 0 07:37 18.01.2020
4286 Clouds 2 1027 100 10000 0.5 0 06:50 18.01.2020
4287 Clouds 3 1027 93 10000 1.5 0 06:27 18.01.2020
4288 Clouds 3 1027 93 10000 1 0 05:45 18.01.2020
4289 Rain 3 1027 93 10000 1.5 0 04:24 18.01.2020
4290 Rain 4 1026 86 10000 2.6 240 02:33 18.01.2020
4291 Rain 4 1025 80 10000 3.1 240 01:36 18.01.2020
4292 Drizzle 4 1025 86 10000 3.6 240 00:39 18.01.2020
4293 Rain 4 1025 93 10000 1.5 0 00:39 18.01.2020
4294 Drizzle 4 1025 86 10000 3.6 240 00:19 18.01.2020
4295 Rain 4 1025 86 10000 4.1 250 23:58 17.01.2020
4296 Rain 4 1025 86 10000 4.1 250 23:38 17.01.2020
4297 Rain 4 1024 100 8000 1 0 23:18 17.01.2020
4298 Rain 4 1024 93 2600 1.5 90 22:41 17.01.2020
4299 Rain 4 1024 93 2600 1.5 90 22:19 17.01.2020
4300 Rain 4 1024 100 5000 1.5 310 21:54 17.01.2020
4301 Rain 4 1023 100 8000 1 0 21:36 17.01.2020
4302 Rain 4 1023 100 8000 1 0 21:18 17.01.2020
4303 Rain 4 1023 100 9000 2.6 130 20:41 17.01.2020
4304 Rain 4 1023 100 9000 2.6 130 20:21 17.01.2020
4305 Rain 4 1023 100 10000 2.1 130 19:57 17.01.2020
4306 Rain 4 1023 100 10000 2.1 130 19:38 17.01.2020
4307 Drizzle 4 1022 100 10000 2.6 140 19:20 17.01.2020
4308 -273 0 0 0 0 0 18:58 17.01.2020
4309 Rain 4 1022 93 10000 1.5 70 18:38 17.01.2020
4310 Rain 4 1022 93 10000 1.5 70 18:20 17.01.2020
4311 Rain 5 1021 81 9000 5.1 250 17:40 17.01.2020
4312 Rain 5 1021 81 9000 5.1 250 17:21 17.01.2020
4313 Rain 5 1021 87 9000 4.6 230 16:57 17.01.2020
4314 Rain 5 1021 87 9000 4.6 230 16:57 17.01.2020
4315 Rain 5 1021 81 5000 5.7 270 16:38 17.01.2020
4316 Rain 5 1021 81 5000 5.7 270 16:18 17.01.2020
4317 Rain 5 1021 80 8000 4.1 280 15:44 17.01.2020
4318 Drizzle 5 1020 75 10000 4.1 320 15:26 17.01.2020
4319 Rain 5 1020 92 10000 2.1 340 14:44 17.01.2020
4320 Clouds 5 1021 75 10000 1.5 330 14:26 17.01.2020
4321 Clouds 6 1021 75 10000 1 270 13:58 17.01.2020
4322 Clouds 6 1021 75 10000 0.5 0 13:37 17.01.2020
4323 Clouds 6 1021 75 10000 0.5 0 13:18 17.01.2020
4324 Clouds 6 1021 75 10000 2.1 310 12:42 17.01.2020
4325 Clouds 5 1022 80 10000 1.5 120 12:21 17.01.2020
4326 Clouds 4 1023 86 10000 1.5 250 11:38 17.01.2020
4327 Clouds 4 1023 86 10000 1.5 250 11:18 17.01.2020
4328 Clouds 3 1023 61 10000 1.5 180 10:44 17.01.2020
4329 Clear 2 1023 92 10000 1 0 10:23 17.01.2020
4330 Clear 2 1023 100 10000 1.5 0 09:58 17.01.2020
4331 Clear 1 1023 100 10000 1.5 0 09:39 17.01.2020
4332 Mist 1 1024 100 2500 1 270 09:39 17.01.2020
4333 Clear 1 1023 92 10000 1 0 09:19 17.01.2020
4334 Clear 0 1023 92 10000 1 320 08:43 17.01.2020
4335 Clear -1 1023 92 10000 0.5 0 08:25 17.01.2020
4336 Clear -1 1023 92 10000 0.5 0 07:54 17.01.2020
4337 Clear -1 1023 100 10000 0.5 0 07:31 17.01.2020
4338 Clear 0 1023 100 10000 1.5 120 06:58 17.01.2020
4339 Clear 0 1023 100 10000 1.5 120 06:58 17.01.2020
4340 Clear -1 1023 100 10000 1.5 120 06:40 17.01.2020
4341 Clear -1 1023 100 10000 0.5 0 05:56 17.01.2020
4342 Clear 0 1025 80 0 0.45 165 03:39 17.01.2020
4343 Clear 1 930 53 0 1.08 157 02:52 17.01.2020
4344 Clear 1 930 53 0 1.23 190 01:47 17.01.2020
4345 Clear 1 1025 81 0 1.23 190 01:29 17.01.2020
4346 Clear 2 1025 79 0 1.26 196 00:50 17.01.2020
4347 Clear 1 1026 78 0 1.26 196 00:26 17.01.2020
4348 Clear 1 1025 100 10000 0.5 130 23:44 16.01.2020
4349 Clear 1 1025 100 10000 0.5 130 23:26 16.01.2020
4350 Clear 1 1025 92 9000 0.5 0 22:57 16.01.2020
4351 Clear 1 1026 92 10000 1 0 22:39 16.01.2020
4352 Clear 1 1026 92 10000 1 0 22:20 16.01.2020
4353 Clear 1 1026 88 10000 0.5 0 21:55 16.01.2020
4354 Clear 2 1026 92 10000 0.5 0 21:36 16.01.2020
4355 Clear 2 1026 92 10000 0.5 0 21:18 16.01.2020
4356 Clear 2 1026 88 10000 1.5 140 20:41 16.01.2020
4357 Clear 3 1026 100 10000 0.5 250 20:21 16.01.2020
4358 Clear 3 1026 88 10000 1 0 19:59 16.01.2020
4359 Clear 3 1026 88 10000 1 0 19:41 16.01.2020
4360 Clear 3 1026 86 10000 0.5 0 19:22 16.01.2020
4361 Clear 3 1026 86 10000 1 0 18:57 16.01.2020
4362 Clear 4 1026 80 10000 0.5 0 18:39 16.01.2020
4363 Clear 4 1026 80 10000 0.5 0 18:20 16.01.2020
4364 Clear 5 1026 88 10000 1 0 17:59 16.01.2020
4365 Clear 5 1026 88 10000 1 0 17:40 16.01.2020
4366 Clear 6 1026 65 10000 1.5 0 17:20 16.01.2020
4367 Clear 8 1025 61 10000 2.6 250 16:42 16.01.2020
4368 Clear 8 1025 57 10000 2.1 240 16:24 16.01.2020
4369 Clear 9 1025 50 10000 2.1 270 15:59 16.01.2020
4370 Clear 9 1025 50 10000 2.1 270 15:40 16.01.2020
4371 Clear 9 1026 53 10000 1.5 300 15:21 16.01.2020
4372 Clear 9 1026 53 10000 1.5 310 14:45 16.01.2020
4373 Clear 9 1026 61 10000 1.5 260 14:24 16.01.2020
4374 Clear 9 1027 61 10000 0.5 0 13:56 16.01.2020
4375 Clear 9 1027 61 10000 1.5 0 13:37 16.01.2020
4376 Clear 9 1027 60 10000 1.5 0 13:19 16.01.2020
4377 Clear 8 1027 60 10000 1 0 12:43 16.01.2020
4378 Clear 8 1028 60 10000 1.5 0 12:25 16.01.2020
4379 Clear 6 1029 80 10000 1 210 11:43 16.01.2020
4380 Clear 5 1029 80 10000 1 210 11:25 16.01.2020
4381 Clear 4 1029 80 10000 1 260 10:59 16.01.2020
4382 Clear 3 1029 86 10000 1 120 10:38 16.01.2020
4383 Clear 3 1029 86 10000 1 120 10:20 16.01.2020
4384 Clear 2 1029 92 10000 2.1 170 09:56 16.01.2020
4385 Clear 2 1029 86 10000 3.6 130 09:37 16.01.2020
4386 Clear 1 1029 86 10000 3.6 130 09:19 16.01.2020
4387 Clear 1 1029 86 10000 2.1 100 08:48 16.01.2020
4388 Clear 1 1028 86 10000 3.6 130 08:29 16.01.2020
4389 Clouds 1 1029 92 10000 2.1 150 07:44 16.01.2020
4390 Clouds 1 1029 92 10000 1.5 170 07:25 16.01.2020
4391 Clouds 1 1028 86 10000 1.5 0 06:59 16.01.2020
4392 Clouds 2 1028 92 10000 2.1 100 06:37 16.01.2020
4393 Clouds 2 1028 78 10000 3.1 110 05:58 16.01.2020
4394 Clouds 2 1028 78 10000 1 0 05:39 16.01.2020
4395 Clouds 3 1029 86 10000 3.1 110 04:37 16.01.2020
4396 Clouds 3 1029 86 10000 3.1 110 04:37 16.01.2020
4397 Clouds 3 1029 86 10000 1.5 130 03:28 16.01.2020
4398 Clouds 3 1028 86 10000 1.5 140 02:36 16.01.2020
4399 Clouds 3 1028 92 10000 1.5 160 00:48 16.01.2020
4400 Clouds 3 1028 92 10000 1.75 162 00:24 16.01.2020
4401 Clouds 3 1028 92 10000 1 0 23:48 15.01.2020
4402 Clouds 3 1027 86 10000 1 0 23:23 15.01.2020
4403 Clouds 3 1027 83 10000 1 0 22:57 15.01.2020
4404 Clouds 3 1027 83 10000 1 0 22:57 15.01.2020
4405 Clouds 3 1027 83 10000 1 0 22:39 15.01.2020
4406 Clouds 3 1026 83 10000 2.1 210 22:19 15.01.2020
4407 Clouds 3 1026 83 10000 1 0 21:57 15.01.2020
4408 Clouds 3 1026 83 10000 1.5 0 21:37 15.01.2020
4409 Clouds 3 1026 83 10000 1.5 0 21:19 15.01.2020
4410 Clouds 4 1025 83 10000 1 0 20:57 15.01.2020
4411 Clouds 4 1025 83 10000 1 0 20:39 15.01.2020
4412 Clouds 4 1025 80 10000 1 0 20:20 15.01.2020
4413 Clear 4 1025 80 10000 1.5 140 19:55 15.01.2020
4414 Clear 5 1025 74 10000 2.1 70 19:37 15.01.2020
4415 Clear 5 1025 74 10000 2.1 70 19:19 15.01.2020
4416 Clear 6 1024 74 10000 1.5 0 18:56 15.01.2020
4417 Clear 6 1023 69 10000 2.1 90 18:38 15.01.2020
4418 Clear 6 1023 69 10000 2.1 90 18:38 15.01.2020
4419 Clear 6 1023 69 10000 2.1 90 18:19 15.01.2020
4420 Clear 6 1023 65 10000 1 0 17:56 15.01.2020
4421 Clear 7 1022 86 10000 3.6 110 17:37 15.01.2020
4422 Clear 8 1022 71 10000 3.6 110 17:18 15.01.2020
4423 Clear 9 1022 53 10000 3.6 150 16:40 15.01.2020
4424 Clear 9 1022 53 10000 3.6 150 16:22 15.01.2020
4425 Clear 9 1022 50 10000 4.1 0 15:57 15.01.2020
4426 Clear 9 1022 50 10000 4.1 0 15:39 15.01.2020
4427 Clear 9 1021 71 10000 3.1 170 15:19 15.01.2020
4428 Clear 9 1021 71 10000 3.1 200 14:43 15.01.2020
4429 Clear 9 1021 50 10000 1.5 150 14:20 15.01.2020
4430 Clear 9 1021 49 10000 1 0 13:46 15.01.2020
4431 Clear 9 1021 59 10000 2.1 130 13:27 15.01.2020
4432 Clear 8 1021 56 10000 1.5 140 12:59 15.01.2020
4433 Clear 8 1021 56 10000 1.5 140 12:40 15.01.2020
4434 Clear 7 1021 69 10000 0.5 0 12:20 15.01.2020
4435 Clear 6 1021 74 10000 1 0 11:57 15.01.2020
4436 Clear 5 1021 80 10000 1 0 11:37 15.01.2020
4437 Clear 4 1021 80 10000 1 0 11:19 15.01.2020
4438 Clear 3 1021 80 10000 1 0 10:43 15.01.2020
4439 Clear 3 1021 64 10000 1 0 10:25 15.01.2020
4440 Clear 1 1021 86 10000 1 0 09:45 15.01.2020
4441 Clear 0 1021 92 10000 1.5 0 09:26 15.01.2020
4442 Clear 0 1021 92 10000 0.5 0 08:58 15.01.2020
4443 Clear 0 1020 92 10000 0.5 0 08:39 15.01.2020
4444 Clear -1 1020 92 10000 0.5 0 08:21 15.01.2020
4445 Clear 0 1020 92 10000 1 130 07:51 15.01.2020
4446 Clear -1 1020 92 10000 1 120 07:31 15.01.2020
4447 Clear 0 1020 92 10000 0.95 171 06:46 15.01.2020
4448 Clear 0 1020 92 10000 0.95 171 06:20 15.01.2020
4449 Clear 0 1020 86 10000 0.5 0 04:44 15.01.2020
4450 Clear 1 1020 92 10000 0.5 0 02:38 15.01.2020
4451 Clouds 1 1020 86 10000 1.5 110 01:28 15.01.2020
4452 Clouds 1 1020 92 10000 0.5 0 00:46 15.01.2020
4453 Clouds 1 1020 86 10000 0.5 0 00:27 15.01.2020
4454 Clouds 2 1020 92 10000 0.5 0 23:56 14.01.2020
4455 Clouds 2 1019 92 10000 0.5 0 23:38 14.01.2020
4456 Clouds 2 1019 92 10000 0.5 0 23:19 14.01.2020
4457 Clouds 2 1020 86 10000 1.5 140 22:41 14.01.2020
4458 Clouds 2 1020 86 10000 1.5 140 22:19 14.01.2020
4459 Clouds 2 1020 86 10000 0.5 0 21:58 14.01.2020
4460 Clouds 2 1020 67 10000 1 0 21:40 14.01.2020
4461 Clouds 2 1020 67 10000 1 0 21:21 14.01.2020
4462 Clouds 2 1020 67 10000 1 0 21:21 14.01.2020
4463 Clouds 3 1020 67 10000 3.1 110 20:59 14.01.2020
4464 Clouds 3 1020 67 10000 3.1 110 20:40 14.01.2020
4465 Clouds 4 1019 80 10000 3.6 100 20:20 14.01.2020
4466 Clouds 4 1019 80 10000 3.6 100 19:56 14.01.2020
4467 Clouds 4 1019 74 10000 3.6 110 19:38 14.01.2020
4468 Clouds 4 1019 74 10000 3.6 110 19:18 14.01.2020
4469 Clouds 4 1019 80 10000 3.1 130 18:55 14.01.2020
4470 Clouds 4 1019 74 10000 1.5 110 18:37 14.01.2020
4471 Clouds 5 1019 74 10000 1.5 110 18:18 14.01.2020
4472 Clouds 5 1019 69 10000 1 0 17:38 14.01.2020
4473 Clouds 6 1019 69 10000 1 0 17:19 14.01.2020
4474 Clouds 6 1019 60 10000 2.6 120 16:55 14.01.2020
4475 Clouds 7 1019 52 10000 3.6 140 16:37 14.01.2020
4476 Clouds 7 1019 52 10000 3.6 140 16:19 14.01.2020
4477 Clouds 7 1019 52 10000 4.1 140 15:42 14.01.2020
4478 Clouds 8 1018 49 10000 3.6 140 15:19 14.01.2020
4479 Clouds 8 1019 45 10000 3.1 150 14:47 14.01.2020
4480 Clouds 8 1019 52 10000 2.1 150 14:23 14.01.2020
4481 Clouds 7 1019 52 10000 2.1 140 13:59 14.01.2020
4482 Clouds 7 1019 52 10000 2.1 140 13:40 14.01.2020
4483 Clouds 7 1019 47 10000 1.5 150 13:19 14.01.2020
4484 Clouds 6 1020 47 10000 1.5 0 12:42 14.01.2020
4485 Clouds 6 1020 74 10000 2.1 120 12:23 14.01.2020
4486 Clouds 5 1020 80 10000 1.5 150 11:57 14.01.2020
4487 Clouds 4 1020 47 10000 1.5 160 11:39 14.01.2020
4488 Clouds 3 1020 50 10000 1.5 160 11:20 14.01.2020
4489 Clouds 2 1020 92 10000 1 120 10:56 14.01.2020
4490 Clouds 1 1019 92 10000 1 0 10:37 14.01.2020
4491 Clouds 1 1019 92 10000 1 0 10:19 14.01.2020
4492 Clouds 0 1019 86 10000 1 0 09:42 14.01.2020
4493 Clouds 0 1019 92 10000 1 0 09:23 14.01.2020
4494 Clouds -1 1019 85 10000 2.1 110 08:58 14.01.2020
4495 Clouds -1 1019 85 10000 2.1 110 08:39 14.01.2020
4496 Clouds -2 1019 92 10000 1.5 90 08:20 14.01.2020
4497 Clouds -2 1019 92 10000 1.5 80 07:46 14.01.2020
4498 Fog -1 1019 100 50 0.5 280 07:18 14.01.2020
4499 Clouds -1 1019 92 10000 0.93 186 06:42 14.01.2020
4500 Clouds -1 1018 100 10000 0.5 0 05:57 14.01.2020
4501 Fog -1 1019 100 50 1.5 250 04:49 14.01.2020
4502 Clouds -1 1019 85 10000 0.5 0 03:45 14.01.2020
4503 Clouds -1 1019 92 10000 0.5 0 02:32 14.01.2020
4504 Clouds -1 1019 100 10000 1.5 0 01:19 14.01.2020
4505 Clouds -1 1019 100 10000 1.5 0 00:47 14.01.2020
4506 Mist -1 1020 100 1700 0.66 197 00:21 14.01.2020
4507 Mist -1 1020 100 1700 0.66 197 00:21 14.01.2020
4508 Fog 0 1020 92 100 0.5 0 23:42 13.01.2020
4509 Clouds -1 1019 92 10000 0.5 0 23:19 13.01.2020
4510 Mist 0 1019 100 3300 1 290 22:56 13.01.2020
4511 Mist 0 1019 100 2200 0.5 150 22:37 13.01.2020
4512 Mist 0 1019 100 2200 0.5 150 22:19 13.01.2020
4513 Clouds 0 1019 86 10000 0.5 0 21:55 13.01.2020
4514 Clouds 0 1019 92 10000 1.5 0 21:36 13.01.2020
4515 Clouds 0 1019 92 10000 1.5 0 21:18 13.01.2020
4516 Clouds 0 1020 92 10000 0.5 0 20:42 13.01.2020
4517 Clouds 1 1020 92 10000 1.5 0 20:23 13.01.2020
4518 Clouds 1 1020 92 10000 1.5 0 20:23 13.01.2020
4519 Clouds 1 1020 92 10000 1.5 0 20:00 13.01.2020
4520 Clouds 1 1020 92 10000 1.5 0 19:41 13.01.2020
4521 Clouds 1 1020 86 10000 1 0 19:20 13.01.2020
4522 Clouds 1 1020 86 10000 1 0 18:58 13.01.2020
4523 Clouds 1 1020 73 10000 0.5 0 18:38 13.01.2020
4524 Clouds 2 1020 73 10000 0.5 0 18:19 13.01.2020
4525 Clouds 2 1020 73 10000 0.5 0 18:19 13.01.2020
4526 Clouds 2 1020 74 10000 1 300 17:58 13.01.2020
4527 Clouds 2 1020 74 10000 1 300 17:38 13.01.2020
4528 Clouds 3 1019 80 10000 1.5 320 17:20 13.01.2020
4529 Clouds 4 1021 71 0 0.89 314 16:42 13.01.2020
4530 Clouds 5 1021 69 0 0.68 228 16:22 13.01.2020
4531 Clouds 6 926 43 0 0.68 228 15:58 13.01.2020
4532 Clouds 6 1021 66 0 0.68 228 15:40 13.01.2020
4533 Clouds 6 1021 67 0 0.89 309 15:20 13.01.2020
4534 Clouds 5 1022 70 0 1.79 323 14:43 13.01.2020
4535 Clouds 5 927 45 0 0.68 228 14:24 13.01.2020
4536 Clouds 5 927 44 0 0.82 306 13:59 13.01.2020
4537 Clouds 4 1022 68 0 0.89 211 13:40 13.01.2020
4538 Clouds 4 1023 70 0 0.82 306 13:21 13.01.2020
4539 Clouds 4 1023 73 0 0.68 290 12:57 13.01.2020
4540 Clouds 4 1024 80 10000 1 0 12:39 13.01.2020
4541 -273 0 0 0 0 0 12:21 13.01.2020
4542 Clouds 3 1024 80 10000 1.5 0 11:39 13.01.2020
4543 Clouds 2 1024 80 10000 1.5 0 11:20 13.01.2020
4544 Clouds 1 1024 92 10000 1.5 140 10:57 13.01.2020
4545 Clouds 1 1024 92 10000 1.5 150 10:39 13.01.2020
4546 Clouds 1 1024 92 10000 1.5 150 10:39 13.01.2020
4547 Clouds 1 1024 92 10000 1.5 150 10:20 13.01.2020
4548 Clouds 0 1024 100 10000 1 160 09:58 13.01.2020
4549 Clouds 0 1024 92 10000 1.04 185 09:38 13.01.2020
4550 Clouds 0 1024 92 10000 1.04 185 09:19 13.01.2020
4551 Clouds 0 1024 92 10000 1.04 185 08:41 13.01.2020
4552 Clouds -1 1024 92 10000 0.5 0 08:20 13.01.2020
4553 Clouds -1 1024 100 10000 0.5 0 07:48 13.01.2020
4554 Clouds -1 1024 100 10000 1.5 140 07:27 13.01.2020
4555 Clouds -1 1025 92 10000 0.5 0 06:43 13.01.2020
4556 Clouds -1 1025 92 10000 0.5 0 06:21 13.01.2020
4557 Clouds -1 1025 92 10000 0.5 0 05:27 13.01.2020
4558 Clouds -1 1026 100 10000 0.5 0 03:55 13.01.2020
4559 Clouds -1 1026 92 10000 0.99 173 03:24 13.01.2020
4560 Clouds -1 1026 92 10000 1 0 02:45 13.01.2020
4561 Clouds -1 1026 100 10000 0.5 90 02:26 13.01.2020
4562 Clouds -1 1027 92 10000 0.5 0 01:21 13.01.2020
4563 Clouds 0 1027 92 10000 1 0 00:41 13.01.2020
4564 Clouds 0 1027 92 10000 0.5 0 00:23 13.01.2020
4565 Clouds 0 1027 92 10000 2.1 160 23:54 12.01.2020
4566 Clouds 0 1028 92 10000 0.5 0 23:36 12.01.2020
4567 Clouds 0 1028 92 10000 0.5 0 23:18 12.01.2020
4568 Clouds 0 1028 92 10000 1.5 0 22:41 12.01.2020
4569 Clouds 0 1028 92 10000 1.5 0 22:23 12.01.2020
4570 Clouds 0 1028 86 10000 1.5 140 21:56 12.01.2020
4571 Clouds 0 1028 72 10000 1.5 160 21:38 12.01.2020
4572 Clouds 0 1028 72 10000 1.5 160 21:38 12.01.2020
4573 Clouds 1 1028 72 10000 1.5 160 21:19 12.01.2020
4574 Clouds 1 1028 86 10000 1.5 0 20:56 12.01.2020
4575 Clouds 1 1028 86 10000 1.5 0 20:56 12.01.2020
4576 Clouds 1 1028 92 10000 0.5 0 20:38 12.01.2020
4577 Clouds 1 1028 92 10000 0.5 0 20:20 12.01.2020
4578 Clouds 1 1028 72 10000 1.5 0 19:56 12.01.2020
4579 Clouds 1 1028 72 10000 2.6 90 19:37 12.01.2020
4580 Clouds 1 1028 72 10000 2.6 90 19:18 12.01.2020
4581 Clouds 2 1028 80 10000 3.6 100 18:57 12.01.2020
4582 Clouds 2 1027 80 10000 3.6 120 18:39 12.01.2020
4583 Clouds 2 1027 80 10000 3.6 120 18:21 12.01.2020
4584 Clouds 3 1027 80 10000 2.1 100 17:43 12.01.2020
4585 Clouds 4 1027 74 10000 1 0 17:23 12.01.2020
4586 Clouds 4 1027 74 10000 1 0 17:23 12.01.2020
4587 Clouds 4 1027 60 10000 2.6 140 16:59 12.01.2020
4588 Clouds 5 1027 60 10000 2.6 140 16:40 12.01.2020
4589 Clouds 5 1027 60 10000 1.5 150 16:21 12.01.2020
4590 Clouds 6 1027 56 10000 2.1 160 15:58 12.01.2020
4591 Clouds 6 1027 70 10000 2.1 170 15:39 12.01.2020
4592 Clouds 6 1027 70 10000 2.1 170 15:21 12.01.2020
4593 Clouds 6 1027 70 10000 2.1 160 14:43 12.01.2020
4594 Clouds 6 1028 60 10000 1.5 0 14:25 12.01.2020
4595 Clouds 5 1028 58 10000 1.5 150 13:57 12.01.2020
4596 Clouds 5 1028 58 10000 1.5 150 13:57 12.01.2020
4597 Clouds 5 1028 58 10000 1.5 150 13:39 12.01.2020
4598 Clouds 5 1028 58 10000 1 0 13:20 12.01.2020
4599 Clouds 4 1029 69 10000 1.5 180 12:57 12.01.2020
4600 Clouds 4 1029 56 10000 1.5 150 12:38 12.01.2020
4601 Clouds 4 1029 56 10000 1.5 150 12:19 12.01.2020
4602 Clouds 3 1029 80 10000 1 0 11:42 12.01.2020
4603 Clouds 2 1029 56 10000 1 0 11:22 12.01.2020
4604 Clouds 1 1029 92 10000 2.1 170 10:57 12.01.2020
4605 Clouds 1 1029 92 10000 2.1 170 10:39 12.01.2020
4606 Clouds 1 1029 92 10000 2.1 170 10:39 12.01.2020
4607 Clouds 0 1029 100 10000 2.1 160 10:20 12.01.2020
4608 Clouds 0 1029 92 10000 2.1 140 09:42 12.01.2020
4609 Clouds 0 1029 92 10000 2.1 130 09:23 12.01.2020
4610 Clouds -1 1029 92 10000 1.5 130 08:48 12.01.2020
4611 Clouds -1 1029 92 10000 2.6 140 08:24 12.01.2020
4612 Clouds -1 1029 100 10000 1.5 150 07:56 12.01.2020
4613 Clouds -1 1028 92 10000 2.1 130 07:37 12.01.2020
4614 Clouds -1 1028 92 10000 2.1 130 07:19 12.01.2020
4615 Clouds -1 1028 100 10000 1.5 150 06:40 12.01.2020
4616 Clouds -1 1028 100 5000 0.5 0 05:58 12.01.2020
4617 Fog -1 1029 100 150 0.5 0 05:18 12.01.2020
4618 Clear -1 1029 100 6000 0.5 0 03:44 12.01.2020
4619 Clouds -1 1029 92 5000 0.5 0 02:52 12.01.2020
4620 Fog -1 1029 100 50 1.04 216 02:27 12.01.2020
4621 Fog 0 1030 92 250 0.82 180 01:35 12.01.2020
4622 Fog -1 1029 100 2200 0.5 0 00:57 12.01.2020
4623 Clear 0 1030 92 7000 0.5 0 00:37 12.01.2020
4624 Clear 0 1030 92 7000 0.5 0 00:18 12.01.2020
4625 Mist 0 1030 100 2100 0.5 180 23:41 11.01.2020
4626 Fog 0 1030 100 700 0.64 119 23:19 11.01.2020
4627 Clear 0 1030 92 6000 1 150 22:56 11.01.2020
4628 Clear 0 1030 100 9000 0.5 210 22:38 11.01.2020
4629 Clear 1 1030 100 9000 0.5 210 22:20 11.01.2020
4630 Clear 1 1030 94 10000 0.5 240 21:54 11.01.2020
4631 Clear 0 1030 92 8000 0.5 0 21:36 11.01.2020
4632 Clear 1 1030 92 8000 0.5 0 21:18 11.01.2020
4633 Clear 1 1030 94 10000 0.5 180 20:39 11.01.2020
4634 Clouds 2 1030 100 8000 0.5 0 20:20 11.01.2020
4635 Clouds 2 1030 100 10000 1 120 19:57 11.01.2020
4636 Clouds 2 1030 95 10000 0.5 300 19:38 11.01.2020
4637 Clouds 2 1030 95 10000 0.5 300 19:20 11.01.2020
4638 Clouds 2 1030 95 10000 0.79 46 18:56 11.01.2020
4639 Clouds 3 1030 95 10000 1.5 250 18:37 11.01.2020
4640 Clouds 3 1030 95 10000 1.5 250 18:19 11.01.2020
4641 Clouds 4 1030 75 10000 1 0 17:57 11.01.2020
4642 Clouds 4 1030 75 10000 1 0 17:39 11.01.2020
4643 Clouds 5 1030 70 10000 2.1 20 17:18 11.01.2020
4644 Clouds 6 1030 65 10000 1.5 40 16:44 11.01.2020
4645 Clouds 6 1030 70 10000 2.6 360 16:25 11.01.2020
4646 Clouds 6 1030 65 10000 2.1 10 15:56 11.01.2020
4647 Clouds 6 1030 65 10000 1 0 15:38 11.01.2020
4648 Clouds 6 1030 65 10000 1 0 15:20 11.01.2020
4649 Clouds 7 1030 65 10000 3.1 320 14:46 11.01.2020
4650 Clouds 7 1030 65 10000 3.1 320 14:25 11.01.2020
4651 Clouds 7 1031 65 10000 3.6 250 13:57 11.01.2020
4652 Clouds 7 1031 65 10000 2.1 240 13:38 11.01.2020
4653 Clouds 7 1031 65 10000 2.1 240 13:20 11.01.2020
4654 Clouds 7 1031 70 10000 1.5 270 12:55 11.01.2020
4655 Clouds 6 1031 80 10000 0.5 0 12:36 11.01.2020
4656 Clouds 6 1031 80 10000 0.5 0 12:18 11.01.2020
4657 Clouds 5 1031 86 10000 0.5 0 11:42 11.01.2020
4658 Clouds 4 1032 93 10000 1 0 11:23 11.01.2020
4659 Clear 4 1032 100 10000 1 140 10:46 11.01.2020
4660 Clear 3 1032 91 10000 1.33 57 10:24 11.01.2020
4661 Fog 3 1032 91 10000 1 0 09:43 11.01.2020
4662 Fog 2 1032 100 8000 0.5 0 09:21 11.01.2020
4663 Fog 2 1032 100 10000 1 120 08:43 11.01.2020
4664 Fog 2 1032 100 10000 1.48 50 08:24 11.01.2020
4665 Fog 2 1032 100 10000 1 0 07:59 11.01.2020
4666 Clouds 2 1031 100 10000 1.5 150 07:41 11.01.2020
4667 Clouds 2 1031 100 10000 1.5 150 07:22 11.01.2020
4668 Clouds 2 1031 97 10000 1 320 06:42 11.01.2020
4669 Clouds 3 1031 100 10000 1 0 05:22 11.01.2020
4670 Clouds 3 1032 93 10000 1 130 04:38 11.01.2020
4671 Clouds 3 1032 93 10000 1 130 04:20 11.01.2020
4672 Rain 3 1031 93 10000 1.5 150 02:46 11.01.2020
4673 Clouds 4 1030 93 10000 0.5 0 01:45 11.01.2020
4674 Clouds 4 1030 93 10000 0.5 0 01:25 11.01.2020
4675 Clouds 4 1030 86 10000 0.88 149 00:52 11.01.2020
4676 Clouds 4 1030 86 10000 1 0 00:24 11.01.2020
4677 Clouds 4 1030 86 10000 0.5 0 23:58 10.01.2020
4678 Clouds 4 1030 93 10000 0.5 0 23:38 10.01.2020
4679 Clouds 4 1030 93 10000 0.5 0 23:20 10.01.2020
4680 Clouds 4 1029 93 10000 1 0 22:41 10.01.2020
4681 Clouds 4 1029 86 10000 1 0 22:22 10.01.2020
4682 Clouds 5 1029 93 10000 1 120 21:58 10.01.2020
4683 Clouds 5 1029 93 10000 1 120 21:40 10.01.2020
4684 Clouds 5 1029 93 10000 0.5 0 21:20 10.01.2020
4685 Clouds 5 1029 93 10000 0.5 0 21:20 10.01.2020
4686 Clouds 5 1028 86 10000 1 280 20:56 10.01.2020
4687 Clouds 5 1028 86 10000 0.5 0 20:38 10.01.2020
4688 Clouds 5 1028 86 10000 0.5 0 20:19 10.01.2020
4689 Clouds 5 1027 80 10000 2.1 200 19:40 10.01.2020
4690 Clouds 5 1027 86 10000 1.5 60 19:20 10.01.2020
4691 Clouds 6 1027 75 10000 1.5 0 18:54 10.01.2020
4692 Clouds 6 1027 80 10000 1 20 18:36 10.01.2020
4693 Clouds 6 1027 80 10000 1 20 18:18 10.01.2020
4694 Clouds 6 1027 80 10000 1 20 18:18 10.01.2020
4695 Clouds 6 1026 70 10000 1.5 240 17:55 10.01.2020
4696 Clouds 6 1026 65 10000 3.6 290 17:37 10.01.2020
4697 Clouds 7 1026 65 10000 3.6 290 17:18 10.01.2020
4698 Clouds 8 1025 61 10000 3.6 270 16:41 10.01.2020
4699 Clouds 8 1025 61 10000 3.6 270 16:21 10.01.2020
4700 Clouds 8 1024 61 10000 3.6 290 15:56 10.01.2020
4701 Clouds 8 1024 61 10000 5.1 280 15:37 10.01.2020
4702 Clouds 8 1024 61 10000 5.1 280 15:19 10.01.2020
4703 Clouds 8 1024 61 10000 5.1 280 15:19 10.01.2020
4704 Clouds 8 1023 61 10000 5.1 280 14:57 10.01.2020
4705 Clouds 8 1023 57 10000 6.2 270 14:39 10.01.2020
4706 Clouds 8 1023 57 10000 6.2 270 14:19 10.01.2020
4707 Clouds 9 1023 57 10000 4.1 270 13:54 10.01.2020
4708 Clouds 9 1023 61 10000 4.1 260 13:36 10.01.2020
4709 Clouds 9 1023 61 10000 4.1 260 13:18 10.01.2020
4710 Clouds 8 1022 66 10000 4.6 290 12:54 10.01.2020
4711 Clouds 8 1022 70 10000 3.6 270 12:36 10.01.2020
4712 Clouds 8 1022 70 10000 3.6 270 12:18 10.01.2020
4713 Clouds 7 1022 80 10000 1 250 11:42 10.01.2020
4714 Clouds 7 1022 80 10000 1 250 11:42 10.01.2020
4715 Clouds 7 1022 80 10000 1 250 11:42 10.01.2020
4716 Clouds 7 1022 80 10000 1 250 11:42 10.01.2020
4717 Clouds 7 1023 70 10000 1.5 30 11:42 10.01.2020
4718 Clouds 6 1022 80 10000 1 250 11:21 10.01.2020
4719 Clouds 6 1022 86 10000 1 130 10:59 10.01.2020
4720 Clouds 5 1022 93 10000 0.5 0 10:38 10.01.2020
4721 Clouds 5 1022 93 10000 0.5 0 10:19 10.01.2020
4722 Clouds 4 1022 84 10000 1 260 09:46 10.01.2020
4723 Clouds 4 1021 86 10000 1 0 09:26 10.01.2020
4724 Clouds 4 1021 86 10000 0.5 0 08:58 10.01.2020
4725 Clouds 4 1021 86 10000 1 0 08:38 10.01.2020
4726 Clouds 4 1021 86 10000 1 0 08:20 10.01.2020
4727 Clouds 4 1021 86 10000 1.75 188 07:41 10.01.2020
4728 Clouds 4 1021 80 10000 1 150 07:41 10.01.2020
4729 Clouds 4 1021 80 10000 1 150 07:22 10.01.2020
4730 Clouds 4 1021 80 10000 2.1 170 06:42 10.01.2020
4731 Clouds 4 1021 80 10000 2.1 170 06:24 10.01.2020
4732 Clouds 4 1020 65 10000 4.1 320 05:33 10.01.2020
4733 Clouds 5 1020 49 10000 7.2 270 03:34 10.01.2020
4734 Clouds 5 1019 49 10000 8.2 270 02:54 10.01.2020
4735 Clouds 5 1019 45 10000 6.7 270 02:33 10.01.2020
4736 Clouds 4 1019 74 10000 1.5 0 01:34 10.01.2020
4737 Clouds 4 1019 75 10000 1 0 00:56 10.01.2020
4738 Clouds 3 1019 92 10000 0.5 0 00:38 10.01.2020
4739 Clouds 3 1019 75 10000 2.1 150 23:57 09.01.2020
4740 Clouds 3 1019 75 10000 1 0 23:37 09.01.2020
4741 Clouds 3 1019 79 10000 1 0 23:19 09.01.2020
4742 Clouds 3 1019 79 10000 1 0 23:19 09.01.2020
4743 Clouds 3 1018 100 10000 1.5 120 22:56 09.01.2020
4744 Clouds 3 1019 92 10000 0.5 0 22:37 09.01.2020
4745 Clouds 3 1019 92 10000 0.5 0 22:18 09.01.2020
4746 Clouds 3 1019 92 10000 0.5 0 21:55 09.01.2020
4747 Clouds 2 1019 79 10000 0.5 0 21:37 09.01.2020
4748 Clouds 3 1019 79 10000 0.5 0 21:18 09.01.2020
4749 Clouds 3 1019 86 10000 1 0 20:55 09.01.2020
4750 Clouds 3 1019 80 10000 2.6 110 20:37 09.01.2020
4751 Clouds 4 1019 80 10000 2.6 110 20:19 09.01.2020
4752 Clouds 3 1019 80 10000 2.6 110 19:54 09.01.2020
4753 Clouds 3 1020 77 10000 2.1 120 19:36 09.01.2020
4754 Clouds 4 1020 80 10000 2.1 120 19:18 09.01.2020
4755 Clouds 4 1020 86 10000 1.58 165 18:40 09.01.2020
4756 Clouds 4 1020 80 10000 2.6 120 18:22 09.01.2020
4757 Clouds 4 1020 80 10000 2.6 120 17:58 09.01.2020
4758 Clouds 5 1020 74 10000 1.5 110 17:40 09.01.2020
4759 Clouds 6 1020 64 10000 1.5 140 17:18 09.01.2020
4760 Clouds 7 1020 60 10000 2.1 140 16:46 09.01.2020
4761 Clouds 7 1020 52 10000 2.1 120 16:22 09.01.2020
4762 Clouds 8 1021 52 10000 2.6 160 15:43 09.01.2020
4763 Clouds 8 1021 46 10000 1.5 200 15:25 09.01.2020
4764 Clouds 8 1021 46 10000 1.5 200 14:59 09.01.2020
4765 Clouds 8 1021 65 10000 1.5 190 14:41 09.01.2020
4766 Clouds 8 1022 56 10000 1 210 14:19 09.01.2020
4767 Clouds 8 1022 56 10000 1 210 13:56 09.01.2020
4768 Clouds 7 1022 52 10000 1 220 13:38 09.01.2020
4769 Clouds 7 1023 52 10000 1.5 0 13:19 09.01.2020
4770 Clouds 7 1023 52 10000 1.5 0 12:56 09.01.2020
4771 Clouds 7 1023 52 10000 1.15 281 12:38 09.01.2020
4772 Clouds 6 1024 52 10000 1 0 12:18 09.01.2020
4773 Clouds 5 1024 74 10000 1 0 11:42 09.01.2020
4774 Clouds 4 1025 80 10000 1 0 11:24 09.01.2020
4775 Clouds 4 1025 80 10000 1 0 10:59 09.01.2020
4776 Clouds 3 1025 80 10000 1 250 10:41 09.01.2020
4777 Clouds 2 1025 92 10000 1 150 10:21 09.01.2020
4778 Clouds 2 1025 92 10000 0.88 218 09:47 09.01.2020
4779 Clouds 2 1025 92 10000 1 140 09:25 09.01.2020
4780 Clouds 1 1025 92 10000 1 140 08:59 09.01.2020
4781 Clouds 1 1025 92 10000 1.5 130 08:39 09.01.2020
4782 Clouds 1 1026 92 10000 1 0 08:21 09.01.2020
4783 Clouds 1 1026 92 10000 1 0 07:53 09.01.2020
4784 Clouds 1 1026 92 10000 1 0 07:33 09.01.2020
4785 Clouds 1 1026 92 10000 2.6 130 06:52 09.01.2020
4786 Clouds 1 1026 92 10000 2.6 130 06:32 09.01.2020
4787 Clouds 1 1027 92 10000 0.5 0 05:52 09.01.2020
4788 Clouds 1 1027 92 10000 0.5 0 05:26 09.01.2020
4789 Clouds 1 1027 92 10000 1 0 04:40 09.01.2020
4790 Clouds 2 1028 86 10000 2.1 340 03:27 09.01.2020
4791 Clouds 2 1028 92 10000 2.6 120 02:46 09.01.2020
4792 Clouds 2 1029 57 10000 0.5 0 01:42 09.01.2020
4793 Clouds 2 1029 58 10000 0.5 0 01:18 09.01.2020
4794 Clouds 2 1029 100 10000 0.5 0 00:38 09.01.2020
4795 Clouds 2 1029 100 10000 1 0 00:19 09.01.2020
4796 Clouds 2 1029 100 10000 1 0 00:19 09.01.2020
4797 Clouds 1 1030 92 10000 1 0 23:40 08.01.2020
4798 Clouds 2 1030 100 9000 1 0 23:22 08.01.2020
4799 Clouds 2 1030 100 9000 1 0 22:56 08.01.2020
4800 Clouds 2 1029 100 10000 2.1 130 22:37 08.01.2020
4801 Clouds 2 1029 100 8000 0.5 0 22:18 08.01.2020
4802 Clouds 2 1029 100 8000 0.5 0 21:55 08.01.2020
4803 Clouds 2 1030 92 9000 1.22 187 21:37 08.01.2020
4804 Clouds 2 1030 63 9000 0.5 0 21:18 08.01.2020
4805 Clouds 2 1029 63 10000 0.5 0 20:41 08.01.2020
4806 Clouds 2 1030 66 10000 0.5 0 20:21 08.01.2020
4807 Clouds 2 1030 66 10000 0.5 0 19:59 08.01.2020
4808 Clouds 2 1030 66 10000 1.52 160 19:38 08.01.2020
4809 Clouds 2 1030 66 10000 1.5 0 19:20 08.01.2020
4810 Clouds 2 1030 66 10000 1.5 0 18:58 08.01.2020
4811 Clouds 3 1030 86 10000 1 0 18:39 08.01.2020
4812 Clouds 3 1030 86 10000 1 0 18:19 08.01.2020
4813 Clouds 3 1030 86 10000 1 0 17:57 08.01.2020
4814 Clouds 3 1029 66 10000 1 0 17:38 08.01.2020
4815 Clouds 4 1029 75 10000 1 0 17:19 08.01.2020
4816 Clouds 4 1029 75 10000 1 0 16:56 08.01.2020
4817 Clouds 5 1029 70 10000 2.1 230 16:38 08.01.2020
4818 Clouds 5 1029 65 10000 1.5 250 16:18 08.01.2020
4819 Clouds 6 1029 65 10000 2.1 240 15:44 08.01.2020
4820 Clouds 6 1029 65 10000 1.5 260 15:21 08.01.2020
4821 Clouds 6 1029 65 10000 1.5 260 14:58 08.01.2020
4822 Clouds 6 1030 63 10000 2.1 300 14:40 08.01.2020
4823 Clouds 6 1030 63 10000 2.1 300 14:40 08.01.2020
4824 Clouds 6 1030 63 10000 2.1 300 14:40 08.01.2020
4825 Clouds 6 1030 50 10000 2.1 260 14:21 08.01.2020
4826 Clouds 5 1030 75 10000 1.5 0 13:41 08.01.2020
4827 Clouds 5 1030 75 10000 1.5 0 13:22 08.01.2020
4828 Clouds 5 1030 75 10000 1.5 0 13:22 08.01.2020
4829 Clouds 5 1030 75 10000 1.5 0 12:55 08.01.2020
4830 Clouds 5 1031 100 10000 1 0 12:37 08.01.2020
4831 Clouds 4 1032 100 10000 1 0 12:18 08.01.2020
4832 Clouds 3 1032 50 10000 0.5 0 11:48 08.01.2020
4833 Clouds 3 1032 50 10000 0.5 0 11:48 08.01.2020
4834 Clouds 2 1032 62 10000 1 0 11:19 08.01.2020
4835 Clouds 2 1032 62 10000 1 0 10:59 08.01.2020
4836 Clouds 2 1032 62 10000 1 0 10:59 08.01.2020
4837 Clouds 1 1032 100 9000 1 120 10:40 08.01.2020
4838 Clouds 1 1032 100 8000 1.5 160 10:21 08.01.2020
4839 Clouds 0 1032 100 8000 1.5 160 10:21 08.01.2020
4840 Fog 0 1032 62 500 1 280 09:43 08.01.2020
4841 Fog 0 1032 62 500 1 300 09:20 08.01.2020
4842 Fog -1 1032 62 500 1 300 08:58 08.01.2020
4843 Fog -1 1031 92 10000 0.5 0 08:39 08.01.2020
4844 Fog -1 1031 74 150 1 240 08:20 08.01.2020
4845 Fog -1 1031 74 250 1 260 07:52 08.01.2020
4846 Fog -1 1031 74 250 1 260 07:33 08.01.2020
4847 Fog -1 1031 74 250 1.5 280 06:58 08.01.2020
4848 Fog -1 1030 92 350 2.6 140 06:40 08.01.2020
4849 Fog -1 1030 100 100 0.5 0 05:54 08.01.2020
4850 Fog -1 1030 100 100 0.5 0 05:25 08.01.2020
4851 Fog -1 1030 92 100 1 0 04:35 08.01.2020
4852 Fog 0 1030 100 100 0.5 0 02:46 08.01.2020
4853 Fog -1 1030 100 100 0.5 0 02:28 08.01.2020
4854 Fog 0 1030 100 100 0.5 0 01:54 08.01.2020
4855 Fog 0 1029 100 100 0.5 160 01:29 08.01.2020
4856 Mist 0 1030 87 2300 2.1 180 00:42 08.01.2020
4857 Fog 0 1030 100 350 2.1 260 00:21 08.01.2020
4858 Fog 0 1030 100 550 1 220 23:45 07.01.2020
4859 Mist 1 1031 92 3000 0.5 170 23:20 07.01.2020
4860 Fog 1 1030 100 5000 0.5 0 22:41 07.01.2020
4861 Fog 1 1030 92 3400 1 320 22:21 07.01.2020
4862 Fog 1 1030 92 3400 1 320 21:58 07.01.2020
4863 Clouds 2 1030 100 5000 1 10 21:40 07.01.2020
4864 Clouds 2 1030 92 9000 0.5 0 21:21 07.01.2020
4865 Clouds 2 1030 92 9000 0.5 0 20:57 07.01.2020
4866 Clouds 2 1030 92 10000 1.5 90 20:39 07.01.2020
4867 Clouds 3 1030 100 8000 1 330 20:21 07.01.2020
4868 Clouds 3 1030 100 8000 1 330 19:56 07.01.2020
4869 Clouds 3 1030 93 7000 0.5 0 19:37 07.01.2020
4870 Clouds 3 1030 93 10000 0.92 79 19:18 07.01.2020
4871 Clouds 3 1030 93 10000 0.92 79 19:18 07.01.2020
4872 Clouds 3 1030 93 10000 0.5 0 18:55 07.01.2020
4873 Clouds 3 1030 93 10000 0.5 0 18:37 07.01.2020
4874 Clouds 3 1029 93 10000 0.92 79 18:18 07.01.2020
4875 Clouds 4 1029 80 10000 3.1 300 17:40 07.01.2020
4876 Clouds 5 1028 84 10000 1.5 0 17:22 07.01.2020
4877 Clouds 5 1028 84 10000 1.5 0 16:57 07.01.2020
4878 Clouds 6 1028 65 10000 1 240 16:38 07.01.2020
4879 Clouds 6 1028 65 10000 1 240 16:38 07.01.2020
4880 Clouds 6 1028 65 10000 1 240 16:38 07.01.2020
4881 Clear 6 1028 65 10000 1 0 16:19 07.01.2020
4882 Clear 6 1028 65 10000 1 0 15:59 07.01.2020
4883 Clear 6 1028 61 10000 2.1 240 15:40 07.01.2020
4884 Clear 7 1028 65 10000 2.1 250 15:22 07.01.2020
4885 Clear 7 1028 65 10000 2.1 250 14:56 07.01.2020
4886 Clear 7 1029 70 10000 1 0 14:37 07.01.2020
4887 Clouds 7 1029 61 10000 1.5 0 14:19 07.01.2020
4888 Clouds 6 1029 70 10000 1.5 140 13:40 07.01.2020
4889 Clouds 6 1030 80 10000 1.5 0 13:19 07.01.2020
4890 Clouds 5 1030 86 10000 0.5 0 12:42 07.01.2020
4891 Clouds 4 1031 93 10000 1 320 12:21 07.01.2020
4892 Clouds 4 1031 93 10000 1 320 11:59 07.01.2020
4893 Clouds 3 1031 66 10000 1 210 11:40 07.01.2020
4894 Clouds 2 1031 72 10000 1.5 110 11:21 07.01.2020
4895 Clouds 2 1031 72 10000 1.5 0 10:42 07.01.2020
4896 Clouds 2 1031 72 10000 1.5 0 10:24 07.01.2020
4897 Clouds 1 1030 100 10000 1 230 09:59 07.01.2020
4898 Clouds 1 1030 92 10000 0.61 175 09:38 07.01.2020
4899 Clouds 1 1030 100 10000 1.5 0 09:20 07.01.2020
4900 Clouds 0 1030 92 8000 0.61 175 08:46 07.01.2020
4901 Fog 0 1029 72 250 2.1 250 08:26 07.01.2020
4902 Drizzle 0 1028 93 9000 2.6 230 07:54 07.01.2020
4903 Fog 0 1029 74 200 1 230 07:29 07.01.2020
4904 Mist 0 1029 74 1200 1.5 220 06:54 07.01.2020
4905 Mist 0 1029 74 1200 1.5 220 06:54 07.01.2020
4906 Mist 0 1029 74 1200 1.5 220 06:35 07.01.2020
4907 Clouds 0 1028 92 6000 1 0 05:57 07.01.2020
4908 Clouds 0 1029 92 7000 1.5 280 05:35 07.01.2020
4909 Clouds -1 1029 92 7000 1 280 03:29 07.01.2020
4910 Fog -1 1028 100 4500 1.5 180 02:25 07.01.2020
4911 Fog -1 1028 100 4500 1.5 180 01:57 07.01.2020
4912 Snow -1 1028 92 4100 1 0 01:32 07.01.2020
4913 Fog -1 1028 100 300 1.5 130 00:40 07.01.2020
4914 Fog -1 1029 100 100 1 0 00:20 07.01.2020
4915 Fog -1 1029 100 100 1 0 23:55 06.01.2020
4916 Fog -1 1029 100 100 0.5 0 23:36 06.01.2020
4917 Fog 0 1029 92 100 1 0 23:18 06.01.2020
4918 Fog 0 1029 92 50 1 0 22:43 06.01.2020
4919 Fog 0 1029 100 50 1 0 22:23 06.01.2020
4920 Fog 0 1029 100 50 1 0 21:57 06.01.2020
4921 Fog 0 1029 100 100 1 0 21:39 06.01.2020
4922 Fog 0 1029 92 150 0.5 0 21:20 06.01.2020
4923 Fog 0 1029 92 150 0.5 0 21:20 06.01.2020
4924 Fog 0 1029 92 150 0.5 0 20:56 06.01.2020
4925 Fog 0 1028 100 150 1 290 20:38 06.01.2020
4926 Fog 0 1028 100 350 1 0 20:20 06.01.2020
4927 Fog 0 1028 100 350 1 0 19:56 06.01.2020
4928 Mist 0 1028 100 1500 2.1 330 19:38 06.01.2020
4929 Clear 0 1027 83 10000 2.1 290 19:19 06.01.2020
4930 Clear 0 1027 83 6000 1.5 300 18:47 06.01.2020
4931 Clear 0 1027 83 6000 1.5 300 18:47 06.01.2020
4932 Clear 0 1027 83 10000 0.5 290 18:21 06.01.2020
4933 Clear 1 1027 83 10000 0.5 290 17:58 06.01.2020
4934 Clear 1 1027 86 10000 1 310 17:37 06.01.2020
4935 Clear 2 1027 86 10000 2.1 300 17:18 06.01.2020
4936 Clear 2 1027 73 10000 3.1 280 16:44 06.01.2020
4937 Clear 2 1027 73 10000 2.1 280 16:25 06.01.2020
4938 Clear 3 1027 73 10000 2.1 280 15:59 06.01.2020
4939 Clear 4 1027 65 10000 1 230 15:38 06.01.2020
4940 Clear 4 1027 60 10000 1 0 15:18 06.01.2020
4941 Clear 4 1027 60 10000 1 0 14:56 06.01.2020
4942 Rain 4 1027 60 10000 1 0 14:37 06.01.2020
4943 Rain 4 1027 60 10000 1 0 14:18 06.01.2020
4944 Clear 3 1028 69 10000 1 0 13:41 06.01.2020
4945 Clear 3 1029 53 10000 1 0 13:22 06.01.2020
4946 Clear 3 1029 54 10000 1 0 12:59 06.01.2020
4947 Clear 4 1029 54 10000 0.83 245 12:41 06.01.2020
4948 Clear 3 1030 54 10000 0.83 245 12:20 06.01.2020
4949 Clear 3 1030 54 10000 0.83 245 12:20 06.01.2020
4950 Clear 3 1030 54 10000 0.83 245 11:56 06.01.2020
4951 Clear 3 1030 54 10000 0.5 0 11:38 06.01.2020
4952 Clear 1 1030 92 10000 1 0 11:20 06.01.2020
4953 Clear 0 1030 100 10000 1 150 10:42 06.01.2020
4954 Clear 0 1030 100 10000 1 150 10:42 06.01.2020
4955 Clear 0 1030 92 10000 0.75 242 10:21 06.01.2020
4956 Mist -1 1031 100 2000 1 250 09:42 06.01.2020
4957 Clear -2 1030 100 10000 0.75 242 09:24 06.01.2020
4958 Clear -2 1030 100 10000 0.75 242 08:58 06.01.2020
4959 Clear -2 1030 100 10000 0.75 242 08:58 06.01.2020
4960 Clear -2 1030 100 10000 0.75 242 08:58 06.01.2020
4961 Clear -2 1030 92 10000 0.5 330 08:39 06.01.2020
4962 Fog -2 1031 92 400 1 240 08:21 06.01.2020
4963 Fog -2 1031 92 400 1 240 08:21 06.01.2020
4964 Mist -2 1031 100 1500 0.5 240 07:46 06.01.2020
4965 Mist -2 1031 100 1300 1 150 07:21 06.01.2020
4966 Fog -2 1031 100 350 0.5 20 06:41 06.01.2020
4967 Clouds -2 1031 92 5000 0.5 0 05:51 06.01.2020
4968 Clouds -2 1031 92 5000 0.5 0 05:29 06.01.2020
4969 Fog -2 1031 100 250 0.5 230 04:25 06.01.2020
4970 Fog -2 1031 92 7000 0.5 0 03:52 06.01.2020
4971 Fog -2 1031 92 9000 0.5 0 02:32 06.01.2020
4972 Clear -2 1031 100 6000 1 200 01:55 06.01.2020
4973 Clear -2 1032 92 10000 1 320 01:32 06.01.2020
4974 Clear -1 1032 92 10000 0.3 22 00:48 06.01.2020
4975 Clear -1 1032 92 10000 0.3 22 00:29 06.01.2020
4976 Clouds -1 1032 92 7000 0.3 22 23:59 05.01.2020
4977 Clear -1 1032 100 7000 0.5 0 23:40 05.01.2020
4978 Clear -1 1032 100 10000 0.5 210 23:21 05.01.2020
4979 Clear -1 1032 92 10000 0.5 0 22:40 05.01.2020
4980 Clear -1 1032 92 9000 1 0 22:21 05.01.2020
4981 Clear 0 1032 92 9000 1 0 21:59 05.01.2020
4982 Clear 0 1032 92 10000 0.5 0 21:40 05.01.2020
4983 Clear 0 1032 92 10000 0.5 0 21:20 05.01.2020
4984 Clear 0 1032 92 10000 0.5 0 20:58 05.01.2020
4985 Clear 0 1032 92 10000 0.5 0 20:39 05.01.2020
4986 Clear 0 1032 92 10000 0.5 0 20:19 05.01.2020
4987 Clear 1 1032 92 10000 0.5 0 19:58 05.01.2020
4988 Clear 1 1032 86 10000 1.5 0 19:39 05.01.2020
4989 Clear 1 1032 86 10000 1.5 0 19:39 05.01.2020
4990 Clear 1 1032 95 10000 1 0 19:20 05.01.2020
4991 Clear 1 1032 95 10000 1 0 18:56 05.01.2020
4992 Clear 1 1032 80 10000 1 0 18:37 05.01.2020
4993 Clear 2 1032 80 10000 1 30 18:19 05.01.2020
4994 Clear 2 1032 80 10000 1 30 17:58 05.01.2020
4995 Clear 2 1032 74 10000 2.1 320 17:39 05.01.2020
4996 Clear 3 1032 69 10000 1.5 0 17:20 05.01.2020
4997 Clear 3 1032 69 10000 1.5 0 17:20 05.01.2020
4998 Clear 4 1032 65 10000 1.5 30 16:56 05.01.2020
4999 Clear 4 1032 65 10000 1.5 30 16:56 05.01.2020
5000 Clear 4 1032 65 10000 1.5 30 16:38 05.01.2020
5001 Clear 4 1032 82 10000 2.1 10 16:19 05.01.2020
5002 Clear 4 1032 82 10000 2.1 360 15:39 05.01.2020
5003 Clear 5 1032 70 10000 2.1 300 15:20 05.01.2020
5004 Clear 5 1032 70 10000 2.1 300 14:56 05.01.2020
5005 Clear 5 1032 82 10000 2.6 260 14:38 05.01.2020
5006 Clear 5 1032 75 10000 3.6 240 14:20 05.01.2020
5007 Clear 5 1032 75 10000 3.6 240 13:56 05.01.2020
5008 Clear 5 1033 75 10000 3.1 260 13:38 05.01.2020
5009 Clear 4 1033 74 10000 2.6 260 13:19 05.01.2020
5010 Clear 4 1033 74 10000 2.6 260 12:55 05.01.2020
5011 Clear 4 1033 74 10000 2.6 260 12:55 05.01.2020
5012 Clear 4 1033 74 10000 1.5 260 12:37 05.01.2020
5013 Clear 4 1033 74 10000 1 0 12:18 05.01.2020
5014 Clear 4 1033 74 10000 1 0 12:18 05.01.2020
5015 Clear 3 1034 80 10000 3.38 38 11:43 05.01.2020
5016 Clear 2 1034 89 10000 1 0 11:20 05.01.2020
5017 Clear 2 1034 89 10000 1 0 10:58 05.01.2020
5018 Clear 1 1034 100 10000 0.5 0 10:39 05.01.2020
5019 Clear 1 1034 100 10000 0.5 0 10:39 05.01.2020
5020 Clear 0 1034 100 10000 0.5 0 10:19 05.01.2020
5021 Clouds -1 1034 100 10000 2.05 47 09:42 05.01.2020
5022 Clear -1 1035 92 10000 2.6 40 09:22 05.01.2020
5023 Fog -1 1034 100 10000 0.5 0 08:50 05.01.2020
5024 Fog -1 1034 100 10000 0.5 0 08:31 05.01.2020
5025 Fog -1 1034 100 10000 0.5 0 07:57 05.01.2020
5026 Clouds -1 1034 100 9000 0.5 320 07:39 05.01.2020
5027 Clouds -1 1035 92 10000 2.6 20 07:20 05.01.2020
5028 Clouds -1 1034 100 10000 1 320 06:21 05.01.2020
5029 Clouds -1 1034 92 10000 0.5 0 05:33 05.01.2020
5030 Clouds -1 1034 92 10000 0.5 0 05:33 05.01.2020
5031 Clouds -1 1034 92 10000 1 320 04:48 05.01.2020
5032 Clouds 0 1034 92 10000 1 0 04:18 05.01.2020
5033 Clouds 0 1034 95 10000 0.5 0 02:46 05.01.2020
5034 Clouds 0 1034 95 10000 0.5 0 02:24 05.01.2020
5035 Clouds 1 1034 80 10000 0.5 0 01:48 05.01.2020
5036 Clouds 1 1035 74 10000 0.5 0 01:19 05.01.2020
5037 Clouds 1 1035 80 10000 1 0 00:54 05.01.2020
5038 Clouds 2 1035 80 10000 1 0 00:36 05.01.2020
5039 Clouds 2 1034 80 10000 0.5 0 00:18 05.01.2020
5040 Clouds 1 1034 95 10000 0.5 0 23:40 04.01.2020
5041 Clouds 2 1034 86 10000 1 0 23:19 04.01.2020
5042 Clouds 2 1034 86 10000 1.5 320 22:40 04.01.2020
5043 Clouds 2 1034 80 10000 1.5 310 22:22 04.01.2020
5044 Clouds 2 1034 80 10000 1.5 310 21:58 04.01.2020
5045 Clouds 2 1034 74 10000 1.5 290 21:40 04.01.2020
5046 Clouds 2 1034 93 10000 1 0 21:20 04.01.2020
5047 Clouds 3 1034 93 10000 1 0 20:59 04.01.2020
5048 Clouds 3 1033 93 10000 0.5 0 20:40 04.01.2020
5049 Clouds 3 1034 93 10000 1 310 20:21 04.01.2020
5050 Clouds 3 1034 93 10000 1 310 19:57 04.01.2020
5051 Clouds 3 1034 93 10000 1 310 19:57 04.01.2020
5052 Clouds 3 1033 93 10000 1 310 19:38 04.01.2020
5053 Clouds 3 1033 86 10000 1.5 330 19:20 04.01.2020
5054 Clouds 3 1033 93 10000 0.5 0 18:55 04.01.2020
5055 Clouds 3 1033 93 10000 0.5 0 18:36 04.01.2020
5056 Clouds 3 1032 92 10000 1 0 18:18 04.01.2020
5057 Clouds 4 1032 70 10000 1.5 10 17:41 04.01.2020
5058 Clouds 4 1032 70 10000 1.5 10 17:41 04.01.2020
5059 Clouds 4 1032 75 10000 2.1 350 17:23 04.01.2020
5060 Clouds 5 1032 75 10000 2.1 350 16:58 04.01.2020
5061 Clouds 6 1032 70 10000 2.1 280 16:39 04.01.2020
5062 Clouds 6 1032 70 10000 2.1 280 16:39 04.01.2020
5063 Clouds 6 1032 75 10000 3.1 290 16:21 04.01.2020
5064 Clouds 6 1032 75 10000 1.5 280 15:54 04.01.2020
5065 Clouds 6 1032 75 10000 1.5 280 15:36 04.01.2020
5066 Clouds 6 1031 70 10000 2.1 290 15:18 04.01.2020
5067 Clouds 6 1031 75 10000 1.5 330 14:42 04.01.2020
5068 Clouds 7 1031 75 10000 1.5 0 14:20 04.01.2020
5069 Clouds 7 1031 75 10000 1.5 0 14:20 04.01.2020
5070 Clouds 7 1032 87 10000 1 280 13:59 04.01.2020
5071 Clouds 7 1032 87 10000 1 280 13:38 04.01.2020
5072 Clouds 7 1032 87 10000 3.1 320 13:19 04.01.2020
5073 Clouds 7 1032 87 10000 3.1 310 12:57 04.01.2020
5074 Clouds 7 1032 87 10000 3.1 310 12:38 04.01.2020
5075 Clouds 7 1032 93 10000 1.5 300 12:18 04.01.2020
5076 Clouds 6 1032 93 10000 1 300 11:55 04.01.2020
5077 Clouds 6 1032 93 10000 1 300 11:36 04.01.2020
5078 Clouds 5 1032 93 8000 1 130 11:18 04.01.2020
5079 Fog 5 1032 100 3000 0.77 202 10:40 04.01.2020
5080 Fog 5 1032 93 2300 1 130 10:21 04.01.2020
5081 Fog 5 1031 100 2500 1 160 09:47 04.01.2020
5082 Fog 4 1031 100 2500 1 160 09:26 04.01.2020
5083 Fog 5 1031 100 1100 1.5 130 08:49 04.01.2020
5084 Fog 4 1031 100 1100 1.5 130 08:29 04.01.2020
5085 Fog 4 1031 100 3100 1.5 120 07:56 04.01.2020
5086 Mist 4 1031 100 3000 1 150 07:38 04.01.2020
5087 Mist 5 1030 100 4000 1.39 192 06:44 04.01.2020
5088 Clouds 5 1030 100 5000 0.5 0 05:59 04.01.2020
5089 Clouds 5 1030 93 5000 0.5 0 04:51 04.01.2020
5090 Clouds 5 1030 93 5000 0.5 0 04:30 04.01.2020
5091 Clouds 5 1030 93 6000 1 210 03:29 04.01.2020
5092 Clouds 5 1030 93 10000 2.1 110 02:49 04.01.2020
5093 Clouds 5 1030 100 6000 1.5 0 02:18 04.01.2020
5094 Clouds 5 1030 100 8000 2.6 110 01:42 04.01.2020
5095 Rain 5 1030 100 8000 1.5 0 01:23 04.01.2020
5096 Clouds 5 1030 93 6000 0.5 0 00:29 04.01.2020
5097 Mist 5 1030 93 5000 1 0 23:57 03.01.2020
5098 Clouds 5 1030 100 10000 1 0 23:30 03.01.2020
5099 Clouds 5 1030 100 10000 1 0 23:30 03.01.2020
5100 Clouds 4 1030 100 5000 3.1 100 22:59 03.01.2020
5101 Mist 4 1030 93 4200 2.6 110 22:40 03.01.2020
5102 Mist 4 1030 93 3600 2.1 130 22:19 03.01.2020
5103 Mist 5 1030 93 3600 2.1 130 21:57 03.01.2020
5104 Mist 4 1030 93 3500 2.1 150 21:38 03.01.2020
5105 Mist 5 1030 93 4600 1.5 0 21:19 03.01.2020
5106 Mist 4 1029 93 3900 1 0 20:55 03.01.2020
5107 Mist 4 1029 93 3900 1 0 20:36 03.01.2020
5108 Clouds 5 1029 100 5000 0.5 0 20:18 03.01.2020
5109 Rain 5 1029 93 4400 2.1 110 19:44 03.01.2020
5110 Rain 5 1029 93 2800 2.6 140 19:23 03.01.2020
5111 Rain 5 1029 93 2800 2.6 140 18:57 03.01.2020
5112 -273 0 0 0 0 0 18:38 03.01.2020
5113 Rain 5 1028 93 10000 2.1 90 18:20 03.01.2020
5114 Clouds 5 1028 86 10000 2.1 90 17:42 03.01.2020
5115 Clouds 5 1028 86 8000 3.6 110 17:22 03.01.2020
5116 Clouds 5 1028 86 8000 3.6 110 16:59 03.01.2020
5117 Clouds 5 1027 93 9000 3.1 120 16:40 03.01.2020
5118 Clouds 6 1027 93 9000 2.1 140 16:21 03.01.2020
5119 Clouds 5 1027 100 5000 2.6 130 15:42 03.01.2020
5120 Clouds 5 1027 100 4000 2.1 150 15:19 03.01.2020
5121 Clouds 5 1028 100 3000 2.1 130 14:40 03.01.2020
5122 Clouds 5 1028 100 3000 2.1 130 14:40 03.01.2020
5123 Mist 5 1027 100 3500 2.6 160 14:21 03.01.2020
5124 Mist 5 1027 100 3500 2.6 160 13:59 03.01.2020
5125 Mist 4 1028 100 1100 1.5 170 13:40 03.01.2020
5126 Fog 4 1028 66 800 1.5 140 13:22 03.01.2020
5127 Fog 4 1028 66 650 1.5 180 12:41 03.01.2020
5128 Fog 4 1028 100 400 1.5 0 12:22 03.01.2020
5129 Fog 3 1028 66 350 1.5 110 11:57 03.01.2020
5130 Fog 4 1028 100 400 1.5 0 11:57 03.01.2020
5131 Fog 3 1028 66 350 1.5 110 11:39 03.01.2020
5132 Fog 2 1028 100 300 1 70 10:59 03.01.2020
5133 Fog 1 1028 100 250 1.5 100 10:40 03.01.2020
5134 Fog 2 1028 100 150 1.5 130 10:22 03.01.2020
5135 Fog 1 1028 100 150 1.5 130 09:56 03.01.2020
5136 Fog 1 1028 100 150 0.95 205 09:38 03.01.2020
5137 Fog 1 1027 100 250 1 80 09:20 03.01.2020
5138 Fog 1 1027 100 300 0.5 0 08:45 03.01.2020
5139 Fog 1 1027 100 400 1 230 08:23 03.01.2020
5140 Fog 1 1027 100 400 1 230 07:57 03.01.2020
5141 Fog 1 1027 100 900 1 90 07:38 03.01.2020
5142 Fog 1 1027 100 800 2.1 110 07:18 03.01.2020
5143 Fog 1 1027 100 450 1.5 150 06:42 03.01.2020
5144 Fog 1 1027 100 900 1.5 150 06:23 03.01.2020
5145 Rain 1 1027 100 2200 1.5 100 05:20 03.01.2020
5146 Mist 0 1028 100 2900 2.1 80 03:45 03.01.2020
5147 Mist 0 1028 100 2900 2.6 110 02:54 03.01.2020
5148 Clouds 0 1026 74 10000 1.5 220 01:54 03.01.2020
5149 Mist 0 1028 100 3200 2.6 100 01:36 03.01.2020
5150 Mist 0 1029 92 4000 3.6 120 00:46 03.01.2020
5151 Mist 0 1029 92 4000 3.6 120 00:26 03.01.2020
5152 Clouds 0 1029 92 6000 4.1 140 23:39 02.01.2020
5153 Clouds 0 1029 100 5000 4.1 150 23:21 02.01.2020
5154 Clouds 0 1029 100 5000 4.1 150 22:59 02.01.2020
5155 Mist 0 1029 100 4200 3.6 150 22:41 02.01.2020
5156 Mist 0 1029 100 3100 4.1 150 22:20 02.01.2020
5157 Mist 0 1029 100 3100 4.1 150 21:57 02.01.2020
5158 Clouds 0 1029 100 6000 3.6 120 21:38 02.01.2020
5159 Clouds 0 1029 100 6000 3.6 120 21:19 02.01.2020
5160 Clouds 0 1029 100 6000 3.6 120 20:56 02.01.2020
5161 Mist 0 1029 100 3500 3.6 120 20:37 02.01.2020
5162 Clouds 0 1030 100 4000 3.1 130 20:19 02.01.2020
5163 Mist 0 1030 92 4500 2.6 120 19:54 02.01.2020
5164 Mist 0 1030 92 4500 2.6 120 19:54 02.01.2020
5165 Mist 0 1030 92 4500 2.6 120 19:36 02.01.2020
5166 Clouds 0 1029 92 4000 2.1 130 19:18 02.01.2020
5167 Clouds 0 1029 92 4000 2.1 130 19:18 02.01.2020
5168 Mist 0 1029 100 4000 2.6 140 18:43 02.01.2020
5169 Clouds 0 1029 100 3500 2.1 150 18:25 02.01.2020
5170 Clouds 0 1029 100 3500 2.1 150 17:58 02.01.2020
5171 Clouds 0 1029 100 3500 1 160 17:39 02.01.2020
5172 Clouds 0 1029 100 3500 0.79 230 17:21 02.01.2020
5173 Clouds 0 1029 100 3500 0.79 230 16:59 02.01.2020
5174 Clouds 0 1029 100 4000 1 130 16:41 02.01.2020
5175 Mist 1 1029 92 3500 0.79 230 16:20 02.01.2020
5176 Mist 1 1029 92 3500 0.79 230 15:58 02.01.2020
5177 Mist 1 1029 92 3500 0.79 230 15:58 02.01.2020
5178 Clouds 1 1029 92 3500 0.79 230 15:40 02.01.2020
5179 Mist 1 1029 100 3500 0.79 230 15:21 02.01.2020
5180 Clouds 1 1029 100 3500 0.79 230 14:57 02.01.2020
5181 Clouds 1 1029 100 3500 0.79 230 14:36 02.01.2020
5182 Clouds 1 1029 100 3500 0.79 230 14:36 02.01.2020
5183 Clouds 1 1029 100 3500 0.79 230 14:36 02.01.2020
5184 Clouds 1 1029 100 3000 1 0 14:18 02.01.2020
5185 Clouds 1 1030 100 3000 1 0 13:49 02.01.2020
5186 Clouds 2 1030 100 3000 1 0 13:31 02.01.2020
5187 Mist 2 1031 100 3500 1 0 12:46 02.01.2020
5188 Mist 2 1031 92 4000 1.5 160 12:26 02.01.2020
5189 Mist 1 1031 92 4000 1.5 160 11:59 02.01.2020
5190 Mist 1 1031 92 4000 1.5 160 11:40 02.01.2020
5191 Mist -1 1031 100 3500 1.5 150 11:20 02.01.2020
5192 Mist -1 1031 100 3500 1.5 150 11:20 02.01.2020
5193 Mist -1 1031 100 3500 1.5 170 10:44 02.01.2020
5194 Mist -1 1031 100 3500 1.5 170 10:26 02.01.2020
5195 Mist -1 1031 100 3000 1.5 190 09:51 02.01.2020
5196 Mist -2 1031 100 3000 1.5 190 09:33 02.01.2020
5197 Mist -2 1031 100 2000 1.5 280 08:47 02.01.2020
5198 Mist -2 1031 100 2000 1.5 280 08:27 02.01.2020
5199 Mist -2 1030 100 1000 1.5 280 07:54 02.01.2020
5200 Mist -2 1030 100 1000 1.5 280 07:30 02.01.2020
5201 Mist -2 1030 100 2700 1 270 06:55 02.01.2020
5202 Mist -2 1030 100 2700 1 270 06:36 02.01.2020
5203 Clouds -2 1030 100 5000 0.5 0 05:36 02.01.2020
5204 Clouds -2 1030 100 8000 1.5 220 04:33 02.01.2020
5205 Clouds -2 1031 100 5000 0.5 0 02:54 02.01.2020
5206 Clouds -2 1031 100 9000 1 0 02:20 02.01.2020
5207 Clouds -1 1031 100 7000 0.5 0 01:46 02.01.2020
5208 Clouds -2 1031 100 6000 1.5 230 01:19 02.01.2020
5209 Clouds -2 1031 92 5000 1 0 00:34 02.01.2020
5210 Clouds -1 1031 92 6000 1.5 180 23:58 01.01.2020
5211 Mist -2 1031 92 4100 1 0 23:40 01.01.2020
5212 Clouds -1 1031 92 5000 1.5 190 23:19 01.01.2020
5213 Fog -1 1031 100 3400 1 0 22:38 01.01.2020
5214 Fog -1 1031 100 500 1 0 22:19 01.01.2020
5215 Fog -1 1031 100 500 1 0 21:56 01.01.2020
5216 Fog -1 1031 100 600 0.5 0 21:38 01.01.2020
5217 Fog -1 1031 100 450 1.5 190 21:19 01.01.2020
5218 Fog -1 1031 100 450 1.5 190 21:19 01.01.2020
5219 Fog -1 1031 100 450 1.5 190 20:55 01.01.2020
5220 Fog -1 1032 100 550 1.5 160 20:37 01.01.2020
5221 Mist -1 1032 100 2500 1 0 20:19 01.01.2020
5222 Mist -1 1032 100 2500 1 0 20:19 01.01.2020
5223 Mist -1 1032 100 2500 1 0 19:55 01.01.2020
5224 Mist -1 1032 100 2500 1 0 19:55 01.01.2020
5225 Mist -1 1032 100 2700 0.5 0 19:37 01.01.2020
5226 Mist -1 1031 100 2500 1 0 19:19 01.01.2020
5227 Mist -1 1031 100 2500 1 0 18:55 01.01.2020
5228 Mist -1 1031 100 2800 1 0 18:36 01.01.2020
5229 Mist -1 1031 100 2600 1.5 0 18:18 01.01.2020
5230 Mist -1 1031 100 2600 1.5 0 17:56 01.01.2020
5231 Mist -1 1031 100 2600 1.5 0 17:56 01.01.2020
5232 Mist -1 1031 100 3000 0.58 131 17:37 01.01.2020
5233 Mist 0 1031 100 2000 1.5 0 17:18 01.01.2020
5234 Mist 0 1031 100 1500 1 0 16:40 01.01.2020
5235 Mist 0 1031 100 1500 1 0 16:40 01.01.2020
5236 Mist 0 1031 100 1500 1.5 0 16:21 01.01.2020
5237 Mist 0 1031 100 1500 1.5 0 15:57 01.01.2020
5238 Mist 0 1031 100 1500 1.5 0 15:57 01.01.2020
5239 Mist 0 1031 100 1000 1.5 170 15:39 01.01.2020
5240 Mist 0 1031 92 1000 1 110 15:20 01.01.2020
5241 Mist 0 1031 92 1000 1 110 14:58 01.01.2020
5242 Fog 0 1031 92 1000 1.5 0 14:40 01.01.2020
5243 Fog 0 1031 100 900 1 0 14:21 01.01.2020
5244 Fog 0 1031 100 900 1 0 14:21 01.01.2020
5245 Mist 0 1032 100 1100 1 0 13:56 01.01.2020
5246 Mist 0 1032 100 1100 1 0 13:37 01.01.2020
5247 Mist 0 1032 100 1100 1 0 13:37 01.01.2020
5248 Mist 0 1032 100 1100 1 0 13:37 01.01.2020
5249 Fog 1 1032 100 500 1 210 13:18 01.01.2020
5250 Fog 1 1032 100 500 1 0 12:55 01.01.2020
5251 Fog 1 1032 100 500 1 0 12:37 01.01.2020
5252 Fog 1 1033 100 900 1 0 12:18 01.01.2020
5253 Fog 1 1033 100 500 1 240 11:43 01.01.2020
5254 Fog -1 1033 92 200 1 0 11:22 01.01.2020
5255 Fog -1 1033 92 200 1 0 10:58 01.01.2020
5256 Fog -1 1033 100 200 1 0 10:40 01.01.2020
5257 Fog -1 1032 100 200 2.1 280 10:20 01.01.2020
5258 Fog -2 1032 100 200 2.1 280 09:55 01.01.2020
5259 Fog -2 1032 100 200 1 170 09:36 01.01.2020
5260 Fog -2 1032 100 200 1 250 09:18 01.01.2020
5261 Fog -2 1032 92 300 1.5 260 08:54 01.01.2020
5262 Fog -2 1032 92 300 1.5 260 08:36 01.01.2020
5263 Fog -2 1032 100 400 1.5 180 08:18 01.01.2020
5264 Fog -2 1032 100 400 1 240 07:45 01.01.2020
5265 Fog -2 1032 100 400 1 240 07:26 01.01.2020
5266 Fog -2 1031 100 250 1.5 200 06:44 01.01.2020
5267 Fog -2 1031 100 350 1 200 06:19 01.01.2020
5268 Fog -1 1031 100 550 2.1 270 04:38 01.01.2020
5269 Fog -1 1031 100 200 0.5 0 03:41 01.01.2020
5270 Fog -1 1032 92 150 1 0 03:22 01.01.2020
5271 Fog -1 1032 92 150 1 0 03:22 01.01.2020
5272 Fog -1 1032 92 150 1 0 02:55 01.01.2020
5273 Fog -1 1032 100 250 1 0 02:32 01.01.2020
5274 Fog -1 1032 100 200 1.5 0 01:45 01.01.2020
5275 Fog -1 1032 100 250 1 0 01:24 01.01.2020
5276 Fog -1 1032 100 250 1 0 00:56 01.01.2020
5277 Fog -1 1032 100 200 1 180 00:37 01.01.2020
5278 Fog -1 1033 100 200 1 0 00:18 01.01.2020
5279 Fog -1 1033 100 200 1 0 23:39 31.12.2019
5280 Fog -1 1033 100 200 1 0 23:19 31.12.2019
5281 Fog -1 1033 100 200 1 0 22:57 31.12.2019
5282 Fog -1 1032 100 250 1 0 22:38 31.12.2019
5283 Fog -1 1032 100 250 1 0 22:18 31.12.2019
5284 Fog -1 1032 100 200 1 0 21:54 31.12.2019
5285 Fog 0 1032 100 200 1 0 21:36 31.12.2019
5286 Fog 0 1033 100 200 0.5 0 21:18 31.12.2019
5287 Fog 0 1033 85 200 1 0 20:40 31.12.2019
5288 Fog 0 1033 81 200 1 0 20:21 31.12.2019
5289 Fog 0 1033 82 200 1 0 19:59 31.12.2019
5290 Fog 0 1033 82 150 0.5 0 19:40 31.12.2019
5291 Fog 0 1032 82 200 0.5 0 19:22 31.12.2019
5292 Fog 0 1032 82 200 0.5 0 18:57 31.12.2019
5293 Fog 0 1032 82 200 1 0 18:39 31.12.2019
5294 Fog 1 1032 82 300 0.5 0 18:19 31.12.2019
5295 Fog 1 1032 82 300 0.5 0 17:56 31.12.2019
5296 Fog 1 1032 82 500 1.5 130 17:37 31.12.2019
5297 Mist 1 1032 72 1100 1 0 17:19 31.12.2019
5298 Mist 1 1032 72 1100 1.5 150 16:56 31.12.2019
5299 Mist 1 1032 72 1100 1.5 150 16:37 31.12.2019
5300 Mist 2 1032 72 1600 1 0 16:19 31.12.2019
5301 Mist 2 1032 72 1600 1 0 15:56 31.12.2019
5302 Mist 2 1032 72 3000 1.5 160 15:38 31.12.2019
5303 Mist 2 1032 72 3000 1.5 170 15:20 31.12.2019
5304 Mist 2 1032 72 3000 1.5 170 14:56 31.12.2019
5305 Mist 2 1032 72 3000 1.5 230 14:37 31.12.2019
5306 Clouds 3 1033 55 3000 1 0 14:19 31.12.2019
5307 Clouds 3 1033 55 3000 1 0 13:56 31.12.2019
5308 Mist 3 1033 55 3500 1 190 13:38 31.12.2019
5309 Mist 3 1033 57 3500 1.5 140 13:20 31.12.2019
5310 Mist 3 1033 57 3500 1.5 140 12:56 31.12.2019
5311 Mist 4 1033 57 3000 1 0 12:38 31.12.2019
5312 Mist 4 1034 100 2500 1.5 310 12:19 31.12.2019
5313 Fog 4 1034 100 1200 2.6 300 11:55 31.12.2019
5314 Fog 3 1034 100 1200 2.6 300 11:37 31.12.2019
5315 Fog 3 1034 100 1200 2.6 300 11:37 31.12.2019
5316 Fog 0 1034 100 900 0.27 125 11:19 31.12.2019
5317 Fog 0 1034 100 900 0.27 125 10:56 31.12.2019
5318 Fog 0 1033 100 650 1.5 160 10:37 31.12.2019
5319 Fog 0 1033 100 600 1.5 180 10:19 31.12.2019
5320 Fog 0 1033 100 600 1.5 180 09:57 31.12.2019
5321 Fog 0 1033 66 700 1.5 150 09:38 31.12.2019
5322 Fog -1 1033 100 750 1 0 09:19 31.12.2019
5323 Fog -1 1033 100 300 1.5 170 08:43 31.12.2019
5324 Fog -1 1033 100 600 1.5 160 08:23 31.12.2019
5325 Fog -1 1033 100 600 1.5 160 07:58 31.12.2019
5326 Fog -1 1033 100 800 1.5 200 07:40 31.12.2019
5327 Fog -1 1033 100 800 2.6 170 07:19 31.12.2019
5328 Fog -1 1033 100 450 1 180 06:41 31.12.2019
5329 Fog -1 1033 100 900 1.5 100 05:45 31.12.2019
5330 Fog -1 1033 100 650 1 110 04:27 31.12.2019
5331 Mist -1 1033 100 3000 1.5 180 03:24 31.12.2019
5332 Mist -1 1033 100 2600 2.1 160 02:36 31.12.2019
5333 Mist -1 1033 92 3100 0.5 0 01:53 31.12.2019
5334 Mist -1 1033 92 3100 0.5 0 01:32 31.12.2019
5335 Mist -1 1033 92 2600 1 0 00:56 31.12.2019
5336 Mist -1 1033 100 4000 1.5 230 00:37 31.12.2019
5337 Mist -1 1033 92 3400 1 0 00:18 31.12.2019
5338 Mist -1 1033 92 3400 1 0 00:18 31.12.2019
5339 Clear -1 1031 81 10000 1.5 250 23:55 30.12.2019
5340 Mist -1 1033 92 3300 0.5 0 23:36 30.12.2019
5341 Mist -1 1033 92 3500 1 0 23:18 30.12.2019
5342 Mist -1 1033 100 2700 1 0 22:54 30.12.2019
5343 Mist -1 1033 100 2700 1 0 22:54 30.12.2019
5344 Mist -1 1033 100 2700 1 0 22:36 30.12.2019
5345 Mist -1 1033 92 4100 1.5 190 22:18 30.12.2019
5346 Mist -1 1033 92 4100 1.5 190 21:55 30.12.2019
5347 Mist -1 1033 92 4100 1.5 190 21:55 30.12.2019
5348 Mist -1 1033 92 4000 0.5 0 21:37 30.12.2019
5349 Mist -1 1033 92 4400 0.5 0 21:18 30.12.2019
5350 Mist -1 1033 92 4700 1 0 20:42 30.12.2019
5351 Mist 0 1032 92 3000 1.5 0 20:21 30.12.2019
5352 Clouds 0 1032 100 3000 1 0 19:59 30.12.2019
5353 Mist 0 1032 92 3000 1.5 0 19:59 30.12.2019
5354 Clouds 0 1032 100 3000 1 0 19:40 30.12.2019
5355 Mist 0 1033 92 3000 1.5 100 19:20 30.12.2019
5356 Mist 0 1033 92 3000 1.5 100 19:20 30.12.2019
5357 Mist 0 1033 92 3000 1.5 100 18:59 30.12.2019
5358 Clouds 0 1033 92 3000 1.5 130 18:41 30.12.2019
5359 Mist 0 1033 92 3000 1 0 18:21 30.12.2019
5360 Mist 0 1033 92 3000 1 0 17:59 30.12.2019
5361 Clouds 0 1033 100 3000 1.5 170 17:40 30.12.2019
5362 Clouds 0 1033 100 5000 1.5 160 17:19 30.12.2019
5363 Clouds 0 1033 100 5000 1.5 160 16:59 30.12.2019
5364 Clouds 0 1033 62 3000 1.5 0 16:39 30.12.2019
5365 Clouds 1 1033 62 3000 2.1 130 16:20 30.12.2019
5366 Clouds 1 1033 62 3000 2.1 130 15:56 30.12.2019
5367 Clouds 1 1033 62 4000 1.5 0 15:38 30.12.2019
5368 Clouds 1 1033 92 4000 1 0 15:19 30.12.2019
5369 Clouds 1 1033 62 4000 1 0 14:43 30.12.2019
5370 Clouds 1 1033 48 4500 0.7 307 14:21 30.12.2019
5371 Clouds 1 1033 48 4500 0.7 307 13:59 30.12.2019
5372 Clouds 1 1033 92 4500 1 0 13:41 30.12.2019
5373 Clouds 1 1034 92 5000 0.5 0 13:22 30.12.2019
5374 Clouds 0 1034 92 5000 0.5 0 12:57 30.12.2019
5375 Mist 3 1034 92 4500 0.5 0 12:38 30.12.2019
5376 Mist 3 1034 92 3000 1.5 130 12:18 30.12.2019
5377 Mist 3 1034 92 3000 1.5 130 12:18 30.12.2019
5378 Mist 3 1034 92 3000 2.1 160 11:45 30.12.2019
5379 Mist 0 1034 100 3400 1 0 11:22 30.12.2019
5380 Mist 0 1034 100 3400 1 0 10:59 30.12.2019
5381 Mist -1 1034 100 3800 1 0 10:40 30.12.2019
5382 Mist -1 1034 92 4000 1.5 50 10:19 30.12.2019
5383 Mist -1 1034 100 2400 1.5 110 09:42 30.12.2019
5384 Mist -2 1034 100 1500 1 70 09:21 30.12.2019
5385 Mist -2 1034 100 1500 1 70 08:57 30.12.2019
5386 Mist -2 1034 100 1800 1.5 260 08:38 30.12.2019
5387 Mist -2 1034 100 2800 1.5 250 08:19 30.12.2019
5388 Mist -2 1034 100 3200 1.5 250 07:44 30.12.2019
5389 Mist -2 1034 100 3400 1 180 07:23 30.12.2019
5390 Mist -2 1034 100 3000 2.1 320 06:30 30.12.2019
5391 Mist -2 1034 92 3000 1.5 0 04:29 30.12.2019
5392 Mist -1 1034 92 3500 1.5 220 03:47 30.12.2019
5393 Mist -2 1034 92 4300 0.5 0 02:45 30.12.2019
5394 Mist -2 1034 100 4600 1 260 02:25 30.12.2019
5395 Mist -2 1034 100 3500 0.5 0 01:27 30.12.2019
5396 Mist -2 1034 92 3100 0.5 0 00:56 30.12.2019
5397 Mist -2 1034 92 3100 0.5 0 00:36 30.12.2019
5398 Fog -2 1034 100 2600 0.5 150 23:42 29.12.2019
5399 Fog -2 1034 100 900 0.5 200 23:24 29.12.2019
5400 Fog -1 1034 100 900 0.5 200 22:58 29.12.2019
5401 Fog -1 1034 100 100 0.5 0 22:38 29.12.2019
5402 Fog -1 1034 92 250 0.5 0 22:20 29.12.2019
5403 Fog -1 1034 92 250 0.5 0 21:55 29.12.2019
5404 Fog -1 1034 92 250 0.5 0 21:55 29.12.2019
5405 Fog -1 1034 100 2400 1.48 51 21:37 29.12.2019
5406 Fog -1 1034 100 2400 1.48 51 21:37 29.12.2019
5407 Fog -1 1034 100 2200 0.5 0 21:18 29.12.2019
5408 Fog -1 1034 100 2200 0.5 0 20:55 29.12.2019
5409 Mist -1 1034 100 3400 1.48 51 20:37 29.12.2019
5410 Mist -1 1034 92 4500 1.84 44 20:18 29.12.2019
5411 Mist -1 1034 92 4500 1.84 44 19:55 29.12.2019
5412 Clear -1 1034 92 5000 1.84 44 19:37 29.12.2019
5413 Mist -1 1034 92 4500 1.84 44 19:18 29.12.2019
5414 Clear -1 1034 92 5000 1.84 44 18:54 29.12.2019
5415 Clear -1 1034 92 5000 1.84 44 18:54 29.12.2019
5416 Clear -1 1034 92 5000 1.84 44 18:36 29.12.2019
5417 Clear 0 1034 92 6000 1.84 44 18:18 29.12.2019
5418 Clear 0 1034 86 6000 0.5 0 17:54 29.12.2019
5419 Clear 0 1034 86 6000 0.5 0 17:36 29.12.2019
5420 Clouds 0 1034 68 9000 2.1 260 17:18 29.12.2019
5421 Clouds 1 1034 80 9000 2.1 290 16:54 29.12.2019
5422 Clouds 1 1034 80 9000 2.1 290 16:54 29.12.2019
5423 Clouds 1 1034 80 9000 2.1 290 16:36 29.12.2019
5424 Clouds 1 1034 80 10000 3.1 300 16:18 29.12.2019
5425 Clouds 1 1034 74 10000 2.6 310 15:54 29.12.2019
5426 Clouds 1 1034 74 10000 2.6 310 15:36 29.12.2019
5427 Clouds 2 1034 74 10000 1 180 15:18 29.12.2019
5428 Clouds 2 1034 74 10000 1.5 200 14:46 29.12.2019
5429 Clouds 1 1034 80 10000 1.5 250 14:19 29.12.2019
5430 Clouds 1 1034 80 10000 1.5 250 13:59 29.12.2019
5431 Clouds 1 1034 80 10000 1 190 13:40 29.12.2019
5432 Clouds 1 1035 80 10000 2.1 190 13:22 29.12.2019
5433 Clouds 1 1035 67 7000 2.1 160 12:58 29.12.2019
5434 Clouds 1 1035 67 7000 2.1 160 12:39 29.12.2019
5435 Clouds 1 1035 67 10000 2.6 130 12:21 29.12.2019
5436 Clouds 1 1036 67 10000 2.6 110 11:43 29.12.2019
5437 Clouds 0 1036 84 10000 2.1 80 11:22 29.12.2019
5438 Clouds 0 1036 84 10000 2.1 80 10:57 29.12.2019
5439 Clouds 0 1036 84 10000 1.52 36 10:39 29.12.2019
5440 Clouds 0 1036 84 6000 1 0 10:18 29.12.2019
5441 Clouds -1 1036 84 6000 1.5 0 09:46 29.12.2019
5442 Clouds -1 1036 84 6000 1.5 0 09:28 29.12.2019
5443 Clouds -1 1036 84 6000 2.1 10 08:56 29.12.2019
5444 Clouds -1 1035 84 7000 1.52 36 08:38 29.12.2019
5445 Clouds -1 1035 96 10000 1.5 0 08:20 29.12.2019
5446 Clouds -1 1035 96 8000 1 350 07:44 29.12.2019
5447 Clouds -1 1035 96 8000 1 350 07:25 29.12.2019
5448 Clouds -1 1035 92 7000 1.39 41 06:38 29.12.2019
5449 Clouds -1 1035 92 5000 1 300 06:18 29.12.2019
5450 Clouds -1 1035 92 7000 1.5 280 05:44 29.12.2019
5451 Mist -1 1035 100 4300 1 330 04:32 29.12.2019
5452 Mist -1 1035 100 2800 0.5 0 03:35 29.12.2019
5453 Clouds 0 1035 100 5000 2.6 300 02:30 29.12.2019
5454 Clouds 0 1035 100 5000 2.6 300 02:30 29.12.2019
5455 Mist 0 1035 100 4600 0.5 0 01:52 29.12.2019
5456 Mist 0 1035 100 4600 0.5 0 01:29 29.12.2019
5457 Clouds 0 1035 92 6000 3.1 290 00:45 29.12.2019
5458 Clouds 0 1035 92 6000 3.1 290 00:25 29.12.2019
5459 Clouds 0 1035 92 6000 3.1 290 00:25 29.12.2019
5460 Clouds 0 1035 100 6000 3.1 290 23:55 28.12.2019
5461 Clouds 0 1035 100 5000 1 330 23:37 28.12.2019
5462 Clouds 0 1035 95 6000 1 0 23:18 28.12.2019
5463 Clouds 1 1035 95 6000 0.5 0 22:37 28.12.2019
5464 Clouds 0 1035 92 6000 1.5 320 22:18 28.12.2019
5465 Clouds 1 1035 92 6000 1.5 320 21:56 28.12.2019
5466 Clouds 1 1035 95 7000 1 330 21:37 28.12.2019
5467 Clouds 1 1035 86 10000 0.5 0 21:19 28.12.2019
5468 Clouds 1 1035 95 8000 0.5 0 20:54 28.12.2019
5469 Clouds 1 1035 95 8000 0.5 0 20:36 28.12.2019
5470 Clouds 1 1035 86 9000 2.1 290 20:18 28.12.2019
5471 Clouds 1 1035 86 10000 1.5 0 19:41 28.12.2019
5472 Clouds 2 1035 91 10000 0.5 0 19:23 28.12.2019
5473 Clouds 2 1035 91 10000 0.5 0 18:59 28.12.2019
5474 Clouds 2 1035 91 10000 2.1 320 18:41 28.12.2019
5475 Clouds 2 1035 91 10000 1.5 0 18:20 28.12.2019
5476 Clouds 2 1035 91 10000 1.5 0 17:59 28.12.2019
5477 Clouds 2 1035 86 10000 1.5 340 17:39 28.12.2019
5478 Clouds 3 1035 80 10000 1.5 20 17:20 28.12.2019
5479 Clouds 3 1034 80 10000 3.1 20 16:49 28.12.2019
5480 Clouds 3 1034 80 10000 3.1 20 16:27 28.12.2019
5481 Clouds 3 1034 75 10000 2.6 30 15:57 28.12.2019
5482 Clouds 3 1034 75 10000 2.6 30 15:57 28.12.2019
5483 Clouds 4 1034 80 10000 4.1 40 15:39 28.12.2019
5484 Clouds 4 1034 80 10000 2.6 50 15:21 28.12.2019
5485 Clouds 4 1033 75 10000 4.1 50 14:46 28.12.2019
5486 Clouds 5 1033 75 10000 3.6 360 14:24 28.12.2019
5487 Clouds 5 1033 75 10000 3.6 360 13:58 28.12.2019
5488 Clouds 4 1033 75 10000 3.6 360 13:39 28.12.2019
5489 Clouds 5 1033 70 10000 2.1 70 13:19 28.12.2019
5490 Clouds 5 1033 75 10000 3.1 50 12:44 28.12.2019
5491 Clouds 5 1033 75 10000 3.6 80 12:25 28.12.2019
5492 Clouds 5 1033 75 10000 3.6 80 11:59 28.12.2019
5493 Clouds 5 1034 75 10000 3.1 100 11:39 28.12.2019
5494 Clouds 4 1034 93 10000 2.1 90 11:20 28.12.2019
5495 Clouds 4 1034 100 10000 1 230 10:46 28.12.2019
5496 Clouds 3 1035 100 9000 1 0 10:23 28.12.2019
5497 Clouds 3 1035 100 9000 1 0 09:58 28.12.2019
5498 Fog 3 1034 100 10000 1 0 09:40 28.12.2019
5499 Fog 3 1034 100 150 1 0 09:21 28.12.2019
5500 Fog 3 1034 100 10000 1.5 330 08:45 28.12.2019
5501 Fog 3 1034 100 10000 1.5 330 08:27 28.12.2019
5502 Clouds 3 1033 100 6000 1.5 100 07:59 28.12.2019
5503 Clouds 3 1033 100 6000 1.5 160 07:39 28.12.2019
5504 Clouds 4 1033 100 8000 1 130 06:50 28.12.2019
5505 Clouds 4 1033 100 7000 1 0 05:31 28.12.2019
5506 Mist 4 1033 100 4400 1 140 03:47 28.12.2019
5507 Mist 4 1032 100 4700 1 0 02:49 28.12.2019
5508 Clouds 4 1032 100 5000 1.5 90 02:19 28.12.2019
5509 Mist 4 1032 100 3900 2.1 190 01:50 28.12.2019
5510 Mist 4 1032 100 3500 1 0 01:20 28.12.2019
5511 Mist 4 1032 100 4200 1.5 100 00:41 28.12.2019
5512 Clouds 4 1032 93 5000 1.5 90 00:23 28.12.2019
5513 Mist 4 1032 100 4700 1.5 90 23:45 27.12.2019
5514 Clouds 5 1031 100 7000 1.5 120 23:20 27.12.2019
5515 Clouds 5 1031 100 7000 1.5 120 22:58 27.12.2019
5516 Clouds 5 1031 93 10000 2.1 90 22:39 27.12.2019
5517 Clouds 5 1031 93 10000 2.1 110 22:21 27.12.2019
5518 Clouds 5 1031 93 10000 2.1 110 22:21 27.12.2019
5519 Clouds 5 1031 93 10000 2.1 110 21:59 27.12.2019
5520 Clouds 5 1031 100 8000 2.1 120 21:40 27.12.2019
5521 Clouds 5 1031 100 9000 3.1 100 21:22 27.12.2019
5522 Clouds 5 1030 100 8000 2.6 110 20:42 27.12.2019
5523 Clouds 5 1030 100 10000 2.1 120 20:23 27.12.2019
5524 Clouds 5 1030 100 10000 2.1 120 19:55 27.12.2019
5525 Clouds 5 1030 93 10000 2.1 140 19:36 27.12.2019
5526 Clouds 5 1030 93 10000 2.1 160 19:18 27.12.2019
5527 Clouds 5 1030 93 10000 2.1 160 19:18 27.12.2019
5528 Clouds 5 1029 93 10000 0.51 159 18:41 27.12.2019
5529 Clouds 5 1028 93 10000 1 100 18:23 27.12.2019
5530 Clouds 5 1028 93 10000 1 100 17:59 27.12.2019
5531 Clouds 5 1027 87 10000 1.5 150 17:41 27.12.2019
5532 Clouds 6 1027 87 10000 2.6 160 17:19 27.12.2019
5533 Clouds 6 1027 87 10000 2.6 160 16:59 27.12.2019
5534 Clouds 6 1027 87 10000 2.6 160 16:39 27.12.2019
5535 Clouds 6 1027 81 10000 2.1 110 16:21 27.12.2019
5536 Clouds 6 1027 76 10000 1.5 40 15:46 27.12.2019
5537 Clouds 6 1027 75 10000 3.1 300 15:24 27.12.2019
5538 Clouds 6 1027 75 10000 3.1 300 14:59 27.12.2019
5539 Clouds 6 1026 81 10000 1.5 210 14:40 27.12.2019
5540 Clouds 6 1026 81 10000 1 0 14:22 27.12.2019
5541 Clouds 6 1026 81 10000 1 0 13:58 27.12.2019
5542 Clouds 6 1025 87 10000 1.5 0 13:40 27.12.2019
5543 Clouds 6 1025 81 10000 3.6 120 13:21 27.12.2019
5544 Clouds 6 1025 87 10000 4.6 150 12:44 27.12.2019
5545 Clouds 6 1025 87 10000 4.6 150 12:26 27.12.2019
5546 Clouds 6 1025 87 10000 4.6 150 12:26 27.12.2019
5547 Clouds 5 1025 93 10000 2.1 130 11:56 27.12.2019
5548 Clouds 5 1025 93 10000 2.1 130 11:38 27.12.2019
5549 Drizzle 5 1024 100 6000 2.6 140 11:19 27.12.2019
5550 Rain 5 1024 100 5000 1.5 100 10:45 27.12.2019
5551 Rain 5 1023 100 5000 1 0 10:23 27.12.2019
5552 Rain 5 1023 93 5000 0.5 0 09:50 27.12.2019
5553 Rain 5 1023 93 5000 0.5 0 09:22 27.12.2019
5554 Rain 4 1023 93 5000 0.5 0 08:59 27.12.2019
5555 Rain 5 1022 100 6000 2.1 0 08:41 27.12.2019
5556 Rain 5 1022 93 9000 1 0 08:22 27.12.2019
5557 Rain 5 1022 100 5000 1 100 07:38 27.12.2019
5558 Rain 5 1022 93 7000 1.5 140 06:59 27.12.2019
5559 Rain 5 1022 87 10000 1.5 0 06:23 27.12.2019
5560 Rain 5 1023 100 10000 1 0 04:37 27.12.2019
5561 Drizzle 5 1024 93 10000 2.6 110 02:28 27.12.2019
5562 Clouds 5 1025 93 9000 2.6 150 01:44 27.12.2019
5563 Rain 5 1025 93 6000 0.5 0 01:21 27.12.2019
5564 Drizzle 5 1025 100 7000 1.5 100 00:47 27.12.2019
5565 Rain 5 1026 93 3400 1.5 0 00:25 27.12.2019
5566 Rain 5 1026 93 3400 1.5 0 23:56 26.12.2019
5567 Drizzle 5 1026 93 10000 2.1 100 23:37 26.12.2019
5568 Clouds 5 1026 93 10000 2.1 100 23:19 26.12.2019
5569 Clouds 4 1026 93 10000 1.5 160 22:40 26.12.2019
5570 Drizzle 4 1026 86 10000 0.5 0 22:18 26.12.2019
5571 Drizzle 4 1027 86 10000 1.5 70 21:40 26.12.2019
5572 Clouds 4 1027 86 9000 2.1 110 21:21 26.12.2019
5573 Clouds 4 1027 86 9000 2.1 110 20:58 26.12.2019
5574 Clouds 4 1027 93 10000 1.5 100 20:38 26.12.2019
5575 Clouds 4 1027 93 10000 1.5 100 20:38 26.12.2019
5576 Clouds 4 1027 93 10000 1.5 0 20:20 26.12.2019
5577 Clouds 4 1026 93 10000 2.1 120 19:55 26.12.2019
5578 Clouds 4 1026 93 10000 2.1 120 19:37 26.12.2019
5579 Drizzle 4 1026 93 10000 1 90 19:19 26.12.2019
5580 Drizzle 4 1026 93 10000 1 90 19:19 26.12.2019
5581 Drizzle 4 1026 93 10000 1 90 18:55 26.12.2019
5582 Clouds 4 1025 86 10000 2.1 170 18:36 26.12.2019
5583 Clouds 4 1025 93 10000 2.6 130 18:18 26.12.2019
5584 Clouds 4 1024 86 10000 1 0 17:41 26.12.2019
5585 Rain 4 1024 93 10000 0.46 226 17:21 26.12.2019
5586 Rain 4 1024 93 10000 0.46 226 17:21 26.12.2019
5587 Rain 4 1024 80 10000 1 0 16:49 26.12.2019
5588 Clouds 4 1023 80 10000 1 0 16:26 26.12.2019
5589 Clouds 4 1023 80 10000 1 0 15:57 26.12.2019
5590 Clouds 4 1023 80 10000 1 0 15:38 26.12.2019
5591 Clouds 4 1023 80 10000 1.5 0 15:19 26.12.2019
5592 Clouds 4 1024 80 10000 2.6 110 14:41 26.12.2019
5593 Clouds 4 1024 86 10000 0.46 226 14:23 26.12.2019
5594 Clouds 4 1024 86 10000 1.34 263 13:55 26.12.2019
5595 Clouds 4 1024 93 10000 1 20 13:36 26.12.2019
5596 Clouds 3 1024 93 10000 1.5 0 13:18 26.12.2019
5597 Clouds 3 1024 93 10000 1.5 0 12:44 26.12.2019
5598 Fog 3 1025 100 7000 1 320 12:24 26.12.2019
5599 Fog 3 1025 100 7000 1 320 11:59 26.12.2019
5600 Mist 3 1024 76 2800 1 210 11:40 26.12.2019
5601 Mist 2 1024 86 1000 1 140 11:21 26.12.2019
5602 Fog 2 1025 86 300 1 140 10:50 26.12.2019
5603 Rain 1 1024 86 350 0.46 23 10:25 26.12.2019
5604 Rain 1 1024 86 350 0.46 23 09:55 26.12.2019
5605 Rain 1 1024 86 300 1 160 09:33 26.12.2019
5606 Fog 0 1024 100 400 0.46 23 08:59 26.12.2019
5607 Fog 0 1024 100 400 0.46 23 08:39 26.12.2019
5608 Fog 0 1024 100 350 1 200 08:20 26.12.2019
5609 Fog 0 1024 100 250 1 220 07:38 26.12.2019
5610 Fog 0 1024 100 150 0.5 50 07:19 26.12.2019
5611 Fog 0 1024 92 350 1 300 06:37 26.12.2019
5612 Fog 0 1023 100 200 0.5 320 06:19 26.12.2019
5613 Fog 0 1023 100 200 0.5 0 05:41 26.12.2019
5614 Fog 0 1024 100 100 0.82 92 04:33 26.12.2019
5615 Fog 1 1024 100 3000 0.5 0 03:31 26.12.2019
5616 Fog 1 1024 100 200 0.5 0 02:46 26.12.2019
5617 Fog 1 1024 100 200 0.5 0 02:27 26.12.2019
5618 Fog 1 1024 100 5000 0.5 0 01:44 26.12.2019
5619 Clouds 1 1022 100 10000 0.5 0 01:24 26.12.2019
5620 Clouds 2 1024 100 7000 0.5 0 00:44 26.12.2019
5621 Clouds 2 1024 92 5000 1 0 00:23 26.12.2019
5622 Clouds 2 1024 92 5000 1 0 23:57 25.12.2019
5623 Clouds 2 1024 95 10000 1 0 23:37 25.12.2019
5624 Clouds 2 1024 100 10000 0.5 0 23:18 25.12.2019
5625 Clouds 2 1025 94 10000 0.5 0 22:55 25.12.2019
5626 Clouds 2 1025 94 10000 0.5 0 22:37 25.12.2019
5627 Clouds 3 1024 100 10000 0.5 0 22:18 25.12.2019
5628 Clouds 3 1024 100 10000 0.5 0 21:55 25.12.2019
5629 Clouds 3 1025 94 10000 0.5 0 21:37 25.12.2019
5630 Clouds 3 1025 94 10000 1 0 21:18 25.12.2019
5631 Clouds 4 1025 86 10000 1 0 20:40 25.12.2019
5632 Clouds 4 1025 86 10000 1 0 20:20 25.12.2019
5633 Clouds 4 1025 86 10000 1 0 19:57 25.12.2019
5634 Clouds 4 1025 86 10000 1 0 19:39 25.12.2019
5635 Clouds 5 1025 86 10000 2.1 310 19:21 25.12.2019
5636 Clouds 5 1025 81 10000 0.5 0 18:39 25.12.2019
5637 Clouds 5 1025 86 10000 1.5 50 18:20 25.12.2019
5638 Clouds 5 1025 86 10000 1.5 50 17:57 25.12.2019
5639 Clouds 6 1025 81 10000 1.5 290 17:36 25.12.2019
5640 Clouds 6 1024 81 10000 2.6 310 17:18 25.12.2019
5641 Clouds 7 1024 81 10000 5.1 310 16:39 25.12.2019
5642 Clouds 7 1024 70 10000 5.7 290 16:19 25.12.2019
5643 Clouds 7 1024 70 10000 5.7 290 15:58 25.12.2019
5644 Clouds 7 1023 66 10000 5.1 280 15:39 25.12.2019
5645 Clouds 7 1023 66 10000 4.6 290 15:21 25.12.2019
5646 Clouds 7 1023 66 10000 4.6 290 14:59 25.12.2019
5647 Clouds 8 1023 61 10000 3.6 280 14:40 25.12.2019
5648 Clouds 8 1023 61 10000 3.6 280 14:40 25.12.2019
5649 Clouds 8 1023 57 10000 4.6 260 14:21 25.12.2019
5650 Clouds 8 1023 57 10000 4.6 260 14:21 25.12.2019
5651 Clouds 8 1023 57 10000 4.6 260 13:57 25.12.2019
5652 Clouds 8 1023 57 10000 4.6 270 13:38 25.12.2019
5653 Clouds 8 1023 57 10000 4.6 260 13:19 25.12.2019
5654 Clouds 8 1023 66 10000 5.7 260 12:42 25.12.2019
5655 Clouds 8 1023 61 10000 5.1 260 12:21 25.12.2019
5656 Clouds 8 1023 61 10000 5.1 260 11:57 25.12.2019
5657 Clouds 8 1023 61 10000 6.7 240 11:38 25.12.2019
5658 Clouds 7 1022 57 10000 6.7 230 11:18 25.12.2019
5659 Clouds 7 1022 57 10000 5.7 240 10:38 25.12.2019
5660 Clouds 7 1022 65 10000 7.2 240 10:20 25.12.2019
5661 Clouds 7 1022 61 10000 4.1 260 09:51 25.12.2019
5662 Clouds 7 1022 61 10000 4.1 260 09:32 25.12.2019
5663 Clouds 6 1022 65 10000 5.1 220 08:51 25.12.2019
5664 Clouds 6 1022 65 10000 5.1 220 08:31 25.12.2019
5665 Clouds 6 1022 65 10000 5.1 220 08:31 25.12.2019
5666 Clouds 7 1021 65 10000 5.7 220 07:53 25.12.2019
5667 Clouds 7 1021 65 10000 5.7 220 07:34 25.12.2019
5668 Clouds 7 1022 65 10000 7.7 220 06:58 25.12.2019
5669 Clouds 7 1021 65 10000 3.1 240 06:23 25.12.2019
5670 Clouds 7 1021 61 10000 3.6 250 05:31 25.12.2019
5671 Clouds 7 1021 65 10000 4.1 250 04:39 25.12.2019
5672 Rain 7 1021 81 10000 2.1 0 04:20 25.12.2019
5673 Drizzle 7 1021 93 10000 2.1 340 03:43 25.12.2019
5674 Rain 7 1021 81 10000 4.1 310 02:56 25.12.2019
5675 Drizzle 7 1020 75 10000 5.1 310 02:27 25.12.2019
5676 Clouds 7 1020 75 10000 1 0 01:26 25.12.2019
5677 Rain 7 1020 75 10000 4.1 300 00:56 25.12.2019
5678 Rain 7 1020 66 10000 4.6 250 00:33 25.12.2019
5679 Clouds 7 1020 57 10000 5.1 270 23:58 24.12.2019
5680 Clouds 7 1020 61 10000 2.6 250 23:39 24.12.2019
5681 Clouds 7 1019 66 10000 2.6 0 23:20 24.12.2019
5682 Clouds 7 1019 61 10000 4.6 260 22:41 24.12.2019
5683 Clouds 6 1019 61 10000 3.1 0 22:23 24.12.2019
5684 Clouds 7 1020 65 10000 3.6 290 21:45 24.12.2019
5685 Clouds 7 1019 61 10000 2.1 260 21:24 24.12.2019
5686 Clouds 7 1019 61 10000 2.1 260 20:59 24.12.2019
5687 Rain 7 1019 61 10000 2.1 290 20:41 24.12.2019
5688 Rain 7 1019 66 10000 2.1 290 20:19 24.12.2019
5689 Rain 7 1018 61 10000 2.6 0 19:45 24.12.2019
5690 Rain 8 1019 61 10000 2.6 240 19:21 24.12.2019
5691 Rain 8 1019 61 10000 2.6 240 18:58 24.12.2019
5692 Rain 7 1018 61 10000 3.6 240 18:40 24.12.2019
5693 Clouds 7 1019 66 10000 4.1 240 18:18 24.12.2019
5694 Clouds 7 1019 62 10000 5.1 240 17:42 24.12.2019
5695 Clouds 8 1018 66 10000 4.6 240 17:21 24.12.2019
5696 Clouds 8 1018 66 10000 4.6 240 16:56 24.12.2019
5697 Clouds 8 1018 71 10000 5.7 260 16:38 24.12.2019
5698 Clouds 8 1018 93 10000 6.7 330 16:20 24.12.2019
5699 Rain 8 1018 93 10000 6.7 330 15:56 24.12.2019
5700 Clouds 7 1017 93 10000 1 310 15:36 24.12.2019
5701 Clouds 7 1017 93 10000 1 310 15:36 24.12.2019
5702 Rain 7 1017 93 10000 2.1 130 15:18 24.12.2019
5703 Rain 7 1017 93 10000 2.1 130 14:56 24.12.2019
5704 Clouds 7 1017 93 10000 3.1 150 14:38 24.12.2019
5705 Drizzle 6 1017 93 8000 1 0 14:20 24.12.2019
5706 Drizzle 6 1017 93 8000 1 0 13:55 24.12.2019
5707 Rain 6 1017 93 10000 2.1 70 13:37 24.12.2019
5708 Clouds 5 1017 93 8000 1.5 150 13:19 24.12.2019
5709 Rain 5 1018 100 10000 1.5 110 12:55 24.12.2019
5710 Rain 5 1018 100 10000 1.5 110 12:36 24.12.2019
5711 Rain 5 1018 100 10000 3.1 110 12:18 24.12.2019
5712 Rain 5 1019 93 7000 1.5 0 11:55 24.12.2019
5713 Rain 4 1019 93 7000 1.5 0 11:36 24.12.2019
5714 Rain 4 1019 93 10000 1.5 310 11:18 24.12.2019
5715 Rain 4 1019 93 10000 1.5 310 10:55 24.12.2019
5716 Rain 4 1019 93 10000 1.5 310 10:55 24.12.2019
5717 Rain 4 1019 93 8000 2.1 340 10:37 24.12.2019
5718 Rain 3 1020 93 8000 2.6 320 10:19 24.12.2019
5719 Rain 3 1020 93 8000 1 0 09:54 24.12.2019
5720 Rain 3 1020 93 8000 1 0 09:36 24.12.2019
5721 Rain 3 1020 93 8000 2.6 310 09:18 24.12.2019
5722 Rain 3 1020 93 8000 0.5 0 08:43 24.12.2019
5723 Rain 3 1020 93 10000 1 300 08:20 24.12.2019
5724 Rain 3 1020 93 10000 1.5 190 07:45 24.12.2019
5725 Rain 3 1021 93 10000 1 0 07:25 24.12.2019
5726 Rain 3 1021 93 10000 1 0 06:57 24.12.2019
5727 Clouds 3 1021 86 10000 1 0 06:38 24.12.2019
5728 Clouds 3 1020 93 10000 0.5 0 06:18 24.12.2019
5729 Clouds 3 1020 93 10000 2.6 120 05:20 24.12.2019
5730 Clouds 3 1021 93 10000 2.6 120 04:36 24.12.2019
5731 Clouds 3 1021 90 10000 0.5 0 03:50 24.12.2019
5732 Clouds 3 1021 90 10000 2.1 100 02:59 24.12.2019
5733 Clouds 4 1021 80 10000 3.1 330 02:19 24.12.2019
5734 Clouds 4 1022 75 10000 1 0 01:42 24.12.2019
5735 Clouds 4 1022 93 10000 1.5 0 01:20 24.12.2019
5736 Clouds 4 1022 70 10000 1 0 00:43 24.12.2019
5737 Clouds 5 1022 70 10000 0.5 0 00:23 24.12.2019
5738 Clouds 4 1022 70 10000 0.5 0 23:55 23.12.2019
5739 Clouds 5 1022 70 10000 1 0 23:37 23.12.2019
5740 Clouds 5 1022 70 10000 1.5 230 23:19 23.12.2019
5741 Clouds 5 1021 80 10000 2.1 260 22:54 23.12.2019
5742 Clouds 5 1021 80 10000 2.1 260 22:36 23.12.2019
5743 Clouds 5 1021 80 10000 1 0 22:18 23.12.2019
5744 Clouds 5 1021 80 10000 1 0 21:55 23.12.2019
5745 Clouds 5 1021 86 10000 1.5 0 21:36 23.12.2019
5746 Clouds 5 1020 93 10000 1 0 21:18 23.12.2019
5747 Clouds 5 1020 93 10000 1 0 21:18 23.12.2019
5748 Clouds 5 1020 93 10000 1 0 20:55 23.12.2019
5749 Clouds 5 1020 93 10000 0.5 0 20:37 23.12.2019
5750 Drizzle 5 1020 93 10000 1 0 20:18 23.12.2019
5751 Drizzle 5 1020 93 10000 1 0 20:18 23.12.2019
5752 Rain 5 1019 86 10000 1.5 0 19:54 23.12.2019
5753 Rain 5 1019 86 10000 1.5 0 19:36 23.12.2019
5754 Rain 5 1019 86 10000 3.6 300 19:18 23.12.2019
5755 Drizzle 5 1019 81 10000 4.1 280 18:54 23.12.2019
5756 Drizzle 5 1019 81 10000 4.1 280 18:36 23.12.2019
5757 Rain 5 1018 75 10000 4.6 270 18:18 23.12.2019
5758 Drizzle 6 1018 81 10000 5.1 260 17:55 23.12.2019
5759 Drizzle 6 1018 81 10000 5.1 260 17:37 23.12.2019
5760 Drizzle 6 1018 81 10000 5.1 260 17:37 23.12.2019
5761 Clouds 6 1017 70 10000 6.2 260 17:18 23.12.2019
5762 Clouds 6 1017 70 10000 5.1 260 16:42 23.12.2019
5763 Clouds 6 1016 75 10000 6.2 260 16:19 23.12.2019
5764 Clouds 6 1016 75 10000 6.2 260 16:19 23.12.2019
5765 Clouds 6 1016 75 10000 6.2 260 15:58 23.12.2019
5766 Clouds 6 1016 75 10000 7.2 260 15:38 23.12.2019
5767 Rain 6 1015 70 10000 6.7 270 15:19 23.12.2019
5768 Rain 6 1015 70 10000 6.7 270 14:57 23.12.2019
5769 Rain 6 1015 75 10000 4.1 260 14:39 23.12.2019
5770 Rain 6 1014 75 10000 4.1 260 14:20 23.12.2019
5771 Rain 6 1014 75 10000 4.1 260 13:57 23.12.2019
5772 Rain 6 1014 75 10000 4.1 250 13:39 23.12.2019
5773 Rain 6 1014 75 10000 5.1 260 13:21 23.12.2019
5774 Rain 6 1014 81 7000 4.6 260 12:55 23.12.2019
5775 Rain 6 1014 81 7000 4.6 260 12:37 23.12.2019
5776 Rain 6 1014 75 7000 4.1 240 12:18 23.12.2019
5777 Rain 6 1014 70 10000 3.6 250 11:43 23.12.2019
5778 Clouds 5 1014 70 10000 4.1 240 11:25 23.12.2019
5779 Clouds 5 1013 75 10000 3.6 240 10:56 23.12.2019
5780 Clouds 5 1013 75 10000 3.6 240 10:38 23.12.2019
5781 Rain 5 1013 75 10000 3.1 250 10:20 23.12.2019
5782 Rain 5 1013 75 10000 3.1 250 09:59 23.12.2019
5783 Rain 5 1012 75 10000 4.1 260 09:39 23.12.2019
5784 Clouds 5 1012 75 10000 3.6 240 09:20 23.12.2019
5785 Rain 5 1012 75 10000 3.6 240 08:55 23.12.2019
5786 Rain 5 1011 75 6000 1.5 210 08:37 23.12.2019
5787 Rain 5 1011 75 10000 3.1 240 08:18 23.12.2019
5788 Drizzle 5 1011 75 10000 4.6 240 07:43 23.12.2019
5789 Rain 5 1010 75 10000 4.1 240 07:19 23.12.2019
5790 Rain 5 1009 80 10000 4.1 250 06:50 23.12.2019
5791 Rain 5 1009 80 9000 4.1 250 06:23 23.12.2019
5792 Rain 5 1008 80 10000 3.1 240 05:49 23.12.2019
5793 Drizzle 5 1008 75 10000 1 0 05:19 23.12.2019
5794 Rain 5 1008 80 10000 2.1 240 04:19 23.12.2019
5795 Rain 4 1006 70 10000 6.7 260 02:49 23.12.2019
5796 Rain 5 1006 80 10000 6.2 240 02:23 23.12.2019
5797 Rain 5 1005 80 6000 4.1 250 01:53 23.12.2019
5798 Rain 4 1005 80 6000 4.1 250 01:32 23.12.2019
5799 Rain 5 1004 80 10000 4.6 250 00:55 23.12.2019
5800 Drizzle 4 1004 80 10000 5.1 250 00:35 23.12.2019
5801 Rain 4 1003 80 10000 5.7 240 23:57 22.12.2019
5802 Rain 4 1003 80 10000 5.7 240 23:57 22.12.2019
5803 Rain 5 1003 80 8000 4.6 280 23:39 22.12.2019
5804 Rain 5 1002 80 10000 4.1 280 23:20 22.12.2019
5805 Rain 5 1002 80 10000 4.1 280 22:57 22.12.2019
5806 Rain 5 1001 80 10000 3.6 260 22:38 22.12.2019
5807 Rain 5 1001 80 10000 5.1 230 22:19 22.12.2019
5808 Rain 5 1001 80 10000 5.1 230 21:56 22.12.2019
5809 Rain 5 1001 80 10000 5.1 230 21:56 22.12.2019
5810 Rain 5 1000 81 10000 3.1 300 21:38 22.12.2019
5811 Rain 5 1000 81 10000 3.1 300 21:38 22.12.2019
5812 Drizzle 5 1000 86 10000 4.6 330 21:20 22.12.2019
5813 Drizzle 5 1000 86 10000 4.6 330 20:55 22.12.2019
5814 Clouds 5 1000 75 10000 5.7 330 20:37 22.12.2019
5815 Clouds 5 1000 75 10000 5.7 330 20:37 22.12.2019
5816 Rain 5 999 75 10000 4.1 280 20:18 22.12.2019
5817 Clouds 5 999 65 10000 3.1 240 19:41 22.12.2019
5818 Clouds 5 999 70 10000 2.1 0 19:21 22.12.2019
5819 Clouds 5 999 70 10000 2.1 0 18:58 22.12.2019
5820 Clouds 5 999 70 10000 4.1 250 18:38 22.12.2019
5821 Clouds 5 999 70 10000 3.1 250 18:19 22.12.2019
5822 Clouds 5 998 70 10000 2.6 210 17:55 22.12.2019
5823 Clouds 6 998 70 10000 2.6 210 17:37 22.12.2019
5824 Clouds 6 998 75 10000 3.1 230 17:18 22.12.2019
5825 Drizzle 6 998 75 10000 4.6 250 16:56 22.12.2019
5826 Drizzle 6 998 75 10000 4.6 250 16:56 22.12.2019
5827 Drizzle 6 998 75 10000 4.6 250 16:37 22.12.2019
5828 Rain 6 997 75 10000 5.1 240 16:19 22.12.2019
5829 Rain 6 996 86 10000 6.2 230 15:54 22.12.2019
5830 Rain 6 997 81 7000 2.6 260 15:36 22.12.2019
5831 Rain 6 997 81 7000 5.1 250 15:18 22.12.2019
5832 Rain 6 996 70 8000 7.2 260 14:39 22.12.2019
5833 Rain 6 995 75 8000 7.7 260 14:19 22.12.2019
5834 Rain 7 995 75 8000 7.7 260 13:56 22.12.2019
5835 Rain 7 995 75 10000 6.7 250 13:38 22.12.2019
5836 Rain 7 994 75 10000 7.7 240 13:20 22.12.2019
5837 Rain 7 994 75 10000 7.7 240 12:57 22.12.2019
5838 Rain 7 993 75 10000 7.2 240 12:39 22.12.2019
5839 Rain 7 993 75 10000 7.7 240 12:20 22.12.2019
5840 Rain 7 993 75 10000 7.7 240 11:59 22.12.2019
5841 Rain 6 992 70 10000 5.1 230 11:39 22.12.2019
5842 Rain 6 992 75 10000 4.1 230 11:20 22.12.2019
5843 Rain 6 991 70 10000 5.1 230 10:58 22.12.2019
5844 Rain 6 991 70 10000 5.1 230 10:40 22.12.2019
5845 Rain 6 991 70 10000 5.1 230 10:40 22.12.2019
5846 Rain 6 990 81 10000 3.6 210 10:20 22.12.2019
5847 Rain 6 990 81 10000 3.6 210 09:58 22.12.2019
5848 Drizzle 6 990 100 10000 1.5 0 09:40 22.12.2019
5849 Rain 5 990 100 7000 1 0 09:21 22.12.2019
5850 Rain 5 990 100 5000 1 0 08:45 22.12.2019
5851 Rain 5 989 100 10000 1 120 08:23 22.12.2019
5852 Drizzle 5 989 100 10000 2.1 160 07:52 22.12.2019
5853 Rain 5 989 100 10000 1.5 310 07:22 22.12.2019
5854 Rain 5 989 100 10000 1.5 310 06:57 22.12.2019
5855 Rain 4 989 100 10000 2.1 310 06:30 22.12.2019
5856 Clouds 5 988 93 10000 2.6 100 05:43 22.12.2019
5857 Rain 5 989 93 10000 0.5 0 05:21 22.12.2019
5858 Clouds 5 989 93 10000 1 90 04:27 22.12.2019
5859 Clouds 5 989 100 10000 1.5 120 03:28 22.12.2019
5860 Rain 5 990 93 10000 2.6 110 02:35 22.12.2019
5861 Rain 5 990 93 10000 1.5 0 01:33 22.12.2019
5862 Rain 5 990 100 10000 2.1 100 00:59 22.12.2019
5863 Drizzle 5 990 93 10000 1.5 110 00:41 22.12.2019
5864 Rain 5 991 93 10000 2.6 110 00:21 22.12.2019
5865 Rain 4 991 100 10000 3.1 110 23:42 21.12.2019
5866 Rain 4 991 100 9000 3.1 110 23:24 21.12.2019
5867 Rain 4 991 100 9000 3.1 110 22:58 21.12.2019
5868 Rain 4 991 100 6000 1.5 0 22:39 21.12.2019
5869 Rain 4 990 100 10000 1.5 170 22:19 21.12.2019
5870 Rain 3 990 100 10000 1.5 170 21:56 21.12.2019
5871 Rain 3 990 100 10000 1.5 170 21:56 21.12.2019
5872 Clouds 3 990 100 10000 1.5 0 21:37 21.12.2019
5873 Clouds 3 990 100 10000 2.1 130 21:19 21.12.2019
5874 Clouds 3 990 100 10000 2.1 130 20:57 21.12.2019
5875 Clouds 3 990 100 10000 2.6 90 20:38 21.12.2019
5876 Clouds 3 990 93 10000 2.1 140 20:20 21.12.2019
5877 Clouds 3 990 93 10000 2.1 140 19:57 21.12.2019
5878 Clouds 3 991 93 10000 2.1 120 19:39 21.12.2019
5879 Clouds 3 992 100 10000 1.5 150 19:19 21.12.2019
5880 Clouds 4 992 93 10000 2.6 120 18:42 21.12.2019
5881 Clouds 4 992 100 10000 2.1 80 18:23 21.12.2019
5882 Clouds 4 992 100 10000 2.1 80 17:57 21.12.2019
5883 Clouds 4 993 93 10000 2.6 120 17:39 21.12.2019
5884 Clouds 5 994 93 10000 2.1 110 17:20 21.12.2019
5885 Clouds 5 994 93 10000 2.1 110 16:57 21.12.2019
5886 Clouds 5 994 81 10000 1 110 16:39 21.12.2019
5887 Clouds 6 994 75 10000 2.1 160 16:18 21.12.2019
5888 Clouds 6 994 75 10000 2.1 160 15:56 21.12.2019
5889 Clouds 7 994 75 10000 1.5 170 15:37 21.12.2019
5890 Clouds 7 995 70 10000 3.6 290 15:18 21.12.2019
5891 Clouds 7 996 70 10000 3.1 300 14:44 21.12.2019
5892 Clouds 7 996 70 10000 3.1 300 14:25 21.12.2019
5893 Clouds 7 996 70 10000 1.5 0 13:59 21.12.2019
5894 Clouds 7 996 75 10000 1.5 110 13:40 21.12.2019
5895 Clouds 7 997 81 10000 2.1 100 13:20 21.12.2019
5896 Clouds 6 997 81 10000 2.1 100 12:57 21.12.2019
5897 Clouds 6 997 81 10000 1.5 0 12:39 21.12.2019
5898 Clouds 6 998 87 10000 1.5 0 12:21 21.12.2019
5899 Clouds 6 998 93 10000 1 0 11:57 21.12.2019
5900 Clouds 6 998 93 10000 1 0 11:39 21.12.2019
5901 Rain 5 998 93 10000 1.5 0 11:21 21.12.2019
5902 Rain 5 998 86 10000 2.6 140 10:41 21.12.2019
5903 Rain 5 997 93 10000 1 0 10:23 21.12.2019
5904 Rain 5 997 93 10000 1 0 09:59 21.12.2019
5905 Rain 5 997 100 8000 1.5 120 09:41 21.12.2019
5906 Rain 5 996 93 8000 2.6 140 09:20 21.12.2019
5907 Rain 4 996 100 5000 1.5 0 08:53 21.12.2019
5908 Rain 4 996 100 5000 2.1 140 08:27 21.12.2019
5909 Rain 4 996 100 5000 2.1 140 07:59 21.12.2019
5910 Rain 4 996 100 3200 1 180 07:41 21.12.2019
5911 Rain 4 996 100 5000 0.5 0 07:21 21.12.2019
5912 Rain 5 996 93 10000 2.1 160 06:42 21.12.2019
5913 Rain 5 996 93 9000 0.5 0 06:24 21.12.2019
5914 Rain 5 996 93 8000 0.5 0 05:43 21.12.2019
5915 Rain 5 996 93 9000 2.1 90 04:55 21.12.2019
5916 Rain 4 996 100 10000 1 0 03:56 21.12.2019
5917 Clouds 5 996 93 10000 2.6 100 02:39 21.12.2019
5918 Clouds 5 997 93 10000 1 0 01:53 21.12.2019
5919 Clouds 5 997 93 10000 1 0 01:26 21.12.2019
5920 Clouds 5 997 93 10000 2.1 110 00:49 21.12.2019
5921 Clouds 5 997 93 10000 2.1 110 00:28 21.12.2019
5922 Clouds 5 997 93 10000 1 70 23:55 20.12.2019
5923 Clouds 5 997 93 10000 2.1 90 23:36 20.12.2019
5924 Clouds 5 997 93 10000 1 150 23:18 20.12.2019
5925 Clouds 5 997 100 10000 1 140 22:40 20.12.2019
5926 Clouds 5 997 93 10000 1 0 22:20 20.12.2019
5927 Clouds 5 997 93 10000 1 0 21:57 20.12.2019
5928 Rain 6 997 87 10000 1.5 0 21:39 20.12.2019
5929 Drizzle 6 997 87 10000 2.6 330 21:18 20.12.2019
5930 Rain 6 998 81 10000 4.6 260 20:39 20.12.2019
5931 Rain 6 997 87 10000 4.1 310 20:19 20.12.2019
5932 Rain 7 997 81 10000 4.6 290 19:57 20.12.2019
5933 Rain 7 997 81 10000 4.6 290 19:39 20.12.2019
5934 Rain 7 996 81 10000 5.7 280 19:19 20.12.2019
5935 Rain 7 996 87 10000 5.1 280 18:42 20.12.2019
5936 Rain 7 996 87 10000 5.1 280 18:42 20.12.2019
5937 Rain 7 995 87 8000 6.7 270 18:23 20.12.2019
5938 Rain 8 994 76 10000 9.3 270 17:58 20.12.2019
5939 Rain 8 994 76 10000 9.3 270 17:40 20.12.2019
5940 Rain 8 994 76 10000 9.3 270 17:20 20.12.2019
5941 Rain 8 994 76 10000 10.3 270 16:59 20.12.2019
5942 Rain 8 992 76 10000 11.8 260 16:38 20.12.2019
5943 Rain 8 992 76 10000 11.8 260 16:20 20.12.2019
5944 Rain 8 992 76 10000 11.8 260 16:20 20.12.2019
5945 Drizzle 8 992 81 10000 11.8 260 15:56 20.12.2019
5946 Rain 7 992 87 10000 4.6 290 15:38 20.12.2019
5947 Rain 7 992 87 10000 4.6 290 15:19 20.12.2019
5948 Clouds 7 992 93 10000 2.1 0 14:43 20.12.2019
5949 Clouds 6 992 93 10000 1.42 210 14:24 20.12.2019
5950 Clouds 6 992 93 10000 1.5 0 13:59 20.12.2019
5951 Clouds 6 992 93 10000 1.5 0 13:59 20.12.2019
5952 Clouds 6 992 93 10000 1.5 0 13:40 20.12.2019
5953 Clouds 6 992 93 10000 1 0 13:19 20.12.2019
5954 Clouds 6 992 93 10000 1 0 12:57 20.12.2019
5955 Rain 6 993 100 10000 1.5 300 12:37 20.12.2019
5956 Rain 6 993 100 10000 1.5 300 12:18 20.12.2019
5957 Rain 6 994 93 10000 1 0 11:57 20.12.2019
5958 Rain 6 994 93 10000 1 0 11:39 20.12.2019
5959 Rain 4 994 93 10000 1.5 0 11:18 20.12.2019
5960 Clouds 4 995 93 10000 1.5 0 10:56 20.12.2019
5961 Clouds 4 995 93 10000 1.5 0 10:38 20.12.2019
5962 Clouds 4 995 93 10000 1.5 0 10:20 20.12.2019
5963 Clouds 4 995 93 10000 1.5 0 10:20 20.12.2019
5964 Clouds 4 995 100 10000 1 0 09:43 20.12.2019
5965 Clouds 4 995 93 10000 1 0 09:22 20.12.2019
5966 Clouds 3 995 100 10000 3.6 350 08:58 20.12.2019
5967 Clouds 3 995 100 10000 3.6 350 08:40 20.12.2019
5968 Clouds 3 994 100 10000 3.1 340 08:21 20.12.2019
5969 Fog 2 994 91 5000 2.1 330 07:57 20.12.2019
5970 Fog 2 995 100 900 1 0 07:38 20.12.2019
5971 Fog 2 995 100 900 1 0 07:18 20.12.2019
5972 Fog 2 996 100 6000 0.5 0 06:48 20.12.2019
5973 Fog 2 996 100 3900 1.5 0 06:29 20.12.2019
5974 Fog 2 997 100 2000 0.5 0 05:49 20.12.2019
5975 Mist 2 998 100 3400 0.5 0 05:20 20.12.2019
5976 Mist 3 1000 91 4400 2.1 340 03:50 20.12.2019
5977 Clouds 3 1001 91 7000 0.5 0 03:28 20.12.2019
5978 Clouds 3 1003 93 10000 2.6 70 02:33 20.12.2019
5979 Clouds 4 1005 93 10000 3.1 100 01:36 20.12.2019
5980 Clouds 3 1006 93 9000 2.6 170 00:58 20.12.2019
5981 Clouds 3 1006 93 9000 2.6 170 00:39 20.12.2019
5982 Clouds 4 1007 93 9000 2.1 0 23:58 19.12.2019
5983 Clouds 4 1007 93 9000 2.1 0 23:40 19.12.2019
5984 Clouds 4 1006 100 9000 2.1 300 23:21 19.12.2019
5985 Clouds 4 1005 100 10000 2.6 330 22:40 19.12.2019
5986 Clouds 4 1005 100 10000 2.6 330 22:40 19.12.2019
5987 Clouds 4 1005 93 5000 3.1 300 22:22 19.12.2019
5988 Clouds 4 1005 93 10000 1.5 0 21:59 19.12.2019
5989 Clouds 4 1005 93 10000 1.5 0 21:41 19.12.2019
5990 Clouds 4 1007 100 10000 2.6 90 21:20 19.12.2019
5991 Clouds 4 1008 100 10000 2.6 120 20:58 19.12.2019
5992 Clouds 4 1009 100 10000 0.5 0 20:38 19.12.2019
5993 Clouds 4 1009 100 10000 0.5 0 20:20 19.12.2019
5994 Clouds 4 1010 93 10000 1 0 19:58 19.12.2019
5995 Clouds 4 1010 93 10000 1 0 19:40 19.12.2019
5996 Clouds 4 1010 93 10000 1 0 19:40 19.12.2019
5997 Clouds 5 1010 86 10000 3.6 100 19:20 19.12.2019
5998 Clouds 5 1010 86 10000 3.6 100 19:20 19.12.2019
5999 Clouds 5 1010 86 10000 3.6 110 18:59 19.12.2019
6000 Clouds 5 1010 86 10000 3.6 110 18:40 19.12.2019
6001 Clouds 5 1011 93 10000 3.1 130 18:20 19.12.2019
6002 Clouds 5 1011 93 10000 1 130 17:56 19.12.2019
6003 Clouds 6 1011 87 10000 2.1 160 17:38 19.12.2019
6004 Clouds 6 1011 87 10000 2.1 160 17:18 19.12.2019
6005 Clouds 7 1011 81 10000 1.5 340 16:56 19.12.2019
6006 Clouds 7 1011 81 10000 1.5 340 16:56 19.12.2019
6007 Clouds 7 1011 76 10000 2.1 310 16:38 19.12.2019
6008 Clouds 7 1011 76 10000 2.1 310 16:38 19.12.2019
6009 Clouds 8 1011 76 10000 2.1 310 16:19 19.12.2019
6010 Clouds 8 1011 76 10000 2.1 310 16:19 19.12.2019
6011 Clouds 8 1010 71 10000 1 0 15:58 19.12.2019
6012 Clouds 7 1010 76 10000 1.5 0 15:38 19.12.2019
6013 Clouds 8 1010 76 10000 1.5 0 15:19 19.12.2019
6014 Clouds 8 1011 76 10000 0.5 0 14:57 19.12.2019
6015 Clouds 8 1011 76 10000 0.5 0 14:39 19.12.2019
6016 Clouds 8 1011 76 10000 0.5 0 14:18 19.12.2019
6017 Clouds 7 1013 87 10000 1.5 270 13:39 19.12.2019
6018 Clouds 7 1013 87 10000 1.5 270 13:20 19.12.2019
6019 Clouds 6 1013 93 10000 1 0 12:59 19.12.2019
6020 Clouds 7 1013 93 10000 1 0 12:40 19.12.2019
6021 Clouds 7 1014 93 10000 1 320 12:19 19.12.2019
6022 Clouds 7 1014 100 10000 0.5 0 12:19 19.12.2019
6023 Clouds 6 1014 100 10000 0.5 0 11:59 19.12.2019
6024 Clouds 6 1015 100 10000 1 290 11:41 19.12.2019
6025 Clouds 5 1015 100 10000 1 290 11:20 19.12.2019
6026 Clouds 5 1015 100 10000 1 290 11:20 19.12.2019
6027 Clouds 5 1015 100 10000 1 290 11:20 19.12.2019
6028 Clouds 4 1015 100 10000 0.5 0 10:59 19.12.2019
6029 Fog 5 1015 100 200 0.54 209 10:38 19.12.2019
6030 Clouds 4 1015 79 7000 0.5 0 10:20 19.12.2019
6031 Fog 4 1015 79 8000 0.5 0 09:57 19.12.2019
6032 Fog 3 1015 93 200 0.5 0 09:38 19.12.2019
6033 Fog 3 1015 93 200 0.5 0 09:19 19.12.2019
6034 Fog 3 1015 93 200 0.5 0 09:19 19.12.2019
6035 Fog 3 1016 92 5000 1 0 08:55 19.12.2019
6036 Fog 3 1016 79 5000 1 0 08:37 19.12.2019
6037 Fog 3 1016 87 5000 1 0 08:18 19.12.2019
6038 Fog 3 1016 100 150 0.5 360 07:54 19.12.2019
6039 Fog 2 1017 93 100 1.13 167 07:36 19.12.2019
6040 Fog 2 1017 93 100 1.13 167 07:18 19.12.2019
6041 Fog 2 1017 100 150 0.5 0 06:42 19.12.2019
6042 Fog 2 1017 93 100 0.5 70 06:23 19.12.2019
6043 Fog 2 1017 100 100 0.5 210 05:45 19.12.2019
6044 Fog 2 1017 100 150 0.5 0 05:20 19.12.2019
6045 Fog 3 1018 100 100 0.5 240 03:54 19.12.2019
6046 Fog 3 1018 100 50 0.5 0 02:30 19.12.2019
6047 Fog 3 1018 100 100 0.5 30 01:27 19.12.2019
6048 Fog 3 1018 100 150 0.5 0 00:59 19.12.2019
6049 Fog 3 1018 93 150 0.5 260 00:39 19.12.2019
6050 Fog 3 1018 93 150 0.5 260 00:19 19.12.2019
6051 Fog 4 1018 100 100 1 270 23:45 18.12.2019
6052 Fog 4 1018 100 100 1 270 23:45 18.12.2019
6053 Fog 4 1018 93 0 1 190 23:19 18.12.2019
6054 Fog 4 1018 93 200 0.8 151 22:58 18.12.2019
6055 Clouds 4 1018 100 5000 0.5 120 22:40 18.12.2019
6056 Clouds 4 1018 100 5000 0.5 120 22:22 18.12.2019
6057 Fog 5 1018 100 250 0.8 151 21:59 18.12.2019
6058 Fog 5 1018 100 250 0.8 151 21:40 18.12.2019
6059 Fog 5 1018 100 800 0.5 0 21:20 18.12.2019
6060 Fog 5 1018 100 6000 1 0 20:57 18.12.2019
6061 Drizzle 5 1018 93 1500 0.5 280 20:38 18.12.2019
6062 Drizzle 5 1018 93 1500 0.5 280 20:20 18.12.2019
6063 Clouds 5 1018 100 6000 0.5 0 19:57 18.12.2019
6064 Clouds 6 1018 93 10000 0.5 0 19:39 18.12.2019
6065 Clouds 6 1018 93 10000 0.5 0 19:19 18.12.2019
6066 Clouds 6 1018 100 10000 1 0 18:55 18.12.2019
6067 Clouds 6 1018 86 10000 1 107 18:37 18.12.2019
6068 Clouds 7 1018 86 10000 1 107 18:18 18.12.2019
6069 Clouds 7 1018 87 10000 1 0 17:55 18.12.2019
6070 Clouds 7 1018 87 10000 1 0 17:55 18.12.2019
6071 Clouds 8 1017 87 10000 1 0 17:37 18.12.2019
6072 Clouds 8 1017 81 10000 0.96 53 17:18 18.12.2019
6073 Clouds 9 1017 81 10000 0.96 53 16:42 18.12.2019
6074 Clouds 10 1017 71 10000 1 0 16:23 18.12.2019
6075 Clouds 11 1017 66 10000 1 260 15:57 18.12.2019
6076 Clouds 11 1017 66 10000 1 260 15:39 18.12.2019
6077 Clouds 11 1017 66 10000 2.1 290 15:21 18.12.2019
6078 Clouds 11 1017 66 10000 1.5 0 14:56 18.12.2019
6079 Clouds 11 1017 66 10000 1.5 0 14:38 18.12.2019
6080 Clouds 11 1018 71 10000 1.5 0 14:19 18.12.2019
6081 Clouds 11 1018 81 10000 0.5 0 13:55 18.12.2019
6082 Clouds 11 1018 81 10000 0.5 0 13:36 18.12.2019
6083 Clouds 10 1018 81 10000 0.5 0 13:18 18.12.2019
6084 Clouds 10 1018 81 10000 0.5 0 13:18 18.12.2019
6085 Clouds 10 1018 87 10000 1.04 19 12:40 18.12.2019
6086 Clouds 9 1018 87 10000 1 0 12:21 18.12.2019
6087 Clouds 9 1019 87 10000 1.5 0 11:57 18.12.2019
6088 Clouds 8 1019 87 10000 1.5 0 11:39 18.12.2019
6089 Clouds 8 1018 87 10000 1 0 11:20 18.12.2019
6090 Clouds 8 1019 93 10000 1.04 94 10:58 18.12.2019
6091 Clouds 7 1019 93 10000 1.04 94 10:39 18.12.2019
6092 Clouds 7 1018 93 10000 1 0 10:20 18.12.2019
6093 Clouds 7 1018 93 10000 1 0 09:58 18.12.2019
6094 Clouds 6 1018 100 10000 0.5 0 09:20 18.12.2019
6095 Rain 6 1018 100 10000 1.5 0 08:55 18.12.2019
6096 Rain 6 1018 100 10000 1.5 0 08:37 18.12.2019
6097 Clouds 6 1017 93 10000 1 0 08:19 18.12.2019
6098 Clouds 6 1017 93 10000 1 0 07:42 18.12.2019
6099 Clouds 6 1017 93 10000 1 0 07:21 18.12.2019
6100 Clouds 6 1016 93 10000 1 0 06:52 18.12.2019
6101 Clouds 6 1016 93 10000 1.14 147 06:26 18.12.2019
6102 Clouds 6 1016 93 10000 0.5 0 05:37 18.12.2019
6103 Clouds 6 1015 93 10000 1 0 04:33 18.12.2019
6104 Drizzle 6 1014 100 10000 0.5 0 02:48 18.12.2019
6105 Drizzle 6 1014 100 10000 0.5 0 02:29 18.12.2019
6106 Clouds 5 1014 100 10000 0.5 0 01:46 18.12.2019
6107 Clouds 5 1014 100 10000 0.5 0 01:27 18.12.2019
6108 Clouds 5 1013 93 10000 0.5 0 00:59 18.12.2019
6109 Clouds 5 1014 93 10000 0.5 0 00:39 18.12.2019
6110 Clouds 5 1013 100 10000 1 0 00:21 18.12.2019
6111 Clouds 5 1013 100 10000 1 0 23:44 17.12.2019
6112 Clouds 5 1012 100 10000 0.5 0 23:24 17.12.2019
6113 Clouds 5 1012 82 7000 2.1 120 22:57 17.12.2019
6114 Clouds 5 1012 82 7000 2.1 120 22:39 17.12.2019
6115 Clouds 4 1012 100 7000 1 0 22:20 17.12.2019
6116 Clouds 4 1012 100 7000 1 0 21:57 17.12.2019
6117 Fog 5 1011 93 6000 1 0 21:39 17.12.2019
6118 Fog 5 1011 93 6000 1 0 21:39 17.12.2019
6119 Clouds 5 1011 93 6000 1.5 0 21:20 17.12.2019
6120 Clouds 5 1011 93 6000 1.5 0 20:59 17.12.2019
6121 Clouds 5 1010 100 10000 1.5 120 20:40 17.12.2019
6122 Clouds 5 1010 100 10000 2.1 320 20:19 17.12.2019
6123 Clouds 5 1010 100 10000 2.1 320 19:59 17.12.2019
6124 Clouds 5 1010 93 10000 1.5 350 19:41 17.12.2019
6125 Clouds 6 1009 93 10000 1 0 19:20 17.12.2019
6126 Clouds 6 1009 93 10000 1 0 18:58 17.12.2019
6127 Clouds 6 1009 87 10000 2.1 180 18:39 17.12.2019
6128 Clouds 6 1009 81 10000 2.1 100 18:20 17.12.2019
6129 Clouds 7 1009 87 10000 2.6 120 17:55 17.12.2019
6130 Clouds 7 1009 87 10000 2.6 120 17:37 17.12.2019
6131 Clouds 8 1009 87 10000 1.5 0 17:18 17.12.2019
6132 Clouds 8 1009 87 10000 1 0 16:55 17.12.2019
6133 Clouds 8 1009 87 10000 1 0 16:37 17.12.2019
6134 Clouds 8 1009 87 10000 1.5 0 16:18 17.12.2019
6135 Clouds 8 1009 87 10000 1 0 15:38 17.12.2019
6136 Clouds 9 1009 87 10000 1.5 0 15:20 17.12.2019
6137 Clouds 8 1009 87 10000 1.5 0 14:57 17.12.2019
6138 Clouds 8 1008 87 10000 1.5 0 14:39 17.12.2019
6139 Clouds 9 1008 81 10000 1 170 14:19 17.12.2019
6140 Clouds 9 1008 81 10000 1 170 14:19 17.12.2019
6141 Clouds 8 1008 81 10000 1 170 13:59 17.12.2019
6142 Clouds 8 1008 87 10000 1.5 310 13:41 17.12.2019
6143 Clouds 8 1008 87 10000 1.5 280 13:19 17.12.2019
6144 Clouds 8 1008 87 10000 1.5 280 12:59 17.12.2019
6145 Clouds 8 1008 87 10000 1.5 280 12:59 17.12.2019
6146 Clouds 8 1008 87 10000 1 0 12:39 17.12.2019
6147 Clouds 8 1008 93 10000 1 0 12:18 17.12.2019
6148 Clouds 8 1008 93 10000 1 0 11:58 17.12.2019
6149 Clouds 7 1008 93 10000 1 0 11:37 17.12.2019
6150 Clouds 7 1009 93 10000 1 0 11:18 17.12.2019
6151 Clouds 6 1009 100 10000 1.5 0 10:58 17.12.2019
6152 Clouds 6 1009 100 10000 1.5 0 10:39 17.12.2019
6153 Clouds 5 1009 100 10000 1 0 10:19 17.12.2019
6154 Clouds 5 1008 100 10000 0.5 0 09:56 17.12.2019
6155 Clouds 5 1008 100 10000 0.5 0 09:38 17.12.2019
6156 Clouds 5 1008 100 10000 1.5 120 09:19 17.12.2019
6157 Clouds 5 1008 100 10000 1 280 08:55 17.12.2019
6158 Clouds 5 1008 100 10000 1 280 08:36 17.12.2019
6159 Clouds 4 1008 100 10000 0.5 0 08:18 17.12.2019
6160 Clouds 4 1007 100 6000 1 0 07:42 17.12.2019
6161 Clouds 4 1007 93 6000 0.5 0 07:23 17.12.2019
6162 Clouds 4 1007 93 10000 1 0 06:53 17.12.2019
6163 Clouds 4 1007 100 9000 0.5 0 06:32 17.12.2019
6164 Clouds 4 1006 100 10000 1 0 05:52 17.12.2019
6165 Clouds 4 1006 100 10000 1 0 05:32 17.12.2019
6166 Clouds 4 1006 100 10000 2.6 140 04:19 17.12.2019
6167 Clouds 4 1006 100 9000 1 0 02:27 17.12.2019
6168 Clouds 4 1006 100 10000 1 0 01:34 17.12.2019
6169 Clouds 4 1006 100 10000 1 0 00:49 17.12.2019
6170 Clouds 4 1006 93 9000 1 0 00:22 17.12.2019
6171 Clouds 4 1006 93 9000 1 0 23:59 16.12.2019
6172 Clouds 4 1007 100 9000 0.5 0 23:40 16.12.2019
6173 Clouds 5 1007 100 10000 0.5 0 23:18 16.12.2019
6174 Clouds 5 1007 100 10000 0.5 0 22:55 16.12.2019
6175 Clouds 5 1007 100 10000 0.5 0 22:36 16.12.2019
6176 Clouds 5 1007 93 10000 1.5 0 22:18 16.12.2019
6177 Clouds 5 1007 93 10000 0.5 0 21:54 16.12.2019
6178 Clouds 5 1007 93 10000 0.5 0 21:36 16.12.2019
6179 Clouds 5 1007 93 10000 0.5 0 21:18 16.12.2019
6180 Clouds 5 1007 93 10000 1 0 20:56 16.12.2019
6181 Clouds 5 1007 93 10000 1 0 20:37 16.12.2019
6182 Clouds 5 1007 93 10000 2.1 120 20:18 16.12.2019
6183 Clouds 5 1007 93 10000 3.1 150 19:55 16.12.2019
6184 Clouds 5 1007 93 10000 3.1 150 19:36 16.12.2019
6185 Clouds 5 1008 93 10000 2.1 320 19:18 16.12.2019
6186 Clouds 5 1008 100 10000 0.5 0 18:54 16.12.2019
6187 Clouds 5 1008 100 10000 0.5 0 18:36 16.12.2019
6188 Clouds 5 1008 93 10000 1.5 130 18:18 16.12.2019
6189 Clouds 5 1008 93 10000 1.5 160 17:55 16.12.2019
6190 Clouds 5 1009 93 10000 0.5 170 17:37 16.12.2019
6191 Clouds 6 1009 80 10000 1.5 0 17:18 16.12.2019
6192 Clouds 6 1009 81 10000 1 90 16:54 16.12.2019
6193 Clouds 7 1009 81 10000 1 90 16:36 16.12.2019
6194 Clouds 7 1009 81 10000 1 0 16:18 16.12.2019
6195 Clouds 8 1009 81 10000 0.5 0 15:54 16.12.2019
6196 Clouds 8 1009 81 10000 0.5 0 15:36 16.12.2019
6197 Clouds 8 1009 75 10000 0.5 0 15:18 16.12.2019
6198 Clouds 8 1009 75 10000 1 260 14:54 16.12.2019
6199 Clouds 8 1009 75 10000 1 260 14:36 16.12.2019
6200 Clouds 8 1009 75 10000 0.5 0 14:18 16.12.2019
6201 Clouds 8 1009 81 10000 1 0 13:38 16.12.2019
6202 Clouds 8 1010 75 10000 0.85 285 13:20 16.12.2019
6203 Clouds 8 1010 75 10000 0.85 285 12:58 16.12.2019
6204 Clouds 8 1010 70 10000 1 0 12:40 16.12.2019
6205 Clouds 8 1010 70 10000 1 0 12:20 16.12.2019
6206 Clouds 7 1010 81 10000 2.6 120 11:59 16.12.2019
6207 Clouds 7 1010 81 10000 2.6 120 11:41 16.12.2019
6208 Clouds 6 1011 86 10000 1 0 11:21 16.12.2019
6209 Clouds 6 1011 93 10000 1 310 10:58 16.12.2019
6210 Clouds 5 1011 93 10000 1 310 10:40 16.12.2019
6211 Clouds 5 1011 100 10000 0.5 0 10:20 16.12.2019
6212 Clouds 4 1011 100 10000 0.5 0 09:46 16.12.2019
6213 Clouds 4 1011 100 10000 0.5 0 09:28 16.12.2019
6214 Clouds 4 1011 76 10000 0.5 0 08:58 16.12.2019
6215 Clouds 4 1011 76 10000 0.5 0 08:38 16.12.2019
6216 Clouds 3 1011 81 10000 1 160 08:18 16.12.2019
6217 Clouds 3 1011 79 10000 1 0 07:47 16.12.2019
6218 Clouds 4 1011 79 10000 1 0 07:29 16.12.2019
6219 Clouds 4 1011 79 10000 0.5 0 06:46 16.12.2019
6220 Clouds 4 1011 79 10000 1.5 160 06:26 16.12.2019
6221 Clouds 4 1011 79 10000 1 0 05:54 16.12.2019
6222 Clouds 4 1011 79 10000 1 0 05:35 16.12.2019
6223 Clouds 4 1011 77 10000 0.5 0 04:27 16.12.2019
6224 Clouds 5 1012 93 10000 0.5 0 02:36 16.12.2019
6225 Clouds 5 1012 93 10000 0.5 340 01:45 16.12.2019
6226 Clouds 5 1011 86 10000 1.5 0 00:54 16.12.2019
6227 Clouds 5 1011 86 10000 1.5 0 00:36 16.12.2019
6228 Clouds 5 1011 93 10000 1.5 130 00:18 16.12.2019
6229 Clouds 6 1011 86 10000 1 0 23:40 15.12.2019
6230 Clouds 6 1011 93 10000 1.5 0 23:21 15.12.2019
6231 Clouds 6 1011 93 10000 2.1 110 22:56 15.12.2019
6232 Clouds 6 1011 93 10000 2.1 110 22:38 15.12.2019
6233 Clouds 6 1011 86 10000 3.1 110 22:18 15.12.2019
6234 Clouds 7 1011 86 10000 3.1 110 21:57 15.12.2019
6235 Clouds 7 1011 86 10000 3.1 100 21:38 15.12.2019
6236 Clouds 7 1011 93 10000 3.1 100 21:19 15.12.2019
6237 Clouds 7 1011 86 10000 2.1 120 20:56 15.12.2019
6238 Clouds 7 1011 86 10000 2.1 120 20:56 15.12.2019
6239 Clouds 7 1011 86 10000 2.1 120 20:37 15.12.2019
6240 Clouds 8 1011 86 10000 1 0 20:19 15.12.2019
6241 Clouds 8 1011 86 10000 1 0 19:57 15.12.2019
6242 Clouds 8 1011 87 10000 2.1 0 19:39 15.12.2019
6243 Clouds 8 1011 87 10000 2.1 100 19:18 15.12.2019
6244 Clouds 8 1010 81 10000 1.5 0 18:56 15.12.2019
6245 Clouds 8 1010 81 10000 1.5 0 18:38 15.12.2019
6246 Clouds 9 1010 62 10000 1.5 0 18:18 15.12.2019
6247 Clouds 9 1010 70 10000 1 0 17:56 15.12.2019
6248 Clouds 9 1010 70 10000 1 0 17:37 15.12.2019
6249 Clouds 10 1010 54 10000 3.6 270 17:18 15.12.2019
6250 Clouds 11 1009 58 10000 5.7 270 16:55 15.12.2019
6251 Clouds 11 1009 58 10000 5.7 270 16:55 15.12.2019
6252 Clouds 11 1009 58 10000 5.7 270 16:37 15.12.2019
6253 Clouds 11 1009 58 10000 5.7 270 16:18 15.12.2019
6254 Clouds 12 1009 58 10000 6.7 280 15:54 15.12.2019
6255 Clouds 11 1009 58 10000 6.7 280 15:36 15.12.2019
6256 Clouds 12 1009 58 10000 4.1 290 15:18 15.12.2019
6257 Clouds 12 1009 62 10000 4.1 280 14:54 15.12.2019
6258 Clouds 12 1009 62 10000 4.1 280 14:36 15.12.2019
6259 Clouds 12 1009 71 10000 1 0 14:18 15.12.2019
6260 Clouds 12 1009 71 10000 1 0 14:18 15.12.2019
6261 Clouds 12 1009 71 10000 1.5 0 13:54 15.12.2019
6262 Clouds 12 1009 71 10000 1.5 0 13:36 15.12.2019
6263 Clouds 11 1009 71 10000 2.1 140 13:18 15.12.2019
6264 Clouds 11 1009 71 10000 4.24 235 12:55 15.12.2019
6265 Clouds 12 1009 71 10000 4.24 235 12:36 15.12.2019
6266 Clouds 11 1009 71 10000 1.5 170 12:18 15.12.2019
6267 Clouds 11 1009 81 10000 4.24 235 11:38 15.12.2019
6268 Clouds 10 1009 81 10000 3.19 216 11:19 15.12.2019
6269 Clouds 10 1009 81 10000 3.19 216 11:19 15.12.2019
6270 Clouds 10 1009 81 10000 3.19 216 10:56 15.12.2019
6271 Clouds 9 1009 81 10000 3.19 216 10:38 15.12.2019
6272 Clouds 9 1009 87 10000 1 0 10:19 15.12.2019
6273 Clouds 9 1009 87 10000 1 0 09:58 15.12.2019
6274 Clouds 9 1009 86 10000 1 0 09:37 15.12.2019
6275 Clouds 9 1009 93 10000 2.6 90 09:19 15.12.2019
6276 Clouds 9 1008 86 10000 2.6 110 08:54 15.12.2019
6277 Clouds 9 1008 86 10000 2.6 110 08:36 15.12.2019
6278 Clouds 8 1008 93 10000 2.1 90 08:18 15.12.2019
6279 Clouds 8 1008 100 10000 1 0 07:43 15.12.2019
6280 Clouds 8 1008 86 10000 1 0 07:25 15.12.2019
6281 Clouds 8 1007 93 10000 1 0 06:26 15.12.2019
6282 Clouds 8 1007 93 10000 1.5 0 05:42 15.12.2019
6283 Clouds 8 1007 93 10000 1 0 05:21 15.12.2019
6284 Clouds 7 1007 100 10000 1.5 0 04:21 15.12.2019
6285 Rain 7 1007 100 10000 1 0 02:55 15.12.2019
6286 Rain 7 1007 100 10000 1 0 02:32 15.12.2019
6287 Clouds 7 1007 93 10000 2.1 130 01:41 15.12.2019
6288 Rain 7 1007 93 10000 1 0 01:19 15.12.2019
6289 Rain 7 1007 93 10000 1 0 00:49 15.12.2019
6290 Rain 7 1007 93 10000 1 0 00:31 15.12.2019
6291 Clouds 7 1007 81 10000 2.6 350 23:41 14.12.2019
6292 Clouds 7 1007 87 10000 3.6 340 23:23 14.12.2019
6293 Clouds 7 1008 81 10000 3.6 330 22:59 14.12.2019
6294 Clouds 7 1008 81 10000 3.6 330 22:41 14.12.2019
6295 Clouds 8 1008 66 10000 3.1 0 22:22 14.12.2019
6296 Clouds 8 1008 66 10000 3.1 0 21:58 14.12.2019
6297 Clouds 8 1008 61 10000 5.1 170 21:39 14.12.2019
6298 Clouds 8 1008 62 10000 4.6 200 21:19 14.12.2019
6299 Clouds 8 1008 62 10000 4.6 200 20:59 14.12.2019
6300 Clouds 8 1009 57 10000 2.6 0 20:41 14.12.2019
6301 Clouds 8 1009 76 10000 1 0 20:20 14.12.2019
6302 Rain 8 1009 76 10000 1 0 19:57 14.12.2019
6303 Rain 8 1008 71 10000 1.5 0 19:39 14.12.2019
6304 Rain 8 1008 71 10000 2.1 0 19:20 14.12.2019
6305 Clouds 8 1008 66 10000 2.1 0 18:56 14.12.2019
6306 Clouds 8 1008 66 10000 2.1 0 18:38 14.12.2019
6307 Clouds 8 1008 66 10000 2.1 0 18:38 14.12.2019
6308 Clouds 8 1008 57 10000 2.6 0 18:19 14.12.2019
6309 Clouds 9 1008 57 10000 2.6 240 17:44 14.12.2019
6310 Clouds 9 1007 57 10000 3.1 0 17:24 14.12.2019
6311 Clouds 9 1007 57 10000 2.6 250 16:59 14.12.2019
6312 Clouds 9 1007 57 10000 2.6 250 16:40 14.12.2019
6313 Clouds 9 1007 53 10000 5.7 230 16:19 14.12.2019
6314 Clouds 9 1007 53 10000 5.7 230 16:19 14.12.2019
6315 Clouds 9 1007 84 10000 4.1 260 15:43 14.12.2019
6316 Clouds 9 1006 43 10000 5.1 260 15:25 14.12.2019
6317 Clouds 9 1006 43 10000 5.1 260 15:25 14.12.2019
6318 Clouds 9 1006 43 10000 5.1 260 14:59 14.12.2019
6319 Clouds 9 1006 43 10000 4.6 230 14:40 14.12.2019
6320 Clouds 9 1006 43 10000 7.2 270 14:21 14.12.2019
6321 Clouds 9 1006 43 10000 7.2 270 13:59 14.12.2019
6322 Clouds 9 1006 43 10000 7.2 270 13:41 14.12.2019
6323 Clouds 9 1005 40 10000 10.3 280 13:19 14.12.2019
6324 Clouds 9 1005 40 10000 10.3 280 13:19 14.12.2019
6325 Clouds 9 1005 50 10000 7.7 280 12:56 14.12.2019
6326 Clouds 9 1005 50 10000 7.7 280 12:37 14.12.2019
6327 Clouds 9 1004 50 10000 7.7 270 12:19 14.12.2019
6328 Clouds 9 1004 81 10000 8.2 270 11:56 14.12.2019
6329 Clouds 9 1004 81 10000 8.2 270 11:37 14.12.2019
6330 Clouds 8 1003 88 10000 5.1 270 11:18 14.12.2019
6331 Clouds 8 1003 57 10000 5.1 250 10:56 14.12.2019
6332 Clouds 8 1003 57 10000 5.1 250 10:38 14.12.2019
6333 Clouds 8 1002 57 10000 5.1 190 10:19 14.12.2019
6334 Clouds 8 1001 66 10000 5.7 0 09:42 14.12.2019
6335 Rain 8 1000 66 7000 6.2 230 09:21 14.12.2019
6336 Rain 7 1000 66 7000 6.2 230 08:56 14.12.2019
6337 Rain 7 1000 66 7000 6.2 230 08:56 14.12.2019
6338 Rain 8 999 66 10000 6.7 230 08:37 14.12.2019
6339 Clouds 7 999 66 10000 7.2 260 08:18 14.12.2019
6340 Rain 7 997 66 10000 6.7 240 07:40 14.12.2019
6341 Rain 7 996 66 10000 3.6 230 07:20 14.12.2019
6342 Rain 7 996 66 10000 7.7 0 06:45 14.12.2019
6343 Rain 6 996 70 10000 5.7 0 06:22 14.12.2019
6344 Clouds 5 996 100 10000 1.5 0 05:43 14.12.2019
6345 Rain 3 997 86 10000 1.5 20 03:44 14.12.2019
6346 Rain 3 996 69 6000 2.6 210 02:23 14.12.2019
6347 Clouds 3 996 74 10000 3.6 140 01:44 14.12.2019
6348 Clouds 3 996 74 10000 4.6 150 00:59 14.12.2019
6349 Clouds 3 998 74 10000 3.1 160 00:40 14.12.2019
6350 Clouds 3 998 74 10000 3.6 150 00:20 14.12.2019
6351 Clouds 3 998 69 10000 3.6 190 23:41 13.12.2019
6352 Clouds 3 998 69 10000 3.6 180 23:19 13.12.2019
6353 Clouds 3 998 69 10000 2.6 220 22:56 13.12.2019
6354 Clouds 2 998 69 10000 2.6 220 22:37 13.12.2019
6355 Clouds 3 998 69 10000 5.7 240 22:18 13.12.2019
6356 Rain 3 998 69 10000 6.2 240 21:44 13.12.2019
6357 Rain 3 997 93 10000 4.1 270 21:22 13.12.2019
6358 Clouds 3 997 93 10000 4.1 270 20:59 13.12.2019
6359 Clouds 3 997 64 10000 4.6 250 20:39 13.12.2019
6360 Clouds 3 996 64 10000 5.1 210 20:20 13.12.2019
6361 Clouds 3 996 64 10000 5.1 210 19:56 13.12.2019
6362 Clouds 3 996 69 10000 4.1 240 19:38 13.12.2019
6363 Clouds 3 996 69 10000 4.1 240 19:19 13.12.2019
6364 Clouds 3 995 69 10000 6.7 250 18:54 13.12.2019
6365 Rain 3 994 69 10000 5.1 250 18:36 13.12.2019
6366 Rain 3 994 69 10000 5.1 250 18:18 13.12.2019
6367 Rain 3 994 69 10000 5.1 250 18:18 13.12.2019
6368 Clouds 3 993 69 10000 3.6 230 17:40 13.12.2019
6369 Clouds 4 993 69 10000 3.6 230 17:18 13.12.2019
6370 Clouds 4 992 69 10000 5.7 240 16:56 13.12.2019
6371 Clouds 4 991 96 10000 6.2 230 16:38 13.12.2019
6372 Clouds 3 991 96 10000 6.2 230 16:20 13.12.2019
6373 Clouds 3 990 65 10000 6.7 240 15:42 13.12.2019
6374 Clouds 3 990 80 10000 7.7 250 15:21 13.12.2019
6375 Clouds 4 989 65 10000 6.7 260 14:57 13.12.2019
6376 Clouds 4 989 96 10000 2.6 0 14:38 13.12.2019
6377 Rain 4 989 84 10000 2.6 0 14:19 13.12.2019
6378 Rain 3 989 80 10000 3.1 220 13:43 13.12.2019
6379 Rain 3 989 93 3000 7.2 280 13:24 13.12.2019
6380 Rain 3 988 75 10000 3.6 220 12:58 13.12.2019
6381 Rain 3 987 80 10000 7.7 240 12:40 13.12.2019
6382 Rain 4 988 86 10000 6.2 260 12:18 13.12.2019
6383 Rain 3 988 80 2500 6.7 260 11:44 13.12.2019
6384 Rain 3 986 75 10000 4.6 240 11:26 13.12.2019
6385 Rain 3 986 75 10000 5.1 250 10:57 13.12.2019
6386 Rain 3 985 80 10000 5.1 250 10:39 13.12.2019
6387 Rain 3 985 80 10000 5.1 250 10:21 13.12.2019
6388 Snow 2 984 98 2000 1.5 0 09:42 13.12.2019
6389 Snow 2 984 98 2000 1.5 0 09:21 13.12.2019
6390 Snow 2 983 98 3000 2.1 330 08:55 13.12.2019
6391 Snow 2 982 98 3500 1.5 290 08:36 13.12.2019
6392 Snow 1 982 98 3500 1.5 290 08:18 13.12.2019
6393 Snow 1 982 98 3500 1 0 07:42 13.12.2019
6394 Snow 1 983 98 3000 1 0 07:19 13.12.2019
6395 Snow 1 984 98 2600 0.5 0 06:39 13.12.2019
6396 Snow 1 984 98 2600 0.5 0 06:20 13.12.2019
6397 Clouds 1 986 98 10000 1 0 05:37 13.12.2019
6398 Clouds 1 986 86 10000 1 0 05:19 13.12.2019
6399 Clouds 1 989 86 10000 2.6 110 03:55 13.12.2019
6400 Snow 0 991 100 800 1.5 100 02:35 13.12.2019
6401 Snow 0 991 100 4800 0.5 0 01:54 13.12.2019
6402 Snow 0 992 92 10000 1 270 01:27 13.12.2019
6403 Snow 0 993 92 7000 0.5 0 00:47 13.12.2019
6404 Snow 0 993 92 10000 1.5 100 00:26 13.12.2019
6405 Clouds 0 994 92 10000 1 0 23:42 12.12.2019
6406 Clouds 0 994 92 10000 0.5 0 23:24 12.12.2019
6407 Clouds -1 995 86 10000 2.1 110 22:56 12.12.2019
6408 Clouds -1 996 86 10000 1.5 130 22:38 12.12.2019
6409 Clouds -1 996 86 10000 1.5 130 22:38 12.12.2019
6410 Clouds 0 996 86 10000 1.5 130 22:20 12.12.2019
6411 Clouds -1 996 92 10000 1 0 21:56 12.12.2019
6412 Clouds -1 997 92 10000 1 0 21:37 12.12.2019
6413 Clouds -1 997 92 10000 1 0 21:19 12.12.2019
6414 Clouds -1 998 92 10000 1 0 20:58 12.12.2019
6415 Clouds -1 998 92 10000 1.5 320 20:40 12.12.2019
6416 Clouds -1 998 92 10000 1.5 320 20:21 12.12.2019
6417 Clouds -1 999 86 10000 1 290 19:56 12.12.2019
6418 Clouds 0 999 92 10000 2.6 110 19:37 12.12.2019
6419 Clouds 0 999 92 10000 2.6 110 19:18 12.12.2019
6420 Clouds 0 1000 89 10000 3.1 130 18:55 12.12.2019
6421 Clouds 0 1001 89 10000 1.5 140 18:37 12.12.2019
6422 Clouds 0 1001 89 10000 1.5 140 18:19 12.12.2019
6423 Clouds 1 1002 69 10000 1.42 153 17:56 12.12.2019
6424 Clear 1 1002 89 10000 1.5 0 17:38 12.12.2019
6425 Clear 1 1002 85 10000 1.5 0 17:19 12.12.2019
6426 Clear 2 1003 69 10000 2.6 260 16:54 12.12.2019
6427 Clouds 2 1003 64 10000 3.6 270 16:36 12.12.2019
6428 Clouds 3 1003 64 10000 3.6 270 16:18 12.12.2019
6429 Clouds 3 1003 56 10000 2.6 250 15:42 12.12.2019
6430 Clouds 4 1004 56 10000 4.6 270 15:20 12.12.2019
6431 Clouds 4 1004 56 10000 4.6 270 15:20 12.12.2019
6432 Clouds 4 1005 56 10000 5.1 280 14:57 12.12.2019
6433 Clouds 4 1005 56 10000 5.1 280 14:57 12.12.2019
6434 Clouds 4 1005 60 10000 4.6 270 14:37 12.12.2019
6435 Clouds 4 1005 60 10000 4.6 270 14:19 12.12.2019
6436 Clouds 4 1006 56 10000 4.1 270 13:55 12.12.2019
6437 Clouds 4 1007 56 10000 4.1 0 13:37 12.12.2019
6438 Clouds 4 1007 56 10000 4.1 0 13:18 12.12.2019
6439 Clouds 4 1007 64 10000 4.6 230 12:55 12.12.2019
6440 Clouds 4 1007 69 10000 3.6 250 12:36 12.12.2019
6441 Clouds 4 1007 69 10000 3.6 250 12:18 12.12.2019
6442 Clouds 3 1008 69 10000 2.1 240 11:40 12.12.2019
6443 Clouds 3 1008 74 10000 3.6 290 11:22 12.12.2019
6444 Clouds 3 1008 74 10000 3.6 280 10:59 12.12.2019
6445 Clouds 3 1008 74 10000 3.6 280 10:59 12.12.2019
6446 Clouds 2 1008 80 10000 1.5 310 10:41 12.12.2019
6447 Rain 2 1008 80 10000 1.5 310 10:22 12.12.2019
6448 Rain 2 1008 84 10000 1.5 0 09:57 12.12.2019
6449 Rain 2 1008 74 10000 4.1 270 09:39 12.12.2019
6450 Snow 2 1008 74 10000 4.1 270 09:20 12.12.2019
6451 Clouds 2 1008 74 10000 6.2 250 08:50 12.12.2019
6452 Rain 2 1008 84 10000 5.7 240 08:29 12.12.2019
6453 Rain 2 1008 98 10000 3.6 250 07:59 12.12.2019
6454 Rain 2 1008 98 10000 4.1 250 07:39 12.12.2019
6455 Rain 2 1008 98 10000 4.1 250 07:20 12.12.2019
6456 Rain 2 1007 93 8000 3.1 240 06:42 12.12.2019
6457 -273 0 0 0 0 0 06:23 12.12.2019
6458 Rain 1 1007 98 2800 1 100 05:34 12.12.2019
6459 Snow 1 1007 95 1400 1 0 04:48 12.12.2019
6460 Mist 1 1008 95 2100 0.5 0 02:44 12.12.2019
6461 Mist 1 1008 95 2400 1 300 02:25 12.12.2019
6462 Mist 1 1008 93 3200 1 0 01:59 12.12.2019
6463 Clouds 2 1008 93 5000 2.1 100 01:36 12.12.2019
6464 Clouds 2 1009 100 6000 1 0 00:50 12.12.2019
6465 Clouds 2 1009 100 7000 2.1 110 00:22 12.12.2019
6466 Clouds 2 1009 93 10000 2.6 130 23:58 11.12.2019
6467 Clouds 2 1009 93 10000 3.1 120 23:39 11.12.2019
6468 Clouds 2 1009 93 10000 3.1 120 23:19 11.12.2019
6469 Clouds 2 1010 93 10000 2.1 180 22:56 11.12.2019
6470 Drizzle 2 1010 93 10000 1.5 130 22:38 11.12.2019
6471 Drizzle 2 1010 93 10000 1.5 130 22:19 11.12.2019
6472 Rain 2 1011 93 10000 1.5 90 21:55 11.12.2019
6473 Rain 2 1011 93 6000 1.5 80 21:36 11.12.2019
6474 Snow 2 1011 93 6000 1.5 80 21:18 11.12.2019
6475 Clouds 2 1011 100 10000 3.1 110 20:55 11.12.2019
6476 Clouds 2 1011 93 10000 1.5 100 20:36 11.12.2019
6477 Clouds 2 1011 93 10000 1.5 100 20:18 11.12.2019
6478 Rain 2 1012 98 8000 3.6 110 19:42 11.12.2019
6479 Rain 2 1012 98 8000 3.6 110 19:23 11.12.2019
6480 Rain 2 1012 98 8000 3.6 110 19:23 11.12.2019
6481 Rain 2 1011 93 9000 3.1 240 18:59 11.12.2019
6482 Rain 2 1011 86 8000 4.1 290 18:40 11.12.2019
6483 Rain 2 1011 86 8000 4.1 290 18:20 11.12.2019
6484 Rain 2 1011 86 9000 5.1 310 17:56 11.12.2019
6485 Rain 2 1010 98 6000 7.2 280 17:38 11.12.2019
6486 Rain 2 1010 80 6000 7.2 280 17:18 11.12.2019
6487 Rain 2 1010 86 10000 1 0 16:56 11.12.2019
6488 Clouds 2 1010 86 10000 1 0 16:37 11.12.2019
6489 Clouds 2 1010 86 10000 1 0 16:18 11.12.2019
6490 Clouds 2 1010 86 10000 0.5 0 15:56 11.12.2019
6491 Clouds 2 1010 86 10000 1 210 15:37 11.12.2019
6492 Clouds 2 1010 86 10000 1 210 15:19 11.12.2019
6493 Clouds 2 1010 86 10000 0.5 0 14:55 11.12.2019
6494 Clouds 2 1011 86 10000 1 0 14:36 11.12.2019
6495 Clouds 2 1011 86 10000 1 0 14:18 11.12.2019
6496 Clouds 2 1012 86 10000 1.5 0 13:43 11.12.2019
6497 -273 0 0 0 0 0 13:23 11.12.2019
6498 Clouds 2 1013 86 10000 1.5 130 12:58 11.12.2019
6499 Clouds 1 1013 55 10000 1 0 12:39 11.12.2019
6500 Clouds 1 1013 55 10000 1 0 12:21 11.12.2019
6501 Clouds 1 1014 55 10000 1.5 160 11:58 11.12.2019
6502 Clouds 1 1015 55 10000 1.5 0 11:39 11.12.2019
6503 Clouds 1 1015 55 10000 1.5 0 11:19 11.12.2019
6504 Clouds 1 1015 55 10000 1.5 0 11:19 11.12.2019
6505 Clouds 0 1015 55 10000 1.5 0 10:59 11.12.2019
6506 Clouds 0 1015 92 10000 1.5 160 10:39 11.12.2019
6507 Clouds 0 1015 92 10000 1.5 160 10:21 11.12.2019
6508 Clouds 0 1016 86 10000 1.5 110 09:56 11.12.2019
6509 Clouds -1 1016 92 10000 2.6 100 09:38 11.12.2019
6510 Clouds -1 1016 92 10000 2.6 100 09:19 11.12.2019
6511 Clouds -1 1016 92 10000 2.1 120 08:55 11.12.2019
6512 Clouds -1 1016 86 10000 2.6 110 08:36 11.12.2019
6513 Clouds -2 1016 86 10000 2.6 110 08:18 11.12.2019
6514 Clouds -2 1017 92 10000 1.5 150 07:42 11.12.2019
6515 Clouds -2 1017 92 10000 2.1 160 07:22 11.12.2019
6516 Clouds -2 1017 92 10000 1 0 06:46 11.12.2019
6517 Clouds -2 1018 92 10000 3.1 100 06:24 11.12.2019
6518 Clouds -2 1018 92 10000 3.1 110 05:54 11.12.2019
6519 Clouds -3 1018 92 10000 2.1 150 05:33 11.12.2019
6520 Clouds -3 1019 92 10000 1 120 04:49 11.12.2019
6521 Clouds -3 1020 92 10000 1 0 03:19 11.12.2019
6522 Clouds -3 1021 92 10000 2.6 110 02:31 11.12.2019
6523 Clouds -2 1022 92 10000 1.5 120 01:21 11.12.2019
6524 Clouds -2 1022 92 10000 2.1 100 00:37 11.12.2019
6525 Clouds -2 1022 92 10000 2.1 100 00:18 11.12.2019
6526 Clouds -2 1022 92 10000 1.5 130 23:43 10.12.2019
6527 Clouds -2 1023 100 10000 1.5 170 23:22 10.12.2019
6528 Clouds -2 1023 92 10000 0.5 0 22:56 10.12.2019
6529 Clouds -2 1023 92 10000 1 0 22:38 10.12.2019
6530 Clouds -1 1023 92 10000 1 0 22:20 10.12.2019
6531 Clouds -1 1023 92 10000 2.6 90 21:54 10.12.2019
6532 Clouds -1 1023 86 10000 2.1 120 21:36 10.12.2019
6533 Clouds -1 1023 86 10000 2.1 120 21:18 10.12.2019
6534 Clouds -1 1023 92 10000 1 140 20:55 10.12.2019
6535 Clouds -1 1024 86 10000 2.6 100 20:36 10.12.2019
6536 Clear -1 1024 86 10000 2.6 100 20:18 10.12.2019
6537 Clear -1 1024 92 10000 1.5 0 19:42 10.12.2019
6538 Clear 0 1023 86 10000 1.5 330 19:24 10.12.2019
6539 Clear 0 1023 91 10000 2.6 310 18:56 10.12.2019
6540 Clear 0 1024 91 10000 2.1 130 18:38 10.12.2019
6541 Clear 0 1024 91 10000 2.1 130 18:19 10.12.2019
6542 Clear 0 1024 80 10000 2.6 130 17:54 10.12.2019
6543 Clear 1 1025 74 10000 2.1 160 17:36 10.12.2019
6544 Clear 1 1025 74 10000 2.1 160 17:18 10.12.2019
6545 Clear 3 1026 60 10000 1.5 90 16:41 10.12.2019
6546 Clear 3 1026 60 10000 1.5 90 16:20 10.12.2019
6547 Clear 3 1026 60 10000 2.6 80 15:40 10.12.2019
6548 Clear 5 1026 60 10000 2.6 80 15:19 10.12.2019
6549 Clear 5 1026 60 10000 2.6 80 14:59 10.12.2019
6550 Clouds 5 1026 52 10000 2.1 100 14:41 10.12.2019
6551 Clouds 5 1026 52 10000 2.1 100 14:23 10.12.2019
6552 Clouds 5 1027 52 10000 1.5 90 13:59 10.12.2019
6553 Clouds 5 1027 52 10000 1.5 90 13:40 10.12.2019
6554 Clouds 5 1027 52 10000 2.6 90 13:20 10.12.2019
6555 Clouds 5 1027 56 10000 2.1 90 12:55 10.12.2019
6556 Clouds 5 1027 60 10000 2.1 80 12:36 10.12.2019
6557 Clouds 5 1027 60 10000 2.1 80 12:18 10.12.2019
6558 Clouds 4 1027 60 10000 1 320 11:40 10.12.2019
6559 Rain 4 1028 69 10000 0.5 0 11:22 10.12.2019
6560 Rain 3 1027 87 10000 3.6 120 10:44 10.12.2019
6561 Clouds 2 1028 86 10000 2.1 110 10:25 10.12.2019
6562 Clouds 2 1028 93 10000 0.5 0 09:58 10.12.2019
6563 Clouds 2 1028 93 10000 0.5 0 09:40 10.12.2019
6564 Clouds 1 1028 87 10000 2.1 100 09:22 10.12.2019
6565 Clouds 1 1028 87 10000 2.1 100 09:22 10.12.2019
6566 Clouds 1 1028 87 10000 1.5 110 08:59 10.12.2019
6567 Clouds 1 1028 87 10000 1.5 110 08:40 10.12.2019
6568 Clouds 1 1027 94 10000 1.5 110 08:22 10.12.2019
6569 Clouds 1 1027 95 10000 0.5 0 07:54 10.12.2019
6570 Clouds 2 1027 95 10000 1 0 07:36 10.12.2019
6571 Clouds 2 1027 95 10000 1 0 07:18 10.12.2019
6572 Clouds 2 1026 93 10000 0.5 0 06:42 10.12.2019
6573 Clouds 2 1026 93 10000 0.5 0 06:19 10.12.2019
6574 Clouds 2 1025 93 10000 1 0 05:51 10.12.2019
6575 Drizzle 3 1024 97 5000 3.1 360 04:50 10.12.2019
6576 Rain 3 1023 93 10000 1 0 03:31 10.12.2019
6577 Clouds 4 1021 80 10000 2.1 330 02:36 10.12.2019
6578 Rain 4 1021 80 10000 2.1 360 01:42 10.12.2019
6579 Rain 4 1020 80 10000 2.6 290 01:19 10.12.2019
6580 Rain 4 1019 80 10000 4.6 260 00:38 10.12.2019
6581 Rain 4 1019 80 10000 4.6 260 00:18 10.12.2019
6582 Rain 4 1019 86 10000 6.7 260 23:40 09.12.2019
6583 Rain 4 1018 75 10000 6.2 260 23:22 09.12.2019
6584 Rain 4 1017 86 6000 5.7 260 22:57 09.12.2019
6585 Rain 4 1017 75 10000 4.6 250 22:39 09.12.2019
6586 Rain 4 1017 75 10000 4.6 250 22:18 09.12.2019
6587 Clouds 4 1017 80 10000 6.2 250 21:56 09.12.2019
6588 Clouds 4 1016 80 10000 6.7 260 21:38 09.12.2019
6589 Clouds 4 1016 80 10000 6.7 260 21:18 09.12.2019
6590 Clouds 4 1015 80 10000 5.7 260 20:56 09.12.2019
6591 Clouds 4 1014 80 10000 4.6 260 20:38 09.12.2019
6592 Clouds 5 1014 80 10000 4.6 260 20:19 09.12.2019
6593 Rain 5 1013 80 10000 6.7 260 19:55 09.12.2019
6594 Rain 5 1013 80 7000 6.2 260 19:37 09.12.2019
6595 Rain 5 1013 80 7000 6.2 260 19:19 09.12.2019
6596 Rain 5 1012 80 10000 5.7 250 18:56 09.12.2019
6597 Drizzle 5 1011 75 10000 6.7 250 18:37 09.12.2019
6598 Drizzle 5 1011 75 10000 6.7 250 18:18 09.12.2019
6599 Rain 5 1010 75 8000 5.7 250 17:56 09.12.2019
6600 Rain 5 1010 81 5000 6.7 250 17:37 09.12.2019
6601 Rain 5 1010 81 5000 6.7 250 17:19 09.12.2019
6602 Rain 5 1009 81 10000 6.7 250 16:55 09.12.2019
6603 Rain 5 1008 81 6000 4.6 250 16:36 09.12.2019
6604 Rain 5 1008 81 6000 4.6 250 16:18 09.12.2019
6605 Rain 5 1008 81 4000 7.7 230 15:55 09.12.2019
6606 Rain 5 1008 70 10000 6.2 240 15:36 09.12.2019
6607 Rain 5 1008 70 10000 6.2 240 15:36 09.12.2019
6608 Rain 6 1008 70 10000 6.2 240 15:18 09.12.2019
6609 Rain 6 1007 75 10000 4.6 250 14:42 09.12.2019
6610 Rain 5 1008 70 10000 8.2 240 14:19 09.12.2019
6611 Rain 5 1008 70 10000 6.2 240 13:57 09.12.2019
6612 Rain 5 1008 81 10000 4.6 270 13:38 09.12.2019
6613 Rain 5 1008 81 10000 4.6 270 13:19 09.12.2019
6614 Rain 5 1008 75 8000 4.6 200 12:56 09.12.2019
6615 Rain 6 1008 70 6000 4.1 220 12:38 09.12.2019
6616 Rain 6 1008 70 6000 4.1 220 12:19 09.12.2019
6617 Rain 6 1008 95 10000 5.7 220 11:56 09.12.2019
6618 Drizzle 6 1009 61 10000 5.7 240 11:37 09.12.2019
6619 Drizzle 6 1009 61 10000 5.7 240 11:18 09.12.2019
6620 Clouds 6 1008 85 10000 5.7 230 10:41 09.12.2019
6621 Clouds 6 1009 61 10000 4.6 220 10:41 09.12.2019
6622 Clouds 6 1009 61 10000 4.6 220 10:20 09.12.2019
6623 Rain 6 1009 70 10000 7.2 230 09:59 09.12.2019
6624 Rain 6 1009 70 10000 5.7 240 09:41 09.12.2019
6625 Rain 6 1009 70 10000 5.7 240 09:21 09.12.2019
6626 Clouds 6 1009 70 10000 4.1 220 08:44 09.12.2019
6627 Clouds 6 1009 70 10000 3.1 230 08:26 09.12.2019
6628 Clouds 6 1009 61 10000 3.1 240 07:57 09.12.2019
6629 Clouds 6 1009 65 10000 4.1 0 07:38 09.12.2019
6630 Clouds 6 1009 65 10000 4.1 0 07:20 09.12.2019
6631 Clouds 6 1010 70 10000 4.1 230 06:43 09.12.2019
6632 Rain 6 1010 61 10000 3.1 250 06:24 09.12.2019
6633 Rain 6 1010 70 10000 2.6 0 05:27 09.12.2019
6634 Clouds 6 1011 70 10000 2.1 0 04:46 09.12.2019
6635 Clouds 6 1012 75 10000 4.1 270 03:20 09.12.2019
6636 Rain 7 1011 81 7000 7.7 270 02:24 09.12.2019
6637 Rain 7 1011 62 10000 12.3 290 01:42 09.12.2019
6638 Rain 7 1011 62 10000 12.3 290 01:42 09.12.2019
6639 Clouds 8 1011 62 10000 4.6 250 00:46 09.12.2019
6640 Clouds 8 1011 62 10000 3.6 240 00:26 09.12.2019
6641 Clouds 8 1011 70 10000 1.5 0 23:41 08.12.2019
6642 Clouds 8 1011 86 10000 1 0 23:23 08.12.2019
6643 Clouds 8 1011 81 10000 1.5 0 22:57 08.12.2019
6644 Clouds 8 1011 81 10000 1.5 0 22:57 08.12.2019
6645 Clouds 8 1011 86 10000 3.1 320 22:38 08.12.2019
6646 Clouds 8 1011 86 10000 3.1 320 22:19 08.12.2019
6647 Rain 8 1011 86 10000 2.1 330 21:58 08.12.2019
6648 Rain 8 1011 86 10000 2.1 330 21:40 08.12.2019
6649 Clouds 8 1011 86 10000 1.5 80 21:20 08.12.2019
6650 Clouds 8 1011 86 10000 1.5 80 21:20 08.12.2019
6651 Clouds 8 1011 81 10000 1 200 20:57 08.12.2019
6652 Rain 8 1011 75 10000 4.1 90 20:38 08.12.2019
6653 Rain 8 1011 75 10000 4.1 90 20:20 08.12.2019
6654 Rain 8 1011 75 10000 4.1 90 20:20 08.12.2019
6655 Clouds 8 1012 75 10000 4.1 120 19:58 08.12.2019
6656 Clouds 8 1012 75 10000 4.1 120 19:40 08.12.2019
6657 Clouds 8 1012 81 10000 3.1 90 19:22 08.12.2019
6658 Clouds 8 1013 86 10000 2.6 100 18:55 08.12.2019
6659 Clouds 8 1013 86 10000 2.6 100 18:55 08.12.2019
6660 Clouds 7 1013 81 10000 2.1 120 18:37 08.12.2019
6661 Clouds 7 1013 81 10000 2.1 120 18:19 08.12.2019
6662 Clouds 7 1013 81 10000 1 0 17:56 08.12.2019
6663 Rain 7 1013 81 10000 1.5 90 17:38 08.12.2019
6664 Clouds 8 1013 81 10000 1.5 90 17:19 08.12.2019
6665 Clouds 8 1014 70 10000 2.1 100 16:56 08.12.2019
6666 Clouds 8 1014 61 10000 1 140 16:38 08.12.2019
6667 Clouds 8 1014 61 10000 1 140 16:20 08.12.2019
6668 Clouds 9 1014 66 10000 3.1 160 15:54 08.12.2019
6669 Clouds 9 1014 61 10000 3.6 150 15:36 08.12.2019
6670 Clouds 9 1014 61 10000 3.6 150 15:18 08.12.2019
6671 Clouds 9 1015 61 10000 1.5 0 14:41 08.12.2019
6672 Clouds 9 1015 61 10000 1.5 0 14:22 08.12.2019
6673 Clouds 9 1016 71 10000 2.1 0 13:57 08.12.2019
6674 Clouds 9 1016 61 10000 1.5 0 13:39 08.12.2019
6675 Clouds 9 1016 61 10000 1.5 0 13:21 08.12.2019
6676 Clouds 9 1016 75 10000 2.6 140 12:55 08.12.2019
6677 Clouds 9 1017 75 10000 4.1 140 12:37 08.12.2019
6678 Clouds 9 1017 75 10000 4.1 140 12:18 08.12.2019
6679 Clouds 8 1018 81 10000 3.1 120 11:55 08.12.2019
6680 Clouds 7 1018 86 10000 2.6 80 11:37 08.12.2019
6681 Rain 6 1018 86 10000 2.6 80 11:18 08.12.2019
6682 Clouds 5 1018 93 10000 4.6 120 10:39 08.12.2019
6683 Clouds 4 1018 93 10000 4.6 120 10:20 08.12.2019
6684 Clouds 3 1018 83 10000 4.1 110 09:58 08.12.2019
6685 Clouds 3 1018 83 10000 1 0 09:39 08.12.2019
6686 Clouds 3 1018 83 10000 1 0 09:20 08.12.2019
6687 Clouds 2 1018 100 10000 2.6 110 08:58 08.12.2019
6688 Clouds 2 1018 100 10000 2.6 110 08:39 08.12.2019
6689 Clouds 2 1018 100 10000 0.5 0 08:21 08.12.2019
6690 Clouds 2 1018 100 10000 1 0 07:44 08.12.2019
6691 Clouds 1 1018 100 10000 0.5 0 07:20 08.12.2019
6692 Clouds 2 1018 93 10000 0.5 0 06:51 08.12.2019
6693 Clouds 2 1018 93 10000 1 0 06:23 08.12.2019
6694 Clouds 2 1018 93 10000 2.1 120 05:51 08.12.2019
6695 Clouds 2 1019 93 10000 1 0 05:18 08.12.2019
6696 Clouds 2 1020 93 10000 2.6 110 03:51 08.12.2019
6697 Clouds 2 1020 93 10000 3.1 110 03:26 08.12.2019
6698 Clouds 3 1020 93 10000 1.5 120 02:40 08.12.2019
6699 Clouds 3 1020 94 10000 1 0 01:56 08.12.2019
6700 Clouds 3 1020 100 10000 0.5 0 01:33 08.12.2019
6701 Clouds 4 1020 94 10000 1.5 160 00:42 08.12.2019
6702 Clouds 4 1021 93 10000 1 0 00:21 08.12.2019
6703 Clouds 4 1021 93 10000 2.1 110 23:55 07.12.2019
6704 Clouds 5 1021 86 10000 2.6 110 23:36 07.12.2019
6705 Clouds 5 1021 86 10000 2.6 110 23:18 07.12.2019
6706 Clouds 5 1021 93 10000 2.1 120 22:54 07.12.2019
6707 Clouds 5 1021 93 10000 2.1 150 22:36 07.12.2019
6708 Clouds 5 1021 93 10000 2.1 150 22:36 07.12.2019
6709 Clouds 5 1021 93 10000 2.1 150 22:18 07.12.2019
6710 Clouds 5 1021 100 10000 2.1 0 21:54 07.12.2019
6711 Clouds 5 1021 93 10000 0.5 0 21:36 07.12.2019
6712 Clouds 5 1021 93 10000 0.5 0 21:18 07.12.2019
6713 Clouds 6 1021 86 10000 1 0 20:37 07.12.2019
6714 Clouds 6 1021 86 10000 1 0 20:19 07.12.2019
6715 Clouds 6 1020 75 10000 1.5 270 19:57 07.12.2019
6716 Clouds 7 1020 81 10000 3.6 310 19:38 07.12.2019
6717 Clouds 7 1020 81 10000 3.6 310 19:20 07.12.2019
6718 Clouds 7 1020 76 10000 2.1 320 18:55 07.12.2019
6719 Clouds 7 1020 70 10000 2.6 300 18:36 07.12.2019
6720 Clouds 7 1020 70 10000 2.6 300 18:18 07.12.2019
6721 Clouds 7 1020 76 10000 1.5 320 17:42 07.12.2019
6722 Clouds 8 1019 66 10000 1 0 17:24 07.12.2019
6723 Clouds 8 1019 76 10000 1.5 0 16:58 07.12.2019
6724 Clouds 9 1019 76 10000 1.5 0 16:39 07.12.2019
6725 Clouds 9 1019 76 10000 1.63 236 16:21 07.12.2019
6726 Rain 9 1019 71 10000 1.5 250 15:57 07.12.2019
6727 Rain 9 1019 62 10000 1 0 15:38 07.12.2019
6728 Rain 10 1019 62 10000 1 0 15:20 07.12.2019
6729 Rain 10 1019 62 10000 1 0 15:20 07.12.2019
6730 Clouds 10 1019 66 10000 1.5 320 14:42 07.12.2019
6731 Clouds 10 1019 66 10000 2.1 310 14:19 07.12.2019
6732 Clouds 10 1019 66 10000 3.1 280 13:58 07.12.2019
6733 Clouds 10 1019 66 10000 3.1 280 13:58 07.12.2019
6734 Rain 10 1019 71 10000 3.1 300 13:39 07.12.2019
6735 Rain 10 1019 71 10000 3.1 300 13:19 07.12.2019
6736 Rain 10 1019 62 10000 4.1 320 12:41 07.12.2019
6737 Rain 10 1019 62 10000 5.1 310 12:23 07.12.2019
6738 Clouds 10 1019 61 10000 2.1 330 11:59 07.12.2019
6739 Clouds 10 1019 61 10000 2.1 330 11:41 07.12.2019
6740 Clouds 9 1020 70 10000 2.1 320 11:22 07.12.2019
6741 Clouds 8 1019 66 10000 2.6 310 10:39 07.12.2019
6742 Clouds 7 1019 66 10000 2.6 310 10:20 07.12.2019
6743 Clouds 7 1019 66 10000 3.1 310 09:59 07.12.2019
6744 Rain 7 1019 75 10000 3.6 310 09:38 07.12.2019
6745 Rain 7 1019 75 10000 3.6 310 09:38 07.12.2019
6746 Rain 7 1019 75 10000 3.6 310 09:20 07.12.2019
6747 Clouds 7 1019 66 10000 1 0 08:45 07.12.2019
6748 Rain 6 1019 61 10000 2.6 340 08:21 07.12.2019
6749 Clouds 6 1018 57 10000 3.1 290 07:47 07.12.2019
6750 Clouds 7 1018 57 10000 2.6 260 07:28 07.12.2019
6751 Clouds 7 1018 53 10000 4.6 280 06:52 07.12.2019
6752 Rain 7 1018 57 10000 3.6 0 06:25 07.12.2019
6753 Clouds 7 1017 89 10000 2.6 290 05:44 07.12.2019
6754 Clouds 7 1017 49 10000 1.5 0 04:41